<?xml version="1.0" encoding="UTF-8" standalone="no" ?>
<gpx xmlns="http://www.topografix.com/GPX/1/1" xmlns:xsi="http://www.w3.org/2001/XMLSchema-instance" xsi:schemaLocation="http://www.topografix.com/GPX/1/1 http://www.topografix.com/GPX/1/1/gpx.xsd" version="1.1" creator="VisuGPX - https://www.visugpx.com">
  <metadata>
    <name>MB. Sortie du 14/07/2019</name>
    <desc><![CDATA[Sortie VTT du dimanche 14 juillet 2019]]></desc>
  </metadata>
  <trk>
    <name><![CDATA[Pornichet Cyclisme]]></name>
    <trkseg>
      <trkpt lat="47.26406" lon="-2.31566">
        <ele>2</ele>
        <time>2019-07-14T06:58:16.000Z</time>
      </trkpt>
      <trkpt lat="47.26406" lon="-2.31582">
        <ele>2</ele>
        <time>2019-07-14T06:58:19.000Z</time>
      </trkpt>
      <trkpt lat="47.26406" lon="-2.31588">
        <ele>1.6000000238419</ele>
        <time>2019-07-14T06:58:20.000Z</time>
      </trkpt>
      <trkpt lat="47.26406" lon="-2.3161">
        <ele>1.6000000238419</ele>
        <time>2019-07-14T06:58:24.000Z</time>
      </trkpt>
      <trkpt lat="47.26407" lon="-2.31653">
        <ele>1.6000000238419</ele>
        <time>2019-07-14T06:58:32.000Z</time>
      </trkpt>
      <trkpt lat="47.26407" lon="-2.31661">
        <ele>1.6000000238419</ele>
        <time>2019-07-14T06:58:34.000Z</time>
      </trkpt>
      <trkpt lat="47.26405" lon="-2.31665">
        <ele>1.6000000238419</ele>
        <time>2019-07-14T06:58:36.000Z</time>
      </trkpt>
      <trkpt lat="47.26394" lon="-2.3167">
        <ele>1.6000000238419</ele>
        <time>2019-07-14T06:58:40.000Z</time>
      </trkpt>
      <trkpt lat="47.26378" lon="-2.31683">
        <ele>1.6000000238419</ele>
        <time>2019-07-14T06:58:45.000Z</time>
      </trkpt>
      <trkpt lat="47.26373" lon="-2.31686">
        <ele>1.6000000238419</ele>
        <time>2019-07-14T06:58:46.000Z</time>
      </trkpt>
      <trkpt lat="47.26356" lon="-2.31695">
        <ele>1</ele>
        <time>2019-07-14T06:58:50.000Z</time>
      </trkpt>
      <trkpt lat="47.26351" lon="-2.31697">
        <ele>0.60000002384186</ele>
        <time>2019-07-14T06:58:51.000Z</time>
      </trkpt>
      <trkpt lat="47.26347" lon="-2.317">
        <ele>0.20000000298023</ele>
        <time>2019-07-14T06:58:52.000Z</time>
      </trkpt>
      <trkpt lat="47.26341" lon="-2.31702">
        <ele>-0.20000000298023</ele>
        <time>2019-07-14T06:58:53.000Z</time>
      </trkpt>
      <trkpt lat="47.26335" lon="-2.31705">
        <ele>-0.60000002384186</ele>
        <time>2019-07-14T06:58:54.000Z</time>
      </trkpt>
      <trkpt lat="47.2633" lon="-2.31708">
        <ele>-0.60000002384186</ele>
        <time>2019-07-14T06:58:55.000Z</time>
      </trkpt>
      <trkpt lat="47.26305" lon="-2.31721">
        <ele>-0.60000002384186</ele>
        <time>2019-07-14T06:59:00.000Z</time>
      </trkpt>
      <trkpt lat="47.26303" lon="-2.31726">
        <ele>-1</ele>
        <time>2019-07-14T06:59:01.000Z</time>
      </trkpt>
      <trkpt lat="47.26302" lon="-2.31731">
        <ele>-1.3999999761581</ele>
        <time>2019-07-14T06:59:02.000Z</time>
      </trkpt>
      <trkpt lat="47.26303" lon="-2.31736">
        <ele>-1.7999999523163</ele>
        <time>2019-07-14T06:59:03.000Z</time>
      </trkpt>
      <trkpt lat="47.26304" lon="-2.31742">
        <ele>-2.2000000476837</ele>
        <time>2019-07-14T06:59:04.000Z</time>
      </trkpt>
      <trkpt lat="47.26304" lon="-2.31747">
        <ele>-2.5999999046326</ele>
        <time>2019-07-14T06:59:05.000Z</time>
      </trkpt>
      <trkpt lat="47.26307" lon="-2.31772">
        <ele>-2.5999999046326</ele>
        <time>2019-07-14T06:59:09.000Z</time>
      </trkpt>
      <trkpt lat="47.26307" lon="-2.31803">
        <ele>-2.5999999046326</ele>
        <time>2019-07-14T06:59:14.000Z</time>
      </trkpt>
      <trkpt lat="47.26302" lon="-2.31835">
        <ele>-2.5999999046326</ele>
        <time>2019-07-14T06:59:19.000Z</time>
      </trkpt>
      <trkpt lat="47.26299" lon="-2.31855">
        <ele>-2.5999999046326</ele>
        <time>2019-07-14T06:59:22.000Z</time>
      </trkpt>
      <trkpt lat="47.26298" lon="-2.31868">
        <ele>-2.5999999046326</ele>
        <time>2019-07-14T06:59:24.000Z</time>
      </trkpt>
      <trkpt lat="47.26295" lon="-2.31885">
        <ele>-2.5999999046326</ele>
        <time>2019-07-14T06:59:27.000Z</time>
      </trkpt>
      <trkpt lat="47.26291" lon="-2.31889">
        <ele>-2.5999999046326</ele>
        <time>2019-07-14T06:59:28.000Z</time>
      </trkpt>
      <trkpt lat="47.26282" lon="-2.31899">
        <ele>-2.5999999046326</ele>
        <time>2019-07-14T06:59:31.000Z</time>
      </trkpt>
      <trkpt lat="47.26274" lon="-2.31907">
        <ele>-2.5999999046326</ele>
        <time>2019-07-14T06:59:33.000Z</time>
      </trkpt>
      <trkpt lat="47.26265" lon="-2.31925">
        <ele>-2.5999999046326</ele>
        <time>2019-07-14T06:59:37.000Z</time>
      </trkpt>
      <trkpt lat="47.26263" lon="-2.3193">
        <ele>-2.5999999046326</ele>
        <time>2019-07-14T06:59:38.000Z</time>
      </trkpt>
      <trkpt lat="47.26252" lon="-2.31952">
        <ele>-2.5999999046326</ele>
        <time>2019-07-14T06:59:42.000Z</time>
      </trkpt>
      <trkpt lat="47.26243" lon="-2.3197">
        <ele>-3</ele>
        <time>2019-07-14T06:59:46.000Z</time>
      </trkpt>
      <trkpt lat="47.26239" lon="-2.31971">
        <ele>-3.4000000953674</ele>
        <time>2019-07-14T06:59:47.000Z</time>
      </trkpt>
      <trkpt lat="47.26235" lon="-2.31972">
        <ele>-3.7999999523163</ele>
        <time>2019-07-14T06:59:48.000Z</time>
      </trkpt>
      <trkpt lat="47.26233" lon="-2.31975">
        <ele>-4.4000000953674</ele>
        <time>2019-07-14T06:59:49.000Z</time>
      </trkpt>
      <trkpt lat="47.2623" lon="-2.31979">
        <ele>-4.8000001907349</ele>
        <time>2019-07-14T06:59:50.000Z</time>
      </trkpt>
      <trkpt lat="47.26228" lon="-2.31982">
        <ele>-4.8000001907349</ele>
        <time>2019-07-14T06:59:51.000Z</time>
      </trkpt>
      <trkpt lat="47.26212" lon="-2.31998">
        <ele>-4.8000001907349</ele>
        <time>2019-07-14T06:59:56.000Z</time>
      </trkpt>
      <trkpt lat="47.26205" lon="-2.32007">
        <ele>-4.8000001907349</ele>
        <time>2019-07-14T06:59:59.000Z</time>
      </trkpt>
      <trkpt lat="47.26203" lon="-2.32011">
        <ele>-4.8000001907349</ele>
        <time>2019-07-14T07:00:00.000Z</time>
      </trkpt>
      <trkpt lat="47.26196" lon="-2.32019">
        <ele>-4.8000001907349</ele>
        <time>2019-07-14T07:00:04.000Z</time>
      </trkpt>
      <trkpt lat="47.26189" lon="-2.32019">
        <ele>-4.8000001907349</ele>
        <time>2019-07-14T07:00:06.000Z</time>
      </trkpt>
      <trkpt lat="47.26177" lon="-2.32023">
        <ele>-4.8000001907349</ele>
        <time>2019-07-14T07:00:09.000Z</time>
      </trkpt>
      <trkpt lat="47.2616" lon="-2.32035">
        <ele>-4.8000001907349</ele>
        <time>2019-07-14T07:00:13.000Z</time>
      </trkpt>
      <trkpt lat="47.26157" lon="-2.32041">
        <ele>-4.8000001907349</ele>
        <time>2019-07-14T07:00:14.000Z</time>
      </trkpt>
      <trkpt lat="47.26146" lon="-2.32073">
        <ele>-4.8000001907349</ele>
        <time>2019-07-14T07:00:19.000Z</time>
      </trkpt>
      <trkpt lat="47.26144" lon="-2.3208">
        <ele>-4.8000001907349</ele>
        <time>2019-07-14T07:00:20.000Z</time>
      </trkpt>
      <trkpt lat="47.26134" lon="-2.32113">
        <ele>-4.8000001907349</ele>
        <time>2019-07-14T07:00:25.000Z</time>
      </trkpt>
      <trkpt lat="47.26131" lon="-2.3212">
        <ele>-4.8000001907349</ele>
        <time>2019-07-14T07:00:26.000Z</time>
      </trkpt>
      <trkpt lat="47.26116" lon="-2.32165">
        <ele>-4.8000001907349</ele>
        <time>2019-07-14T07:00:33.000Z</time>
      </trkpt>
      <trkpt lat="47.2611" lon="-2.32177">
        <ele>-4.8000001907349</ele>
        <time>2019-07-14T07:00:35.000Z</time>
      </trkpt>
      <trkpt lat="47.26102" lon="-2.32195">
        <ele>-4.8000001907349</ele>
        <time>2019-07-14T07:00:38.000Z</time>
      </trkpt>
      <trkpt lat="47.2609" lon="-2.32219">
        <ele>-4.8000001907349</ele>
        <time>2019-07-14T07:00:42.000Z</time>
      </trkpt>
      <trkpt lat="47.26079" lon="-2.32235">
        <ele>-4.8000001907349</ele>
        <time>2019-07-14T07:00:45.000Z</time>
      </trkpt>
      <trkpt lat="47.26074" lon="-2.3224">
        <ele>-4.8000001907349</ele>
        <time>2019-07-14T07:00:46.000Z</time>
      </trkpt>
      <trkpt lat="47.26062" lon="-2.32254">
        <ele>-4.8000001907349</ele>
        <time>2019-07-14T07:00:49.000Z</time>
      </trkpt>
      <trkpt lat="47.26054" lon="-2.32264">
        <ele>-4.8000001907349</ele>
        <time>2019-07-14T07:00:51.000Z</time>
      </trkpt>
      <trkpt lat="47.26037" lon="-2.32282">
        <ele>-4.8000001907349</ele>
        <time>2019-07-14T07:00:55.000Z</time>
      </trkpt>
      <trkpt lat="47.26009" lon="-2.32316">
        <ele>-4.8000001907349</ele>
        <time>2019-07-14T07:01:02.000Z</time>
      </trkpt>
      <trkpt lat="47.25987" lon="-2.32346">
        <ele>-4.8000001907349</ele>
        <time>2019-07-14T07:01:08.000Z</time>
      </trkpt>
      <trkpt lat="47.25952" lon="-2.32392">
        <ele>-4.8000001907349</ele>
        <time>2019-07-14T07:01:17.000Z</time>
      </trkpt>
      <trkpt lat="47.25917" lon="-2.32438">
        <ele>-4.8000001907349</ele>
        <time>2019-07-14T07:01:26.000Z</time>
      </trkpt>
      <trkpt lat="47.25897" lon="-2.32464">
        <ele>-4.8000001907349</ele>
        <time>2019-07-14T07:01:32.000Z</time>
      </trkpt>
      <trkpt lat="47.2589" lon="-2.3247">
        <ele>-4.8000001907349</ele>
        <time>2019-07-14T07:01:34.000Z</time>
      </trkpt>
      <trkpt lat="47.25871" lon="-2.32477">
        <ele>-4.8000001907349</ele>
        <time>2019-07-14T07:01:38.000Z</time>
      </trkpt>
      <trkpt lat="47.25858" lon="-2.32478">
        <ele>-4.8000001907349</ele>
        <time>2019-07-14T07:01:41.000Z</time>
      </trkpt>
      <trkpt lat="47.25843" lon="-2.32475">
        <ele>-4.8000001907349</ele>
        <time>2019-07-14T07:01:44.000Z</time>
      </trkpt>
      <trkpt lat="47.25814" lon="-2.32462">
        <ele>-4.8000001907349</ele>
        <time>2019-07-14T07:01:50.000Z</time>
      </trkpt>
      <trkpt lat="47.25798" lon="-2.32458">
        <ele>-4.8000001907349</ele>
        <time>2019-07-14T07:01:55.000Z</time>
      </trkpt>
      <trkpt lat="47.25784" lon="-2.32459">
        <ele>-4.8000001907349</ele>
        <time>2019-07-14T07:02:00.000Z</time>
      </trkpt>
      <trkpt lat="47.25772" lon="-2.32444">
        <ele>-4.8000001907349</ele>
        <time>2019-07-14T07:02:04.000Z</time>
      </trkpt>
      <trkpt lat="47.25764" lon="-2.32429">
        <ele>-4.8000001907349</ele>
        <time>2019-07-14T07:02:07.000Z</time>
      </trkpt>
      <trkpt lat="47.25754" lon="-2.32427">
        <ele>-4.8000001907349</ele>
        <time>2019-07-14T07:02:09.000Z</time>
      </trkpt>
      <trkpt lat="47.25743" lon="-2.32426">
        <ele>-4.8000001907349</ele>
        <time>2019-07-14T07:02:11.000Z</time>
      </trkpt>
      <trkpt lat="47.25721" lon="-2.32426">
        <ele>-4.8000001907349</ele>
        <time>2019-07-14T07:02:15.000Z</time>
      </trkpt>
      <trkpt lat="47.25716" lon="-2.32426">
        <ele>-4.8000001907349</ele>
        <time>2019-07-14T07:02:16.000Z</time>
      </trkpt>
      <trkpt lat="47.25681" lon="-2.32423">
        <ele>-4.8000001907349</ele>
        <time>2019-07-14T07:02:23.000Z</time>
      </trkpt>
      <trkpt lat="47.25668" lon="-2.32423">
        <ele>-4.8000001907349</ele>
        <time>2019-07-14T07:02:26.000Z</time>
      </trkpt>
      <trkpt lat="47.25662" lon="-2.32431">
        <ele>-4.8000001907349</ele>
        <time>2019-07-14T07:02:28.000Z</time>
      </trkpt>
      <trkpt lat="47.25663" lon="-2.3245">
        <ele>-4.8000001907349</ele>
        <time>2019-07-14T07:02:31.000Z</time>
      </trkpt>
      <trkpt lat="47.25666" lon="-2.32462">
        <ele>-4.8000001907349</ele>
        <time>2019-07-14T07:02:33.000Z</time>
      </trkpt>
      <trkpt lat="47.25673" lon="-2.32487">
        <ele>-4.8000001907349</ele>
        <time>2019-07-14T07:02:37.000Z</time>
      </trkpt>
      <trkpt lat="47.25677" lon="-2.32498">
        <ele>-4.8000001907349</ele>
        <time>2019-07-14T07:02:39.000Z</time>
      </trkpt>
      <trkpt lat="47.25679" lon="-2.32504">
        <ele>-4.1999998092651</ele>
        <time>2019-07-14T07:02:40.000Z</time>
      </trkpt>
      <trkpt lat="47.25681" lon="-2.3251">
        <ele>-3.7999999523163</ele>
        <time>2019-07-14T07:02:41.000Z</time>
      </trkpt>
      <trkpt lat="47.25683" lon="-2.32516">
        <ele>-3.4000000953674</ele>
        <time>2019-07-14T07:02:42.000Z</time>
      </trkpt>
      <trkpt lat="47.25685" lon="-2.32521">
        <ele>-3</ele>
        <time>2019-07-14T07:02:43.000Z</time>
      </trkpt>
      <trkpt lat="47.25687" lon="-2.32527">
        <ele>-2.5999999046326</ele>
        <time>2019-07-14T07:02:44.000Z</time>
      </trkpt>
      <trkpt lat="47.25699" lon="-2.32565">
        <ele>-2.5999999046326</ele>
        <time>2019-07-14T07:02:52.000Z</time>
      </trkpt>
      <trkpt lat="47.25703" lon="-2.32575">
        <ele>-2.2000000476837</ele>
        <time>2019-07-14T07:02:54.000Z</time>
      </trkpt>
      <trkpt lat="47.25704" lon="-2.32581">
        <ele>-1.7999999523163</ele>
        <time>2019-07-14T07:02:55.000Z</time>
      </trkpt>
      <trkpt lat="47.25706" lon="-2.32586">
        <ele>-1.3999999761581</ele>
        <time>2019-07-14T07:02:56.000Z</time>
      </trkpt>
      <trkpt lat="47.25707" lon="-2.32592">
        <ele>-1</ele>
        <time>2019-07-14T07:02:57.000Z</time>
      </trkpt>
      <trkpt lat="47.25709" lon="-2.32598">
        <ele>-0.60000002384186</ele>
        <time>2019-07-14T07:02:58.000Z</time>
      </trkpt>
      <trkpt lat="47.2571" lon="-2.32603">
        <ele>-0.60000002384186</ele>
        <time>2019-07-14T07:02:59.000Z</time>
      </trkpt>
      <trkpt lat="47.25711" lon="-2.3261">
        <ele>-0.60000002384186</ele>
        <time>2019-07-14T07:03:00.000Z</time>
      </trkpt>
      <trkpt lat="47.25707" lon="-2.3262">
        <ele>-0.60000002384186</ele>
        <time>2019-07-14T07:03:02.000Z</time>
      </trkpt>
      <trkpt lat="47.25695" lon="-2.32628">
        <ele>-0.60000002384186</ele>
        <time>2019-07-14T07:03:05.000Z</time>
      </trkpt>
      <trkpt lat="47.25683" lon="-2.32633">
        <ele>-0.60000002384186</ele>
        <time>2019-07-14T07:03:08.000Z</time>
      </trkpt>
      <trkpt lat="47.25667" lon="-2.3264">
        <ele>-0.60000002384186</ele>
        <time>2019-07-14T07:03:12.000Z</time>
      </trkpt>
      <trkpt lat="47.25663" lon="-2.32642">
        <ele>-0.20000000298023</ele>
        <time>2019-07-14T07:03:13.000Z</time>
      </trkpt>
      <trkpt lat="47.25659" lon="-2.32644">
        <ele>0.60000002384186</ele>
        <time>2019-07-14T07:03:14.000Z</time>
      </trkpt>
      <trkpt lat="47.25655" lon="-2.32646">
        <ele>1</ele>
        <time>2019-07-14T07:03:15.000Z</time>
      </trkpt>
      <trkpt lat="47.2565" lon="-2.32647">
        <ele>1.6000000238419</ele>
        <time>2019-07-14T07:03:16.000Z</time>
      </trkpt>
      <trkpt lat="47.25647" lon="-2.3265">
        <ele>1.6000000238419</ele>
        <time>2019-07-14T07:03:17.000Z</time>
      </trkpt>
      <trkpt lat="47.25639" lon="-2.32653">
        <ele>1.6000000238419</ele>
        <time>2019-07-14T07:03:19.000Z</time>
      </trkpt>
      <trkpt lat="47.25631" lon="-2.32656">
        <ele>1.6000000238419</ele>
        <time>2019-07-14T07:03:21.000Z</time>
      </trkpt>
      <trkpt lat="47.25615" lon="-2.32664">
        <ele>1.6000000238419</ele>
        <time>2019-07-14T07:03:25.000Z</time>
      </trkpt>
      <trkpt lat="47.25589" lon="-2.32673">
        <ele>2</ele>
        <time>2019-07-14T07:03:31.000Z</time>
      </trkpt>
      <trkpt lat="47.25585" lon="-2.32675">
        <ele>2.4000000953674</ele>
        <time>2019-07-14T07:03:32.000Z</time>
      </trkpt>
      <trkpt lat="47.2558" lon="-2.32678">
        <ele>2.7999999523163</ele>
        <time>2019-07-14T07:03:33.000Z</time>
      </trkpt>
      <trkpt lat="47.25576" lon="-2.3268">
        <ele>3.2000000476837</ele>
        <time>2019-07-14T07:03:34.000Z</time>
      </trkpt>
      <trkpt lat="47.25571" lon="-2.32682">
        <ele>3.5999999046326</ele>
        <time>2019-07-14T07:03:35.000Z</time>
      </trkpt>
      <trkpt lat="47.25556" lon="-2.32688">
        <ele>3.5999999046326</ele>
        <time>2019-07-14T07:03:38.000Z</time>
      </trkpt>
      <trkpt lat="47.25521" lon="-2.32701">
        <ele>3.5999999046326</ele>
        <time>2019-07-14T07:03:45.000Z</time>
      </trkpt>
      <trkpt lat="47.25511" lon="-2.32704">
        <ele>3.5999999046326</ele>
        <time>2019-07-14T07:03:47.000Z</time>
      </trkpt>
      <trkpt lat="47.25492" lon="-2.32705">
        <ele>3.5999999046326</ele>
        <time>2019-07-14T07:03:51.000Z</time>
      </trkpt>
      <trkpt lat="47.25487" lon="-2.32707">
        <ele>3.5999999046326</ele>
        <time>2019-07-14T07:03:52.000Z</time>
      </trkpt>
      <trkpt lat="47.25475" lon="-2.32717">
        <ele>3.5999999046326</ele>
        <time>2019-07-14T07:03:55.000Z</time>
      </trkpt>
      <trkpt lat="47.25471" lon="-2.32721">
        <ele>3.5999999046326</ele>
        <time>2019-07-14T07:03:56.000Z</time>
      </trkpt>
      <trkpt lat="47.25457" lon="-2.32741">
        <ele>3.5999999046326</ele>
        <time>2019-07-14T07:04:00.000Z</time>
      </trkpt>
      <trkpt lat="47.25449" lon="-2.32752">
        <ele>3.5999999046326</ele>
        <time>2019-07-14T07:04:02.000Z</time>
      </trkpt>
      <trkpt lat="47.25438" lon="-2.32768">
        <ele>3.5999999046326</ele>
        <time>2019-07-14T07:04:05.000Z</time>
      </trkpt>
      <trkpt lat="47.25431" lon="-2.32787">
        <ele>3.5999999046326</ele>
        <time>2019-07-14T07:04:08.000Z</time>
      </trkpt>
      <trkpt lat="47.25415" lon="-2.32809">
        <ele>3.5999999046326</ele>
        <time>2019-07-14T07:04:12.000Z</time>
      </trkpt>
      <trkpt lat="47.25388" lon="-2.32844">
        <ele>3.5999999046326</ele>
        <time>2019-07-14T07:04:18.000Z</time>
      </trkpt>
      <trkpt lat="47.25383" lon="-2.32849">
        <ele>3.2000000476837</ele>
        <time>2019-07-14T07:04:19.000Z</time>
      </trkpt>
      <trkpt lat="47.25378" lon="-2.32855">
        <ele>2.7999999523163</ele>
        <time>2019-07-14T07:04:20.000Z</time>
      </trkpt>
      <trkpt lat="47.25374" lon="-2.3286">
        <ele>2.2000000476837</ele>
        <time>2019-07-14T07:04:21.000Z</time>
      </trkpt>
      <trkpt lat="47.2537" lon="-2.32865">
        <ele>1.7999999523163</ele>
        <time>2019-07-14T07:04:22.000Z</time>
      </trkpt>
      <trkpt lat="47.25365" lon="-2.3287">
        <ele>1.3999999761581</ele>
        <time>2019-07-14T07:04:23.000Z</time>
      </trkpt>
      <trkpt lat="47.2536" lon="-2.32875">
        <ele>1.3999999761581</ele>
        <time>2019-07-14T07:04:24.000Z</time>
      </trkpt>
      <trkpt lat="47.25326" lon="-2.32908">
        <ele>1.3999999761581</ele>
        <time>2019-07-14T07:04:31.000Z</time>
      </trkpt>
      <trkpt lat="47.25316" lon="-2.32916">
        <ele>1.3999999761581</ele>
        <time>2019-07-14T07:04:33.000Z</time>
      </trkpt>
      <trkpt lat="47.25309" lon="-2.32928">
        <ele>1.3999999761581</ele>
        <time>2019-07-14T07:04:35.000Z</time>
      </trkpt>
      <trkpt lat="47.2531" lon="-2.32952">
        <ele>1.3999999761581</ele>
        <time>2019-07-14T07:04:38.000Z</time>
      </trkpt>
      <trkpt lat="47.25322" lon="-2.32981">
        <ele>1.3999999761581</ele>
        <time>2019-07-14T07:04:42.000Z</time>
      </trkpt>
      <trkpt lat="47.25325" lon="-2.32989">
        <ele>1.3999999761581</ele>
        <time>2019-07-14T07:04:43.000Z</time>
      </trkpt>
      <trkpt lat="47.25332" lon="-2.33011">
        <ele>1.3999999761581</ele>
        <time>2019-07-14T07:04:46.000Z</time>
      </trkpt>
      <trkpt lat="47.25344" lon="-2.33046">
        <ele>1.3999999761581</ele>
        <time>2019-07-14T07:04:51.000Z</time>
      </trkpt>
      <trkpt lat="47.25347" lon="-2.33053">
        <ele>1.3999999761581</ele>
        <time>2019-07-14T07:04:52.000Z</time>
      </trkpt>
      <trkpt lat="47.25364" lon="-2.33092">
        <ele>1.3999999761581</ele>
        <time>2019-07-14T07:04:58.000Z</time>
      </trkpt>
      <trkpt lat="47.25373" lon="-2.33117">
        <ele>1.3999999761581</ele>
        <time>2019-07-14T07:05:03.000Z</time>
      </trkpt>
      <trkpt lat="47.25374" lon="-2.33121">
        <ele>1.3999999761581</ele>
        <time>2019-07-14T07:05:05.000Z</time>
      </trkpt>
      <trkpt lat="47.25373" lon="-2.33121">
        <ele>1</ele>
        <time>2019-07-14T07:05:07.000Z</time>
      </trkpt>
      <trkpt lat="47.25373" lon="-2.33121">
        <ele>0.60000002384186</ele>
        <time>2019-07-14T07:05:08.000Z</time>
      </trkpt>
      <trkpt lat="47.25376" lon="-2.33124">
        <ele>-0.60000002384186</ele>
        <time>2019-07-14T07:08:21.000Z</time>
      </trkpt>
      <trkpt lat="47.25378" lon="-2.3313">
        <ele>-0.60000002384186</ele>
        <time>2019-07-14T07:08:23.000Z</time>
      </trkpt>
      <trkpt lat="47.25388" lon="-2.33134">
        <ele>-0.60000002384186</ele>
        <time>2019-07-14T07:08:28.000Z</time>
      </trkpt>
      <trkpt lat="47.25394" lon="-2.3313">
        <ele>-0.60000002384186</ele>
        <time>2019-07-14T07:08:32.000Z</time>
      </trkpt>
      <trkpt lat="47.25395" lon="-2.33129">
        <ele>-0.60000002384186</ele>
        <time>2019-07-14T07:08:33.000Z</time>
      </trkpt>
      <trkpt lat="47.25408" lon="-2.33124">
        <ele>-0.60000002384186</ele>
        <time>2019-07-14T07:08:39.000Z</time>
      </trkpt>
      <trkpt lat="47.25426" lon="-2.33116">
        <ele>-0.60000002384186</ele>
        <time>2019-07-14T07:08:45.000Z</time>
      </trkpt>
      <trkpt lat="47.25452" lon="-2.33105">
        <ele>-0.60000002384186</ele>
        <time>2019-07-14T07:08:52.000Z</time>
      </trkpt>
      <trkpt lat="47.25478" lon="-2.33091">
        <ele>-0.60000002384186</ele>
        <time>2019-07-14T07:09:00.000Z</time>
      </trkpt>
      <trkpt lat="47.25494" lon="-2.33077">
        <ele>-0.60000002384186</ele>
        <time>2019-07-14T07:09:06.000Z</time>
      </trkpt>
      <trkpt lat="47.2551" lon="-2.3306">
        <ele>-0.60000002384186</ele>
        <time>2019-07-14T07:09:11.000Z</time>
      </trkpt>
      <trkpt lat="47.2553" lon="-2.33044">
        <ele>-0.60000002384186</ele>
        <time>2019-07-14T07:09:17.000Z</time>
      </trkpt>
      <trkpt lat="47.25551" lon="-2.3304">
        <ele>-0.60000002384186</ele>
        <time>2019-07-14T07:09:23.000Z</time>
      </trkpt>
      <trkpt lat="47.25579" lon="-2.33034">
        <ele>-0.60000002384186</ele>
        <time>2019-07-14T07:09:31.000Z</time>
      </trkpt>
      <trkpt lat="47.25597" lon="-2.33031">
        <ele>-0.20000000298023</ele>
        <time>2019-07-14T07:09:36.000Z</time>
      </trkpt>
      <trkpt lat="47.25601" lon="-2.3303">
        <ele>0.20000000298023</ele>
        <time>2019-07-14T07:09:37.000Z</time>
      </trkpt>
      <trkpt lat="47.25604" lon="-2.33029">
        <ele>0.60000002384186</ele>
        <time>2019-07-14T07:09:38.000Z</time>
      </trkpt>
      <trkpt lat="47.25607" lon="-2.33028">
        <ele>1</ele>
        <time>2019-07-14T07:09:39.000Z</time>
      </trkpt>
      <trkpt lat="47.2561" lon="-2.33026">
        <ele>1.6000000238419</ele>
        <time>2019-07-14T07:09:40.000Z</time>
      </trkpt>
      <trkpt lat="47.25615" lon="-2.33018">
        <ele>1.6000000238419</ele>
        <time>2019-07-14T07:09:42.000Z</time>
      </trkpt>
      <trkpt lat="47.25617" lon="-2.33008">
        <ele>1.6000000238419</ele>
        <time>2019-07-14T07:09:44.000Z</time>
      </trkpt>
      <trkpt lat="47.25616" lon="-2.33003">
        <ele>1.6000000238419</ele>
        <time>2019-07-14T07:09:45.000Z</time>
      </trkpt>
      <trkpt lat="47.25613" lon="-2.32987">
        <ele>1.6000000238419</ele>
        <time>2019-07-14T07:09:48.000Z</time>
      </trkpt>
      <trkpt lat="47.2561" lon="-2.32971">
        <ele>1.6000000238419</ele>
        <time>2019-07-14T07:09:51.000Z</time>
      </trkpt>
      <trkpt lat="47.25604" lon="-2.32939">
        <ele>1.6000000238419</ele>
        <time>2019-07-14T07:09:57.000Z</time>
      </trkpt>
      <trkpt lat="47.25598" lon="-2.32906">
        <ele>2</ele>
        <time>2019-07-14T07:10:03.000Z</time>
      </trkpt>
      <trkpt lat="47.25598" lon="-2.329">
        <ele>2.4000000953674</ele>
        <time>2019-07-14T07:10:04.000Z</time>
      </trkpt>
      <trkpt lat="47.25597" lon="-2.32894">
        <ele>2.7999999523163</ele>
        <time>2019-07-14T07:10:05.000Z</time>
      </trkpt>
      <trkpt lat="47.25596" lon="-2.32889">
        <ele>3.2000000476837</ele>
        <time>2019-07-14T07:10:06.000Z</time>
      </trkpt>
      <trkpt lat="47.25595" lon="-2.32883">
        <ele>3.5999999046326</ele>
        <time>2019-07-14T07:10:07.000Z</time>
      </trkpt>
      <trkpt lat="47.25595" lon="-2.32871">
        <ele>3.5999999046326</ele>
        <time>2019-07-14T07:10:09.000Z</time>
      </trkpt>
      <trkpt lat="47.2559" lon="-2.32831">
        <ele>3.5999999046326</ele>
        <time>2019-07-14T07:10:16.000Z</time>
      </trkpt>
      <trkpt lat="47.25594" lon="-2.32801">
        <ele>3.5999999046326</ele>
        <time>2019-07-14T07:10:21.000Z</time>
      </trkpt>
      <trkpt lat="47.25595" lon="-2.32789">
        <ele>3.5999999046326</ele>
        <time>2019-07-14T07:10:23.000Z</time>
      </trkpt>
      <trkpt lat="47.25597" lon="-2.32772">
        <ele>3.5999999046326</ele>
        <time>2019-07-14T07:10:26.000Z</time>
      </trkpt>
      <trkpt lat="47.25599" lon="-2.32747">
        <ele>3.5999999046326</ele>
        <time>2019-07-14T07:10:30.000Z</time>
      </trkpt>
      <trkpt lat="47.25601" lon="-2.32735">
        <ele>3.5999999046326</ele>
        <time>2019-07-14T07:10:32.000Z</time>
      </trkpt>
      <trkpt lat="47.25602" lon="-2.32687">
        <ele>3.5999999046326</ele>
        <time>2019-07-14T07:10:40.000Z</time>
      </trkpt>
      <trkpt lat="47.25602" lon="-2.32669">
        <ele>3.5999999046326</ele>
        <time>2019-07-14T07:10:45.000Z</time>
      </trkpt>
      <trkpt lat="47.25604" lon="-2.32666">
        <ele>3.5999999046326</ele>
        <time>2019-07-14T07:10:46.000Z</time>
      </trkpt>
      <trkpt lat="47.25609" lon="-2.32661">
        <ele>3.5999999046326</ele>
        <time>2019-07-14T07:10:48.000Z</time>
      </trkpt>
      <trkpt lat="47.25617" lon="-2.32657">
        <ele>3.5999999046326</ele>
        <time>2019-07-14T07:10:50.000Z</time>
      </trkpt>
      <trkpt lat="47.2563" lon="-2.32652">
        <ele>3.5999999046326</ele>
        <time>2019-07-14T07:10:53.000Z</time>
      </trkpt>
      <trkpt lat="47.25662" lon="-2.32637">
        <ele>3.5999999046326</ele>
        <time>2019-07-14T07:11:00.000Z</time>
      </trkpt>
      <trkpt lat="47.25692" lon="-2.32624">
        <ele>3.2000000476837</ele>
        <time>2019-07-14T07:11:06.000Z</time>
      </trkpt>
      <trkpt lat="47.25697" lon="-2.32621">
        <ele>2.7999999523163</ele>
        <time>2019-07-14T07:11:07.000Z</time>
      </trkpt>
      <trkpt lat="47.25701" lon="-2.32619">
        <ele>2.2000000476837</ele>
        <time>2019-07-14T07:11:08.000Z</time>
      </trkpt>
      <trkpt lat="47.25704" lon="-2.32616">
        <ele>1.7999999523163</ele>
        <time>2019-07-14T07:11:09.000Z</time>
      </trkpt>
      <trkpt lat="47.25707" lon="-2.32611">
        <ele>1.3999999761581</ele>
        <time>2019-07-14T07:11:10.000Z</time>
      </trkpt>
      <trkpt lat="47.25708" lon="-2.32605">
        <ele>1.3999999761581</ele>
        <time>2019-07-14T07:11:11.000Z</time>
      </trkpt>
      <trkpt lat="47.25704" lon="-2.32587">
        <ele>1.3999999761581</ele>
        <time>2019-07-14T07:11:14.000Z</time>
      </trkpt>
      <trkpt lat="47.257" lon="-2.32575">
        <ele>1.3999999761581</ele>
        <time>2019-07-14T07:11:16.000Z</time>
      </trkpt>
      <trkpt lat="47.25692" lon="-2.32546">
        <ele>1.3999999761581</ele>
        <time>2019-07-14T07:11:21.000Z</time>
      </trkpt>
      <trkpt lat="47.2569" lon="-2.32539">
        <ele>1</ele>
        <time>2019-07-14T07:11:22.000Z</time>
      </trkpt>
      <trkpt lat="47.25688" lon="-2.32533">
        <ele>0.60000002384186</ele>
        <time>2019-07-14T07:11:23.000Z</time>
      </trkpt>
      <trkpt lat="47.25685" lon="-2.32526">
        <ele>0.20000000298023</ele>
        <time>2019-07-14T07:11:24.000Z</time>
      </trkpt>
      <trkpt lat="47.25683" lon="-2.32518">
        <ele>-0.20000000298023</ele>
        <time>2019-07-14T07:11:25.000Z</time>
      </trkpt>
      <trkpt lat="47.25681" lon="-2.32511">
        <ele>-0.60000002384186</ele>
        <time>2019-07-14T07:11:26.000Z</time>
      </trkpt>
      <trkpt lat="47.25679" lon="-2.32504">
        <ele>-0.60000002384186</ele>
        <time>2019-07-14T07:11:27.000Z</time>
      </trkpt>
      <trkpt lat="47.25661" lon="-2.32444">
        <ele>-1.2000000476837</ele>
        <time>2019-07-14T07:11:35.000Z</time>
      </trkpt>
      <trkpt lat="47.2566" lon="-2.32439">
        <ele>-1.6000000238419</ele>
        <time>2019-07-14T07:11:36.000Z</time>
      </trkpt>
      <trkpt lat="47.25659" lon="-2.32434">
        <ele>-2</ele>
        <time>2019-07-14T07:11:37.000Z</time>
      </trkpt>
      <trkpt lat="47.25658" lon="-2.32429">
        <ele>-2.4000000953674</ele>
        <time>2019-07-14T07:11:38.000Z</time>
      </trkpt>
      <trkpt lat="47.25657" lon="-2.32424">
        <ele>-3</ele>
        <time>2019-07-14T07:11:39.000Z</time>
      </trkpt>
      <trkpt lat="47.25653" lon="-2.32406">
        <ele>-3</ele>
        <time>2019-07-14T07:11:43.000Z</time>
      </trkpt>
      <trkpt lat="47.25656" lon="-2.32403">
        <ele>-3</ele>
        <time>2019-07-14T07:11:44.000Z</time>
      </trkpt>
      <trkpt lat="47.25667" lon="-2.32407">
        <ele>-3</ele>
        <time>2019-07-14T07:11:47.000Z</time>
      </trkpt>
      <trkpt lat="47.25675" lon="-2.32417">
        <ele>-3</ele>
        <time>2019-07-14T07:11:49.000Z</time>
      </trkpt>
      <trkpt lat="47.2568" lon="-2.32418">
        <ele>-3</ele>
        <time>2019-07-14T07:11:50.000Z</time>
      </trkpt>
      <trkpt lat="47.25685" lon="-2.3242">
        <ele>-3</ele>
        <time>2019-07-14T07:11:51.000Z</time>
      </trkpt>
      <trkpt lat="47.25703" lon="-2.32422">
        <ele>-3</ele>
        <time>2019-07-14T07:11:54.000Z</time>
      </trkpt>
      <trkpt lat="47.25714" lon="-2.32422">
        <ele>-3.4000000953674</ele>
        <time>2019-07-14T07:11:56.000Z</time>
      </trkpt>
      <trkpt lat="47.2572" lon="-2.32423">
        <ele>-3.7999999523163</ele>
        <time>2019-07-14T07:11:57.000Z</time>
      </trkpt>
      <trkpt lat="47.25725" lon="-2.32423">
        <ele>-4.1999998092651</ele>
        <time>2019-07-14T07:11:58.000Z</time>
      </trkpt>
      <trkpt lat="47.25731" lon="-2.32423">
        <ele>-4.5999999046326</ele>
        <time>2019-07-14T07:11:59.000Z</time>
      </trkpt>
      <trkpt lat="47.25737" lon="-2.32423">
        <ele>-5</ele>
        <time>2019-07-14T07:12:00.000Z</time>
      </trkpt>
      <trkpt lat="47.25746" lon="-2.32423">
        <ele>-5</ele>
        <time>2019-07-14T07:12:02.000Z</time>
      </trkpt>
      <trkpt lat="47.25755" lon="-2.32423">
        <ele>-5</ele>
        <time>2019-07-14T07:12:04.000Z</time>
      </trkpt>
      <trkpt lat="47.25764" lon="-2.3242">
        <ele>-5</ele>
        <time>2019-07-14T07:12:06.000Z</time>
      </trkpt>
      <trkpt lat="47.25773" lon="-2.32417">
        <ele>-5</ele>
        <time>2019-07-14T07:12:08.000Z</time>
      </trkpt>
      <trkpt lat="47.25783" lon="-2.32418">
        <ele>-5</ele>
        <time>2019-07-14T07:12:11.000Z</time>
      </trkpt>
      <trkpt lat="47.25787" lon="-2.32422">
        <ele>-5</ele>
        <time>2019-07-14T07:12:12.000Z</time>
      </trkpt>
      <trkpt lat="47.25796" lon="-2.32439">
        <ele>-5</ele>
        <time>2019-07-14T07:12:15.000Z</time>
      </trkpt>
      <trkpt lat="47.25798" lon="-2.32445">
        <ele>-5</ele>
        <time>2019-07-14T07:12:16.000Z</time>
      </trkpt>
      <trkpt lat="47.25801" lon="-2.32449">
        <ele>-5</ele>
        <time>2019-07-14T07:12:17.000Z</time>
      </trkpt>
      <trkpt lat="47.25813" lon="-2.3246">
        <ele>-5</ele>
        <time>2019-07-14T07:12:20.000Z</time>
      </trkpt>
      <trkpt lat="47.25818" lon="-2.32462">
        <ele>-5</ele>
        <time>2019-07-14T07:12:21.000Z</time>
      </trkpt>
      <trkpt lat="47.25823" lon="-2.32464">
        <ele>-5</ele>
        <time>2019-07-14T07:12:22.000Z</time>
      </trkpt>
      <trkpt lat="47.25848" lon="-2.32473">
        <ele>-5</ele>
        <time>2019-07-14T07:12:27.000Z</time>
      </trkpt>
      <trkpt lat="47.25853" lon="-2.32473">
        <ele>-5</ele>
        <time>2019-07-14T07:12:28.000Z</time>
      </trkpt>
      <trkpt lat="47.25874" lon="-2.32472">
        <ele>-5</ele>
        <time>2019-07-14T07:12:32.000Z</time>
      </trkpt>
      <trkpt lat="47.25894" lon="-2.32468">
        <ele>-5</ele>
        <time>2019-07-14T07:12:36.000Z</time>
      </trkpt>
      <trkpt lat="47.25902" lon="-2.32458">
        <ele>-5</ele>
        <time>2019-07-14T07:12:38.000Z</time>
      </trkpt>
      <trkpt lat="47.25934" lon="-2.32415">
        <ele>-5</ele>
        <time>2019-07-14T07:12:46.000Z</time>
      </trkpt>
      <trkpt lat="47.25962" lon="-2.3238">
        <ele>-5</ele>
        <time>2019-07-14T07:12:53.000Z</time>
      </trkpt>
      <trkpt lat="47.26005" lon="-2.32321">
        <ele>-5</ele>
        <time>2019-07-14T07:13:04.000Z</time>
      </trkpt>
      <trkpt lat="47.26033" lon="-2.32288">
        <ele>-5</ele>
        <time>2019-07-14T07:13:11.000Z</time>
      </trkpt>
      <trkpt lat="47.26072" lon="-2.32244">
        <ele>-5</ele>
        <time>2019-07-14T07:13:20.000Z</time>
      </trkpt>
      <trkpt lat="47.26103" lon="-2.32197">
        <ele>-5</ele>
        <time>2019-07-14T07:13:28.000Z</time>
      </trkpt>
      <trkpt lat="47.26118" lon="-2.32156">
        <ele>-5</ele>
        <time>2019-07-14T07:13:34.000Z</time>
      </trkpt>
      <trkpt lat="47.26123" lon="-2.32141">
        <ele>-5</ele>
        <time>2019-07-14T07:13:36.000Z</time>
      </trkpt>
      <trkpt lat="47.26131" lon="-2.32113">
        <ele>-5</ele>
        <time>2019-07-14T07:13:40.000Z</time>
      </trkpt>
      <trkpt lat="47.26145" lon="-2.3206">
        <ele>-5</ele>
        <time>2019-07-14T07:13:48.000Z</time>
      </trkpt>
      <trkpt lat="47.26159" lon="-2.32024">
        <ele>-5</ele>
        <time>2019-07-14T07:13:55.000Z</time>
      </trkpt>
      <trkpt lat="47.26163" lon="-2.32023">
        <ele>-5</ele>
        <time>2019-07-14T07:13:56.000Z</time>
      </trkpt>
      <trkpt lat="47.26167" lon="-2.32022">
        <ele>-5</ele>
        <time>2019-07-14T07:13:58.000Z</time>
      </trkpt>
      <trkpt lat="47.26174" lon="-2.32022">
        <ele>-5</ele>
        <time>2019-07-14T07:14:02.000Z</time>
      </trkpt>
      <trkpt lat="47.26178" lon="-2.32021">
        <ele>-5</ele>
        <time>2019-07-14T07:14:04.000Z</time>
      </trkpt>
      <trkpt lat="47.26189" lon="-2.32023">
        <ele>-5</ele>
        <time>2019-07-14T07:14:10.000Z</time>
      </trkpt>
      <trkpt lat="47.26193" lon="-2.32022">
        <ele>-5</ele>
        <time>2019-07-14T07:14:12.000Z</time>
      </trkpt>
      <trkpt lat="47.26195" lon="-2.32018">
        <ele>-5</ele>
        <time>2019-07-14T07:14:14.000Z</time>
      </trkpt>
      <trkpt lat="47.26201" lon="-2.32005">
        <ele>-5</ele>
        <time>2019-07-14T07:14:18.000Z</time>
      </trkpt>
      <trkpt lat="47.26217" lon="-2.3199">
        <ele>-5</ele>
        <time>2019-07-14T07:14:23.000Z</time>
      </trkpt>
      <trkpt lat="47.26226" lon="-2.31984">
        <ele>-5</ele>
        <time>2019-07-14T07:14:26.000Z</time>
      </trkpt>
      <trkpt lat="47.26229" lon="-2.31984">
        <ele>-5</ele>
        <time>2019-07-14T07:14:27.000Z</time>
      </trkpt>
      <trkpt lat="47.26238" lon="-2.31976">
        <ele>-5</ele>
        <time>2019-07-14T07:14:30.000Z</time>
      </trkpt>
      <trkpt lat="47.2624" lon="-2.3197">
        <ele>-5</ele>
        <time>2019-07-14T07:14:31.000Z</time>
      </trkpt>
      <trkpt lat="47.26249" lon="-2.3195">
        <ele>-5</ele>
        <time>2019-07-14T07:14:34.000Z</time>
      </trkpt>
      <trkpt lat="47.26257" lon="-2.31936">
        <ele>-5</ele>
        <time>2019-07-14T07:14:37.000Z</time>
      </trkpt>
      <trkpt lat="47.26272" lon="-2.3191">
        <ele>-5</ele>
        <time>2019-07-14T07:14:42.000Z</time>
      </trkpt>
      <trkpt lat="47.26274" lon="-2.31907">
        <ele>-5</ele>
        <time>2019-07-14T07:14:43.000Z</time>
      </trkpt>
      <trkpt lat="47.26288" lon="-2.31899">
        <ele>-5</ele>
        <time>2019-07-14T07:14:46.000Z</time>
      </trkpt>
      <trkpt lat="47.26291" lon="-2.319">
        <ele>-5</ele>
        <time>2019-07-14T07:14:47.000Z</time>
      </trkpt>
      <trkpt lat="47.26293" lon="-2.31903">
        <ele>-5</ele>
        <time>2019-07-14T07:14:48.000Z</time>
      </trkpt>
      <trkpt lat="47.26297" lon="-2.31922">
        <ele>-5</ele>
        <time>2019-07-14T07:14:52.000Z</time>
      </trkpt>
      <trkpt lat="47.263" lon="-2.3193">
        <ele>-5</ele>
        <time>2019-07-14T07:14:54.000Z</time>
      </trkpt>
      <trkpt lat="47.26303" lon="-2.31931">
        <ele>-5</ele>
        <time>2019-07-14T07:14:55.000Z</time>
      </trkpt>
      <trkpt lat="47.26313" lon="-2.3193">
        <ele>-5</ele>
        <time>2019-07-14T07:14:58.000Z</time>
      </trkpt>
      <trkpt lat="47.26315" lon="-2.31929">
        <ele>-5</ele>
        <time>2019-07-14T07:14:59.000Z</time>
      </trkpt>
      <trkpt lat="47.26331" lon="-2.3193">
        <ele>-5</ele>
        <time>2019-07-14T07:15:03.000Z</time>
      </trkpt>
      <trkpt lat="47.26338" lon="-2.3194">
        <ele>-5</ele>
        <time>2019-07-14T07:15:06.000Z</time>
      </trkpt>
      <trkpt lat="47.26343" lon="-2.31949">
        <ele>-5</ele>
        <time>2019-07-14T07:15:08.000Z</time>
      </trkpt>
      <trkpt lat="47.26351" lon="-2.31968">
        <ele>-5</ele>
        <time>2019-07-14T07:15:12.000Z</time>
      </trkpt>
      <trkpt lat="47.26359" lon="-2.31974">
        <ele>-5</ele>
        <time>2019-07-14T07:15:14.000Z</time>
      </trkpt>
      <trkpt lat="47.26364" lon="-2.31975">
        <ele>-5</ele>
        <time>2019-07-14T07:15:15.000Z</time>
      </trkpt>
      <trkpt lat="47.2637" lon="-2.31978">
        <ele>-5</ele>
        <time>2019-07-14T07:15:16.000Z</time>
      </trkpt>
      <trkpt lat="47.26384" lon="-2.31982">
        <ele>-5</ele>
        <time>2019-07-14T07:15:19.000Z</time>
      </trkpt>
      <trkpt lat="47.26388" lon="-2.31983">
        <ele>-4.5999999046326</ele>
        <time>2019-07-14T07:15:20.000Z</time>
      </trkpt>
      <trkpt lat="47.26391" lon="-2.31984">
        <ele>-4.1999998092651</ele>
        <time>2019-07-14T07:15:21.000Z</time>
      </trkpt>
      <trkpt lat="47.26394" lon="-2.31985">
        <ele>-3.5999999046326</ele>
        <time>2019-07-14T07:15:22.000Z</time>
      </trkpt>
      <trkpt lat="47.26397" lon="-2.31986">
        <ele>-3.2000000476837</ele>
        <time>2019-07-14T07:15:23.000Z</time>
      </trkpt>
      <trkpt lat="47.264" lon="-2.31987">
        <ele>-2.7999999523163</ele>
        <time>2019-07-14T07:15:24.000Z</time>
      </trkpt>
      <trkpt lat="47.26416" lon="-2.31993">
        <ele>-2.4000000953674</ele>
        <time>2019-07-14T07:15:28.000Z</time>
      </trkpt>
      <trkpt lat="47.26419" lon="-2.31994">
        <ele>-2</ele>
        <time>2019-07-14T07:15:29.000Z</time>
      </trkpt>
      <trkpt lat="47.26421" lon="-2.31994">
        <ele>-1.6000000238419</ele>
        <time>2019-07-14T07:15:30.000Z</time>
      </trkpt>
      <trkpt lat="47.26424" lon="-2.31995">
        <ele>-1.2000000476837</ele>
        <time>2019-07-14T07:15:31.000Z</time>
      </trkpt>
      <trkpt lat="47.26426" lon="-2.31995">
        <ele>-0.80000001192093</ele>
        <time>2019-07-14T07:15:32.000Z</time>
      </trkpt>
      <trkpt lat="47.26432" lon="-2.31996">
        <ele>-0.80000001192093</ele>
        <time>2019-07-14T07:15:34.000Z</time>
      </trkpt>
      <trkpt lat="47.26441" lon="-2.31996">
        <ele>-0.20000000298023</ele>
        <time>2019-07-14T07:15:37.000Z</time>
      </trkpt>
      <trkpt lat="47.26445" lon="-2.31997">
        <ele>0.20000000298023</ele>
        <time>2019-07-14T07:15:38.000Z</time>
      </trkpt>
      <trkpt lat="47.26449" lon="-2.31996">
        <ele>0.60000002384186</ele>
        <time>2019-07-14T07:15:39.000Z</time>
      </trkpt>
      <trkpt lat="47.26453" lon="-2.31996">
        <ele>1</ele>
        <time>2019-07-14T07:15:40.000Z</time>
      </trkpt>
      <trkpt lat="47.26457" lon="-2.31996">
        <ele>1.3999999761581</ele>
        <time>2019-07-14T07:15:41.000Z</time>
      </trkpt>
      <trkpt lat="47.26481" lon="-2.31994">
        <ele>1.7999999523163</ele>
        <time>2019-07-14T07:15:47.000Z</time>
      </trkpt>
      <trkpt lat="47.26486" lon="-2.31994">
        <ele>2.2000000476837</ele>
        <time>2019-07-14T07:15:48.000Z</time>
      </trkpt>
      <trkpt lat="47.26489" lon="-2.31994">
        <ele>2.5999999046326</ele>
        <time>2019-07-14T07:15:49.000Z</time>
      </trkpt>
      <trkpt lat="47.26493" lon="-2.31995">
        <ele>3</ele>
        <time>2019-07-14T07:15:50.000Z</time>
      </trkpt>
      <trkpt lat="47.26497" lon="-2.31994">
        <ele>3.4000000953674</ele>
        <time>2019-07-14T07:15:51.000Z</time>
      </trkpt>
      <trkpt lat="47.265" lon="-2.31994">
        <ele>3.4000000953674</ele>
        <time>2019-07-14T07:15:52.000Z</time>
      </trkpt>
      <trkpt lat="47.26506" lon="-2.31993">
        <ele>3.4000000953674</ele>
        <time>2019-07-14T07:15:54.000Z</time>
      </trkpt>
      <trkpt lat="47.26511" lon="-2.31995">
        <ele>4</ele>
        <time>2019-07-14T07:15:56.000Z</time>
      </trkpt>
      <trkpt lat="47.26514" lon="-2.31996">
        <ele>4.4000000953674</ele>
        <time>2019-07-14T07:15:57.000Z</time>
      </trkpt>
      <trkpt lat="47.26517" lon="-2.31996">
        <ele>4.8000001907349</ele>
        <time>2019-07-14T07:15:58.000Z</time>
      </trkpt>
      <trkpt lat="47.26519" lon="-2.31996">
        <ele>5.8000001907349</ele>
        <time>2019-07-14T07:15:59.000Z</time>
      </trkpt>
      <trkpt lat="47.26525" lon="-2.31999">
        <ele>5.8000001907349</ele>
        <time>2019-07-14T07:16:01.000Z</time>
      </trkpt>
      <trkpt lat="47.26535" lon="-2.32011">
        <ele>6.1999998092651</ele>
        <time>2019-07-14T07:16:06.000Z</time>
      </trkpt>
      <trkpt lat="47.26537" lon="-2.32014">
        <ele>6.5999999046326</ele>
        <time>2019-07-14T07:16:07.000Z</time>
      </trkpt>
      <trkpt lat="47.26538" lon="-2.32017">
        <ele>7</ele>
        <time>2019-07-14T07:16:08.000Z</time>
      </trkpt>
      <trkpt lat="47.26539" lon="-2.32021">
        <ele>7.4000000953674</ele>
        <time>2019-07-14T07:16:09.000Z</time>
      </trkpt>
      <trkpt lat="47.2654" lon="-2.32025">
        <ele>7.8000001907349</ele>
        <time>2019-07-14T07:16:10.000Z</time>
      </trkpt>
      <trkpt lat="47.26545" lon="-2.32033">
        <ele>7.8000001907349</ele>
        <time>2019-07-14T07:16:13.000Z</time>
      </trkpt>
      <trkpt lat="47.26548" lon="-2.32033">
        <ele>7.8000001907349</ele>
        <time>2019-07-14T07:16:14.000Z</time>
      </trkpt>
      <trkpt lat="47.26563" lon="-2.32029">
        <ele>7.8000001907349</ele>
        <time>2019-07-14T07:16:18.000Z</time>
      </trkpt>
      <trkpt lat="47.26566" lon="-2.32028">
        <ele>8.1999998092651</ele>
        <time>2019-07-14T07:16:19.000Z</time>
      </trkpt>
      <trkpt lat="47.2657" lon="-2.32027">
        <ele>8.6000003814697</ele>
        <time>2019-07-14T07:16:20.000Z</time>
      </trkpt>
      <trkpt lat="47.26574" lon="-2.32026">
        <ele>9.1999998092651</ele>
        <time>2019-07-14T07:16:21.000Z</time>
      </trkpt>
      <trkpt lat="47.26577" lon="-2.32025">
        <ele>9.6000003814697</ele>
        <time>2019-07-14T07:16:22.000Z</time>
      </trkpt>
      <trkpt lat="47.26581" lon="-2.32023">
        <ele>10</ele>
        <time>2019-07-14T07:16:23.000Z</time>
      </trkpt>
      <trkpt lat="47.26592" lon="-2.32019">
        <ele>10</ele>
        <time>2019-07-14T07:16:26.000Z</time>
      </trkpt>
      <trkpt lat="47.26614" lon="-2.32013">
        <ele>10.39999961853</ele>
        <time>2019-07-14T07:16:32.000Z</time>
      </trkpt>
      <trkpt lat="47.26617" lon="-2.32011">
        <ele>10.800000190735</ele>
        <time>2019-07-14T07:16:33.000Z</time>
      </trkpt>
      <trkpt lat="47.26621" lon="-2.3201">
        <ele>11.199999809265</ele>
        <time>2019-07-14T07:16:34.000Z</time>
      </trkpt>
      <trkpt lat="47.26624" lon="-2.32008">
        <ele>11.60000038147</ele>
        <time>2019-07-14T07:16:35.000Z</time>
      </trkpt>
      <trkpt lat="47.26627" lon="-2.32007">
        <ele>12</ele>
        <time>2019-07-14T07:16:36.000Z</time>
      </trkpt>
      <trkpt lat="47.26635" lon="-2.32005">
        <ele>12</ele>
        <time>2019-07-14T07:16:39.000Z</time>
      </trkpt>
      <trkpt lat="47.26646" lon="-2.32007">
        <ele>12</ele>
        <time>2019-07-14T07:16:45.000Z</time>
      </trkpt>
      <trkpt lat="47.26651" lon="-2.32023">
        <ele>12</ele>
        <time>2019-07-14T07:16:49.000Z</time>
      </trkpt>
      <trkpt lat="47.26653" lon="-2.32028">
        <ele>12</ele>
        <time>2019-07-14T07:16:50.000Z</time>
      </trkpt>
      <trkpt lat="47.26659" lon="-2.32055">
        <ele>12</ele>
        <time>2019-07-14T07:16:55.000Z</time>
      </trkpt>
      <trkpt lat="47.2666" lon="-2.3206">
        <ele>12</ele>
        <time>2019-07-14T07:16:56.000Z</time>
      </trkpt>
      <trkpt lat="47.26672" lon="-2.32109">
        <ele>12</ele>
        <time>2019-07-14T07:17:04.000Z</time>
      </trkpt>
      <trkpt lat="47.26676" lon="-2.32121">
        <ele>12</ele>
        <time>2019-07-14T07:17:07.000Z</time>
      </trkpt>
      <trkpt lat="47.26678" lon="-2.32121">
        <ele>12</ele>
        <time>2019-07-14T07:17:08.000Z</time>
      </trkpt>
      <trkpt lat="47.26681" lon="-2.32114">
        <ele>12</ele>
        <time>2019-07-14T07:17:11.000Z</time>
      </trkpt>
      <trkpt lat="47.26682" lon="-2.32093">
        <ele>12</ele>
        <time>2019-07-14T07:17:15.000Z</time>
      </trkpt>
      <trkpt lat="47.26682" lon="-2.32087">
        <ele>12</ele>
        <time>2019-07-14T07:17:16.000Z</time>
      </trkpt>
      <trkpt lat="47.26684" lon="-2.32057">
        <ele>12</ele>
        <time>2019-07-14T07:17:22.000Z</time>
      </trkpt>
      <trkpt lat="47.26686" lon="-2.32037">
        <ele>12</ele>
        <time>2019-07-14T07:17:27.000Z</time>
      </trkpt>
      <trkpt lat="47.26692" lon="-2.32016">
        <ele>12</ele>
        <time>2019-07-14T07:17:32.000Z</time>
      </trkpt>
      <trkpt lat="47.267" lon="-2.32004">
        <ele>12</ele>
        <time>2019-07-14T07:17:35.000Z</time>
      </trkpt>
      <trkpt lat="47.26708" lon="-2.31997">
        <ele>12</ele>
        <time>2019-07-14T07:17:37.000Z</time>
      </trkpt>
      <trkpt lat="47.26739" lon="-2.31974">
        <ele>12</ele>
        <time>2019-07-14T07:17:43.000Z</time>
      </trkpt>
      <trkpt lat="47.26742" lon="-2.31969">
        <ele>11.60000038147</ele>
        <time>2019-07-14T07:17:44.000Z</time>
      </trkpt>
      <trkpt lat="47.26745" lon="-2.31964">
        <ele>11.199999809265</ele>
        <time>2019-07-14T07:17:45.000Z</time>
      </trkpt>
      <trkpt lat="47.26748" lon="-2.31958">
        <ele>10.800000190735</ele>
        <time>2019-07-14T07:17:46.000Z</time>
      </trkpt>
      <trkpt lat="47.26751" lon="-2.31953">
        <ele>10.39999961853</ele>
        <time>2019-07-14T07:17:47.000Z</time>
      </trkpt>
      <trkpt lat="47.26754" lon="-2.31948">
        <ele>10</ele>
        <time>2019-07-14T07:17:48.000Z</time>
      </trkpt>
      <trkpt lat="47.26757" lon="-2.31945">
        <ele>10</ele>
        <time>2019-07-14T07:17:49.000Z</time>
      </trkpt>
      <trkpt lat="47.2676" lon="-2.31945">
        <ele>10</ele>
        <time>2019-07-14T07:17:50.000Z</time>
      </trkpt>
      <trkpt lat="47.26769" lon="-2.31956">
        <ele>10</ele>
        <time>2019-07-14T07:17:53.000Z</time>
      </trkpt>
      <trkpt lat="47.26779" lon="-2.31973">
        <ele>9.6000003814697</ele>
        <time>2019-07-14T07:17:56.000Z</time>
      </trkpt>
      <trkpt lat="47.26783" lon="-2.31979">
        <ele>9.1999998092651</ele>
        <time>2019-07-14T07:17:57.000Z</time>
      </trkpt>
      <trkpt lat="47.26787" lon="-2.31986">
        <ele>8.8000001907349</ele>
        <time>2019-07-14T07:17:58.000Z</time>
      </trkpt>
      <trkpt lat="47.26792" lon="-2.31993">
        <ele>8.3999996185303</ele>
        <time>2019-07-14T07:17:59.000Z</time>
      </trkpt>
      <trkpt lat="47.26796" lon="-2.32">
        <ele>8</ele>
        <time>2019-07-14T07:18:00.000Z</time>
      </trkpt>
      <trkpt lat="47.26804" lon="-2.32015">
        <ele>8</ele>
        <time>2019-07-14T07:18:02.000Z</time>
      </trkpt>
      <trkpt lat="47.26807" lon="-2.32023">
        <ele>8</ele>
        <time>2019-07-14T07:18:03.000Z</time>
      </trkpt>
      <trkpt lat="47.26815" lon="-2.32052">
        <ele>8</ele>
        <time>2019-07-14T07:18:06.000Z</time>
      </trkpt>
      <trkpt lat="47.26817" lon="-2.32062">
        <ele>8</ele>
        <time>2019-07-14T07:18:07.000Z</time>
      </trkpt>
      <trkpt lat="47.26819" lon="-2.32072">
        <ele>7.5999999046326</ele>
        <time>2019-07-14T07:18:08.000Z</time>
      </trkpt>
      <trkpt lat="47.26821" lon="-2.32081">
        <ele>7</ele>
        <time>2019-07-14T07:18:09.000Z</time>
      </trkpt>
      <trkpt lat="47.26824" lon="-2.3209">
        <ele>6.5999999046326</ele>
        <time>2019-07-14T07:18:10.000Z</time>
      </trkpt>
      <trkpt lat="47.26826" lon="-2.32099">
        <ele>6.1999998092651</ele>
        <time>2019-07-14T07:18:11.000Z</time>
      </trkpt>
      <trkpt lat="47.26828" lon="-2.32108">
        <ele>5.8000001907349</ele>
        <time>2019-07-14T07:18:12.000Z</time>
      </trkpt>
      <trkpt lat="47.26835" lon="-2.32133">
        <ele>5.8000001907349</ele>
        <time>2019-07-14T07:18:15.000Z</time>
      </trkpt>
      <trkpt lat="47.26837" lon="-2.32141">
        <ele>5.8000001907349</ele>
        <time>2019-07-14T07:18:16.000Z</time>
      </trkpt>
      <trkpt lat="47.26847" lon="-2.32173">
        <ele>5.4000000953674</ele>
        <time>2019-07-14T07:18:20.000Z</time>
      </trkpt>
      <trkpt lat="47.2685" lon="-2.3218">
        <ele>5</ele>
        <time>2019-07-14T07:18:21.000Z</time>
      </trkpt>
      <trkpt lat="47.26854" lon="-2.32188">
        <ele>4.5999999046326</ele>
        <time>2019-07-14T07:18:22.000Z</time>
      </trkpt>
      <trkpt lat="47.26857" lon="-2.32195">
        <ele>4.1999998092651</ele>
        <time>2019-07-14T07:18:23.000Z</time>
      </trkpt>
      <trkpt lat="47.26861" lon="-2.32203">
        <ele>3.5999999046326</ele>
        <time>2019-07-14T07:18:24.000Z</time>
      </trkpt>
      <trkpt lat="47.26868" lon="-2.32217">
        <ele>3.5999999046326</ele>
        <time>2019-07-14T07:18:26.000Z</time>
      </trkpt>
      <trkpt lat="47.26893" lon="-2.32263">
        <ele>3.2000000476837</ele>
        <time>2019-07-14T07:18:32.000Z</time>
      </trkpt>
      <trkpt lat="47.26897" lon="-2.32271">
        <ele>2.7999999523163</ele>
        <time>2019-07-14T07:18:33.000Z</time>
      </trkpt>
      <trkpt lat="47.26901" lon="-2.32279">
        <ele>2.4000000953674</ele>
        <time>2019-07-14T07:18:34.000Z</time>
      </trkpt>
      <trkpt lat="47.26906" lon="-2.32288">
        <ele>2</ele>
        <time>2019-07-14T07:18:35.000Z</time>
      </trkpt>
      <trkpt lat="47.26909" lon="-2.32297">
        <ele>1.6000000238419</ele>
        <time>2019-07-14T07:18:36.000Z</time>
      </trkpt>
      <trkpt lat="47.26913" lon="-2.32306">
        <ele>1.6000000238419</ele>
        <time>2019-07-14T07:18:37.000Z</time>
      </trkpt>
      <trkpt lat="47.26915" lon="-2.32314">
        <ele>1.2000000476837</ele>
        <time>2019-07-14T07:18:38.000Z</time>
      </trkpt>
      <trkpt lat="47.26917" lon="-2.32322">
        <ele>0.80000001192093</ele>
        <time>2019-07-14T07:18:39.000Z</time>
      </trkpt>
      <trkpt lat="47.26919" lon="-2.3233">
        <ele>0.20000000298023</ele>
        <time>2019-07-14T07:18:40.000Z</time>
      </trkpt>
      <trkpt lat="47.26921" lon="-2.32336">
        <ele>-0.20000000298023</ele>
        <time>2019-07-14T07:18:41.000Z</time>
      </trkpt>
      <trkpt lat="47.26925" lon="-2.32342">
        <ele>-0.60000002384186</ele>
        <time>2019-07-14T07:18:42.000Z</time>
      </trkpt>
      <trkpt lat="47.26932" lon="-2.32353">
        <ele>-0.60000002384186</ele>
        <time>2019-07-14T07:18:44.000Z</time>
      </trkpt>
      <trkpt lat="47.26935" lon="-2.32359">
        <ele>-0.60000002384186</ele>
        <time>2019-07-14T07:18:45.000Z</time>
      </trkpt>
      <trkpt lat="47.2694" lon="-2.32374">
        <ele>-0.60000002384186</ele>
        <time>2019-07-14T07:18:47.000Z</time>
      </trkpt>
      <trkpt lat="47.26945" lon="-2.3239">
        <ele>-0.60000002384186</ele>
        <time>2019-07-14T07:18:49.000Z</time>
      </trkpt>
      <trkpt lat="47.26961" lon="-2.32427">
        <ele>-0.60000002384186</ele>
        <time>2019-07-14T07:18:54.000Z</time>
      </trkpt>
      <trkpt lat="47.2698" lon="-2.32453">
        <ele>-0.60000002384186</ele>
        <time>2019-07-14T07:18:58.000Z</time>
      </trkpt>
      <trkpt lat="47.26984" lon="-2.3246">
        <ele>-0.60000002384186</ele>
        <time>2019-07-14T07:18:59.000Z</time>
      </trkpt>
      <trkpt lat="47.26993" lon="-2.32482">
        <ele>-1</ele>
        <time>2019-07-14T07:19:02.000Z</time>
      </trkpt>
      <trkpt lat="47.26996" lon="-2.32489">
        <ele>-1.3999999761581</ele>
        <time>2019-07-14T07:19:03.000Z</time>
      </trkpt>
      <trkpt lat="47.27" lon="-2.32496">
        <ele>-2</ele>
        <time>2019-07-14T07:19:04.000Z</time>
      </trkpt>
      <trkpt lat="47.27005" lon="-2.32501">
        <ele>-2.4000000953674</ele>
        <time>2019-07-14T07:19:05.000Z</time>
      </trkpt>
      <trkpt lat="47.2701" lon="-2.32503">
        <ele>-2.7999999523163</ele>
        <time>2019-07-14T07:19:06.000Z</time>
      </trkpt>
      <trkpt lat="47.27022" lon="-2.325">
        <ele>-2.7999999523163</ele>
        <time>2019-07-14T07:19:08.000Z</time>
      </trkpt>
      <trkpt lat="47.27034" lon="-2.32484">
        <ele>-3.2000000476837</ele>
        <time>2019-07-14T07:19:11.000Z</time>
      </trkpt>
      <trkpt lat="47.27036" lon="-2.32476">
        <ele>-3.5999999046326</ele>
        <time>2019-07-14T07:19:12.000Z</time>
      </trkpt>
      <trkpt lat="47.27037" lon="-2.32468">
        <ele>-4</ele>
        <time>2019-07-14T07:19:13.000Z</time>
      </trkpt>
      <trkpt lat="47.27037" lon="-2.32459">
        <ele>-4.4000000953674</ele>
        <time>2019-07-14T07:19:14.000Z</time>
      </trkpt>
      <trkpt lat="47.27036" lon="-2.32448">
        <ele>-4.8000001907349</ele>
        <time>2019-07-14T07:19:15.000Z</time>
      </trkpt>
      <trkpt lat="47.27029" lon="-2.32387">
        <ele>-4.8000001907349</ele>
        <time>2019-07-14T07:19:21.000Z</time>
      </trkpt>
      <trkpt lat="47.27028" lon="-2.32379">
        <ele>-4.8000001907349</ele>
        <time>2019-07-14T07:19:22.000Z</time>
      </trkpt>
      <trkpt lat="47.27024" lon="-2.32354">
        <ele>-4.8000001907349</ele>
        <time>2019-07-14T07:19:25.000Z</time>
      </trkpt>
      <trkpt lat="47.27021" lon="-2.32321">
        <ele>-4.8000001907349</ele>
        <time>2019-07-14T07:19:29.000Z</time>
      </trkpt>
      <trkpt lat="47.27019" lon="-2.32312">
        <ele>-4.8000001907349</ele>
        <time>2019-07-14T07:19:30.000Z</time>
      </trkpt>
      <trkpt lat="47.27018" lon="-2.32304">
        <ele>-4.8000001907349</ele>
        <time>2019-07-14T07:19:31.000Z</time>
      </trkpt>
      <trkpt lat="47.27016" lon="-2.32278">
        <ele>-4.8000001907349</ele>
        <time>2019-07-14T07:19:34.000Z</time>
      </trkpt>
      <trkpt lat="47.27016" lon="-2.32263">
        <ele>-4.8000001907349</ele>
        <time>2019-07-14T07:19:36.000Z</time>
      </trkpt>
      <trkpt lat="47.27016" lon="-2.3224">
        <ele>-4.8000001907349</ele>
        <time>2019-07-14T07:19:39.000Z</time>
      </trkpt>
      <trkpt lat="47.27015" lon="-2.32232">
        <ele>-4.8000001907349</ele>
        <time>2019-07-14T07:19:40.000Z</time>
      </trkpt>
      <trkpt lat="47.27011" lon="-2.32206">
        <ele>-4.8000001907349</ele>
        <time>2019-07-14T07:19:43.000Z</time>
      </trkpt>
      <trkpt lat="47.27003" lon="-2.32183">
        <ele>-4.8000001907349</ele>
        <time>2019-07-14T07:19:46.000Z</time>
      </trkpt>
      <trkpt lat="47.26996" lon="-2.3217">
        <ele>-4.8000001907349</ele>
        <time>2019-07-14T07:19:48.000Z</time>
      </trkpt>
      <trkpt lat="47.26987" lon="-2.32149">
        <ele>-4.8000001907349</ele>
        <time>2019-07-14T07:19:51.000Z</time>
      </trkpt>
      <trkpt lat="47.26994" lon="-2.32133">
        <ele>-4.8000001907349</ele>
        <time>2019-07-14T07:19:54.000Z</time>
      </trkpt>
      <trkpt lat="47.26998" lon="-2.32129">
        <ele>-4.8000001907349</ele>
        <time>2019-07-14T07:19:55.000Z</time>
      </trkpt>
      <trkpt lat="47.27003" lon="-2.32125">
        <ele>-4.8000001907349</ele>
        <time>2019-07-14T07:19:56.000Z</time>
      </trkpt>
      <trkpt lat="47.27009" lon="-2.32118">
        <ele>-4.8000001907349</ele>
        <time>2019-07-14T07:19:58.000Z</time>
      </trkpt>
      <trkpt lat="47.27017" lon="-2.32099">
        <ele>-4.8000001907349</ele>
        <time>2019-07-14T07:20:02.000Z</time>
      </trkpt>
      <trkpt lat="47.27017" lon="-2.32091">
        <ele>-4.8000001907349</ele>
        <time>2019-07-14T07:20:03.000Z</time>
      </trkpt>
      <trkpt lat="47.27017" lon="-2.32075">
        <ele>-4.8000001907349</ele>
        <time>2019-07-14T07:20:05.000Z</time>
      </trkpt>
      <trkpt lat="47.27017" lon="-2.32068">
        <ele>-4.8000001907349</ele>
        <time>2019-07-14T07:20:06.000Z</time>
      </trkpt>
      <trkpt lat="47.27016" lon="-2.32055">
        <ele>-4.4000000953674</ele>
        <time>2019-07-14T07:20:08.000Z</time>
      </trkpt>
      <trkpt lat="47.27015" lon="-2.32048">
        <ele>-4</ele>
        <time>2019-07-14T07:20:09.000Z</time>
      </trkpt>
      <trkpt lat="47.27014" lon="-2.32041">
        <ele>-3.5999999046326</ele>
        <time>2019-07-14T07:20:10.000Z</time>
      </trkpt>
      <trkpt lat="47.27013" lon="-2.32034">
        <ele>-3.2000000476837</ele>
        <time>2019-07-14T07:20:11.000Z</time>
      </trkpt>
      <trkpt lat="47.27012" lon="-2.32028">
        <ele>-2.7999999523163</ele>
        <time>2019-07-14T07:20:12.000Z</time>
      </trkpt>
      <trkpt lat="47.27011" lon="-2.32022">
        <ele>-2.7999999523163</ele>
        <time>2019-07-14T07:20:13.000Z</time>
      </trkpt>
      <trkpt lat="47.27007" lon="-2.32005">
        <ele>-2.4000000953674</ele>
        <time>2019-07-14T07:20:16.000Z</time>
      </trkpt>
      <trkpt lat="47.27005" lon="-2.31998">
        <ele>-2</ele>
        <time>2019-07-14T07:20:17.000Z</time>
      </trkpt>
      <trkpt lat="47.27006" lon="-2.31992">
        <ele>-1.6000000238419</ele>
        <time>2019-07-14T07:20:18.000Z</time>
      </trkpt>
      <trkpt lat="47.2701" lon="-2.31986">
        <ele>-1.2000000476837</ele>
        <time>2019-07-14T07:20:19.000Z</time>
      </trkpt>
      <trkpt lat="47.27014" lon="-2.31983">
        <ele>-0.60000002384186</ele>
        <time>2019-07-14T07:20:20.000Z</time>
      </trkpt>
      <trkpt lat="47.27022" lon="-2.31976">
        <ele>-0.60000002384186</ele>
        <time>2019-07-14T07:20:22.000Z</time>
      </trkpt>
      <trkpt lat="47.27034" lon="-2.31967">
        <ele>-0.60000002384186</ele>
        <time>2019-07-14T07:20:25.000Z</time>
      </trkpt>
      <trkpt lat="47.27038" lon="-2.31964">
        <ele>-0.60000002384186</ele>
        <time>2019-07-14T07:20:26.000Z</time>
      </trkpt>
      <trkpt lat="47.2705" lon="-2.31962">
        <ele>-0.60000002384186</ele>
        <time>2019-07-14T07:20:29.000Z</time>
      </trkpt>
      <trkpt lat="47.27056" lon="-2.31961">
        <ele>-0.60000002384186</ele>
        <time>2019-07-14T07:20:33.000Z</time>
      </trkpt>
      <trkpt lat="47.27066" lon="-2.3196">
        <ele>-0.60000002384186</ele>
        <time>2019-07-14T07:20:38.000Z</time>
      </trkpt>
      <trkpt lat="47.27071" lon="-2.31957">
        <ele>-0.60000002384186</ele>
        <time>2019-07-14T07:20:40.000Z</time>
      </trkpt>
      <trkpt lat="47.27072" lon="-2.31953">
        <ele>-0.60000002384186</ele>
        <time>2019-07-14T07:20:41.000Z</time>
      </trkpt>
      <trkpt lat="47.27076" lon="-2.31944">
        <ele>-0.60000002384186</ele>
        <time>2019-07-14T07:20:45.000Z</time>
      </trkpt>
      <trkpt lat="47.27075" lon="-2.31942">
        <ele>-0.60000002384186</ele>
        <time>2019-07-14T07:20:46.000Z</time>
      </trkpt>
      <trkpt lat="47.27076" lon="-2.31927">
        <ele>-0.60000002384186</ele>
        <time>2019-07-14T07:20:50.000Z</time>
      </trkpt>
      <trkpt lat="47.27076" lon="-2.31923">
        <ele>-0.60000002384186</ele>
        <time>2019-07-14T07:20:51.000Z</time>
      </trkpt>
      <trkpt lat="47.27075" lon="-2.31914">
        <ele>-0.60000002384186</ele>
        <time>2019-07-14T07:20:54.000Z</time>
      </trkpt>
      <trkpt lat="47.27074" lon="-2.31907">
        <ele>-0.60000002384186</ele>
        <time>2019-07-14T07:20:56.000Z</time>
      </trkpt>
      <trkpt lat="47.27075" lon="-2.31898">
        <ele>-0.60000002384186</ele>
        <time>2019-07-14T07:20:58.000Z</time>
      </trkpt>
      <trkpt lat="47.27076" lon="-2.31886">
        <ele>-0.60000002384186</ele>
        <time>2019-07-14T07:21:01.000Z</time>
      </trkpt>
      <trkpt lat="47.27076" lon="-2.31871">
        <ele>-0.60000002384186</ele>
        <time>2019-07-14T07:21:05.000Z</time>
      </trkpt>
      <trkpt lat="47.27068" lon="-2.31864">
        <ele>-0.60000002384186</ele>
        <time>2019-07-14T07:21:08.000Z</time>
      </trkpt>
      <trkpt lat="47.27065" lon="-2.31859">
        <ele>-0.60000002384186</ele>
        <time>2019-07-14T07:21:09.000Z</time>
      </trkpt>
      <trkpt lat="47.2706" lon="-2.31838">
        <ele>-0.60000002384186</ele>
        <time>2019-07-14T07:21:12.000Z</time>
      </trkpt>
      <trkpt lat="47.27059" lon="-2.31831">
        <ele>-0.20000000298023</ele>
        <time>2019-07-14T07:21:13.000Z</time>
      </trkpt>
      <trkpt lat="47.27058" lon="-2.31826">
        <ele>0.20000000298023</ele>
        <time>2019-07-14T07:21:14.000Z</time>
      </trkpt>
      <trkpt lat="47.27058" lon="-2.3182">
        <ele>0.60000002384186</ele>
        <time>2019-07-14T07:21:15.000Z</time>
      </trkpt>
      <trkpt lat="47.27058" lon="-2.31815">
        <ele>1</ele>
        <time>2019-07-14T07:21:16.000Z</time>
      </trkpt>
      <trkpt lat="47.27057" lon="-2.3181">
        <ele>1.3999999761581</ele>
        <time>2019-07-14T07:21:17.000Z</time>
      </trkpt>
      <trkpt lat="47.27056" lon="-2.31805">
        <ele>1.3999999761581</ele>
        <time>2019-07-14T07:21:18.000Z</time>
      </trkpt>
      <trkpt lat="47.27053" lon="-2.3178">
        <ele>1.3999999761581</ele>
        <time>2019-07-14T07:21:23.000Z</time>
      </trkpt>
      <trkpt lat="47.27051" lon="-2.31762">
        <ele>1.3999999761581</ele>
        <time>2019-07-14T07:21:28.000Z</time>
      </trkpt>
      <trkpt lat="47.27051" lon="-2.31759">
        <ele>1.7999999523163</ele>
        <time>2019-07-14T07:21:29.000Z</time>
      </trkpt>
      <trkpt lat="47.27051" lon="-2.31755">
        <ele>2.2000000476837</ele>
        <time>2019-07-14T07:21:30.000Z</time>
      </trkpt>
      <trkpt lat="47.27051" lon="-2.31752">
        <ele>2.5999999046326</ele>
        <time>2019-07-14T07:21:31.000Z</time>
      </trkpt>
      <trkpt lat="47.27051" lon="-2.31748">
        <ele>3</ele>
        <time>2019-07-14T07:21:32.000Z</time>
      </trkpt>
      <trkpt lat="47.27051" lon="-2.31744">
        <ele>3.4000000953674</ele>
        <time>2019-07-14T07:21:33.000Z</time>
      </trkpt>
      <trkpt lat="47.27046" lon="-2.31732">
        <ele>3.4000000953674</ele>
        <time>2019-07-14T07:21:37.000Z</time>
      </trkpt>
      <trkpt lat="47.27033" lon="-2.31722">
        <ele>3.4000000953674</ele>
        <time>2019-07-14T07:21:42.000Z</time>
      </trkpt>
      <trkpt lat="47.27028" lon="-2.31717">
        <ele>3.4000000953674</ele>
        <time>2019-07-14T07:21:45.000Z</time>
      </trkpt>
      <trkpt lat="47.27028" lon="-2.31716">
        <ele>3.4000000953674</ele>
        <time>2019-07-14T07:21:46.000Z</time>
      </trkpt>
      <trkpt lat="47.27032" lon="-2.317">
        <ele>3.4000000953674</ele>
        <time>2019-07-14T07:21:51.000Z</time>
      </trkpt>
      <trkpt lat="47.27034" lon="-2.31689">
        <ele>3.7999999523163</ele>
        <time>2019-07-14T07:21:53.000Z</time>
      </trkpt>
      <trkpt lat="47.27034" lon="-2.31683">
        <ele>4.1999998092651</ele>
        <time>2019-07-14T07:21:54.000Z</time>
      </trkpt>
      <trkpt lat="47.27034" lon="-2.31678">
        <ele>4.8000001907349</ele>
        <time>2019-07-14T07:21:55.000Z</time>
      </trkpt>
      <trkpt lat="47.27034" lon="-2.31672">
        <ele>5.1999998092651</ele>
        <time>2019-07-14T07:21:56.000Z</time>
      </trkpt>
      <trkpt lat="47.27033" lon="-2.31667">
        <ele>5.5999999046326</ele>
        <time>2019-07-14T07:21:57.000Z</time>
      </trkpt>
      <trkpt lat="47.2703" lon="-2.31641">
        <ele>5.5999999046326</ele>
        <time>2019-07-14T07:22:02.000Z</time>
      </trkpt>
      <trkpt lat="47.2703" lon="-2.31638">
        <ele>5.5999999046326</ele>
        <time>2019-07-14T07:22:03.000Z</time>
      </trkpt>
      <trkpt lat="47.2703" lon="-2.3163">
        <ele>6</ele>
        <time>2019-07-14T07:22:05.000Z</time>
      </trkpt>
      <trkpt lat="47.27029" lon="-2.31626">
        <ele>6.4000000953674</ele>
        <time>2019-07-14T07:22:06.000Z</time>
      </trkpt>
      <trkpt lat="47.27028" lon="-2.31621">
        <ele>6.8000001907349</ele>
        <time>2019-07-14T07:22:07.000Z</time>
      </trkpt>
      <trkpt lat="47.27028" lon="-2.31616">
        <ele>7.1999998092651</ele>
        <time>2019-07-14T07:22:08.000Z</time>
      </trkpt>
      <trkpt lat="47.27027" lon="-2.31612">
        <ele>7.5999999046326</ele>
        <time>2019-07-14T07:22:09.000Z</time>
      </trkpt>
      <trkpt lat="47.27026" lon="-2.31607">
        <ele>7.5999999046326</ele>
        <time>2019-07-14T07:22:10.000Z</time>
      </trkpt>
      <trkpt lat="47.27022" lon="-2.31593">
        <ele>8.1999998092651</ele>
        <time>2019-07-14T07:22:12.000Z</time>
      </trkpt>
      <trkpt lat="47.2702" lon="-2.31586">
        <ele>8.6000003814697</ele>
        <time>2019-07-14T07:22:13.000Z</time>
      </trkpt>
      <trkpt lat="47.27017" lon="-2.31581">
        <ele>9</ele>
        <time>2019-07-14T07:22:14.000Z</time>
      </trkpt>
      <trkpt lat="47.27015" lon="-2.31575">
        <ele>9.6000003814697</ele>
        <time>2019-07-14T07:22:15.000Z</time>
      </trkpt>
      <trkpt lat="47.27013" lon="-2.3157">
        <ele>10</ele>
        <time>2019-07-14T07:22:16.000Z</time>
      </trkpt>
      <trkpt lat="47.27006" lon="-2.31545">
        <ele>10.39999961853</ele>
        <time>2019-07-14T07:22:21.000Z</time>
      </trkpt>
      <trkpt lat="47.27004" lon="-2.3154">
        <ele>10.800000190735</ele>
        <time>2019-07-14T07:22:22.000Z</time>
      </trkpt>
      <trkpt lat="47.27003" lon="-2.31535">
        <ele>11.199999809265</ele>
        <time>2019-07-14T07:22:23.000Z</time>
      </trkpt>
      <trkpt lat="47.27002" lon="-2.31529">
        <ele>11.800000190735</ele>
        <time>2019-07-14T07:22:24.000Z</time>
      </trkpt>
      <trkpt lat="47.27" lon="-2.31523">
        <ele>12.199999809265</ele>
        <time>2019-07-14T07:22:25.000Z</time>
      </trkpt>
      <trkpt lat="47.26999" lon="-2.31518">
        <ele>12.199999809265</ele>
        <time>2019-07-14T07:22:26.000Z</time>
      </trkpt>
      <trkpt lat="47.26993" lon="-2.31493">
        <ele>12.60000038147</ele>
        <time>2019-07-14T07:22:31.000Z</time>
      </trkpt>
      <trkpt lat="47.26992" lon="-2.31488">
        <ele>13</ele>
        <time>2019-07-14T07:22:32.000Z</time>
      </trkpt>
      <trkpt lat="47.26992" lon="-2.31484">
        <ele>13.60000038147</ele>
        <time>2019-07-14T07:22:33.000Z</time>
      </trkpt>
      <trkpt lat="47.26991" lon="-2.3148">
        <ele>14</ele>
        <time>2019-07-14T07:22:34.000Z</time>
      </trkpt>
      <trkpt lat="47.2699" lon="-2.31477">
        <ele>14.39999961853</ele>
        <time>2019-07-14T07:22:35.000Z</time>
      </trkpt>
      <trkpt lat="47.26991" lon="-2.3147">
        <ele>14.39999961853</ele>
        <time>2019-07-14T07:22:37.000Z</time>
      </trkpt>
      <trkpt lat="47.26992" lon="-2.31458">
        <ele>14.39999961853</ele>
        <time>2019-07-14T07:22:39.000Z</time>
      </trkpt>
      <trkpt lat="47.2699" lon="-2.31435">
        <ele>14.39999961853</ele>
        <time>2019-07-14T07:22:42.000Z</time>
      </trkpt>
      <trkpt lat="47.26988" lon="-2.3142">
        <ele>14.39999961853</ele>
        <time>2019-07-14T07:22:44.000Z</time>
      </trkpt>
      <trkpt lat="47.26986" lon="-2.31402">
        <ele>15</ele>
        <time>2019-07-14T07:22:46.000Z</time>
      </trkpt>
      <trkpt lat="47.26986" lon="-2.31395">
        <ele>15.39999961853</ele>
        <time>2019-07-14T07:22:47.000Z</time>
      </trkpt>
      <trkpt lat="47.26985" lon="-2.31389">
        <ele>15.800000190735</ele>
        <time>2019-07-14T07:22:48.000Z</time>
      </trkpt>
      <trkpt lat="47.26984" lon="-2.31383">
        <ele>16.200000762939</ele>
        <time>2019-07-14T07:22:49.000Z</time>
      </trkpt>
      <trkpt lat="47.26983" lon="-2.31377">
        <ele>16.799999237061</ele>
        <time>2019-07-14T07:22:50.000Z</time>
      </trkpt>
      <trkpt lat="47.26982" lon="-2.31356">
        <ele>16.799999237061</ele>
        <time>2019-07-14T07:22:54.000Z</time>
      </trkpt>
      <trkpt lat="47.26979" lon="-2.31345">
        <ele>17.200000762939</ele>
        <time>2019-07-14T07:22:56.000Z</time>
      </trkpt>
      <trkpt lat="47.26978" lon="-2.31339">
        <ele>17.60000038147</ele>
        <time>2019-07-14T07:22:57.000Z</time>
      </trkpt>
      <trkpt lat="47.26977" lon="-2.31333">
        <ele>18</ele>
        <time>2019-07-14T07:22:58.000Z</time>
      </trkpt>
      <trkpt lat="47.26976" lon="-2.31326">
        <ele>18.39999961853</ele>
        <time>2019-07-14T07:22:59.000Z</time>
      </trkpt>
      <trkpt lat="47.26975" lon="-2.3132">
        <ele>18.799999237061</ele>
        <time>2019-07-14T07:23:00.000Z</time>
      </trkpt>
      <trkpt lat="47.26974" lon="-2.31302">
        <ele>18.799999237061</ele>
        <time>2019-07-14T07:23:03.000Z</time>
      </trkpt>
      <trkpt lat="47.26974" lon="-2.31286">
        <ele>18.799999237061</ele>
        <time>2019-07-14T07:23:05.000Z</time>
      </trkpt>
      <trkpt lat="47.26972" lon="-2.31251">
        <ele>18.799999237061</ele>
        <time>2019-07-14T07:23:09.000Z</time>
      </trkpt>
      <trkpt lat="47.26973" lon="-2.31243">
        <ele>18.799999237061</ele>
        <time>2019-07-14T07:23:10.000Z</time>
      </trkpt>
      <trkpt lat="47.2698" lon="-2.31199">
        <ele>18.799999237061</ele>
        <time>2019-07-14T07:23:15.000Z</time>
      </trkpt>
      <trkpt lat="47.26985" lon="-2.31151">
        <ele>18.799999237061</ele>
        <time>2019-07-14T07:23:20.000Z</time>
      </trkpt>
      <trkpt lat="47.26989" lon="-2.31119">
        <ele>18.39999961853</ele>
        <time>2019-07-14T07:23:23.000Z</time>
      </trkpt>
      <trkpt lat="47.26988" lon="-2.31108">
        <ele>18</ele>
        <time>2019-07-14T07:23:24.000Z</time>
      </trkpt>
      <trkpt lat="47.26987" lon="-2.31099">
        <ele>17</ele>
        <time>2019-07-14T07:23:25.000Z</time>
      </trkpt>
      <trkpt lat="47.26986" lon="-2.3109">
        <ele>16.60000038147</ele>
        <time>2019-07-14T07:23:26.000Z</time>
      </trkpt>
      <trkpt lat="47.26985" lon="-2.31078">
        <ele>16.60000038147</ele>
        <time>2019-07-14T07:23:28.000Z</time>
      </trkpt>
      <trkpt lat="47.26989" lon="-2.31069">
        <ele>16.200000762939</ele>
        <time>2019-07-14T07:23:30.000Z</time>
      </trkpt>
      <trkpt lat="47.26992" lon="-2.31065">
        <ele>15.800000190735</ele>
        <time>2019-07-14T07:23:31.000Z</time>
      </trkpt>
      <trkpt lat="47.26996" lon="-2.31062">
        <ele>15.39999961853</ele>
        <time>2019-07-14T07:23:32.000Z</time>
      </trkpt>
      <trkpt lat="47.27" lon="-2.31058">
        <ele>15</ele>
        <time>2019-07-14T07:23:33.000Z</time>
      </trkpt>
      <trkpt lat="47.27005" lon="-2.31055">
        <ele>14.60000038147</ele>
        <time>2019-07-14T07:23:34.000Z</time>
      </trkpt>
      <trkpt lat="47.2701" lon="-2.31051">
        <ele>14.60000038147</ele>
        <time>2019-07-14T07:23:35.000Z</time>
      </trkpt>
      <trkpt lat="47.27039" lon="-2.31024">
        <ele>14</ele>
        <time>2019-07-14T07:23:41.000Z</time>
      </trkpt>
      <trkpt lat="47.27044" lon="-2.31019">
        <ele>13.60000038147</ele>
        <time>2019-07-14T07:23:42.000Z</time>
      </trkpt>
      <trkpt lat="47.27049" lon="-2.31014">
        <ele>13.199999809265</ele>
        <time>2019-07-14T07:23:43.000Z</time>
      </trkpt>
      <trkpt lat="47.27053" lon="-2.31009">
        <ele>12.60000038147</ele>
        <time>2019-07-14T07:23:44.000Z</time>
      </trkpt>
      <trkpt lat="47.27056" lon="-2.31003">
        <ele>12.199999809265</ele>
        <time>2019-07-14T07:23:45.000Z</time>
      </trkpt>
      <trkpt lat="47.27057" lon="-2.30996">
        <ele>12.199999809265</ele>
        <time>2019-07-14T07:23:46.000Z</time>
      </trkpt>
      <trkpt lat="47.27055" lon="-2.30983">
        <ele>12.199999809265</ele>
        <time>2019-07-14T07:23:48.000Z</time>
      </trkpt>
      <trkpt lat="47.27055" lon="-2.30976">
        <ele>12.199999809265</ele>
        <time>2019-07-14T07:23:49.000Z</time>
      </trkpt>
      <trkpt lat="47.27055" lon="-2.30969">
        <ele>12.199999809265</ele>
        <time>2019-07-14T07:23:50.000Z</time>
      </trkpt>
      <trkpt lat="47.27051" lon="-2.30944">
        <ele>12.199999809265</ele>
        <time>2019-07-14T07:23:54.000Z</time>
      </trkpt>
      <trkpt lat="47.27049" lon="-2.30939">
        <ele>12.199999809265</ele>
        <time>2019-07-14T07:23:55.000Z</time>
      </trkpt>
      <trkpt lat="47.27045" lon="-2.30929">
        <ele>12.199999809265</ele>
        <time>2019-07-14T07:23:57.000Z</time>
      </trkpt>
      <trkpt lat="47.27044" lon="-2.30925">
        <ele>12.199999809265</ele>
        <time>2019-07-14T07:23:58.000Z</time>
      </trkpt>
      <trkpt lat="47.27041" lon="-2.30914">
        <ele>12.199999809265</ele>
        <time>2019-07-14T07:24:01.000Z</time>
      </trkpt>
      <trkpt lat="47.27041" lon="-2.3091">
        <ele>12.199999809265</ele>
        <time>2019-07-14T07:24:02.000Z</time>
      </trkpt>
      <trkpt lat="47.2704" lon="-2.30905">
        <ele>12.199999809265</ele>
        <time>2019-07-14T07:24:03.000Z</time>
      </trkpt>
      <trkpt lat="47.27037" lon="-2.30894">
        <ele>12.199999809265</ele>
        <time>2019-07-14T07:24:05.000Z</time>
      </trkpt>
      <trkpt lat="47.27023" lon="-2.30865">
        <ele>12.199999809265</ele>
        <time>2019-07-14T07:24:10.000Z</time>
      </trkpt>
      <trkpt lat="47.27013" lon="-2.30847">
        <ele>12.199999809265</ele>
        <time>2019-07-14T07:24:13.000Z</time>
      </trkpt>
      <trkpt lat="47.2701" lon="-2.30841">
        <ele>12.199999809265</ele>
        <time>2019-07-14T07:24:14.000Z</time>
      </trkpt>
      <trkpt lat="47.27003" lon="-2.30831">
        <ele>12.199999809265</ele>
        <time>2019-07-14T07:24:16.000Z</time>
      </trkpt>
      <trkpt lat="47.26992" lon="-2.30815">
        <ele>12.199999809265</ele>
        <time>2019-07-14T07:24:19.000Z</time>
      </trkpt>
      <trkpt lat="47.2698" lon="-2.30797">
        <ele>12.60000038147</ele>
        <time>2019-07-14T07:24:23.000Z</time>
      </trkpt>
      <trkpt lat="47.26977" lon="-2.30793">
        <ele>13</ele>
        <time>2019-07-14T07:24:24.000Z</time>
      </trkpt>
      <trkpt lat="47.26974" lon="-2.30788">
        <ele>13.39999961853</ele>
        <time>2019-07-14T07:24:25.000Z</time>
      </trkpt>
      <trkpt lat="47.26971" lon="-2.30784">
        <ele>13.800000190735</ele>
        <time>2019-07-14T07:24:26.000Z</time>
      </trkpt>
      <trkpt lat="47.26968" lon="-2.30779">
        <ele>14.199999809265</ele>
        <time>2019-07-14T07:24:27.000Z</time>
      </trkpt>
      <trkpt lat="47.26965" lon="-2.30774">
        <ele>14.199999809265</ele>
        <time>2019-07-14T07:24:28.000Z</time>
      </trkpt>
      <trkpt lat="47.26961" lon="-2.3077">
        <ele>14.199999809265</ele>
        <time>2019-07-14T07:24:29.000Z</time>
      </trkpt>
      <trkpt lat="47.26953" lon="-2.3076">
        <ele>14.199999809265</ele>
        <time>2019-07-14T07:24:31.000Z</time>
      </trkpt>
      <trkpt lat="47.26947" lon="-2.30751">
        <ele>14.199999809265</ele>
        <time>2019-07-14T07:24:33.000Z</time>
      </trkpt>
      <trkpt lat="47.26945" lon="-2.30746">
        <ele>14.199999809265</ele>
        <time>2019-07-14T07:24:34.000Z</time>
      </trkpt>
      <trkpt lat="47.26939" lon="-2.30735">
        <ele>14.60000038147</ele>
        <time>2019-07-14T07:24:36.000Z</time>
      </trkpt>
      <trkpt lat="47.26935" lon="-2.3073">
        <ele>15</ele>
        <time>2019-07-14T07:24:37.000Z</time>
      </trkpt>
      <trkpt lat="47.26932" lon="-2.30725">
        <ele>15.39999961853</ele>
        <time>2019-07-14T07:24:38.000Z</time>
      </trkpt>
      <trkpt lat="47.2693" lon="-2.30721">
        <ele>16.39999961853</ele>
        <time>2019-07-14T07:24:39.000Z</time>
      </trkpt>
      <trkpt lat="47.26927" lon="-2.30716">
        <ele>16.39999961853</ele>
        <time>2019-07-14T07:24:40.000Z</time>
      </trkpt>
      <trkpt lat="47.2691" lon="-2.3069">
        <ele>16.39999961853</ele>
        <time>2019-07-14T07:24:46.000Z</time>
      </trkpt>
      <trkpt lat="47.26902" lon="-2.30677">
        <ele>16.39999961853</ele>
        <time>2019-07-14T07:24:49.000Z</time>
      </trkpt>
      <trkpt lat="47.26901" lon="-2.30671">
        <ele>16.39999961853</ele>
        <time>2019-07-14T07:24:50.000Z</time>
      </trkpt>
      <trkpt lat="47.26905" lon="-2.30655">
        <ele>16.39999961853</ele>
        <time>2019-07-14T07:24:53.000Z</time>
      </trkpt>
      <trkpt lat="47.26907" lon="-2.30652">
        <ele>16.39999961853</ele>
        <time>2019-07-14T07:24:54.000Z</time>
      </trkpt>
      <trkpt lat="47.2692" lon="-2.30639">
        <ele>16.39999961853</ele>
        <time>2019-07-14T07:24:58.000Z</time>
      </trkpt>
      <trkpt lat="47.26941" lon="-2.30633">
        <ele>16.39999961853</ele>
        <time>2019-07-14T07:25:02.000Z</time>
      </trkpt>
      <trkpt lat="47.26977" lon="-2.30619">
        <ele>16.39999961853</ele>
        <time>2019-07-14T07:25:08.000Z</time>
      </trkpt>
      <trkpt lat="47.27003" lon="-2.30602">
        <ele>16.39999961853</ele>
        <time>2019-07-14T07:25:13.000Z</time>
      </trkpt>
      <trkpt lat="47.27008" lon="-2.30597">
        <ele>16.39999961853</ele>
        <time>2019-07-14T07:25:14.000Z</time>
      </trkpt>
      <trkpt lat="47.27018" lon="-2.3058">
        <ele>16.39999961853</ele>
        <time>2019-07-14T07:25:17.000Z</time>
      </trkpt>
      <trkpt lat="47.27021" lon="-2.30573">
        <ele>16.39999961853</ele>
        <time>2019-07-14T07:25:18.000Z</time>
      </trkpt>
      <trkpt lat="47.27027" lon="-2.3054">
        <ele>16.39999961853</ele>
        <time>2019-07-14T07:25:22.000Z</time>
      </trkpt>
      <trkpt lat="47.27037" lon="-2.30489">
        <ele>16.39999961853</ele>
        <time>2019-07-14T07:25:28.000Z</time>
      </trkpt>
      <trkpt lat="47.27042" lon="-2.30476">
        <ele>16.39999961853</ele>
        <time>2019-07-14T07:25:32.000Z</time>
      </trkpt>
      <trkpt lat="47.27051" lon="-2.30478">
        <ele>16.39999961853</ele>
        <time>2019-07-14T07:25:37.000Z</time>
      </trkpt>
      <trkpt lat="47.27062" lon="-2.30481">
        <ele>16.39999961853</ele>
        <time>2019-07-14T07:25:40.000Z</time>
      </trkpt>
      <trkpt lat="47.27067" lon="-2.30482">
        <ele>16.39999961853</ele>
        <time>2019-07-14T07:25:41.000Z</time>
      </trkpt>
      <trkpt lat="47.27078" lon="-2.30485">
        <ele>16</ele>
        <time>2019-07-14T07:25:44.000Z</time>
      </trkpt>
      <trkpt lat="47.27081" lon="-2.30486">
        <ele>15.60000038147</ele>
        <time>2019-07-14T07:25:45.000Z</time>
      </trkpt>
      <trkpt lat="47.27086" lon="-2.30487">
        <ele>15.199999809265</ele>
        <time>2019-07-14T07:25:46.000Z</time>
      </trkpt>
      <trkpt lat="47.2709" lon="-2.30488">
        <ele>14.60000038147</ele>
        <time>2019-07-14T07:25:47.000Z</time>
      </trkpt>
      <trkpt lat="47.27093" lon="-2.30489">
        <ele>14.199999809265</ele>
        <time>2019-07-14T07:25:48.000Z</time>
      </trkpt>
      <trkpt lat="47.271" lon="-2.30488">
        <ele>14.199999809265</ele>
        <time>2019-07-14T07:25:50.000Z</time>
      </trkpt>
      <trkpt lat="47.27105" lon="-2.30491">
        <ele>14.199999809265</ele>
        <time>2019-07-14T07:25:51.000Z</time>
      </trkpt>
      <trkpt lat="47.27115" lon="-2.30496">
        <ele>14.199999809265</ele>
        <time>2019-07-14T07:25:53.000Z</time>
      </trkpt>
      <trkpt lat="47.27126" lon="-2.305">
        <ele>13.800000190735</ele>
        <time>2019-07-14T07:25:55.000Z</time>
      </trkpt>
      <trkpt lat="47.27131" lon="-2.30502">
        <ele>13.39999961853</ele>
        <time>2019-07-14T07:25:56.000Z</time>
      </trkpt>
      <trkpt lat="47.27136" lon="-2.30504">
        <ele>13</ele>
        <time>2019-07-14T07:25:57.000Z</time>
      </trkpt>
      <trkpt lat="47.27141" lon="-2.30507">
        <ele>12.60000038147</ele>
        <time>2019-07-14T07:25:58.000Z</time>
      </trkpt>
      <trkpt lat="47.27144" lon="-2.30511">
        <ele>12.199999809265</ele>
        <time>2019-07-14T07:25:59.000Z</time>
      </trkpt>
      <trkpt lat="47.27148" lon="-2.30515">
        <ele>12.199999809265</ele>
        <time>2019-07-14T07:26:00.000Z</time>
      </trkpt>
      <trkpt lat="47.27151" lon="-2.30518">
        <ele>12.199999809265</ele>
        <time>2019-07-14T07:26:01.000Z</time>
      </trkpt>
      <trkpt lat="47.27155" lon="-2.30521">
        <ele>12.199999809265</ele>
        <time>2019-07-14T07:26:02.000Z</time>
      </trkpt>
      <trkpt lat="47.27164" lon="-2.30527">
        <ele>12.199999809265</ele>
        <time>2019-07-14T07:26:04.000Z</time>
      </trkpt>
      <trkpt lat="47.27169" lon="-2.3053">
        <ele>12.199999809265</ele>
        <time>2019-07-14T07:26:05.000Z</time>
      </trkpt>
      <trkpt lat="47.27174" lon="-2.30531">
        <ele>12.199999809265</ele>
        <time>2019-07-14T07:26:06.000Z</time>
      </trkpt>
      <trkpt lat="47.27181" lon="-2.30534">
        <ele>11.800000190735</ele>
        <time>2019-07-14T07:26:08.000Z</time>
      </trkpt>
      <trkpt lat="47.27183" lon="-2.30536">
        <ele>11.39999961853</ele>
        <time>2019-07-14T07:26:09.000Z</time>
      </trkpt>
      <trkpt lat="47.27185" lon="-2.30537">
        <ele>11</ele>
        <time>2019-07-14T07:26:10.000Z</time>
      </trkpt>
      <trkpt lat="47.27187" lon="-2.30538">
        <ele>10.60000038147</ele>
        <time>2019-07-14T07:26:11.000Z</time>
      </trkpt>
      <trkpt lat="47.27188" lon="-2.30539">
        <ele>10</ele>
        <time>2019-07-14T07:26:12.000Z</time>
      </trkpt>
      <trkpt lat="47.27192" lon="-2.30541">
        <ele>10</ele>
        <time>2019-07-14T07:26:14.000Z</time>
      </trkpt>
      <trkpt lat="47.27193" lon="-2.30541">
        <ele>10</ele>
        <time>2019-07-14T07:26:15.000Z</time>
      </trkpt>
      <trkpt lat="47.27202" lon="-2.30544">
        <ele>10</ele>
        <time>2019-07-14T07:26:18.000Z</time>
      </trkpt>
      <trkpt lat="47.27205" lon="-2.30543">
        <ele>10</ele>
        <time>2019-07-14T07:26:19.000Z</time>
      </trkpt>
      <trkpt lat="47.27211" lon="-2.30542">
        <ele>10</ele>
        <time>2019-07-14T07:26:21.000Z</time>
      </trkpt>
      <trkpt lat="47.27218" lon="-2.30541">
        <ele>10</ele>
        <time>2019-07-14T07:26:23.000Z</time>
      </trkpt>
      <trkpt lat="47.27241" lon="-2.3054">
        <ele>10</ele>
        <time>2019-07-14T07:26:29.000Z</time>
      </trkpt>
      <trkpt lat="47.27254" lon="-2.30542">
        <ele>9.6000003814697</ele>
        <time>2019-07-14T07:26:32.000Z</time>
      </trkpt>
      <trkpt lat="47.27258" lon="-2.30542">
        <ele>9.1999998092651</ele>
        <time>2019-07-14T07:26:33.000Z</time>
      </trkpt>
      <trkpt lat="47.27262" lon="-2.3054">
        <ele>8.8000001907349</ele>
        <time>2019-07-14T07:26:34.000Z</time>
      </trkpt>
      <trkpt lat="47.27266" lon="-2.30537">
        <ele>8.3999996185303</ele>
        <time>2019-07-14T07:26:35.000Z</time>
      </trkpt>
      <trkpt lat="47.2727" lon="-2.30534">
        <ele>7.8000001907349</ele>
        <time>2019-07-14T07:26:36.000Z</time>
      </trkpt>
      <trkpt lat="47.27288" lon="-2.30524">
        <ele>7.8000001907349</ele>
        <time>2019-07-14T07:26:40.000Z</time>
      </trkpt>
      <trkpt lat="47.27303" lon="-2.30517">
        <ele>7.8000001907349</ele>
        <time>2019-07-14T07:26:44.000Z</time>
      </trkpt>
      <trkpt lat="47.27316" lon="-2.30513">
        <ele>7.8000001907349</ele>
        <time>2019-07-14T07:26:47.000Z</time>
      </trkpt>
      <trkpt lat="47.27325" lon="-2.30511">
        <ele>7.8000001907349</ele>
        <time>2019-07-14T07:26:49.000Z</time>
      </trkpt>
      <trkpt lat="47.27343" lon="-2.30508">
        <ele>7.8000001907349</ele>
        <time>2019-07-14T07:26:54.000Z</time>
      </trkpt>
      <trkpt lat="47.27357" lon="-2.30498">
        <ele>7.8000001907349</ele>
        <time>2019-07-14T07:26:59.000Z</time>
      </trkpt>
      <trkpt lat="47.27375" lon="-2.3048">
        <ele>7.8000001907349</ele>
        <time>2019-07-14T07:27:05.000Z</time>
      </trkpt>
      <trkpt lat="47.27386" lon="-2.30468">
        <ele>7.8000001907349</ele>
        <time>2019-07-14T07:27:08.000Z</time>
      </trkpt>
      <trkpt lat="47.27397" lon="-2.30462">
        <ele>7.8000001907349</ele>
        <time>2019-07-14T07:27:12.000Z</time>
      </trkpt>
      <trkpt lat="47.27401" lon="-2.30461">
        <ele>7.8000001907349</ele>
        <time>2019-07-14T07:27:16.000Z</time>
      </trkpt>
      <trkpt lat="47.27405" lon="-2.30459">
        <ele>7.8000001907349</ele>
        <time>2019-07-14T07:27:18.000Z</time>
      </trkpt>
      <trkpt lat="47.27409" lon="-2.3045">
        <ele>7.8000001907349</ele>
        <time>2019-07-14T07:27:21.000Z</time>
      </trkpt>
      <trkpt lat="47.27422" lon="-2.3045">
        <ele>7.8000001907349</ele>
        <time>2019-07-14T07:27:24.000Z</time>
      </trkpt>
      <trkpt lat="47.27429" lon="-2.30449">
        <ele>7.8000001907349</ele>
        <time>2019-07-14T07:27:25.000Z</time>
      </trkpt>
      <trkpt lat="47.27446" lon="-2.30448">
        <ele>7.8000001907349</ele>
        <time>2019-07-14T07:27:28.000Z</time>
      </trkpt>
      <trkpt lat="47.27452" lon="-2.30447">
        <ele>7.8000001907349</ele>
        <time>2019-07-14T07:27:29.000Z</time>
      </trkpt>
      <trkpt lat="47.27481" lon="-2.30441">
        <ele>7.8000001907349</ele>
        <time>2019-07-14T07:27:34.000Z</time>
      </trkpt>
      <trkpt lat="47.2749" lon="-2.30437">
        <ele>7.8000001907349</ele>
        <time>2019-07-14T07:27:36.000Z</time>
      </trkpt>
      <trkpt lat="47.27498" lon="-2.30428">
        <ele>7.8000001907349</ele>
        <time>2019-07-14T07:27:38.000Z</time>
      </trkpt>
      <trkpt lat="47.27498" lon="-2.30408">
        <ele>7.8000001907349</ele>
        <time>2019-07-14T07:27:41.000Z</time>
      </trkpt>
      <trkpt lat="47.27496" lon="-2.30396">
        <ele>7.8000001907349</ele>
        <time>2019-07-14T07:27:43.000Z</time>
      </trkpt>
      <trkpt lat="47.27494" lon="-2.3038">
        <ele>7.8000001907349</ele>
        <time>2019-07-14T07:27:46.000Z</time>
      </trkpt>
      <trkpt lat="47.27492" lon="-2.30369">
        <ele>8.1999998092651</ele>
        <time>2019-07-14T07:27:48.000Z</time>
      </trkpt>
      <trkpt lat="47.2749" lon="-2.30363">
        <ele>8.6000003814697</ele>
        <time>2019-07-14T07:27:49.000Z</time>
      </trkpt>
      <trkpt lat="47.27489" lon="-2.30358">
        <ele>9</ele>
        <time>2019-07-14T07:27:50.000Z</time>
      </trkpt>
      <trkpt lat="47.27487" lon="-2.30352">
        <ele>9.3999996185303</ele>
        <time>2019-07-14T07:27:51.000Z</time>
      </trkpt>
      <trkpt lat="47.27486" lon="-2.30347">
        <ele>9.8000001907349</ele>
        <time>2019-07-14T07:27:52.000Z</time>
      </trkpt>
      <trkpt lat="47.27484" lon="-2.30331">
        <ele>9.8000001907349</ele>
        <time>2019-07-14T07:27:55.000Z</time>
      </trkpt>
      <trkpt lat="47.27479" lon="-2.30308">
        <ele>10.199999809265</ele>
        <time>2019-07-14T07:27:59.000Z</time>
      </trkpt>
      <trkpt lat="47.27477" lon="-2.30302">
        <ele>10.60000038147</ele>
        <time>2019-07-14T07:28:00.000Z</time>
      </trkpt>
      <trkpt lat="47.27475" lon="-2.30296">
        <ele>11</ele>
        <time>2019-07-14T07:28:01.000Z</time>
      </trkpt>
      <trkpt lat="47.27474" lon="-2.30289">
        <ele>11.39999961853</ele>
        <time>2019-07-14T07:28:02.000Z</time>
      </trkpt>
      <trkpt lat="47.27473" lon="-2.30284">
        <ele>11.800000190735</ele>
        <time>2019-07-14T07:28:03.000Z</time>
      </trkpt>
      <trkpt lat="47.27471" lon="-2.30272">
        <ele>11.800000190735</ele>
        <time>2019-07-14T07:28:05.000Z</time>
      </trkpt>
      <trkpt lat="47.27467" lon="-2.30251">
        <ele>12.39999961853</ele>
        <time>2019-07-14T07:28:09.000Z</time>
      </trkpt>
      <trkpt lat="47.27465" lon="-2.30245">
        <ele>12.800000190735</ele>
        <time>2019-07-14T07:28:10.000Z</time>
      </trkpt>
      <trkpt lat="47.27464" lon="-2.3024">
        <ele>13.199999809265</ele>
        <time>2019-07-14T07:28:11.000Z</time>
      </trkpt>
      <trkpt lat="47.27463" lon="-2.30235">
        <ele>13.60000038147</ele>
        <time>2019-07-14T07:28:12.000Z</time>
      </trkpt>
      <trkpt lat="47.27461" lon="-2.3023">
        <ele>14</ele>
        <time>2019-07-14T07:28:13.000Z</time>
      </trkpt>
      <trkpt lat="47.27458" lon="-2.30223">
        <ele>14</ele>
        <time>2019-07-14T07:28:15.000Z</time>
      </trkpt>
      <trkpt lat="47.27449" lon="-2.30223">
        <ele>14</ele>
        <time>2019-07-14T07:28:18.000Z</time>
      </trkpt>
      <trkpt lat="47.27436" lon="-2.30232">
        <ele>14.800000190735</ele>
        <time>2019-07-14T07:28:22.000Z</time>
      </trkpt>
      <trkpt lat="47.27432" lon="-2.30234">
        <ele>15.199999809265</ele>
        <time>2019-07-14T07:28:23.000Z</time>
      </trkpt>
      <trkpt lat="47.27428" lon="-2.30236">
        <ele>15.60000038147</ele>
        <time>2019-07-14T07:28:24.000Z</time>
      </trkpt>
      <trkpt lat="47.27424" lon="-2.30239">
        <ele>16</ele>
        <time>2019-07-14T07:28:25.000Z</time>
      </trkpt>
      <trkpt lat="47.27414" lon="-2.30244">
        <ele>16</ele>
        <time>2019-07-14T07:28:27.000Z</time>
      </trkpt>
      <trkpt lat="47.27398" lon="-2.30251">
        <ele>16</ele>
        <time>2019-07-14T07:28:30.000Z</time>
      </trkpt>
      <trkpt lat="47.27382" lon="-2.30256">
        <ele>16</ele>
        <time>2019-07-14T07:28:33.000Z</time>
      </trkpt>
      <trkpt lat="47.27367" lon="-2.3026">
        <ele>16</ele>
        <time>2019-07-14T07:28:36.000Z</time>
      </trkpt>
      <trkpt lat="47.27351" lon="-2.30261">
        <ele>16</ele>
        <time>2019-07-14T07:28:39.000Z</time>
      </trkpt>
      <trkpt lat="47.27341" lon="-2.30262">
        <ele>16</ele>
        <time>2019-07-14T07:28:41.000Z</time>
      </trkpt>
      <trkpt lat="47.27323" lon="-2.30265">
        <ele>16</ele>
        <time>2019-07-14T07:28:44.000Z</time>
      </trkpt>
      <trkpt lat="47.27307" lon="-2.30268">
        <ele>16</ele>
        <time>2019-07-14T07:28:47.000Z</time>
      </trkpt>
      <trkpt lat="47.27302" lon="-2.30268">
        <ele>16</ele>
        <time>2019-07-14T07:28:48.000Z</time>
      </trkpt>
      <trkpt lat="47.27278" lon="-2.30273">
        <ele>15.60000038147</ele>
        <time>2019-07-14T07:28:52.000Z</time>
      </trkpt>
      <trkpt lat="47.27271" lon="-2.30275">
        <ele>15.199999809265</ele>
        <time>2019-07-14T07:28:53.000Z</time>
      </trkpt>
      <trkpt lat="47.27265" lon="-2.30276">
        <ele>14.800000190735</ele>
        <time>2019-07-14T07:28:54.000Z</time>
      </trkpt>
      <trkpt lat="47.2726" lon="-2.30277">
        <ele>14.199999809265</ele>
        <time>2019-07-14T07:28:55.000Z</time>
      </trkpt>
      <trkpt lat="47.27255" lon="-2.30277">
        <ele>13.800000190735</ele>
        <time>2019-07-14T07:28:56.000Z</time>
      </trkpt>
      <trkpt lat="47.27247" lon="-2.30275">
        <ele>13.800000190735</ele>
        <time>2019-07-14T07:28:58.000Z</time>
      </trkpt>
      <trkpt lat="47.27229" lon="-2.30272">
        <ele>13.800000190735</ele>
        <time>2019-07-14T07:29:03.000Z</time>
      </trkpt>
      <trkpt lat="47.27207" lon="-2.30269">
        <ele>13.800000190735</ele>
        <time>2019-07-14T07:29:08.000Z</time>
      </trkpt>
      <trkpt lat="47.27188" lon="-2.30271">
        <ele>13.800000190735</ele>
        <time>2019-07-14T07:29:13.000Z</time>
      </trkpt>
      <trkpt lat="47.27183" lon="-2.30261">
        <ele>13.800000190735</ele>
        <time>2019-07-14T07:29:16.000Z</time>
      </trkpt>
      <trkpt lat="47.27181" lon="-2.30259">
        <ele>13.800000190735</ele>
        <time>2019-07-14T07:29:17.000Z</time>
      </trkpt>
      <trkpt lat="47.27174" lon="-2.30253">
        <ele>13.800000190735</ele>
        <time>2019-07-14T07:29:20.000Z</time>
      </trkpt>
      <trkpt lat="47.27173" lon="-2.30236">
        <ele>13.800000190735</ele>
        <time>2019-07-14T07:29:23.000Z</time>
      </trkpt>
      <trkpt lat="47.27174" lon="-2.30231">
        <ele>13.800000190735</ele>
        <time>2019-07-14T07:29:24.000Z</time>
      </trkpt>
      <trkpt lat="47.27169" lon="-2.30204">
        <ele>13.800000190735</ele>
        <time>2019-07-14T07:29:28.000Z</time>
      </trkpt>
      <trkpt lat="47.27164" lon="-2.30165">
        <ele>13.800000190735</ele>
        <time>2019-07-14T07:29:35.000Z</time>
      </trkpt>
      <trkpt lat="47.27162" lon="-2.3016">
        <ele>14.199999809265</ele>
        <time>2019-07-14T07:29:36.000Z</time>
      </trkpt>
      <trkpt lat="47.27161" lon="-2.30156">
        <ele>15</ele>
        <time>2019-07-14T07:29:37.000Z</time>
      </trkpt>
      <trkpt lat="47.27161" lon="-2.30151">
        <ele>15.39999961853</ele>
        <time>2019-07-14T07:29:38.000Z</time>
      </trkpt>
      <trkpt lat="47.27161" lon="-2.30147">
        <ele>15.800000190735</ele>
        <time>2019-07-14T07:29:39.000Z</time>
      </trkpt>
      <trkpt lat="47.2716" lon="-2.30142">
        <ele>15.800000190735</ele>
        <time>2019-07-14T07:29:40.000Z</time>
      </trkpt>
      <trkpt lat="47.27149" lon="-2.30132">
        <ele>15.800000190735</ele>
        <time>2019-07-14T07:29:44.000Z</time>
      </trkpt>
      <trkpt lat="47.2714" lon="-2.30129">
        <ele>15.800000190735</ele>
        <time>2019-07-14T07:29:47.000Z</time>
      </trkpt>
      <trkpt lat="47.2713" lon="-2.30125">
        <ele>15.800000190735</ele>
        <time>2019-07-14T07:29:50.000Z</time>
      </trkpt>
      <trkpt lat="47.27122" lon="-2.30121">
        <ele>16.200000762939</ele>
        <time>2019-07-14T07:29:52.000Z</time>
      </trkpt>
      <trkpt lat="47.27118" lon="-2.30119">
        <ele>16.60000038147</ele>
        <time>2019-07-14T07:29:53.000Z</time>
      </trkpt>
      <trkpt lat="47.27115" lon="-2.30117">
        <ele>17</ele>
        <time>2019-07-14T07:29:54.000Z</time>
      </trkpt>
      <trkpt lat="47.27111" lon="-2.30114">
        <ele>17.39999961853</ele>
        <time>2019-07-14T07:29:55.000Z</time>
      </trkpt>
      <trkpt lat="47.27107" lon="-2.3011">
        <ele>17.799999237061</ele>
        <time>2019-07-14T07:29:56.000Z</time>
      </trkpt>
      <trkpt lat="47.27088" lon="-2.30091">
        <ele>18.200000762939</ele>
        <time>2019-07-14T07:30:02.000Z</time>
      </trkpt>
      <trkpt lat="47.27084" lon="-2.30089">
        <ele>18.60000038147</ele>
        <time>2019-07-14T07:30:03.000Z</time>
      </trkpt>
      <trkpt lat="47.2708" lon="-2.30086">
        <ele>19</ele>
        <time>2019-07-14T07:30:04.000Z</time>
      </trkpt>
      <trkpt lat="47.27076" lon="-2.30084">
        <ele>19.39999961853</ele>
        <time>2019-07-14T07:30:05.000Z</time>
      </trkpt>
      <trkpt lat="47.27071" lon="-2.30082">
        <ele>20</ele>
        <time>2019-07-14T07:30:06.000Z</time>
      </trkpt>
      <trkpt lat="47.27056" lon="-2.30077">
        <ele>20</ele>
        <time>2019-07-14T07:30:09.000Z</time>
      </trkpt>
      <trkpt lat="47.27046" lon="-2.30076">
        <ele>20</ele>
        <time>2019-07-14T07:30:11.000Z</time>
      </trkpt>
      <trkpt lat="47.27028" lon="-2.30073">
        <ele>20</ele>
        <time>2019-07-14T07:30:15.000Z</time>
      </trkpt>
      <trkpt lat="47.27019" lon="-2.30064">
        <ele>20</ele>
        <time>2019-07-14T07:30:18.000Z</time>
      </trkpt>
      <trkpt lat="47.27019" lon="-2.3006">
        <ele>20</ele>
        <time>2019-07-14T07:30:19.000Z</time>
      </trkpt>
      <trkpt lat="47.27019" lon="-2.30033">
        <ele>20</ele>
        <time>2019-07-14T07:30:24.000Z</time>
      </trkpt>
      <trkpt lat="47.27027" lon="-2.30003">
        <ele>20</ele>
        <time>2019-07-14T07:30:29.000Z</time>
      </trkpt>
      <trkpt lat="47.27036" lon="-2.29977">
        <ele>20</ele>
        <time>2019-07-14T07:30:34.000Z</time>
      </trkpt>
      <trkpt lat="47.27047" lon="-2.29941">
        <ele>20</ele>
        <time>2019-07-14T07:30:40.000Z</time>
      </trkpt>
      <trkpt lat="47.27061" lon="-2.29924">
        <ele>20</ele>
        <time>2019-07-14T07:30:44.000Z</time>
      </trkpt>
      <trkpt lat="47.27082" lon="-2.29901">
        <ele>20</ele>
        <time>2019-07-14T07:30:49.000Z</time>
      </trkpt>
      <trkpt lat="47.27085" lon="-2.29895">
        <ele>20</ele>
        <time>2019-07-14T07:30:50.000Z</time>
      </trkpt>
      <trkpt lat="47.27092" lon="-2.29874">
        <ele>20</ele>
        <time>2019-07-14T07:30:54.000Z</time>
      </trkpt>
      <trkpt lat="47.27097" lon="-2.29846">
        <ele>20</ele>
        <time>2019-07-14T07:30:59.000Z</time>
      </trkpt>
      <trkpt lat="47.27104" lon="-2.29818">
        <ele>20</ele>
        <time>2019-07-14T07:31:04.000Z</time>
      </trkpt>
      <trkpt lat="47.27108" lon="-2.29787">
        <ele>20.39999961853</ele>
        <time>2019-07-14T07:31:09.000Z</time>
      </trkpt>
      <trkpt lat="47.27109" lon="-2.29779">
        <ele>20.799999237061</ele>
        <time>2019-07-14T07:31:10.000Z</time>
      </trkpt>
      <trkpt lat="47.27109" lon="-2.2977">
        <ele>21.200000762939</ele>
        <time>2019-07-14T07:31:11.000Z</time>
      </trkpt>
      <trkpt lat="47.2711" lon="-2.29762">
        <ele>21.60000038147</ele>
        <time>2019-07-14T07:31:12.000Z</time>
      </trkpt>
      <trkpt lat="47.27111" lon="-2.29754">
        <ele>22</ele>
        <time>2019-07-14T07:31:13.000Z</time>
      </trkpt>
      <trkpt lat="47.27112" lon="-2.29739">
        <ele>22</ele>
        <time>2019-07-14T07:31:15.000Z</time>
      </trkpt>
      <trkpt lat="47.27115" lon="-2.29703">
        <ele>22</ele>
        <time>2019-07-14T07:31:20.000Z</time>
      </trkpt>
      <trkpt lat="47.27114" lon="-2.2969">
        <ele>22</ele>
        <time>2019-07-14T07:31:22.000Z</time>
      </trkpt>
      <trkpt lat="47.27112" lon="-2.29673">
        <ele>22</ele>
        <time>2019-07-14T07:31:26.000Z</time>
      </trkpt>
      <trkpt lat="47.27112" lon="-2.29673">
        <ele>22</ele>
        <time>2019-07-14T07:31:27.000Z</time>
      </trkpt>
      <trkpt lat="47.27113" lon="-2.29669">
        <ele>22</ele>
        <time>2019-07-14T07:31:46.000Z</time>
      </trkpt>
      <trkpt lat="47.27112" lon="-2.29665">
        <ele>22</ele>
        <time>2019-07-14T07:31:47.000Z</time>
      </trkpt>
      <trkpt lat="47.27114" lon="-2.29655">
        <ele>22</ele>
        <time>2019-07-14T07:31:50.000Z</time>
      </trkpt>
      <trkpt lat="47.2712" lon="-2.29651">
        <ele>22</ele>
        <time>2019-07-14T07:31:52.000Z</time>
      </trkpt>
      <trkpt lat="47.27135" lon="-2.29647">
        <ele>22</ele>
        <time>2019-07-14T07:31:56.000Z</time>
      </trkpt>
      <trkpt lat="47.27139" lon="-2.29646">
        <ele>22</ele>
        <time>2019-07-14T07:31:57.000Z</time>
      </trkpt>
      <trkpt lat="47.27156" lon="-2.29641">
        <ele>22</ele>
        <time>2019-07-14T07:32:01.000Z</time>
      </trkpt>
      <trkpt lat="47.27161" lon="-2.29639">
        <ele>22</ele>
        <time>2019-07-14T07:32:02.000Z</time>
      </trkpt>
      <trkpt lat="47.27183" lon="-2.29621">
        <ele>22</ele>
        <time>2019-07-14T07:32:07.000Z</time>
      </trkpt>
      <trkpt lat="47.27202" lon="-2.29607">
        <ele>22</ele>
        <time>2019-07-14T07:32:11.000Z</time>
      </trkpt>
      <trkpt lat="47.27209" lon="-2.29601">
        <ele>22</ele>
        <time>2019-07-14T07:32:13.000Z</time>
      </trkpt>
      <trkpt lat="47.27224" lon="-2.2959">
        <ele>22</ele>
        <time>2019-07-14T07:32:17.000Z</time>
      </trkpt>
      <trkpt lat="47.27228" lon="-2.29588">
        <ele>22</ele>
        <time>2019-07-14T07:32:18.000Z</time>
      </trkpt>
      <trkpt lat="47.27239" lon="-2.2958">
        <ele>22</ele>
        <time>2019-07-14T07:32:21.000Z</time>
      </trkpt>
      <trkpt lat="47.27246" lon="-2.29571">
        <ele>22</ele>
        <time>2019-07-14T07:32:23.000Z</time>
      </trkpt>
      <trkpt lat="47.2725" lon="-2.2956">
        <ele>22</ele>
        <time>2019-07-14T07:32:25.000Z</time>
      </trkpt>
      <trkpt lat="47.27249" lon="-2.29551">
        <ele>22</ele>
        <time>2019-07-14T07:32:26.000Z</time>
      </trkpt>
      <trkpt lat="47.27239" lon="-2.29519">
        <ele>22</ele>
        <time>2019-07-14T07:32:30.000Z</time>
      </trkpt>
      <trkpt lat="47.27236" lon="-2.29511">
        <ele>22</ele>
        <time>2019-07-14T07:32:31.000Z</time>
      </trkpt>
      <trkpt lat="47.27216" lon="-2.29445">
        <ele>22</ele>
        <time>2019-07-14T07:32:39.000Z</time>
      </trkpt>
      <trkpt lat="47.27205" lon="-2.29408">
        <ele>22</ele>
        <time>2019-07-14T07:32:44.000Z</time>
      </trkpt>
      <trkpt lat="47.27193" lon="-2.29378">
        <ele>22</ele>
        <time>2019-07-14T07:32:48.000Z</time>
      </trkpt>
      <trkpt lat="47.27187" lon="-2.29365">
        <ele>22</ele>
        <time>2019-07-14T07:32:50.000Z</time>
      </trkpt>
      <trkpt lat="47.27166" lon="-2.29336">
        <ele>22</ele>
        <time>2019-07-14T07:32:56.000Z</time>
      </trkpt>
      <trkpt lat="47.27158" lon="-2.29323">
        <ele>22</ele>
        <time>2019-07-14T07:32:59.000Z</time>
      </trkpt>
      <trkpt lat="47.27156" lon="-2.29318">
        <ele>22</ele>
        <time>2019-07-14T07:33:00.000Z</time>
      </trkpt>
      <trkpt lat="47.27157" lon="-2.29297">
        <ele>22</ele>
        <time>2019-07-14T07:33:03.000Z</time>
      </trkpt>
      <trkpt lat="47.27158" lon="-2.2929">
        <ele>22</ele>
        <time>2019-07-14T07:33:04.000Z</time>
      </trkpt>
      <trkpt lat="47.27163" lon="-2.29258">
        <ele>21.60000038147</ele>
        <time>2019-07-14T07:33:08.000Z</time>
      </trkpt>
      <trkpt lat="47.27166" lon="-2.2925">
        <ele>21.200000762939</ele>
        <time>2019-07-14T07:33:09.000Z</time>
      </trkpt>
      <trkpt lat="47.27167" lon="-2.29242">
        <ele>20.799999237061</ele>
        <time>2019-07-14T07:33:10.000Z</time>
      </trkpt>
      <trkpt lat="47.27164" lon="-2.29235">
        <ele>20.39999961853</ele>
        <time>2019-07-14T07:33:11.000Z</time>
      </trkpt>
      <trkpt lat="47.27162" lon="-2.29228">
        <ele>20</ele>
        <time>2019-07-14T07:33:12.000Z</time>
      </trkpt>
      <trkpt lat="47.2716" lon="-2.29221">
        <ele>20</ele>
        <time>2019-07-14T07:33:13.000Z</time>
      </trkpt>
      <trkpt lat="47.27152" lon="-2.29197">
        <ele>20</ele>
        <time>2019-07-14T07:33:16.000Z</time>
      </trkpt>
      <trkpt lat="47.27142" lon="-2.29181">
        <ele>20</ele>
        <time>2019-07-14T07:33:19.000Z</time>
      </trkpt>
      <trkpt lat="47.27139" lon="-2.2918">
        <ele>20</ele>
        <time>2019-07-14T07:33:20.000Z</time>
      </trkpt>
      <trkpt lat="47.27134" lon="-2.29183">
        <ele>20</ele>
        <time>2019-07-14T07:33:22.000Z</time>
      </trkpt>
      <trkpt lat="47.27129" lon="-2.29179">
        <ele>20</ele>
        <time>2019-07-14T07:33:25.000Z</time>
      </trkpt>
      <trkpt lat="47.27121" lon="-2.29174">
        <ele>20</ele>
        <time>2019-07-14T07:33:29.000Z</time>
      </trkpt>
      <trkpt lat="47.2712" lon="-2.29172">
        <ele>20</ele>
        <time>2019-07-14T07:33:30.000Z</time>
      </trkpt>
      <trkpt lat="47.27117" lon="-2.29156">
        <ele>20</ele>
        <time>2019-07-14T07:33:35.000Z</time>
      </trkpt>
      <trkpt lat="47.27126" lon="-2.29142">
        <ele>20</ele>
        <time>2019-07-14T07:33:39.000Z</time>
      </trkpt>
      <trkpt lat="47.27131" lon="-2.29135">
        <ele>20</ele>
        <time>2019-07-14T07:33:41.000Z</time>
      </trkpt>
      <trkpt lat="47.27138" lon="-2.29123">
        <ele>20</ele>
        <time>2019-07-14T07:33:44.000Z</time>
      </trkpt>
      <trkpt lat="47.27148" lon="-2.29108">
        <ele>20</ele>
        <time>2019-07-14T07:33:48.000Z</time>
      </trkpt>
      <trkpt lat="47.27153" lon="-2.29108">
        <ele>20</ele>
        <time>2019-07-14T07:33:49.000Z</time>
      </trkpt>
      <trkpt lat="47.27171" lon="-2.29117">
        <ele>20</ele>
        <time>2019-07-14T07:33:53.000Z</time>
      </trkpt>
      <trkpt lat="47.27181" lon="-2.29117">
        <ele>20</ele>
        <time>2019-07-14T07:33:55.000Z</time>
      </trkpt>
      <trkpt lat="47.27191" lon="-2.29108">
        <ele>20</ele>
        <time>2019-07-14T07:33:57.000Z</time>
      </trkpt>
      <trkpt lat="47.27192" lon="-2.29087">
        <ele>20</ele>
        <time>2019-07-14T07:34:00.000Z</time>
      </trkpt>
      <trkpt lat="47.27186" lon="-2.29064">
        <ele>20</ele>
        <time>2019-07-14T07:34:03.000Z</time>
      </trkpt>
      <trkpt lat="47.27184" lon="-2.29056">
        <ele>20</ele>
        <time>2019-07-14T07:34:04.000Z</time>
      </trkpt>
      <trkpt lat="47.27175" lon="-2.29024">
        <ele>20</ele>
        <time>2019-07-14T07:34:08.000Z</time>
      </trkpt>
      <trkpt lat="47.27173" lon="-2.29007">
        <ele>20</ele>
        <time>2019-07-14T07:34:10.000Z</time>
      </trkpt>
      <trkpt lat="47.27172" lon="-2.28999">
        <ele>20</ele>
        <time>2019-07-14T07:34:11.000Z</time>
      </trkpt>
      <trkpt lat="47.27166" lon="-2.28967">
        <ele>20</ele>
        <time>2019-07-14T07:34:15.000Z</time>
      </trkpt>
      <trkpt lat="47.27164" lon="-2.28931">
        <ele>20</ele>
        <time>2019-07-14T07:34:19.000Z</time>
      </trkpt>
      <trkpt lat="47.27164" lon="-2.28923">
        <ele>20</ele>
        <time>2019-07-14T07:34:20.000Z</time>
      </trkpt>
      <trkpt lat="47.27166" lon="-2.28878">
        <ele>20</ele>
        <time>2019-07-14T07:34:26.000Z</time>
      </trkpt>
      <trkpt lat="47.27167" lon="-2.28856">
        <ele>20</ele>
        <time>2019-07-14T07:34:29.000Z</time>
      </trkpt>
      <trkpt lat="47.2717" lon="-2.28842">
        <ele>20</ele>
        <time>2019-07-14T07:34:31.000Z</time>
      </trkpt>
      <trkpt lat="47.27173" lon="-2.28825">
        <ele>20</ele>
        <time>2019-07-14T07:34:33.000Z</time>
      </trkpt>
      <trkpt lat="47.27177" lon="-2.28797">
        <ele>20</ele>
        <time>2019-07-14T07:34:36.000Z</time>
      </trkpt>
      <trkpt lat="47.27179" lon="-2.28778">
        <ele>20</ele>
        <time>2019-07-14T07:34:38.000Z</time>
      </trkpt>
      <trkpt lat="47.27179" lon="-2.28749">
        <ele>20</ele>
        <time>2019-07-14T07:34:41.000Z</time>
      </trkpt>
      <trkpt lat="47.27178" lon="-2.2874">
        <ele>20</ele>
        <time>2019-07-14T07:34:42.000Z</time>
      </trkpt>
      <trkpt lat="47.27176" lon="-2.28703">
        <ele>20</ele>
        <time>2019-07-14T07:34:46.000Z</time>
      </trkpt>
      <trkpt lat="47.27176" lon="-2.28695">
        <ele>20</ele>
        <time>2019-07-14T07:34:47.000Z</time>
      </trkpt>
      <trkpt lat="47.27174" lon="-2.2866">
        <ele>20</ele>
        <time>2019-07-14T07:34:51.000Z</time>
      </trkpt>
      <trkpt lat="47.27174" lon="-2.28642">
        <ele>20</ele>
        <time>2019-07-14T07:34:53.000Z</time>
      </trkpt>
      <trkpt lat="47.27176" lon="-2.28626">
        <ele>20</ele>
        <time>2019-07-14T07:34:55.000Z</time>
      </trkpt>
      <trkpt lat="47.27175" lon="-2.28618">
        <ele>20</ele>
        <time>2019-07-14T07:34:56.000Z</time>
      </trkpt>
      <trkpt lat="47.27173" lon="-2.28602">
        <ele>20.799999237061</ele>
        <time>2019-07-14T07:34:58.000Z</time>
      </trkpt>
      <trkpt lat="47.27172" lon="-2.28594">
        <ele>21.200000762939</ele>
        <time>2019-07-14T07:34:59.000Z</time>
      </trkpt>
      <trkpt lat="47.27169" lon="-2.28586">
        <ele>21.60000038147</ele>
        <time>2019-07-14T07:35:00.000Z</time>
      </trkpt>
      <trkpt lat="47.27167" lon="-2.28578">
        <ele>22</ele>
        <time>2019-07-14T07:35:01.000Z</time>
      </trkpt>
      <trkpt lat="47.27165" lon="-2.28569">
        <ele>22</ele>
        <time>2019-07-14T07:35:02.000Z</time>
      </trkpt>
      <trkpt lat="47.27159" lon="-2.28542">
        <ele>22</ele>
        <time>2019-07-14T07:35:05.000Z</time>
      </trkpt>
      <trkpt lat="47.27152" lon="-2.28489">
        <ele>22</ele>
        <time>2019-07-14T07:35:11.000Z</time>
      </trkpt>
      <trkpt lat="47.27151" lon="-2.28481">
        <ele>22.39999961853</ele>
        <time>2019-07-14T07:35:12.000Z</time>
      </trkpt>
      <trkpt lat="47.2715" lon="-2.28472">
        <ele>22.799999237061</ele>
        <time>2019-07-14T07:35:13.000Z</time>
      </trkpt>
      <trkpt lat="47.2715" lon="-2.28464">
        <ele>23.200000762939</ele>
        <time>2019-07-14T07:35:14.000Z</time>
      </trkpt>
      <trkpt lat="47.2715" lon="-2.28455">
        <ele>23.60000038147</ele>
        <time>2019-07-14T07:35:15.000Z</time>
      </trkpt>
      <trkpt lat="47.27148" lon="-2.28447">
        <ele>24</ele>
        <time>2019-07-14T07:35:16.000Z</time>
      </trkpt>
      <trkpt lat="47.27148" lon="-2.28439">
        <ele>24</ele>
        <time>2019-07-14T07:35:17.000Z</time>
      </trkpt>
      <trkpt lat="47.27145" lon="-2.28387">
        <ele>24</ele>
        <time>2019-07-14T07:35:23.000Z</time>
      </trkpt>
      <trkpt lat="47.27143" lon="-2.28357">
        <ele>24</ele>
        <time>2019-07-14T07:35:26.000Z</time>
      </trkpt>
      <trkpt lat="47.2714" lon="-2.28338">
        <ele>24</ele>
        <time>2019-07-14T07:35:28.000Z</time>
      </trkpt>
      <trkpt lat="47.27128" lon="-2.2829">
        <ele>24</ele>
        <time>2019-07-14T07:35:33.000Z</time>
      </trkpt>
      <trkpt lat="47.27126" lon="-2.28282">
        <ele>24</ele>
        <time>2019-07-14T07:35:34.000Z</time>
      </trkpt>
      <trkpt lat="47.27122" lon="-2.28261">
        <ele>24</ele>
        <time>2019-07-14T07:35:37.000Z</time>
      </trkpt>
      <trkpt lat="47.27119" lon="-2.28244">
        <ele>24</ele>
        <time>2019-07-14T07:35:39.000Z</time>
      </trkpt>
      <trkpt lat="47.27119" lon="-2.28235">
        <ele>24</ele>
        <time>2019-07-14T07:35:40.000Z</time>
      </trkpt>
      <trkpt lat="47.27125" lon="-2.2818">
        <ele>24</ele>
        <time>2019-07-14T07:35:46.000Z</time>
      </trkpt>
      <trkpt lat="47.27126" lon="-2.28171">
        <ele>24.39999961853</ele>
        <time>2019-07-14T07:35:47.000Z</time>
      </trkpt>
      <trkpt lat="47.27126" lon="-2.28162">
        <ele>25.200000762939</ele>
        <time>2019-07-14T07:35:48.000Z</time>
      </trkpt>
      <trkpt lat="47.27127" lon="-2.28154">
        <ele>25.799999237061</ele>
        <time>2019-07-14T07:35:49.000Z</time>
      </trkpt>
      <trkpt lat="47.27126" lon="-2.28146">
        <ele>26.200000762939</ele>
        <time>2019-07-14T07:35:50.000Z</time>
      </trkpt>
      <trkpt lat="47.27124" lon="-2.28139">
        <ele>26.200000762939</ele>
        <time>2019-07-14T07:35:51.000Z</time>
      </trkpt>
      <trkpt lat="47.27121" lon="-2.28107">
        <ele>26.200000762939</ele>
        <time>2019-07-14T07:35:55.000Z</time>
      </trkpt>
      <trkpt lat="47.27121" lon="-2.28091">
        <ele>26.200000762939</ele>
        <time>2019-07-14T07:35:57.000Z</time>
      </trkpt>
      <trkpt lat="47.27121" lon="-2.28075">
        <ele>26.60000038147</ele>
        <time>2019-07-14T07:35:59.000Z</time>
      </trkpt>
      <trkpt lat="47.27121" lon="-2.28067">
        <ele>27</ele>
        <time>2019-07-14T07:36:00.000Z</time>
      </trkpt>
      <trkpt lat="47.27121" lon="-2.28059">
        <ele>27.39999961853</ele>
        <time>2019-07-14T07:36:01.000Z</time>
      </trkpt>
      <trkpt lat="47.2712" lon="-2.28051">
        <ele>27.799999237061</ele>
        <time>2019-07-14T07:36:02.000Z</time>
      </trkpt>
      <trkpt lat="47.2712" lon="-2.28043">
        <ele>28.39999961853</ele>
        <time>2019-07-14T07:36:03.000Z</time>
      </trkpt>
      <trkpt lat="47.27118" lon="-2.28035">
        <ele>28.39999961853</ele>
        <time>2019-07-14T07:36:04.000Z</time>
      </trkpt>
      <trkpt lat="47.27112" lon="-2.28003">
        <ele>28.39999961853</ele>
        <time>2019-07-14T07:36:08.000Z</time>
      </trkpt>
      <trkpt lat="47.27109" lon="-2.27996">
        <ele>28.39999961853</ele>
        <time>2019-07-14T07:36:09.000Z</time>
      </trkpt>
      <trkpt lat="47.27099" lon="-2.27987">
        <ele>28.39999961853</ele>
        <time>2019-07-14T07:36:11.000Z</time>
      </trkpt>
      <trkpt lat="47.27089" lon="-2.27984">
        <ele>28.39999961853</ele>
        <time>2019-07-14T07:36:13.000Z</time>
      </trkpt>
      <trkpt lat="47.27084" lon="-2.27981">
        <ele>28.39999961853</ele>
        <time>2019-07-14T07:36:14.000Z</time>
      </trkpt>
      <trkpt lat="47.27079" lon="-2.27977">
        <ele>28.799999237061</ele>
        <time>2019-07-14T07:36:15.000Z</time>
      </trkpt>
      <trkpt lat="47.27075" lon="-2.27972">
        <ele>29.200000762939</ele>
        <time>2019-07-14T07:36:16.000Z</time>
      </trkpt>
      <trkpt lat="47.27071" lon="-2.27967">
        <ele>29.60000038147</ele>
        <time>2019-07-14T07:36:17.000Z</time>
      </trkpt>
      <trkpt lat="47.27068" lon="-2.2796">
        <ele>30.200000762939</ele>
        <time>2019-07-14T07:36:18.000Z</time>
      </trkpt>
      <trkpt lat="47.27066" lon="-2.27953">
        <ele>30.60000038147</ele>
        <time>2019-07-14T07:36:19.000Z</time>
      </trkpt>
      <trkpt lat="47.27065" lon="-2.27928">
        <ele>30.60000038147</ele>
        <time>2019-07-14T07:36:22.000Z</time>
      </trkpt>
      <trkpt lat="47.27073" lon="-2.27903">
        <ele>30.60000038147</ele>
        <time>2019-07-14T07:36:25.000Z</time>
      </trkpt>
      <trkpt lat="47.27087" lon="-2.27884">
        <ele>30.60000038147</ele>
        <time>2019-07-14T07:36:28.000Z</time>
      </trkpt>
      <trkpt lat="47.27092" lon="-2.27877">
        <ele>30.60000038147</ele>
        <time>2019-07-14T07:36:29.000Z</time>
      </trkpt>
      <trkpt lat="47.27096" lon="-2.27869">
        <ele>30.60000038147</ele>
        <time>2019-07-14T07:36:30.000Z</time>
      </trkpt>
      <trkpt lat="47.27101" lon="-2.27849">
        <ele>30.60000038147</ele>
        <time>2019-07-14T07:36:32.000Z</time>
      </trkpt>
      <trkpt lat="47.27106" lon="-2.27829">
        <ele>30.200000762939</ele>
        <time>2019-07-14T07:36:34.000Z</time>
      </trkpt>
      <trkpt lat="47.27109" lon="-2.2782">
        <ele>29.799999237061</ele>
        <time>2019-07-14T07:36:35.000Z</time>
      </trkpt>
      <trkpt lat="47.27111" lon="-2.27812">
        <ele>29.39999961853</ele>
        <time>2019-07-14T07:36:36.000Z</time>
      </trkpt>
      <trkpt lat="47.27112" lon="-2.27806">
        <ele>28.60000038147</ele>
        <time>2019-07-14T07:36:37.000Z</time>
      </trkpt>
      <trkpt lat="47.27111" lon="-2.278">
        <ele>28.200000762939</ele>
        <time>2019-07-14T07:36:38.000Z</time>
      </trkpt>
      <trkpt lat="47.27109" lon="-2.27795">
        <ele>27.799999237061</ele>
        <time>2019-07-14T07:36:39.000Z</time>
      </trkpt>
      <trkpt lat="47.27106" lon="-2.2779">
        <ele>27.39999961853</ele>
        <time>2019-07-14T07:36:40.000Z</time>
      </trkpt>
      <trkpt lat="47.27104" lon="-2.27785">
        <ele>26.799999237061</ele>
        <time>2019-07-14T07:36:41.000Z</time>
      </trkpt>
      <trkpt lat="47.27103" lon="-2.2778">
        <ele>26.39999961853</ele>
        <time>2019-07-14T07:36:42.000Z</time>
      </trkpt>
      <trkpt lat="47.27103" lon="-2.27778">
        <ele>26.39999961853</ele>
        <time>2019-07-14T07:36:43.000Z</time>
      </trkpt>
      <trkpt lat="47.27103" lon="-2.2777">
        <ele>26</ele>
        <time>2019-07-14T07:36:47.000Z</time>
      </trkpt>
      <trkpt lat="47.27102" lon="-2.27768">
        <ele>25.60000038147</ele>
        <time>2019-07-14T07:36:48.000Z</time>
      </trkpt>
      <trkpt lat="47.271" lon="-2.27766">
        <ele>25.200000762939</ele>
        <time>2019-07-14T07:36:49.000Z</time>
      </trkpt>
      <trkpt lat="47.27097" lon="-2.27763">
        <ele>24.799999237061</ele>
        <time>2019-07-14T07:36:50.000Z</time>
      </trkpt>
      <trkpt lat="47.27094" lon="-2.2776">
        <ele>24.200000762939</ele>
        <time>2019-07-14T07:36:51.000Z</time>
      </trkpt>
      <trkpt lat="47.27087" lon="-2.27754">
        <ele>24.200000762939</ele>
        <time>2019-07-14T07:36:53.000Z</time>
      </trkpt>
      <trkpt lat="47.27072" lon="-2.27746">
        <ele>24.200000762939</ele>
        <time>2019-07-14T07:36:56.000Z</time>
      </trkpt>
      <trkpt lat="47.27037" lon="-2.27731">
        <ele>24.200000762939</ele>
        <time>2019-07-14T07:37:02.000Z</time>
      </trkpt>
      <trkpt lat="47.27023" lon="-2.27721">
        <ele>24.200000762939</ele>
        <time>2019-07-14T07:37:05.000Z</time>
      </trkpt>
      <trkpt lat="47.27021" lon="-2.27715">
        <ele>24.200000762939</ele>
        <time>2019-07-14T07:37:06.000Z</time>
      </trkpt>
      <trkpt lat="47.27025" lon="-2.27695">
        <ele>24.200000762939</ele>
        <time>2019-07-14T07:37:09.000Z</time>
      </trkpt>
      <trkpt lat="47.27038" lon="-2.27679">
        <ele>24.200000762939</ele>
        <time>2019-07-14T07:37:12.000Z</time>
      </trkpt>
      <trkpt lat="47.27042" lon="-2.27673">
        <ele>24.200000762939</ele>
        <time>2019-07-14T07:37:13.000Z</time>
      </trkpt>
      <trkpt lat="47.27047" lon="-2.27669">
        <ele>24.200000762939</ele>
        <time>2019-07-14T07:37:14.000Z</time>
      </trkpt>
      <trkpt lat="47.27061" lon="-2.27654">
        <ele>24.200000762939</ele>
        <time>2019-07-14T07:37:17.000Z</time>
      </trkpt>
      <trkpt lat="47.2709" lon="-2.27634">
        <ele>24.200000762939</ele>
        <time>2019-07-14T07:37:22.000Z</time>
      </trkpt>
      <trkpt lat="47.27112" lon="-2.2762">
        <ele>23.799999237061</ele>
        <time>2019-07-14T07:37:26.000Z</time>
      </trkpt>
      <trkpt lat="47.27118" lon="-2.27616">
        <ele>23.39999961853</ele>
        <time>2019-07-14T07:37:27.000Z</time>
      </trkpt>
      <trkpt lat="47.27123" lon="-2.27612">
        <ele>23</ele>
        <time>2019-07-14T07:37:28.000Z</time>
      </trkpt>
      <trkpt lat="47.2713" lon="-2.27607">
        <ele>22.60000038147</ele>
        <time>2019-07-14T07:37:29.000Z</time>
      </trkpt>
      <trkpt lat="47.27135" lon="-2.27601">
        <ele>22.200000762939</ele>
        <time>2019-07-14T07:37:30.000Z</time>
      </trkpt>
      <trkpt lat="47.27142" lon="-2.27587">
        <ele>22.200000762939</ele>
        <time>2019-07-14T07:37:32.000Z</time>
      </trkpt>
      <trkpt lat="47.27152" lon="-2.27566">
        <ele>22.200000762939</ele>
        <time>2019-07-14T07:37:35.000Z</time>
      </trkpt>
      <trkpt lat="47.27155" lon="-2.2755">
        <ele>22.200000762939</ele>
        <time>2019-07-14T07:37:37.000Z</time>
      </trkpt>
      <trkpt lat="47.27155" lon="-2.27509">
        <ele>22.200000762939</ele>
        <time>2019-07-14T07:37:41.000Z</time>
      </trkpt>
      <trkpt lat="47.27146" lon="-2.27437">
        <ele>22.200000762939</ele>
        <time>2019-07-14T07:37:48.000Z</time>
      </trkpt>
      <trkpt lat="47.27142" lon="-2.27417">
        <ele>22.200000762939</ele>
        <time>2019-07-14T07:37:50.000Z</time>
      </trkpt>
      <trkpt lat="47.27138" lon="-2.27396">
        <ele>22.200000762939</ele>
        <time>2019-07-14T07:37:52.000Z</time>
      </trkpt>
      <trkpt lat="47.27126" lon="-2.27326">
        <ele>22.200000762939</ele>
        <time>2019-07-14T07:37:59.000Z</time>
      </trkpt>
      <trkpt lat="47.27118" lon="-2.27287">
        <ele>22.200000762939</ele>
        <time>2019-07-14T07:38:03.000Z</time>
      </trkpt>
      <trkpt lat="47.27114" lon="-2.27279">
        <ele>22.200000762939</ele>
        <time>2019-07-14T07:38:04.000Z</time>
      </trkpt>
      <trkpt lat="47.271" lon="-2.27254">
        <ele>21.799999237061</ele>
        <time>2019-07-14T07:38:07.000Z</time>
      </trkpt>
      <trkpt lat="47.27096" lon="-2.27246">
        <ele>21.39999961853</ele>
        <time>2019-07-14T07:38:08.000Z</time>
      </trkpt>
      <trkpt lat="47.27092" lon="-2.27238">
        <ele>21</ele>
        <time>2019-07-14T07:38:09.000Z</time>
      </trkpt>
      <trkpt lat="47.27087" lon="-2.27231">
        <ele>20.60000038147</ele>
        <time>2019-07-14T07:38:10.000Z</time>
      </trkpt>
      <trkpt lat="47.27082" lon="-2.27223">
        <ele>20</ele>
        <time>2019-07-14T07:38:11.000Z</time>
      </trkpt>
      <trkpt lat="47.27071" lon="-2.27203">
        <ele>19.60000038147</ele>
        <time>2019-07-14T07:38:13.000Z</time>
      </trkpt>
      <trkpt lat="47.27065" lon="-2.27193">
        <ele>19.200000762939</ele>
        <time>2019-07-14T07:38:14.000Z</time>
      </trkpt>
      <trkpt lat="47.2706" lon="-2.27184">
        <ele>18.799999237061</ele>
        <time>2019-07-14T07:38:15.000Z</time>
      </trkpt>
      <trkpt lat="47.27055" lon="-2.27175">
        <ele>17.799999237061</ele>
        <time>2019-07-14T07:38:16.000Z</time>
      </trkpt>
      <trkpt lat="47.2705" lon="-2.27168">
        <ele>17.39999961853</ele>
        <time>2019-07-14T07:38:17.000Z</time>
      </trkpt>
      <trkpt lat="47.27047" lon="-2.27162">
        <ele>16.799999237061</ele>
        <time>2019-07-14T07:38:18.000Z</time>
      </trkpt>
      <trkpt lat="47.27044" lon="-2.27158">
        <ele>16.200000762939</ele>
        <time>2019-07-14T07:38:19.000Z</time>
      </trkpt>
      <trkpt lat="47.27043" lon="-2.27155">
        <ele>15.60000038147</ele>
        <time>2019-07-14T07:38:20.000Z</time>
      </trkpt>
      <trkpt lat="47.27041" lon="-2.27152">
        <ele>15</ele>
        <time>2019-07-14T07:38:21.000Z</time>
      </trkpt>
      <trkpt lat="47.2704" lon="-2.27149">
        <ele>14.60000038147</ele>
        <time>2019-07-14T07:38:22.000Z</time>
      </trkpt>
      <trkpt lat="47.27038" lon="-2.27147">
        <ele>14</ele>
        <time>2019-07-14T07:38:23.000Z</time>
      </trkpt>
      <trkpt lat="47.27036" lon="-2.27147">
        <ele>13.39999961853</ele>
        <time>2019-07-14T07:38:24.000Z</time>
      </trkpt>
      <trkpt lat="47.27034" lon="-2.27148">
        <ele>13.39999961853</ele>
        <time>2019-07-14T07:38:25.000Z</time>
      </trkpt>
      <trkpt lat="47.27031" lon="-2.27151">
        <ele>13</ele>
        <time>2019-07-14T07:38:27.000Z</time>
      </trkpt>
      <trkpt lat="47.27029" lon="-2.27153">
        <ele>12.60000038147</ele>
        <time>2019-07-14T07:38:28.000Z</time>
      </trkpt>
      <trkpt lat="47.27027" lon="-2.27154">
        <ele>12.199999809265</ele>
        <time>2019-07-14T07:38:29.000Z</time>
      </trkpt>
      <trkpt lat="47.27025" lon="-2.27154">
        <ele>11.800000190735</ele>
        <time>2019-07-14T07:38:30.000Z</time>
      </trkpt>
      <trkpt lat="47.27024" lon="-2.27154">
        <ele>11.39999961853</ele>
        <time>2019-07-14T07:38:31.000Z</time>
      </trkpt>
      <trkpt lat="47.27021" lon="-2.27156">
        <ele>11.39999961853</ele>
        <time>2019-07-14T07:38:34.000Z</time>
      </trkpt>
      <trkpt lat="47.2702" lon="-2.27161">
        <ele>11.800000190735</ele>
        <time>2019-07-14T07:38:39.000Z</time>
      </trkpt>
      <trkpt lat="47.27019" lon="-2.27162">
        <ele>12.199999809265</ele>
        <time>2019-07-14T07:38:40.000Z</time>
      </trkpt>
      <trkpt lat="47.27019" lon="-2.27162">
        <ele>12.60000038147</ele>
        <time>2019-07-14T07:38:41.000Z</time>
      </trkpt>
      <trkpt lat="47.27019" lon="-2.27162">
        <ele>13</ele>
        <time>2019-07-14T07:38:42.000Z</time>
      </trkpt>
      <trkpt lat="47.2702" lon="-2.27161">
        <ele>13.60000038147</ele>
        <time>2019-07-14T07:38:46.000Z</time>
      </trkpt>
      <trkpt lat="47.27019" lon="-2.27161">
        <ele>13.60000038147</ele>
        <time>2019-07-14T07:38:47.000Z</time>
      </trkpt>
      <trkpt lat="47.27013" lon="-2.27162">
        <ele>13.60000038147</ele>
        <time>2019-07-14T07:38:50.000Z</time>
      </trkpt>
      <trkpt lat="47.27013" lon="-2.27162">
        <ele>13.60000038147</ele>
        <time>2019-07-14T07:38:51.000Z</time>
      </trkpt>
      <trkpt lat="47.2701" lon="-2.27163">
        <ele>14</ele>
        <time>2019-07-14T07:38:53.000Z</time>
      </trkpt>
      <trkpt lat="47.27008" lon="-2.27165">
        <ele>14.39999961853</ele>
        <time>2019-07-14T07:38:54.000Z</time>
      </trkpt>
      <trkpt lat="47.27006" lon="-2.27166">
        <ele>14.800000190735</ele>
        <time>2019-07-14T07:38:55.000Z</time>
      </trkpt>
      <trkpt lat="47.27004" lon="-2.27166">
        <ele>15.199999809265</ele>
        <time>2019-07-14T07:38:56.000Z</time>
      </trkpt>
      <trkpt lat="47.27002" lon="-2.27168">
        <ele>15.60000038147</ele>
        <time>2019-07-14T07:38:57.000Z</time>
      </trkpt>
      <trkpt lat="47.27" lon="-2.27172">
        <ele>15.60000038147</ele>
        <time>2019-07-14T07:39:00.000Z</time>
      </trkpt>
      <trkpt lat="47.26999" lon="-2.27171">
        <ele>15.60000038147</ele>
        <time>2019-07-14T07:39:03.000Z</time>
      </trkpt>
      <trkpt lat="47.26994" lon="-2.27174">
        <ele>15.60000038147</ele>
        <time>2019-07-14T07:39:05.000Z</time>
      </trkpt>
      <trkpt lat="47.2699" lon="-2.2718">
        <ele>15.60000038147</ele>
        <time>2019-07-14T07:39:08.000Z</time>
      </trkpt>
      <trkpt lat="47.2699" lon="-2.27182">
        <ele>15.60000038147</ele>
        <time>2019-07-14T07:39:09.000Z</time>
      </trkpt>
      <trkpt lat="47.26985" lon="-2.27187">
        <ele>15.60000038147</ele>
        <time>2019-07-14T07:39:13.000Z</time>
      </trkpt>
      <trkpt lat="47.26983" lon="-2.27189">
        <ele>15.60000038147</ele>
        <time>2019-07-14T07:39:14.000Z</time>
      </trkpt>
      <trkpt lat="47.26978" lon="-2.27193">
        <ele>15.60000038147</ele>
        <time>2019-07-14T07:39:18.000Z</time>
      </trkpt>
      <trkpt lat="47.2698" lon="-2.27196">
        <ele>15.60000038147</ele>
        <time>2019-07-14T07:39:19.000Z</time>
      </trkpt>
      <trkpt lat="47.26983" lon="-2.27203">
        <ele>15.60000038147</ele>
        <time>2019-07-14T07:39:21.000Z</time>
      </trkpt>
      <trkpt lat="47.26984" lon="-2.27209">
        <ele>15.60000038147</ele>
        <time>2019-07-14T07:39:23.000Z</time>
      </trkpt>
      <trkpt lat="47.26981" lon="-2.27217">
        <ele>15.60000038147</ele>
        <time>2019-07-14T07:39:25.000Z</time>
      </trkpt>
      <trkpt lat="47.2697" lon="-2.27236">
        <ele>15.60000038147</ele>
        <time>2019-07-14T07:39:30.000Z</time>
      </trkpt>
      <trkpt lat="47.2696" lon="-2.27244">
        <ele>15.60000038147</ele>
        <time>2019-07-14T07:39:34.000Z</time>
      </trkpt>
      <trkpt lat="47.26954" lon="-2.27247">
        <ele>15.60000038147</ele>
        <time>2019-07-14T07:39:36.000Z</time>
      </trkpt>
      <trkpt lat="47.26944" lon="-2.27253">
        <ele>15.60000038147</ele>
        <time>2019-07-14T07:39:40.000Z</time>
      </trkpt>
      <trkpt lat="47.26939" lon="-2.27265">
        <ele>15.60000038147</ele>
        <time>2019-07-14T07:39:44.000Z</time>
      </trkpt>
      <trkpt lat="47.2694" lon="-2.27273">
        <ele>15.60000038147</ele>
        <time>2019-07-14T07:39:47.000Z</time>
      </trkpt>
      <trkpt lat="47.26941" lon="-2.27274">
        <ele>15.60000038147</ele>
        <time>2019-07-14T07:39:48.000Z</time>
      </trkpt>
      <trkpt lat="47.26943" lon="-2.27275">
        <ele>15.60000038147</ele>
        <time>2019-07-14T07:39:49.000Z</time>
      </trkpt>
      <trkpt lat="47.26945" lon="-2.27277">
        <ele>15.60000038147</ele>
        <time>2019-07-14T07:39:51.000Z</time>
      </trkpt>
      <trkpt lat="47.26946" lon="-2.2728">
        <ele>15.60000038147</ele>
        <time>2019-07-14T07:39:53.000Z</time>
      </trkpt>
      <trkpt lat="47.26946" lon="-2.27287">
        <ele>15.60000038147</ele>
        <time>2019-07-14T07:39:56.000Z</time>
      </trkpt>
      <trkpt lat="47.26939" lon="-2.27305">
        <ele>15.60000038147</ele>
        <time>2019-07-14T07:40:02.000Z</time>
      </trkpt>
      <trkpt lat="47.26933" lon="-2.27322">
        <ele>15.60000038147</ele>
        <time>2019-07-14T07:40:06.000Z</time>
      </trkpt>
      <trkpt lat="47.2693" lon="-2.27331">
        <ele>15.60000038147</ele>
        <time>2019-07-14T07:40:08.000Z</time>
      </trkpt>
      <trkpt lat="47.26931" lon="-2.27335">
        <ele>15.60000038147</ele>
        <time>2019-07-14T07:40:09.000Z</time>
      </trkpt>
      <trkpt lat="47.26931" lon="-2.27341">
        <ele>15.60000038147</ele>
        <time>2019-07-14T07:40:11.000Z</time>
      </trkpt>
      <trkpt lat="47.2693" lon="-2.27344">
        <ele>15.60000038147</ele>
        <time>2019-07-14T07:40:12.000Z</time>
      </trkpt>
      <trkpt lat="47.26926" lon="-2.27356">
        <ele>15.60000038147</ele>
        <time>2019-07-14T07:40:15.000Z</time>
      </trkpt>
      <trkpt lat="47.26916" lon="-2.27368">
        <ele>15.60000038147</ele>
        <time>2019-07-14T07:40:18.000Z</time>
      </trkpt>
      <trkpt lat="47.26911" lon="-2.27371">
        <ele>15.60000038147</ele>
        <time>2019-07-14T07:40:19.000Z</time>
      </trkpt>
      <trkpt lat="47.26895" lon="-2.27378">
        <ele>15.60000038147</ele>
        <time>2019-07-14T07:40:23.000Z</time>
      </trkpt>
      <trkpt lat="47.26882" lon="-2.27384">
        <ele>16</ele>
        <time>2019-07-14T07:40:26.000Z</time>
      </trkpt>
      <trkpt lat="47.26878" lon="-2.27386">
        <ele>16.39999961853</ele>
        <time>2019-07-14T07:40:27.000Z</time>
      </trkpt>
      <trkpt lat="47.26873" lon="-2.27388">
        <ele>16.799999237061</ele>
        <time>2019-07-14T07:40:28.000Z</time>
      </trkpt>
      <trkpt lat="47.26868" lon="-2.2739">
        <ele>17.39999961853</ele>
        <time>2019-07-14T07:40:29.000Z</time>
      </trkpt>
      <trkpt lat="47.26863" lon="-2.27392">
        <ele>17.799999237061</ele>
        <time>2019-07-14T07:40:30.000Z</time>
      </trkpt>
      <trkpt lat="47.26854" lon="-2.27395">
        <ele>17.799999237061</ele>
        <time>2019-07-14T07:40:32.000Z</time>
      </trkpt>
      <trkpt lat="47.26839" lon="-2.27401">
        <ele>17.799999237061</ele>
        <time>2019-07-14T07:40:35.000Z</time>
      </trkpt>
      <trkpt lat="47.26831" lon="-2.27401">
        <ele>17.799999237061</ele>
        <time>2019-07-14T07:40:37.000Z</time>
      </trkpt>
      <trkpt lat="47.26817" lon="-2.27403">
        <ele>17.799999237061</ele>
        <time>2019-07-14T07:40:40.000Z</time>
      </trkpt>
      <trkpt lat="47.26814" lon="-2.27403">
        <ele>18.200000762939</ele>
        <time>2019-07-14T07:40:41.000Z</time>
      </trkpt>
      <trkpt lat="47.26809" lon="-2.27404">
        <ele>19</ele>
        <time>2019-07-14T07:40:42.000Z</time>
      </trkpt>
      <trkpt lat="47.26805" lon="-2.27403">
        <ele>19.39999961853</ele>
        <time>2019-07-14T07:40:43.000Z</time>
      </trkpt>
      <trkpt lat="47.268" lon="-2.27403">
        <ele>19.799999237061</ele>
        <time>2019-07-14T07:40:44.000Z</time>
      </trkpt>
      <trkpt lat="47.26773" lon="-2.27407">
        <ele>19.799999237061</ele>
        <time>2019-07-14T07:40:50.000Z</time>
      </trkpt>
      <trkpt lat="47.26757" lon="-2.27408">
        <ele>19.799999237061</ele>
        <time>2019-07-14T07:40:55.000Z</time>
      </trkpt>
      <trkpt lat="47.26755" lon="-2.27404">
        <ele>19.799999237061</ele>
        <time>2019-07-14T07:40:56.000Z</time>
      </trkpt>
      <trkpt lat="47.26751" lon="-2.27394">
        <ele>19.799999237061</ele>
        <time>2019-07-14T07:40:58.000Z</time>
      </trkpt>
      <trkpt lat="47.26746" lon="-2.27376">
        <ele>19.799999237061</ele>
        <time>2019-07-14T07:41:01.000Z</time>
      </trkpt>
      <trkpt lat="47.26742" lon="-2.27358">
        <ele>19.799999237061</ele>
        <time>2019-07-14T07:41:04.000Z</time>
      </trkpt>
      <trkpt lat="47.26739" lon="-2.27339">
        <ele>20.200000762939</ele>
        <time>2019-07-14T07:41:07.000Z</time>
      </trkpt>
      <trkpt lat="47.26738" lon="-2.27333">
        <ele>20.60000038147</ele>
        <time>2019-07-14T07:41:08.000Z</time>
      </trkpt>
      <trkpt lat="47.26737" lon="-2.27327">
        <ele>21</ele>
        <time>2019-07-14T07:41:09.000Z</time>
      </trkpt>
      <trkpt lat="47.26736" lon="-2.27321">
        <ele>21.60000038147</ele>
        <time>2019-07-14T07:41:10.000Z</time>
      </trkpt>
      <trkpt lat="47.26735" lon="-2.27315">
        <ele>22</ele>
        <time>2019-07-14T07:41:11.000Z</time>
      </trkpt>
      <trkpt lat="47.26727" lon="-2.27271">
        <ele>22</ele>
        <time>2019-07-14T07:41:18.000Z</time>
      </trkpt>
      <trkpt lat="47.2672" lon="-2.27234">
        <ele>22.39999961853</ele>
        <time>2019-07-14T07:41:24.000Z</time>
      </trkpt>
      <trkpt lat="47.26719" lon="-2.27229">
        <ele>22.799999237061</ele>
        <time>2019-07-14T07:41:25.000Z</time>
      </trkpt>
      <trkpt lat="47.26719" lon="-2.27224">
        <ele>23.200000762939</ele>
        <time>2019-07-14T07:41:26.000Z</time>
      </trkpt>
      <trkpt lat="47.26719" lon="-2.2722">
        <ele>23.60000038147</ele>
        <time>2019-07-14T07:41:27.000Z</time>
      </trkpt>
      <trkpt lat="47.26719" lon="-2.27215">
        <ele>24</ele>
        <time>2019-07-14T07:41:28.000Z</time>
      </trkpt>
      <trkpt lat="47.26718" lon="-2.27207">
        <ele>24</ele>
        <time>2019-07-14T07:41:30.000Z</time>
      </trkpt>
      <trkpt lat="47.26722" lon="-2.27192">
        <ele>24</ele>
        <time>2019-07-14T07:41:34.000Z</time>
      </trkpt>
      <trkpt lat="47.26731" lon="-2.27178">
        <ele>24</ele>
        <time>2019-07-14T07:41:37.000Z</time>
      </trkpt>
      <trkpt lat="47.26736" lon="-2.27173">
        <ele>24</ele>
        <time>2019-07-14T07:41:38.000Z</time>
      </trkpt>
      <trkpt lat="47.2674" lon="-2.27169">
        <ele>24</ele>
        <time>2019-07-14T07:41:39.000Z</time>
      </trkpt>
      <trkpt lat="47.26745" lon="-2.27166">
        <ele>23.60000038147</ele>
        <time>2019-07-14T07:41:40.000Z</time>
      </trkpt>
      <trkpt lat="47.2675" lon="-2.27161">
        <ele>23.200000762939</ele>
        <time>2019-07-14T07:41:41.000Z</time>
      </trkpt>
      <trkpt lat="47.26754" lon="-2.27156">
        <ele>22.60000038147</ele>
        <time>2019-07-14T07:41:42.000Z</time>
      </trkpt>
      <trkpt lat="47.26759" lon="-2.27151">
        <ele>22.200000762939</ele>
        <time>2019-07-14T07:41:43.000Z</time>
      </trkpt>
      <trkpt lat="47.26762" lon="-2.27147">
        <ele>21.799999237061</ele>
        <time>2019-07-14T07:41:44.000Z</time>
      </trkpt>
      <trkpt lat="47.26777" lon="-2.27139">
        <ele>21.799999237061</ele>
        <time>2019-07-14T07:41:47.000Z</time>
      </trkpt>
      <trkpt lat="47.26782" lon="-2.27138">
        <ele>21.799999237061</ele>
        <time>2019-07-14T07:41:48.000Z</time>
      </trkpt>
      <trkpt lat="47.26787" lon="-2.27136">
        <ele>21.39999961853</ele>
        <time>2019-07-14T07:41:49.000Z</time>
      </trkpt>
      <trkpt lat="47.26792" lon="-2.27135">
        <ele>21</ele>
        <time>2019-07-14T07:41:50.000Z</time>
      </trkpt>
      <trkpt lat="47.26797" lon="-2.27134">
        <ele>20.60000038147</ele>
        <time>2019-07-14T07:41:51.000Z</time>
      </trkpt>
      <trkpt lat="47.26802" lon="-2.27133">
        <ele>20.200000762939</ele>
        <time>2019-07-14T07:41:52.000Z</time>
      </trkpt>
      <trkpt lat="47.26807" lon="-2.27132">
        <ele>19.60000038147</ele>
        <time>2019-07-14T07:41:53.000Z</time>
      </trkpt>
      <trkpt lat="47.26828" lon="-2.27127">
        <ele>19.60000038147</ele>
        <time>2019-07-14T07:41:58.000Z</time>
      </trkpt>
      <trkpt lat="47.26855" lon="-2.27115">
        <ele>19.60000038147</ele>
        <time>2019-07-14T07:42:04.000Z</time>
      </trkpt>
      <trkpt lat="47.26866" lon="-2.27107">
        <ele>19.60000038147</ele>
        <time>2019-07-14T07:42:06.000Z</time>
      </trkpt>
      <trkpt lat="47.26878" lon="-2.27095">
        <ele>19.60000038147</ele>
        <time>2019-07-14T07:42:08.000Z</time>
      </trkpt>
      <trkpt lat="47.26888" lon="-2.27083">
        <ele>19.60000038147</ele>
        <time>2019-07-14T07:42:10.000Z</time>
      </trkpt>
      <trkpt lat="47.26894" lon="-2.27076">
        <ele>19.200000762939</ele>
        <time>2019-07-14T07:42:11.000Z</time>
      </trkpt>
      <trkpt lat="47.26899" lon="-2.2707">
        <ele>18.799999237061</ele>
        <time>2019-07-14T07:42:12.000Z</time>
      </trkpt>
      <trkpt lat="47.26905" lon="-2.27062">
        <ele>18.39999961853</ele>
        <time>2019-07-14T07:42:13.000Z</time>
      </trkpt>
      <trkpt lat="47.2691" lon="-2.27055">
        <ele>18</ele>
        <time>2019-07-14T07:42:14.000Z</time>
      </trkpt>
      <trkpt lat="47.26916" lon="-2.27048">
        <ele>17.60000038147</ele>
        <time>2019-07-14T07:42:15.000Z</time>
      </trkpt>
      <trkpt lat="47.26928" lon="-2.27031">
        <ele>17.200000762939</ele>
        <time>2019-07-14T07:42:17.000Z</time>
      </trkpt>
      <trkpt lat="47.26934" lon="-2.27022">
        <ele>16.799999237061</ele>
        <time>2019-07-14T07:42:18.000Z</time>
      </trkpt>
      <trkpt lat="47.26939" lon="-2.27013">
        <ele>16.200000762939</ele>
        <time>2019-07-14T07:42:19.000Z</time>
      </trkpt>
      <trkpt lat="47.26944" lon="-2.27005">
        <ele>15.800000190735</ele>
        <time>2019-07-14T07:42:20.000Z</time>
      </trkpt>
      <trkpt lat="47.26949" lon="-2.26997">
        <ele>15.39999961853</ele>
        <time>2019-07-14T07:42:21.000Z</time>
      </trkpt>
      <trkpt lat="47.26956" lon="-2.26979">
        <ele>15.39999961853</ele>
        <time>2019-07-14T07:42:23.000Z</time>
      </trkpt>
      <trkpt lat="47.26957" lon="-2.2697">
        <ele>15</ele>
        <time>2019-07-14T07:42:24.000Z</time>
      </trkpt>
      <trkpt lat="47.2696" lon="-2.2696">
        <ele>14.60000038147</ele>
        <time>2019-07-14T07:42:25.000Z</time>
      </trkpt>
      <trkpt lat="47.26962" lon="-2.2695">
        <ele>14.199999809265</ele>
        <time>2019-07-14T07:42:26.000Z</time>
      </trkpt>
      <trkpt lat="47.26964" lon="-2.2694">
        <ele>13.800000190735</ele>
        <time>2019-07-14T07:42:27.000Z</time>
      </trkpt>
      <trkpt lat="47.26966" lon="-2.26931">
        <ele>13.39999961853</ele>
        <time>2019-07-14T07:42:28.000Z</time>
      </trkpt>
      <trkpt lat="47.26966" lon="-2.2692">
        <ele>13.39999961853</ele>
        <time>2019-07-14T07:42:29.000Z</time>
      </trkpt>
      <trkpt lat="47.26966" lon="-2.269">
        <ele>13.39999961853</ele>
        <time>2019-07-14T07:42:31.000Z</time>
      </trkpt>
      <trkpt lat="47.2696" lon="-2.2687">
        <ele>13.39999961853</ele>
        <time>2019-07-14T07:42:34.000Z</time>
      </trkpt>
      <trkpt lat="47.26958" lon="-2.2686">
        <ele>13.39999961853</ele>
        <time>2019-07-14T07:42:35.000Z</time>
      </trkpt>
      <trkpt lat="47.26955" lon="-2.26833">
        <ele>13.39999961853</ele>
        <time>2019-07-14T07:42:38.000Z</time>
      </trkpt>
      <trkpt lat="47.26958" lon="-2.26827">
        <ele>12.800000190735</ele>
        <time>2019-07-14T07:42:39.000Z</time>
      </trkpt>
      <trkpt lat="47.2696" lon="-2.26823">
        <ele>12.39999961853</ele>
        <time>2019-07-14T07:42:40.000Z</time>
      </trkpt>
      <trkpt lat="47.26963" lon="-2.26819">
        <ele>12</ele>
        <time>2019-07-14T07:42:41.000Z</time>
      </trkpt>
      <trkpt lat="47.26966" lon="-2.26816">
        <ele>11.60000038147</ele>
        <time>2019-07-14T07:42:42.000Z</time>
      </trkpt>
      <trkpt lat="47.26969" lon="-2.26811">
        <ele>11</ele>
        <time>2019-07-14T07:42:43.000Z</time>
      </trkpt>
      <trkpt lat="47.26975" lon="-2.26807">
        <ele>11</ele>
        <time>2019-07-14T07:42:45.000Z</time>
      </trkpt>
      <trkpt lat="47.2698" lon="-2.26803">
        <ele>11</ele>
        <time>2019-07-14T07:42:47.000Z</time>
      </trkpt>
      <trkpt lat="47.26985" lon="-2.26799">
        <ele>10.60000038147</ele>
        <time>2019-07-14T07:42:49.000Z</time>
      </trkpt>
      <trkpt lat="47.26987" lon="-2.26798">
        <ele>10.199999809265</ele>
        <time>2019-07-14T07:42:50.000Z</time>
      </trkpt>
      <trkpt lat="47.26988" lon="-2.26797">
        <ele>9.8000001907349</ele>
        <time>2019-07-14T07:42:51.000Z</time>
      </trkpt>
      <trkpt lat="47.2699" lon="-2.26795">
        <ele>9.3999996185303</ele>
        <time>2019-07-14T07:42:52.000Z</time>
      </trkpt>
      <trkpt lat="47.26993" lon="-2.26794">
        <ele>9</ele>
        <time>2019-07-14T07:42:53.000Z</time>
      </trkpt>
      <trkpt lat="47.27001" lon="-2.26789">
        <ele>9</ele>
        <time>2019-07-14T07:42:56.000Z</time>
      </trkpt>
      <trkpt lat="47.27007" lon="-2.26777">
        <ele>9</ele>
        <time>2019-07-14T07:43:00.000Z</time>
      </trkpt>
      <trkpt lat="47.27014" lon="-2.26773">
        <ele>9</ele>
        <time>2019-07-14T07:43:03.000Z</time>
      </trkpt>
      <trkpt lat="47.27014" lon="-2.2677">
        <ele>9</ele>
        <time>2019-07-14T07:43:04.000Z</time>
      </trkpt>
      <trkpt lat="47.2702" lon="-2.26764">
        <ele>9</ele>
        <time>2019-07-14T07:43:08.000Z</time>
      </trkpt>
      <trkpt lat="47.27022" lon="-2.26761">
        <ele>9</ele>
        <time>2019-07-14T07:43:10.000Z</time>
      </trkpt>
      <trkpt lat="47.27022" lon="-2.26761">
        <ele>9</ele>
        <time>2019-07-14T07:43:12.000Z</time>
      </trkpt>
      <trkpt lat="47.27024" lon="-2.2676">
        <ele>9</ele>
        <time>2019-07-14T07:43:21.000Z</time>
      </trkpt>
      <trkpt lat="47.27028" lon="-2.26759">
        <ele>9</ele>
        <time>2019-07-14T07:43:23.000Z</time>
      </trkpt>
      <trkpt lat="47.27031" lon="-2.26758">
        <ele>9</ele>
        <time>2019-07-14T07:43:29.000Z</time>
      </trkpt>
      <trkpt lat="47.27033" lon="-2.26754">
        <ele>9</ele>
        <time>2019-07-14T07:43:31.000Z</time>
      </trkpt>
      <trkpt lat="47.27035" lon="-2.26748">
        <ele>9</ele>
        <time>2019-07-14T07:43:34.000Z</time>
      </trkpt>
      <trkpt lat="47.27039" lon="-2.26727">
        <ele>9</ele>
        <time>2019-07-14T07:43:40.000Z</time>
      </trkpt>
      <trkpt lat="47.27041" lon="-2.26712">
        <ele>9</ele>
        <time>2019-07-14T07:43:45.000Z</time>
      </trkpt>
      <trkpt lat="47.27041" lon="-2.26712">
        <ele>9</ele>
        <time>2019-07-14T07:43:46.000Z</time>
      </trkpt>
      <trkpt lat="47.27039" lon="-2.267">
        <ele>9</ele>
        <time>2019-07-14T07:43:52.000Z</time>
      </trkpt>
      <trkpt lat="47.27037" lon="-2.26693">
        <ele>9</ele>
        <time>2019-07-14T07:43:54.000Z</time>
      </trkpt>
      <trkpt lat="47.27039" lon="-2.26669">
        <ele>9</ele>
        <time>2019-07-14T07:43:58.000Z</time>
      </trkpt>
      <trkpt lat="47.2704" lon="-2.26661">
        <ele>9</ele>
        <time>2019-07-14T07:43:59.000Z</time>
      </trkpt>
      <trkpt lat="47.27035" lon="-2.26645">
        <ele>9</ele>
        <time>2019-07-14T07:44:02.000Z</time>
      </trkpt>
      <trkpt lat="47.27032" lon="-2.26641">
        <ele>9</ele>
        <time>2019-07-14T07:44:03.000Z</time>
      </trkpt>
      <trkpt lat="47.27017" lon="-2.26611">
        <ele>9</ele>
        <time>2019-07-14T07:44:10.000Z</time>
      </trkpt>
      <trkpt lat="47.27001" lon="-2.26591">
        <ele>9</ele>
        <time>2019-07-14T07:44:16.000Z</time>
      </trkpt>
      <trkpt lat="47.26991" lon="-2.26574">
        <ele>9.3999996185303</ele>
        <time>2019-07-14T07:44:18.000Z</time>
      </trkpt>
      <trkpt lat="47.26988" lon="-2.26569">
        <ele>9.8000001907349</ele>
        <time>2019-07-14T07:44:19.000Z</time>
      </trkpt>
      <trkpt lat="47.26987" lon="-2.26563">
        <ele>10.39999961853</ele>
        <time>2019-07-14T07:44:20.000Z</time>
      </trkpt>
      <trkpt lat="47.26986" lon="-2.26558">
        <ele>10.800000190735</ele>
        <time>2019-07-14T07:44:21.000Z</time>
      </trkpt>
      <trkpt lat="47.26984" lon="-2.26552">
        <ele>11.199999809265</ele>
        <time>2019-07-14T07:44:22.000Z</time>
      </trkpt>
      <trkpt lat="47.26978" lon="-2.2654">
        <ele>11.199999809265</ele>
        <time>2019-07-14T07:44:25.000Z</time>
      </trkpt>
      <trkpt lat="47.2697" lon="-2.26517">
        <ele>11.199999809265</ele>
        <time>2019-07-14T07:44:30.000Z</time>
      </trkpt>
      <trkpt lat="47.2697" lon="-2.26513">
        <ele>11.60000038147</ele>
        <time>2019-07-14T07:44:31.000Z</time>
      </trkpt>
      <trkpt lat="47.26971" lon="-2.26508">
        <ele>12.199999809265</ele>
        <time>2019-07-14T07:44:32.000Z</time>
      </trkpt>
      <trkpt lat="47.26972" lon="-2.26503">
        <ele>12.60000038147</ele>
        <time>2019-07-14T07:44:33.000Z</time>
      </trkpt>
      <trkpt lat="47.26973" lon="-2.26497">
        <ele>13</ele>
        <time>2019-07-14T07:44:34.000Z</time>
      </trkpt>
      <trkpt lat="47.26976" lon="-2.26493">
        <ele>13.39999961853</ele>
        <time>2019-07-14T07:44:35.000Z</time>
      </trkpt>
      <trkpt lat="47.26988" lon="-2.26476">
        <ele>13.39999961853</ele>
        <time>2019-07-14T07:44:39.000Z</time>
      </trkpt>
      <trkpt lat="47.26995" lon="-2.26466">
        <ele>13.39999961853</ele>
        <time>2019-07-14T07:44:41.000Z</time>
      </trkpt>
      <trkpt lat="47.27011" lon="-2.26445">
        <ele>13.39999961853</ele>
        <time>2019-07-14T07:44:45.000Z</time>
      </trkpt>
      <trkpt lat="47.27015" lon="-2.26441">
        <ele>13.39999961853</ele>
        <time>2019-07-14T07:44:46.000Z</time>
      </trkpt>
      <trkpt lat="47.2703" lon="-2.26418">
        <ele>13.39999961853</ele>
        <time>2019-07-14T07:44:50.000Z</time>
      </trkpt>
      <trkpt lat="47.27053" lon="-2.26386">
        <ele>13.39999961853</ele>
        <time>2019-07-14T07:44:56.000Z</time>
      </trkpt>
      <trkpt lat="47.27076" lon="-2.26352">
        <ele>13.39999961853</ele>
        <time>2019-07-14T07:45:02.000Z</time>
      </trkpt>
      <trkpt lat="47.27104" lon="-2.26311">
        <ele>13.39999961853</ele>
        <time>2019-07-14T07:45:09.000Z</time>
      </trkpt>
      <trkpt lat="47.27128" lon="-2.26275">
        <ele>13.39999961853</ele>
        <time>2019-07-14T07:45:15.000Z</time>
      </trkpt>
      <trkpt lat="47.27163" lon="-2.2623">
        <ele>13.39999961853</ele>
        <time>2019-07-14T07:45:22.000Z</time>
      </trkpt>
      <trkpt lat="47.27208" lon="-2.26185">
        <ele>13.39999961853</ele>
        <time>2019-07-14T07:45:30.000Z</time>
      </trkpt>
      <trkpt lat="47.27214" lon="-2.26181">
        <ele>13</ele>
        <time>2019-07-14T07:45:31.000Z</time>
      </trkpt>
      <trkpt lat="47.2722" lon="-2.26177">
        <ele>12.60000038147</ele>
        <time>2019-07-14T07:45:32.000Z</time>
      </trkpt>
      <trkpt lat="47.27227" lon="-2.26174">
        <ele>12.199999809265</ele>
        <time>2019-07-14T07:45:33.000Z</time>
      </trkpt>
      <trkpt lat="47.27233" lon="-2.2617">
        <ele>11.800000190735</ele>
        <time>2019-07-14T07:45:34.000Z</time>
      </trkpt>
      <trkpt lat="47.27239" lon="-2.26165">
        <ele>11.39999961853</ele>
        <time>2019-07-14T07:45:35.000Z</time>
      </trkpt>
      <trkpt lat="47.27251" lon="-2.26156">
        <ele>11.39999961853</ele>
        <time>2019-07-14T07:45:37.000Z</time>
      </trkpt>
      <trkpt lat="47.27282" lon="-2.26144">
        <ele>11.39999961853</ele>
        <time>2019-07-14T07:45:42.000Z</time>
      </trkpt>
      <trkpt lat="47.27325" lon="-2.2613">
        <ele>11.39999961853</ele>
        <time>2019-07-14T07:45:49.000Z</time>
      </trkpt>
      <trkpt lat="47.27369" lon="-2.26116">
        <ele>11.39999961853</ele>
        <time>2019-07-14T07:45:56.000Z</time>
      </trkpt>
      <trkpt lat="47.27419" lon="-2.26096">
        <ele>11.39999961853</ele>
        <time>2019-07-14T07:46:04.000Z</time>
      </trkpt>
      <trkpt lat="47.27444" lon="-2.26079">
        <ele>11.39999961853</ele>
        <time>2019-07-14T07:46:08.000Z</time>
      </trkpt>
      <trkpt lat="47.27455" lon="-2.26067">
        <ele>11.39999961853</ele>
        <time>2019-07-14T07:46:10.000Z</time>
      </trkpt>
      <trkpt lat="47.27476" lon="-2.2604">
        <ele>11.39999961853</ele>
        <time>2019-07-14T07:46:14.000Z</time>
      </trkpt>
      <trkpt lat="47.27486" lon="-2.26024">
        <ele>11.39999961853</ele>
        <time>2019-07-14T07:46:16.000Z</time>
      </trkpt>
      <trkpt lat="47.27516" lon="-2.25978">
        <ele>11</ele>
        <time>2019-07-14T07:46:22.000Z</time>
      </trkpt>
      <trkpt lat="47.27521" lon="-2.25971">
        <ele>10.60000038147</ele>
        <time>2019-07-14T07:46:23.000Z</time>
      </trkpt>
      <trkpt lat="47.27527" lon="-2.25965">
        <ele>10.199999809265</ele>
        <time>2019-07-14T07:46:24.000Z</time>
      </trkpt>
      <trkpt lat="47.27532" lon="-2.2596">
        <ele>9.8000001907349</ele>
        <time>2019-07-14T07:46:25.000Z</time>
      </trkpt>
      <trkpt lat="47.27538" lon="-2.25954">
        <ele>9.3999996185303</ele>
        <time>2019-07-14T07:46:26.000Z</time>
      </trkpt>
      <trkpt lat="47.27549" lon="-2.25943">
        <ele>9.3999996185303</ele>
        <time>2019-07-14T07:46:28.000Z</time>
      </trkpt>
      <trkpt lat="47.27556" lon="-2.25938">
        <ele>9.3999996185303</ele>
        <time>2019-07-14T07:46:29.000Z</time>
      </trkpt>
      <trkpt lat="47.2758" lon="-2.25919">
        <ele>9</ele>
        <time>2019-07-14T07:46:33.000Z</time>
      </trkpt>
      <trkpt lat="47.27586" lon="-2.25914">
        <ele>8.6000003814697</ele>
        <time>2019-07-14T07:46:34.000Z</time>
      </trkpt>
      <trkpt lat="47.27591" lon="-2.25909">
        <ele>8.1999998092651</ele>
        <time>2019-07-14T07:46:35.000Z</time>
      </trkpt>
      <trkpt lat="47.27597" lon="-2.25904">
        <ele>7.8000001907349</ele>
        <time>2019-07-14T07:46:36.000Z</time>
      </trkpt>
      <trkpt lat="47.27603" lon="-2.259">
        <ele>7.4000000953674</ele>
        <time>2019-07-14T07:46:37.000Z</time>
      </trkpt>
      <trkpt lat="47.27637" lon="-2.25878">
        <ele>7.4000000953674</ele>
        <time>2019-07-14T07:46:42.000Z</time>
      </trkpt>
      <trkpt lat="47.27644" lon="-2.25874">
        <ele>7</ele>
        <time>2019-07-14T07:46:43.000Z</time>
      </trkpt>
      <trkpt lat="47.2765" lon="-2.25869">
        <ele>6.5999999046326</ele>
        <time>2019-07-14T07:46:44.000Z</time>
      </trkpt>
      <trkpt lat="47.27657" lon="-2.25865">
        <ele>6</ele>
        <time>2019-07-14T07:46:45.000Z</time>
      </trkpt>
      <trkpt lat="47.27664" lon="-2.25861">
        <ele>5.5999999046326</ele>
        <time>2019-07-14T07:46:46.000Z</time>
      </trkpt>
      <trkpt lat="47.27671" lon="-2.25857">
        <ele>5.1999998092651</ele>
        <time>2019-07-14T07:46:47.000Z</time>
      </trkpt>
      <trkpt lat="47.27677" lon="-2.25851">
        <ele>5.1999998092651</ele>
        <time>2019-07-14T07:46:48.000Z</time>
      </trkpt>
      <trkpt lat="47.27682" lon="-2.25846">
        <ele>5.1999998092651</ele>
        <time>2019-07-14T07:46:49.000Z</time>
      </trkpt>
      <trkpt lat="47.27694" lon="-2.25824">
        <ele>5.1999998092651</ele>
        <time>2019-07-14T07:46:53.000Z</time>
      </trkpt>
      <trkpt lat="47.27701" lon="-2.25809">
        <ele>5.1999998092651</ele>
        <time>2019-07-14T07:46:56.000Z</time>
      </trkpt>
      <trkpt lat="47.27701" lon="-2.25804">
        <ele>5.1999998092651</ele>
        <time>2019-07-14T07:46:57.000Z</time>
      </trkpt>
      <trkpt lat="47.277" lon="-2.25795">
        <ele>5.1999998092651</ele>
        <time>2019-07-14T07:47:00.000Z</time>
      </trkpt>
      <trkpt lat="47.27698" lon="-2.25794">
        <ele>5.1999998092651</ele>
        <time>2019-07-14T07:47:01.000Z</time>
      </trkpt>
      <trkpt lat="47.27694" lon="-2.25795">
        <ele>5.1999998092651</ele>
        <time>2019-07-14T07:47:04.000Z</time>
      </trkpt>
      <trkpt lat="47.27684" lon="-2.25792">
        <ele>5.1999998092651</ele>
        <time>2019-07-14T07:47:08.000Z</time>
      </trkpt>
      <trkpt lat="47.27682" lon="-2.25776">
        <ele>5.1999998092651</ele>
        <time>2019-07-14T07:47:11.000Z</time>
      </trkpt>
      <trkpt lat="47.27681" lon="-2.25769">
        <ele>5.1999998092651</ele>
        <time>2019-07-14T07:47:12.000Z</time>
      </trkpt>
      <trkpt lat="47.27676" lon="-2.25753">
        <ele>5.1999998092651</ele>
        <time>2019-07-14T07:47:15.000Z</time>
      </trkpt>
      <trkpt lat="47.27674" lon="-2.25751">
        <ele>5.1999998092651</ele>
        <time>2019-07-14T07:47:16.000Z</time>
      </trkpt>
      <trkpt lat="47.27666" lon="-2.25742">
        <ele>5.1999998092651</ele>
        <time>2019-07-14T07:47:20.000Z</time>
      </trkpt>
      <trkpt lat="47.27665" lon="-2.25738">
        <ele>5.1999998092651</ele>
        <time>2019-07-14T07:47:21.000Z</time>
      </trkpt>
      <trkpt lat="47.27662" lon="-2.25717">
        <ele>5.1999998092651</ele>
        <time>2019-07-14T07:47:26.000Z</time>
      </trkpt>
      <trkpt lat="47.27657" lon="-2.2569">
        <ele>5.1999998092651</ele>
        <time>2019-07-14T07:47:31.000Z</time>
      </trkpt>
      <trkpt lat="47.27656" lon="-2.25684">
        <ele>5.1999998092651</ele>
        <time>2019-07-14T07:47:34.000Z</time>
      </trkpt>
      <trkpt lat="47.27655" lon="-2.25681">
        <ele>5.1999998092651</ele>
        <time>2019-07-14T07:47:35.000Z</time>
      </trkpt>
      <trkpt lat="47.27655" lon="-2.25672">
        <ele>5.1999998092651</ele>
        <time>2019-07-14T07:47:38.000Z</time>
      </trkpt>
      <trkpt lat="47.27654" lon="-2.25665">
        <ele>5.1999998092651</ele>
        <time>2019-07-14T07:47:40.000Z</time>
      </trkpt>
      <trkpt lat="47.27648" lon="-2.2564">
        <ele>5.1999998092651</ele>
        <time>2019-07-14T07:47:44.000Z</time>
      </trkpt>
      <trkpt lat="47.27636" lon="-2.25636">
        <ele>5.1999998092651</ele>
        <time>2019-07-14T07:47:47.000Z</time>
      </trkpt>
      <trkpt lat="47.27632" lon="-2.25635">
        <ele>5.1999998092651</ele>
        <time>2019-07-14T07:47:48.000Z</time>
      </trkpt>
      <trkpt lat="47.27618" lon="-2.25636">
        <ele>5.1999998092651</ele>
        <time>2019-07-14T07:47:52.000Z</time>
      </trkpt>
      <trkpt lat="47.27614" lon="-2.25638">
        <ele>5.1999998092651</ele>
        <time>2019-07-14T07:47:55.000Z</time>
      </trkpt>
      <trkpt lat="47.2761" lon="-2.25635">
        <ele>5.1999998092651</ele>
        <time>2019-07-14T07:47:59.000Z</time>
      </trkpt>
      <trkpt lat="47.27608" lon="-2.25633">
        <ele>5.1999998092651</ele>
        <time>2019-07-14T07:48:00.000Z</time>
      </trkpt>
      <trkpt lat="47.27597" lon="-2.25624">
        <ele>5.1999998092651</ele>
        <time>2019-07-14T07:48:05.000Z</time>
      </trkpt>
      <trkpt lat="47.27593" lon="-2.25623">
        <ele>5.1999998092651</ele>
        <time>2019-07-14T07:48:06.000Z</time>
      </trkpt>
      <trkpt lat="47.27581" lon="-2.25618">
        <ele>5.1999998092651</ele>
        <time>2019-07-14T07:48:08.000Z</time>
      </trkpt>
      <trkpt lat="47.27574" lon="-2.25611">
        <ele>5.1999998092651</ele>
        <time>2019-07-14T07:48:10.000Z</time>
      </trkpt>
      <trkpt lat="47.27571" lon="-2.25602">
        <ele>5.1999998092651</ele>
        <time>2019-07-14T07:48:12.000Z</time>
      </trkpt>
      <trkpt lat="47.27567" lon="-2.25589">
        <ele>5.1999998092651</ele>
        <time>2019-07-14T07:48:14.000Z</time>
      </trkpt>
      <trkpt lat="47.27557" lon="-2.25545">
        <ele>5.1999998092651</ele>
        <time>2019-07-14T07:48:19.000Z</time>
      </trkpt>
      <trkpt lat="47.27548" lon="-2.25509">
        <ele>5.1999998092651</ele>
        <time>2019-07-14T07:48:24.000Z</time>
      </trkpt>
      <trkpt lat="47.27545" lon="-2.25503">
        <ele>5.1999998092651</ele>
        <time>2019-07-14T07:48:25.000Z</time>
      </trkpt>
      <trkpt lat="47.27525" lon="-2.2548">
        <ele>5.1999998092651</ele>
        <time>2019-07-14T07:48:30.000Z</time>
      </trkpt>
      <trkpt lat="47.2751" lon="-2.25467">
        <ele>5.1999998092651</ele>
        <time>2019-07-14T07:48:33.000Z</time>
      </trkpt>
      <trkpt lat="47.27497" lon="-2.25464">
        <ele>5.1999998092651</ele>
        <time>2019-07-14T07:48:35.000Z</time>
      </trkpt>
      <trkpt lat="47.27482" lon="-2.25463">
        <ele>5.1999998092651</ele>
        <time>2019-07-14T07:48:37.000Z</time>
      </trkpt>
      <trkpt lat="47.27467" lon="-2.25461">
        <ele>5.1999998092651</ele>
        <time>2019-07-14T07:48:39.000Z</time>
      </trkpt>
      <trkpt lat="47.27463" lon="-2.2546">
        <ele>5.1999998092651</ele>
        <time>2019-07-14T07:48:40.000Z</time>
      </trkpt>
      <trkpt lat="47.27447" lon="-2.25448">
        <ele>5.1999998092651</ele>
        <time>2019-07-14T07:48:44.000Z</time>
      </trkpt>
      <trkpt lat="47.27439" lon="-2.2544">
        <ele>5.1999998092651</ele>
        <time>2019-07-14T07:48:46.000Z</time>
      </trkpt>
      <trkpt lat="47.27431" lon="-2.25432">
        <ele>5.1999998092651</ele>
        <time>2019-07-14T07:48:48.000Z</time>
      </trkpt>
      <trkpt lat="47.27427" lon="-2.25429">
        <ele>5.1999998092651</ele>
        <time>2019-07-14T07:48:49.000Z</time>
      </trkpt>
      <trkpt lat="47.2742" lon="-2.25414">
        <ele>5.1999998092651</ele>
        <time>2019-07-14T07:48:52.000Z</time>
      </trkpt>
      <trkpt lat="47.2741" lon="-2.25399">
        <ele>5.1999998092651</ele>
        <time>2019-07-14T07:48:56.000Z</time>
      </trkpt>
      <trkpt lat="47.27408" lon="-2.25396">
        <ele>5.1999998092651</ele>
        <time>2019-07-14T07:48:57.000Z</time>
      </trkpt>
      <trkpt lat="47.27408" lon="-2.25392">
        <ele>5.1999998092651</ele>
        <time>2019-07-14T07:48:58.000Z</time>
      </trkpt>
      <trkpt lat="47.27407" lon="-2.25383">
        <ele>5.1999998092651</ele>
        <time>2019-07-14T07:49:00.000Z</time>
      </trkpt>
      <trkpt lat="47.27409" lon="-2.25362">
        <ele>5.1999998092651</ele>
        <time>2019-07-14T07:49:03.000Z</time>
      </trkpt>
      <trkpt lat="47.27403" lon="-2.25336">
        <ele>5.1999998092651</ele>
        <time>2019-07-14T07:49:07.000Z</time>
      </trkpt>
      <trkpt lat="47.27403" lon="-2.25311">
        <ele>5.1999998092651</ele>
        <time>2019-07-14T07:49:11.000Z</time>
      </trkpt>
      <trkpt lat="47.27404" lon="-2.25292">
        <ele>5.1999998092651</ele>
        <time>2019-07-14T07:49:14.000Z</time>
      </trkpt>
      <trkpt lat="47.27405" lon="-2.25286">
        <ele>5.1999998092651</ele>
        <time>2019-07-14T07:49:15.000Z</time>
      </trkpt>
      <trkpt lat="47.27404" lon="-2.25269">
        <ele>5.1999998092651</ele>
        <time>2019-07-14T07:49:18.000Z</time>
      </trkpt>
      <trkpt lat="47.274" lon="-2.2524">
        <ele>5.1999998092651</ele>
        <time>2019-07-14T07:49:23.000Z</time>
      </trkpt>
      <trkpt lat="47.27398" lon="-2.25231">
        <ele>5.1999998092651</ele>
        <time>2019-07-14T07:49:24.000Z</time>
      </trkpt>
      <trkpt lat="47.27399" lon="-2.25206">
        <ele>5.1999998092651</ele>
        <time>2019-07-14T07:49:27.000Z</time>
      </trkpt>
      <trkpt lat="47.27395" lon="-2.25179">
        <ele>5.1999998092651</ele>
        <time>2019-07-14T07:49:31.000Z</time>
      </trkpt>
      <trkpt lat="47.27384" lon="-2.25144">
        <ele>5.1999998092651</ele>
        <time>2019-07-14T07:49:36.000Z</time>
      </trkpt>
      <trkpt lat="47.27381" lon="-2.25137">
        <ele>5.1999998092651</ele>
        <time>2019-07-14T07:49:37.000Z</time>
      </trkpt>
      <trkpt lat="47.27362" lon="-2.25092">
        <ele>5.1999998092651</ele>
        <time>2019-07-14T07:49:43.000Z</time>
      </trkpt>
      <trkpt lat="47.2735" lon="-2.25055">
        <ele>5.1999998092651</ele>
        <time>2019-07-14T07:49:48.000Z</time>
      </trkpt>
      <trkpt lat="47.2735" lon="-2.25048">
        <ele>5.1999998092651</ele>
        <time>2019-07-14T07:49:49.000Z</time>
      </trkpt>
      <trkpt lat="47.27355" lon="-2.25027">
        <ele>5.1999998092651</ele>
        <time>2019-07-14T07:49:52.000Z</time>
      </trkpt>
      <trkpt lat="47.27357" lon="-2.25021">
        <ele>5.1999998092651</ele>
        <time>2019-07-14T07:49:53.000Z</time>
      </trkpt>
      <trkpt lat="47.27376" lon="-2.24984">
        <ele>5.1999998092651</ele>
        <time>2019-07-14T07:49:59.000Z</time>
      </trkpt>
      <trkpt lat="47.2739" lon="-2.2497">
        <ele>5.1999998092651</ele>
        <time>2019-07-14T07:50:03.000Z</time>
      </trkpt>
      <trkpt lat="47.27394" lon="-2.24969">
        <ele>5.1999998092651</ele>
        <time>2019-07-14T07:50:04.000Z</time>
      </trkpt>
      <trkpt lat="47.27416" lon="-2.24959">
        <ele>5.1999998092651</ele>
        <time>2019-07-14T07:50:09.000Z</time>
      </trkpt>
      <trkpt lat="47.2742" lon="-2.24956">
        <ele>5.1999998092651</ele>
        <time>2019-07-14T07:50:10.000Z</time>
      </trkpt>
      <trkpt lat="47.27431" lon="-2.24949">
        <ele>5.1999998092651</ele>
        <time>2019-07-14T07:50:14.000Z</time>
      </trkpt>
      <trkpt lat="47.27428" lon="-2.24939">
        <ele>5.1999998092651</ele>
        <time>2019-07-14T07:50:17.000Z</time>
      </trkpt>
      <trkpt lat="47.27429" lon="-2.24929">
        <ele>5.1999998092651</ele>
        <time>2019-07-14T07:50:19.000Z</time>
      </trkpt>
      <trkpt lat="47.27426" lon="-2.24926">
        <ele>5.1999998092651</ele>
        <time>2019-07-14T07:50:20.000Z</time>
      </trkpt>
      <trkpt lat="47.27423" lon="-2.24907">
        <ele>5.1999998092651</ele>
        <time>2019-07-14T07:50:24.000Z</time>
      </trkpt>
      <trkpt lat="47.27415" lon="-2.24885">
        <ele>5.1999998092651</ele>
        <time>2019-07-14T07:50:29.000Z</time>
      </trkpt>
      <trkpt lat="47.27415" lon="-2.24882">
        <ele>5.1999998092651</ele>
        <time>2019-07-14T07:50:30.000Z</time>
      </trkpt>
      <trkpt lat="47.27417" lon="-2.24876">
        <ele>5.1999998092651</ele>
        <time>2019-07-14T07:50:32.000Z</time>
      </trkpt>
      <trkpt lat="47.27429" lon="-2.2484">
        <ele>5.1999998092651</ele>
        <time>2019-07-14T07:50:39.000Z</time>
      </trkpt>
      <trkpt lat="47.27431" lon="-2.2483">
        <ele>5.1999998092651</ele>
        <time>2019-07-14T07:50:40.000Z</time>
      </trkpt>
      <trkpt lat="47.27439" lon="-2.24807">
        <ele>5.1999998092651</ele>
        <time>2019-07-14T07:50:43.000Z</time>
      </trkpt>
      <trkpt lat="47.27444" lon="-2.24803">
        <ele>5.1999998092651</ele>
        <time>2019-07-14T07:50:44.000Z</time>
      </trkpt>
      <trkpt lat="47.27451" lon="-2.24792">
        <ele>5.1999998092651</ele>
        <time>2019-07-14T07:50:46.000Z</time>
      </trkpt>
      <trkpt lat="47.27456" lon="-2.24788">
        <ele>5.5999999046326</ele>
        <time>2019-07-14T07:50:47.000Z</time>
      </trkpt>
      <trkpt lat="47.2746" lon="-2.24786">
        <ele>6</ele>
        <time>2019-07-14T07:50:48.000Z</time>
      </trkpt>
      <trkpt lat="47.27464" lon="-2.24785">
        <ele>6.4000000953674</ele>
        <time>2019-07-14T07:50:49.000Z</time>
      </trkpt>
      <trkpt lat="47.27469" lon="-2.24785">
        <ele>6.8000001907349</ele>
        <time>2019-07-14T07:50:50.000Z</time>
      </trkpt>
      <trkpt lat="47.27472" lon="-2.24785">
        <ele>7.1999998092651</ele>
        <time>2019-07-14T07:50:51.000Z</time>
      </trkpt>
      <trkpt lat="47.2748" lon="-2.24784">
        <ele>7.8000001907349</ele>
        <time>2019-07-14T07:50:53.000Z</time>
      </trkpt>
      <trkpt lat="47.27484" lon="-2.24785">
        <ele>8.1999998092651</ele>
        <time>2019-07-14T07:50:54.000Z</time>
      </trkpt>
      <trkpt lat="47.27488" lon="-2.24784">
        <ele>8.6000003814697</ele>
        <time>2019-07-14T07:50:55.000Z</time>
      </trkpt>
      <trkpt lat="47.27492" lon="-2.24784">
        <ele>9</ele>
        <time>2019-07-14T07:50:56.000Z</time>
      </trkpt>
      <trkpt lat="47.27496" lon="-2.24785">
        <ele>9.3999996185303</ele>
        <time>2019-07-14T07:50:57.000Z</time>
      </trkpt>
      <trkpt lat="47.2751" lon="-2.24785">
        <ele>10</ele>
        <time>2019-07-14T07:51:00.000Z</time>
      </trkpt>
      <trkpt lat="47.27515" lon="-2.24785">
        <ele>10.39999961853</ele>
        <time>2019-07-14T07:51:01.000Z</time>
      </trkpt>
      <trkpt lat="47.2752" lon="-2.24784">
        <ele>10.800000190735</ele>
        <time>2019-07-14T07:51:02.000Z</time>
      </trkpt>
      <trkpt lat="47.27524" lon="-2.24784">
        <ele>11.39999961853</ele>
        <time>2019-07-14T07:51:03.000Z</time>
      </trkpt>
      <trkpt lat="47.2753" lon="-2.24785">
        <ele>11.800000190735</ele>
        <time>2019-07-14T07:51:04.000Z</time>
      </trkpt>
      <trkpt lat="47.27549" lon="-2.24784">
        <ele>11.800000190735</ele>
        <time>2019-07-14T07:51:08.000Z</time>
      </trkpt>
      <trkpt lat="47.27574" lon="-2.24785">
        <ele>11.800000190735</ele>
        <time>2019-07-14T07:51:13.000Z</time>
      </trkpt>
      <trkpt lat="47.2758" lon="-2.24787">
        <ele>11.800000190735</ele>
        <time>2019-07-14T07:51:14.000Z</time>
      </trkpt>
      <trkpt lat="47.27606" lon="-2.2479">
        <ele>11.800000190735</ele>
        <time>2019-07-14T07:51:19.000Z</time>
      </trkpt>
      <trkpt lat="47.27623" lon="-2.24787">
        <ele>11.800000190735</ele>
        <time>2019-07-14T07:51:23.000Z</time>
      </trkpt>
      <trkpt lat="47.27629" lon="-2.24789">
        <ele>11.800000190735</ele>
        <time>2019-07-14T07:51:24.000Z</time>
      </trkpt>
      <trkpt lat="47.27642" lon="-2.24792">
        <ele>11.800000190735</ele>
        <time>2019-07-14T07:51:27.000Z</time>
      </trkpt>
      <trkpt lat="47.27655" lon="-2.24799">
        <ele>11.800000190735</ele>
        <time>2019-07-14T07:51:30.000Z</time>
      </trkpt>
      <trkpt lat="47.27669" lon="-2.24802">
        <ele>11.800000190735</ele>
        <time>2019-07-14T07:51:32.000Z</time>
      </trkpt>
      <trkpt lat="47.27698" lon="-2.24802">
        <ele>11.800000190735</ele>
        <time>2019-07-14T07:51:37.000Z</time>
      </trkpt>
      <trkpt lat="47.27717" lon="-2.24802">
        <ele>11.800000190735</ele>
        <time>2019-07-14T07:51:40.000Z</time>
      </trkpt>
      <trkpt lat="47.27748" lon="-2.24803">
        <ele>11.800000190735</ele>
        <time>2019-07-14T07:51:46.000Z</time>
      </trkpt>
      <trkpt lat="47.27785" lon="-2.24802">
        <ele>11.800000190735</ele>
        <time>2019-07-14T07:51:53.000Z</time>
      </trkpt>
      <trkpt lat="47.27829" lon="-2.24798">
        <ele>11.800000190735</ele>
        <time>2019-07-14T07:52:01.000Z</time>
      </trkpt>
      <trkpt lat="47.27835" lon="-2.24797">
        <ele>11.800000190735</ele>
        <time>2019-07-14T07:52:02.000Z</time>
      </trkpt>
      <trkpt lat="47.2785" lon="-2.24787">
        <ele>11.800000190735</ele>
        <time>2019-07-14T07:52:05.000Z</time>
      </trkpt>
      <trkpt lat="47.27854" lon="-2.24782">
        <ele>11.800000190735</ele>
        <time>2019-07-14T07:52:06.000Z</time>
      </trkpt>
      <trkpt lat="47.27856" lon="-2.24776">
        <ele>11.800000190735</ele>
        <time>2019-07-14T07:52:07.000Z</time>
      </trkpt>
      <trkpt lat="47.27862" lon="-2.2477">
        <ele>11.800000190735</ele>
        <time>2019-07-14T07:52:09.000Z</time>
      </trkpt>
      <trkpt lat="47.27875" lon="-2.2477">
        <ele>11.800000190735</ele>
        <time>2019-07-14T07:52:12.000Z</time>
      </trkpt>
      <trkpt lat="47.27879" lon="-2.24769">
        <ele>11.800000190735</ele>
        <time>2019-07-14T07:52:13.000Z</time>
      </trkpt>
      <trkpt lat="47.27894" lon="-2.24766">
        <ele>12.199999809265</ele>
        <time>2019-07-14T07:52:17.000Z</time>
      </trkpt>
      <trkpt lat="47.27897" lon="-2.24766">
        <ele>12.60000038147</ele>
        <time>2019-07-14T07:52:18.000Z</time>
      </trkpt>
      <trkpt lat="47.279" lon="-2.24767">
        <ele>13</ele>
        <time>2019-07-14T07:52:19.000Z</time>
      </trkpt>
      <trkpt lat="47.27903" lon="-2.24767">
        <ele>13.39999961853</ele>
        <time>2019-07-14T07:52:20.000Z</time>
      </trkpt>
      <trkpt lat="47.27906" lon="-2.24767">
        <ele>13.800000190735</ele>
        <time>2019-07-14T07:52:21.000Z</time>
      </trkpt>
      <trkpt lat="47.27912" lon="-2.24767">
        <ele>14.39999961853</ele>
        <time>2019-07-14T07:52:23.000Z</time>
      </trkpt>
      <trkpt lat="47.27916" lon="-2.24767">
        <ele>14.800000190735</ele>
        <time>2019-07-14T07:52:24.000Z</time>
      </trkpt>
      <trkpt lat="47.27918" lon="-2.24767">
        <ele>15.199999809265</ele>
        <time>2019-07-14T07:52:25.000Z</time>
      </trkpt>
      <trkpt lat="47.2792" lon="-2.24769">
        <ele>15.60000038147</ele>
        <time>2019-07-14T07:52:26.000Z</time>
      </trkpt>
      <trkpt lat="47.27922" lon="-2.24771">
        <ele>16</ele>
        <time>2019-07-14T07:52:27.000Z</time>
      </trkpt>
      <trkpt lat="47.27923" lon="-2.24775">
        <ele>16</ele>
        <time>2019-07-14T07:52:29.000Z</time>
      </trkpt>
      <trkpt lat="47.27923" lon="-2.24781">
        <ele>16</ele>
        <time>2019-07-14T07:52:31.000Z</time>
      </trkpt>
      <trkpt lat="47.27914" lon="-2.2479">
        <ele>16</ele>
        <time>2019-07-14T07:52:34.000Z</time>
      </trkpt>
      <trkpt lat="47.27911" lon="-2.24795">
        <ele>16</ele>
        <time>2019-07-14T07:52:35.000Z</time>
      </trkpt>
      <trkpt lat="47.27911" lon="-2.24804">
        <ele>16</ele>
        <time>2019-07-14T07:52:37.000Z</time>
      </trkpt>
      <trkpt lat="47.2792" lon="-2.24811">
        <ele>16</ele>
        <time>2019-07-14T07:52:40.000Z</time>
      </trkpt>
      <trkpt lat="47.27924" lon="-2.24813">
        <ele>16</ele>
        <time>2019-07-14T07:52:41.000Z</time>
      </trkpt>
      <trkpt lat="47.27937" lon="-2.2482">
        <ele>16</ele>
        <time>2019-07-14T07:52:44.000Z</time>
      </trkpt>
      <trkpt lat="47.27941" lon="-2.24821">
        <ele>16</ele>
        <time>2019-07-14T07:52:45.000Z</time>
      </trkpt>
      <trkpt lat="47.27946" lon="-2.24822">
        <ele>16</ele>
        <time>2019-07-14T07:52:46.000Z</time>
      </trkpt>
      <trkpt lat="47.27953" lon="-2.24825">
        <ele>16</ele>
        <time>2019-07-14T07:52:48.000Z</time>
      </trkpt>
      <trkpt lat="47.27958" lon="-2.24826">
        <ele>16</ele>
        <time>2019-07-14T07:52:49.000Z</time>
      </trkpt>
      <trkpt lat="47.27973" lon="-2.2483">
        <ele>16</ele>
        <time>2019-07-14T07:52:52.000Z</time>
      </trkpt>
      <trkpt lat="47.27979" lon="-2.24831">
        <ele>16</ele>
        <time>2019-07-14T07:52:53.000Z</time>
      </trkpt>
      <trkpt lat="47.28016" lon="-2.24837">
        <ele>16</ele>
        <time>2019-07-14T07:53:00.000Z</time>
      </trkpt>
      <trkpt lat="47.28035" lon="-2.2484">
        <ele>16</ele>
        <time>2019-07-14T07:53:04.000Z</time>
      </trkpt>
      <trkpt lat="47.28046" lon="-2.24842">
        <ele>16</ele>
        <time>2019-07-14T07:53:06.000Z</time>
      </trkpt>
      <trkpt lat="47.28061" lon="-2.24846">
        <ele>16</ele>
        <time>2019-07-14T07:53:09.000Z</time>
      </trkpt>
      <trkpt lat="47.28067" lon="-2.24847">
        <ele>16</ele>
        <time>2019-07-14T07:53:10.000Z</time>
      </trkpt>
      <trkpt lat="47.28072" lon="-2.24847">
        <ele>16</ele>
        <time>2019-07-14T07:53:11.000Z</time>
      </trkpt>
      <trkpt lat="47.281" lon="-2.24847">
        <ele>16</ele>
        <time>2019-07-14T07:53:16.000Z</time>
      </trkpt>
      <trkpt lat="47.28106" lon="-2.24849">
        <ele>16</ele>
        <time>2019-07-14T07:53:17.000Z</time>
      </trkpt>
      <trkpt lat="47.28112" lon="-2.24852">
        <ele>16</ele>
        <time>2019-07-14T07:53:18.000Z</time>
      </trkpt>
      <trkpt lat="47.28132" lon="-2.24857">
        <ele>16</ele>
        <time>2019-07-14T07:53:21.000Z</time>
      </trkpt>
      <trkpt lat="47.2814" lon="-2.24857">
        <ele>16</ele>
        <time>2019-07-14T07:53:22.000Z</time>
      </trkpt>
      <trkpt lat="47.28151" lon="-2.24853">
        <ele>16</ele>
        <time>2019-07-14T07:53:24.000Z</time>
      </trkpt>
      <trkpt lat="47.28156" lon="-2.2485">
        <ele>15.60000038147</ele>
        <time>2019-07-14T07:53:25.000Z</time>
      </trkpt>
      <trkpt lat="47.2816" lon="-2.24846">
        <ele>14.60000038147</ele>
        <time>2019-07-14T07:53:26.000Z</time>
      </trkpt>
      <trkpt lat="47.28161" lon="-2.24841">
        <ele>14</ele>
        <time>2019-07-14T07:53:27.000Z</time>
      </trkpt>
      <trkpt lat="47.28162" lon="-2.24836">
        <ele>13.60000038147</ele>
        <time>2019-07-14T07:53:28.000Z</time>
      </trkpt>
      <trkpt lat="47.28163" lon="-2.24831">
        <ele>13.199999809265</ele>
        <time>2019-07-14T07:53:29.000Z</time>
      </trkpt>
      <trkpt lat="47.28163" lon="-2.24824">
        <ele>12.800000190735</ele>
        <time>2019-07-14T07:53:30.000Z</time>
      </trkpt>
      <trkpt lat="47.28164" lon="-2.24818">
        <ele>12.39999961853</ele>
        <time>2019-07-14T07:53:31.000Z</time>
      </trkpt>
      <trkpt lat="47.28166" lon="-2.24813">
        <ele>12</ele>
        <time>2019-07-14T07:53:32.000Z</time>
      </trkpt>
      <trkpt lat="47.28169" lon="-2.2481">
        <ele>11.60000038147</ele>
        <time>2019-07-14T07:53:33.000Z</time>
      </trkpt>
      <trkpt lat="47.28179" lon="-2.24809">
        <ele>11.60000038147</ele>
        <time>2019-07-14T07:53:35.000Z</time>
      </trkpt>
      <trkpt lat="47.28185" lon="-2.2481">
        <ele>11.199999809265</ele>
        <time>2019-07-14T07:53:36.000Z</time>
      </trkpt>
      <trkpt lat="47.28193" lon="-2.24811">
        <ele>10.800000190735</ele>
        <time>2019-07-14T07:53:37.000Z</time>
      </trkpt>
      <trkpt lat="47.28201" lon="-2.24813">
        <ele>10.39999961853</ele>
        <time>2019-07-14T07:53:38.000Z</time>
      </trkpt>
      <trkpt lat="47.28209" lon="-2.24815">
        <ele>10</ele>
        <time>2019-07-14T07:53:39.000Z</time>
      </trkpt>
      <trkpt lat="47.28218" lon="-2.24816">
        <ele>9.6000003814697</ele>
        <time>2019-07-14T07:53:40.000Z</time>
      </trkpt>
      <trkpt lat="47.28227" lon="-2.24817">
        <ele>9</ele>
        <time>2019-07-14T07:53:41.000Z</time>
      </trkpt>
      <trkpt lat="47.28236" lon="-2.24817">
        <ele>8.3999996185303</ele>
        <time>2019-07-14T07:53:42.000Z</time>
      </trkpt>
      <trkpt lat="47.28243" lon="-2.24815">
        <ele>7.5999999046326</ele>
        <time>2019-07-14T07:53:43.000Z</time>
      </trkpt>
      <trkpt lat="47.2825" lon="-2.24812">
        <ele>6.8000001907349</ele>
        <time>2019-07-14T07:53:44.000Z</time>
      </trkpt>
      <trkpt lat="47.28257" lon="-2.24809">
        <ele>6</ele>
        <time>2019-07-14T07:53:45.000Z</time>
      </trkpt>
      <trkpt lat="47.28263" lon="-2.24804">
        <ele>5.1999998092651</ele>
        <time>2019-07-14T07:53:46.000Z</time>
      </trkpt>
      <trkpt lat="47.28268" lon="-2.24799">
        <ele>4.1999998092651</ele>
        <time>2019-07-14T07:53:47.000Z</time>
      </trkpt>
      <trkpt lat="47.28273" lon="-2.24795">
        <ele>4.1999998092651</ele>
        <time>2019-07-14T07:53:48.000Z</time>
      </trkpt>
      <trkpt lat="47.28285" lon="-2.24786">
        <ele>4.1999998092651</ele>
        <time>2019-07-14T07:53:50.000Z</time>
      </trkpt>
      <trkpt lat="47.28305" lon="-2.24774">
        <ele>3.7999999523163</ele>
        <time>2019-07-14T07:53:53.000Z</time>
      </trkpt>
      <trkpt lat="47.28311" lon="-2.24769">
        <ele>3.4000000953674</ele>
        <time>2019-07-14T07:53:54.000Z</time>
      </trkpt>
      <trkpt lat="47.28318" lon="-2.24766">
        <ele>3</ele>
        <time>2019-07-14T07:53:55.000Z</time>
      </trkpt>
      <trkpt lat="47.28324" lon="-2.24763">
        <ele>2.5999999046326</ele>
        <time>2019-07-14T07:53:56.000Z</time>
      </trkpt>
      <trkpt lat="47.2833" lon="-2.2476">
        <ele>2.2000000476837</ele>
        <time>2019-07-14T07:53:57.000Z</time>
      </trkpt>
      <trkpt lat="47.2834" lon="-2.24757">
        <ele>1.7999999523163</ele>
        <time>2019-07-14T07:53:59.000Z</time>
      </trkpt>
      <trkpt lat="47.28345" lon="-2.24755">
        <ele>1.2000000476837</ele>
        <time>2019-07-14T07:54:00.000Z</time>
      </trkpt>
      <trkpt lat="47.28348" lon="-2.24753">
        <ele>0.80000001192093</ele>
        <time>2019-07-14T07:54:01.000Z</time>
      </trkpt>
      <trkpt lat="47.28352" lon="-2.24752">
        <ele>0.20000000298023</ele>
        <time>2019-07-14T07:54:02.000Z</time>
      </trkpt>
      <trkpt lat="47.28355" lon="-2.24751">
        <ele>-0.20000000298023</ele>
        <time>2019-07-14T07:54:03.000Z</time>
      </trkpt>
      <trkpt lat="47.2836" lon="-2.24754">
        <ele>-0.20000000298023</ele>
        <time>2019-07-14T07:54:05.000Z</time>
      </trkpt>
      <trkpt lat="47.28362" lon="-2.24758">
        <ele>-0.20000000298023</ele>
        <time>2019-07-14T07:54:06.000Z</time>
      </trkpt>
      <trkpt lat="47.28365" lon="-2.24773">
        <ele>-0.20000000298023</ele>
        <time>2019-07-14T07:54:09.000Z</time>
      </trkpt>
      <trkpt lat="47.28366" lon="-2.24774">
        <ele>-0.60000002384186</ele>
        <time>2019-07-14T07:54:10.000Z</time>
      </trkpt>
      <trkpt lat="47.28367" lon="-2.24774">
        <ele>-1</ele>
        <time>2019-07-14T07:54:11.000Z</time>
      </trkpt>
      <trkpt lat="47.28369" lon="-2.24775">
        <ele>-1.3999999761581</ele>
        <time>2019-07-14T07:54:12.000Z</time>
      </trkpt>
      <trkpt lat="47.28369" lon="-2.24775">
        <ele>-1.7999999523163</ele>
        <time>2019-07-14T07:54:13.000Z</time>
      </trkpt>
      <trkpt lat="47.28371" lon="-2.24774">
        <ele>-2.2000000476837</ele>
        <time>2019-07-14T07:54:14.000Z</time>
      </trkpt>
      <trkpt lat="47.28371" lon="-2.24774">
        <ele>-2.2000000476837</ele>
        <time>2019-07-14T07:54:15.000Z</time>
      </trkpt>
      <trkpt lat="47.28371" lon="-2.24774">
        <ele>-2.2000000476837</ele>
        <time>2019-07-14T07:54:22.000Z</time>
      </trkpt>
      <trkpt lat="47.28385" lon="-2.24771">
        <ele>-2.2000000476837</ele>
        <time>2019-07-14T07:54:27.000Z</time>
      </trkpt>
      <trkpt lat="47.28401" lon="-2.24764">
        <ele>-2.2000000476837</ele>
        <time>2019-07-14T07:54:31.000Z</time>
      </trkpt>
      <trkpt lat="47.28422" lon="-2.24749">
        <ele>-2.2000000476837</ele>
        <time>2019-07-14T07:54:36.000Z</time>
      </trkpt>
      <trkpt lat="47.28452" lon="-2.24729">
        <ele>-2.2000000476837</ele>
        <time>2019-07-14T07:54:43.000Z</time>
      </trkpt>
      <trkpt lat="47.28479" lon="-2.24708">
        <ele>-2.2000000476837</ele>
        <time>2019-07-14T07:54:49.000Z</time>
      </trkpt>
      <trkpt lat="47.2851" lon="-2.24684">
        <ele>-2.2000000476837</ele>
        <time>2019-07-14T07:54:56.000Z</time>
      </trkpt>
      <trkpt lat="47.28546" lon="-2.24656">
        <ele>-2.2000000476837</ele>
        <time>2019-07-14T07:55:03.000Z</time>
      </trkpt>
      <trkpt lat="47.28573" lon="-2.24635">
        <ele>-2.2000000476837</ele>
        <time>2019-07-14T07:55:09.000Z</time>
      </trkpt>
      <trkpt lat="47.28584" lon="-2.24625">
        <ele>-2.2000000476837</ele>
        <time>2019-07-14T07:55:13.000Z</time>
      </trkpt>
      <trkpt lat="47.28591" lon="-2.24613">
        <ele>-2.2000000476837</ele>
        <time>2019-07-14T07:55:18.000Z</time>
      </trkpt>
      <trkpt lat="47.28594" lon="-2.24609">
        <ele>-2.2000000476837</ele>
        <time>2019-07-14T07:55:23.000Z</time>
      </trkpt>
      <trkpt lat="47.28594" lon="-2.24609">
        <ele>-2.2000000476837</ele>
        <time>2019-07-14T07:55:24.000Z</time>
      </trkpt>
      <trkpt lat="47.28599" lon="-2.24603">
        <ele>-2.2000000476837</ele>
        <time>2019-07-14T07:55:27.000Z</time>
      </trkpt>
      <trkpt lat="47.28603" lon="-2.2459">
        <ele>-2.2000000476837</ele>
        <time>2019-07-14T07:55:30.000Z</time>
      </trkpt>
      <trkpt lat="47.28608" lon="-2.24557">
        <ele>-2.2000000476837</ele>
        <time>2019-07-14T07:55:37.000Z</time>
      </trkpt>
      <trkpt lat="47.28617" lon="-2.24525">
        <ele>-2.2000000476837</ele>
        <time>2019-07-14T07:55:42.000Z</time>
      </trkpt>
      <trkpt lat="47.28627" lon="-2.24493">
        <ele>-2.2000000476837</ele>
        <time>2019-07-14T07:55:46.000Z</time>
      </trkpt>
      <trkpt lat="47.28629" lon="-2.24485">
        <ele>-2.2000000476837</ele>
        <time>2019-07-14T07:55:47.000Z</time>
      </trkpt>
      <trkpt lat="47.28642" lon="-2.24436">
        <ele>-2.2000000476837</ele>
        <time>2019-07-14T07:55:53.000Z</time>
      </trkpt>
      <trkpt lat="47.2865" lon="-2.24404">
        <ele>-2.2000000476837</ele>
        <time>2019-07-14T07:55:57.000Z</time>
      </trkpt>
      <trkpt lat="47.28655" lon="-2.24388">
        <ele>-2.2000000476837</ele>
        <time>2019-07-14T07:55:59.000Z</time>
      </trkpt>
      <trkpt lat="47.28669" lon="-2.24344">
        <ele>-2.2000000476837</ele>
        <time>2019-07-14T07:56:04.000Z</time>
      </trkpt>
      <trkpt lat="47.28684" lon="-2.24285">
        <ele>-2.2000000476837</ele>
        <time>2019-07-14T07:56:11.000Z</time>
      </trkpt>
      <trkpt lat="47.28688" lon="-2.2427">
        <ele>-2.2000000476837</ele>
        <time>2019-07-14T07:56:13.000Z</time>
      </trkpt>
      <trkpt lat="47.28696" lon="-2.24262">
        <ele>-2.2000000476837</ele>
        <time>2019-07-14T07:56:15.000Z</time>
      </trkpt>
      <trkpt lat="47.28712" lon="-2.24261">
        <ele>-2.2000000476837</ele>
        <time>2019-07-14T07:56:18.000Z</time>
      </trkpt>
      <trkpt lat="47.28718" lon="-2.2426">
        <ele>-2.2000000476837</ele>
        <time>2019-07-14T07:56:19.000Z</time>
      </trkpt>
      <trkpt lat="47.28735" lon="-2.24261">
        <ele>-2.2000000476837</ele>
        <time>2019-07-14T07:56:22.000Z</time>
      </trkpt>
      <trkpt lat="47.28741" lon="-2.24261">
        <ele>-2.2000000476837</ele>
        <time>2019-07-14T07:56:23.000Z</time>
      </trkpt>
      <trkpt lat="47.2877" lon="-2.2426">
        <ele>-2.2000000476837</ele>
        <time>2019-07-14T07:56:28.000Z</time>
      </trkpt>
      <trkpt lat="47.28783" lon="-2.24246">
        <ele>-2.2000000476837</ele>
        <time>2019-07-14T07:56:31.000Z</time>
      </trkpt>
      <trkpt lat="47.28786" lon="-2.24226">
        <ele>-2.2000000476837</ele>
        <time>2019-07-14T07:56:34.000Z</time>
      </trkpt>
      <trkpt lat="47.28786" lon="-2.24172">
        <ele>-2.2000000476837</ele>
        <time>2019-07-14T07:56:40.000Z</time>
      </trkpt>
      <trkpt lat="47.28787" lon="-2.24119">
        <ele>-2.2000000476837</ele>
        <time>2019-07-14T07:56:46.000Z</time>
      </trkpt>
      <trkpt lat="47.2879" lon="-2.2404">
        <ele>-2.2000000476837</ele>
        <time>2019-07-14T07:56:54.000Z</time>
      </trkpt>
      <trkpt lat="47.28795" lon="-2.23987">
        <ele>-2.2000000476837</ele>
        <time>2019-07-14T07:57:00.000Z</time>
      </trkpt>
      <trkpt lat="47.28799" lon="-2.23932">
        <ele>-2.2000000476837</ele>
        <time>2019-07-14T07:57:06.000Z</time>
      </trkpt>
      <trkpt lat="47.28801" lon="-2.23915">
        <ele>-2.2000000476837</ele>
        <time>2019-07-14T07:57:08.000Z</time>
      </trkpt>
      <trkpt lat="47.28805" lon="-2.23889">
        <ele>-2.2000000476837</ele>
        <time>2019-07-14T07:57:11.000Z</time>
      </trkpt>
      <trkpt lat="47.28805" lon="-2.2388">
        <ele>-2.2000000476837</ele>
        <time>2019-07-14T07:57:12.000Z</time>
      </trkpt>
      <trkpt lat="47.28804" lon="-2.23853">
        <ele>-2.2000000476837</ele>
        <time>2019-07-14T07:57:15.000Z</time>
      </trkpt>
      <trkpt lat="47.28794" lon="-2.23823">
        <ele>-2.2000000476837</ele>
        <time>2019-07-14T07:57:19.000Z</time>
      </trkpt>
      <trkpt lat="47.2879" lon="-2.23816">
        <ele>-2.2000000476837</ele>
        <time>2019-07-14T07:57:20.000Z</time>
      </trkpt>
      <trkpt lat="47.28768" lon="-2.23779">
        <ele>-2.2000000476837</ele>
        <time>2019-07-14T07:57:25.000Z</time>
      </trkpt>
      <trkpt lat="47.28748" lon="-2.23742">
        <ele>-2.2000000476837</ele>
        <time>2019-07-14T07:57:30.000Z</time>
      </trkpt>
      <trkpt lat="47.28723" lon="-2.23699">
        <ele>-2.2000000476837</ele>
        <time>2019-07-14T07:57:36.000Z</time>
      </trkpt>
      <trkpt lat="47.28693" lon="-2.23647">
        <ele>-2.2000000476837</ele>
        <time>2019-07-14T07:57:43.000Z</time>
      </trkpt>
      <trkpt lat="47.28672" lon="-2.23607">
        <ele>-2.2000000476837</ele>
        <time>2019-07-14T07:57:48.000Z</time>
      </trkpt>
      <trkpt lat="47.28663" lon="-2.23594">
        <ele>-2.2000000476837</ele>
        <time>2019-07-14T07:57:50.000Z</time>
      </trkpt>
      <trkpt lat="47.28655" lon="-2.23583">
        <ele>-2.2000000476837</ele>
        <time>2019-07-14T07:57:52.000Z</time>
      </trkpt>
      <trkpt lat="47.2865" lon="-2.2358">
        <ele>-2.2000000476837</ele>
        <time>2019-07-14T07:57:53.000Z</time>
      </trkpt>
      <trkpt lat="47.28642" lon="-2.23574">
        <ele>-2.7999999523163</ele>
        <time>2019-07-14T07:57:55.000Z</time>
      </trkpt>
      <trkpt lat="47.28639" lon="-2.23572">
        <ele>-3.2000000476837</ele>
        <time>2019-07-14T07:57:56.000Z</time>
      </trkpt>
      <trkpt lat="47.28638" lon="-2.23569">
        <ele>-3.5999999046326</ele>
        <time>2019-07-14T07:57:57.000Z</time>
      </trkpt>
      <trkpt lat="47.28637" lon="-2.23566">
        <ele>-4.1999998092651</ele>
        <time>2019-07-14T07:57:58.000Z</time>
      </trkpt>
      <trkpt lat="47.28638" lon="-2.23564">
        <ele>-4.5999999046326</ele>
        <time>2019-07-14T07:57:59.000Z</time>
      </trkpt>
      <trkpt lat="47.28639" lon="-2.23562">
        <ele>-4.5999999046326</ele>
        <time>2019-07-14T07:58:00.000Z</time>
      </trkpt>
      <trkpt lat="47.28647" lon="-2.2355">
        <ele>-4.5999999046326</ele>
        <time>2019-07-14T07:58:04.000Z</time>
      </trkpt>
      <trkpt lat="47.28647" lon="-2.23528">
        <ele>-4.5999999046326</ele>
        <time>2019-07-14T07:58:08.000Z</time>
      </trkpt>
      <trkpt lat="47.28648" lon="-2.23522">
        <ele>-4.5999999046326</ele>
        <time>2019-07-14T07:58:09.000Z</time>
      </trkpt>
      <trkpt lat="47.28653" lon="-2.23487">
        <ele>-4.5999999046326</ele>
        <time>2019-07-14T07:58:15.000Z</time>
      </trkpt>
      <trkpt lat="47.28657" lon="-2.23467">
        <ele>-4.5999999046326</ele>
        <time>2019-07-14T07:58:18.000Z</time>
      </trkpt>
      <trkpt lat="47.28659" lon="-2.23455">
        <ele>-4.5999999046326</ele>
        <time>2019-07-14T07:58:20.000Z</time>
      </trkpt>
      <trkpt lat="47.28656" lon="-2.23431">
        <ele>-4.5999999046326</ele>
        <time>2019-07-14T07:58:24.000Z</time>
      </trkpt>
      <trkpt lat="47.2865" lon="-2.23408">
        <ele>-4.5999999046326</ele>
        <time>2019-07-14T07:58:27.000Z</time>
      </trkpt>
      <trkpt lat="47.28649" lon="-2.2339">
        <ele>-4.5999999046326</ele>
        <time>2019-07-14T07:58:29.000Z</time>
      </trkpt>
      <trkpt lat="47.2865" lon="-2.23375">
        <ele>-4.5999999046326</ele>
        <time>2019-07-14T07:58:31.000Z</time>
      </trkpt>
      <trkpt lat="47.28652" lon="-2.23364">
        <ele>-4.5999999046326</ele>
        <time>2019-07-14T07:58:33.000Z</time>
      </trkpt>
      <trkpt lat="47.28661" lon="-2.23365">
        <ele>-4.5999999046326</ele>
        <time>2019-07-14T07:58:36.000Z</time>
      </trkpt>
      <trkpt lat="47.2867" lon="-2.23358">
        <ele>-4.5999999046326</ele>
        <time>2019-07-14T07:58:40.000Z</time>
      </trkpt>
      <trkpt lat="47.28672" lon="-2.23347">
        <ele>-4.5999999046326</ele>
        <time>2019-07-14T07:58:42.000Z</time>
      </trkpt>
      <trkpt lat="47.28675" lon="-2.23331">
        <ele>-4.5999999046326</ele>
        <time>2019-07-14T07:58:45.000Z</time>
      </trkpt>
      <trkpt lat="47.28676" lon="-2.23319">
        <ele>-4.5999999046326</ele>
        <time>2019-07-14T07:58:48.000Z</time>
      </trkpt>
      <trkpt lat="47.28677" lon="-2.23316">
        <ele>-4.5999999046326</ele>
        <time>2019-07-14T07:58:49.000Z</time>
      </trkpt>
      <trkpt lat="47.28677" lon="-2.23302">
        <ele>-4.5999999046326</ele>
        <time>2019-07-14T07:58:54.000Z</time>
      </trkpt>
      <trkpt lat="47.28677" lon="-2.23289">
        <ele>-4.5999999046326</ele>
        <time>2019-07-14T07:58:58.000Z</time>
      </trkpt>
      <trkpt lat="47.28684" lon="-2.23269">
        <ele>-4.5999999046326</ele>
        <time>2019-07-14T07:59:02.000Z</time>
      </trkpt>
      <trkpt lat="47.28684" lon="-2.23262">
        <ele>-4.1999998092651</ele>
        <time>2019-07-14T07:59:03.000Z</time>
      </trkpt>
      <trkpt lat="47.28685" lon="-2.23256">
        <ele>-3.7999999523163</ele>
        <time>2019-07-14T07:59:04.000Z</time>
      </trkpt>
      <trkpt lat="47.28684" lon="-2.23251">
        <ele>-3.4000000953674</ele>
        <time>2019-07-14T07:59:05.000Z</time>
      </trkpt>
      <trkpt lat="47.28684" lon="-2.23247">
        <ele>-3</ele>
        <time>2019-07-14T07:59:06.000Z</time>
      </trkpt>
      <trkpt lat="47.28685" lon="-2.23242">
        <ele>-2.5999999046326</ele>
        <time>2019-07-14T07:59:07.000Z</time>
      </trkpt>
      <trkpt lat="47.28683" lon="-2.23218">
        <ele>-2.5999999046326</ele>
        <time>2019-07-14T07:59:11.000Z</time>
      </trkpt>
      <trkpt lat="47.28681" lon="-2.23213">
        <ele>-2.5999999046326</ele>
        <time>2019-07-14T07:59:12.000Z</time>
      </trkpt>
      <trkpt lat="47.28675" lon="-2.23204">
        <ele>-3</ele>
        <time>2019-07-14T07:59:14.000Z</time>
      </trkpt>
      <trkpt lat="47.28672" lon="-2.23201">
        <ele>-3.4000000953674</ele>
        <time>2019-07-14T07:59:15.000Z</time>
      </trkpt>
      <trkpt lat="47.28668" lon="-2.23198">
        <ele>-3.7999999523163</ele>
        <time>2019-07-14T07:59:16.000Z</time>
      </trkpt>
      <trkpt lat="47.28665" lon="-2.23196">
        <ele>-4.1999998092651</ele>
        <time>2019-07-14T07:59:17.000Z</time>
      </trkpt>
      <trkpt lat="47.28661" lon="-2.23196">
        <ele>-4.5999999046326</ele>
        <time>2019-07-14T07:59:18.000Z</time>
      </trkpt>
      <trkpt lat="47.28651" lon="-2.23196">
        <ele>-4.5999999046326</ele>
        <time>2019-07-14T07:59:20.000Z</time>
      </trkpt>
      <trkpt lat="47.28634" lon="-2.23197">
        <ele>-4.5999999046326</ele>
        <time>2019-07-14T07:59:23.000Z</time>
      </trkpt>
      <trkpt lat="47.28624" lon="-2.232">
        <ele>-4.5999999046326</ele>
        <time>2019-07-14T07:59:25.000Z</time>
      </trkpt>
      <trkpt lat="47.28609" lon="-2.23212">
        <ele>-4.5999999046326</ele>
        <time>2019-07-14T07:59:29.000Z</time>
      </trkpt>
      <trkpt lat="47.28601" lon="-2.23228">
        <ele>-4.5999999046326</ele>
        <time>2019-07-14T07:59:33.000Z</time>
      </trkpt>
      <trkpt lat="47.28596" lon="-2.23246">
        <ele>-4.5999999046326</ele>
        <time>2019-07-14T07:59:38.000Z</time>
      </trkpt>
      <trkpt lat="47.28592" lon="-2.23265">
        <ele>-4.5999999046326</ele>
        <time>2019-07-14T07:59:43.000Z</time>
      </trkpt>
      <trkpt lat="47.28592" lon="-2.2327">
        <ele>-4.5999999046326</ele>
        <time>2019-07-14T07:59:44.000Z</time>
      </trkpt>
      <trkpt lat="47.28596" lon="-2.23288">
        <ele>-4.5999999046326</ele>
        <time>2019-07-14T07:59:47.000Z</time>
      </trkpt>
      <trkpt lat="47.28601" lon="-2.23292">
        <ele>-4.5999999046326</ele>
        <time>2019-07-14T07:59:48.000Z</time>
      </trkpt>
      <trkpt lat="47.28614" lon="-2.23299">
        <ele>-4.5999999046326</ele>
        <time>2019-07-14T07:59:51.000Z</time>
      </trkpt>
      <trkpt lat="47.28623" lon="-2.23301">
        <ele>-4.5999999046326</ele>
        <time>2019-07-14T07:59:53.000Z</time>
      </trkpt>
      <trkpt lat="47.28627" lon="-2.23301">
        <ele>-4.5999999046326</ele>
        <time>2019-07-14T07:59:54.000Z</time>
      </trkpt>
      <trkpt lat="47.28643" lon="-2.23299">
        <ele>-4.5999999046326</ele>
        <time>2019-07-14T07:59:58.000Z</time>
      </trkpt>
      <trkpt lat="47.28658" lon="-2.23302">
        <ele>-4.5999999046326</ele>
        <time>2019-07-14T08:00:02.000Z</time>
      </trkpt>
      <trkpt lat="47.28668" lon="-2.23303">
        <ele>-4.5999999046326</ele>
        <time>2019-07-14T08:00:06.000Z</time>
      </trkpt>
      <trkpt lat="47.28669" lon="-2.233">
        <ele>-4.1999998092651</ele>
        <time>2019-07-14T08:00:08.000Z</time>
      </trkpt>
      <trkpt lat="47.28669" lon="-2.23299">
        <ele>-3.7999999523163</ele>
        <time>2019-07-14T08:00:09.000Z</time>
      </trkpt>
      <trkpt lat="47.28668" lon="-2.23298">
        <ele>-3.4000000953674</ele>
        <time>2019-07-14T08:00:10.000Z</time>
      </trkpt>
      <trkpt lat="47.28667" lon="-2.23297">
        <ele>-2.7999999523163</ele>
        <time>2019-07-14T08:00:11.000Z</time>
      </trkpt>
      <trkpt lat="47.28665" lon="-2.23298">
        <ele>-2.4000000953674</ele>
        <time>2019-07-14T08:00:12.000Z</time>
      </trkpt>
      <trkpt lat="47.28661" lon="-2.23307">
        <ele>-2.4000000953674</ele>
        <time>2019-07-14T08:00:14.000Z</time>
      </trkpt>
      <trkpt lat="47.28658" lon="-2.23323">
        <ele>-2.4000000953674</ele>
        <time>2019-07-14T08:00:16.000Z</time>
      </trkpt>
      <trkpt lat="47.28658" lon="-2.23331">
        <ele>-2.7999999523163</ele>
        <time>2019-07-14T08:00:17.000Z</time>
      </trkpt>
      <trkpt lat="47.28657" lon="-2.23338">
        <ele>-3.2000000476837</ele>
        <time>2019-07-14T08:00:18.000Z</time>
      </trkpt>
      <trkpt lat="47.28657" lon="-2.23345">
        <ele>-3.5999999046326</ele>
        <time>2019-07-14T08:00:19.000Z</time>
      </trkpt>
      <trkpt lat="47.28656" lon="-2.23352">
        <ele>-4</ele>
        <time>2019-07-14T08:00:20.000Z</time>
      </trkpt>
      <trkpt lat="47.28656" lon="-2.2336">
        <ele>-4.4000000953674</ele>
        <time>2019-07-14T08:00:21.000Z</time>
      </trkpt>
      <trkpt lat="47.28656" lon="-2.23366">
        <ele>-4.4000000953674</ele>
        <time>2019-07-14T08:00:22.000Z</time>
      </trkpt>
      <trkpt lat="47.28653" lon="-2.23397">
        <ele>-4.4000000953674</ele>
        <time>2019-07-14T08:00:26.000Z</time>
      </trkpt>
      <trkpt lat="47.28654" lon="-2.23405">
        <ele>-4.4000000953674</ele>
        <time>2019-07-14T08:00:27.000Z</time>
      </trkpt>
      <trkpt lat="47.28656" lon="-2.23428">
        <ele>-4.4000000953674</ele>
        <time>2019-07-14T08:00:30.000Z</time>
      </trkpt>
      <trkpt lat="47.2866" lon="-2.2344">
        <ele>-4.4000000953674</ele>
        <time>2019-07-14T08:00:32.000Z</time>
      </trkpt>
      <trkpt lat="47.28667" lon="-2.23468">
        <ele>-4.4000000953674</ele>
        <time>2019-07-14T08:00:37.000Z</time>
      </trkpt>
      <trkpt lat="47.28666" lon="-2.23475">
        <ele>-4.4000000953674</ele>
        <time>2019-07-14T08:00:38.000Z</time>
      </trkpt>
      <trkpt lat="47.28664" lon="-2.23488">
        <ele>-4.4000000953674</ele>
        <time>2019-07-14T08:00:40.000Z</time>
      </trkpt>
      <trkpt lat="47.28659" lon="-2.23521">
        <ele>-4.4000000953674</ele>
        <time>2019-07-14T08:00:45.000Z</time>
      </trkpt>
      <trkpt lat="47.28659" lon="-2.23542">
        <ele>-4.4000000953674</ele>
        <time>2019-07-14T08:00:48.000Z</time>
      </trkpt>
      <trkpt lat="47.28659" lon="-2.23555">
        <ele>-4.4000000953674</ele>
        <time>2019-07-14T08:00:50.000Z</time>
      </trkpt>
      <trkpt lat="47.28668" lon="-2.23563">
        <ele>-4.4000000953674</ele>
        <time>2019-07-14T08:00:53.000Z</time>
      </trkpt>
      <trkpt lat="47.28672" lon="-2.23565">
        <ele>-4.4000000953674</ele>
        <time>2019-07-14T08:00:54.000Z</time>
      </trkpt>
      <trkpt lat="47.28676" lon="-2.23568">
        <ele>-4.4000000953674</ele>
        <time>2019-07-14T08:00:55.000Z</time>
      </trkpt>
      <trkpt lat="47.28687" lon="-2.23582">
        <ele>-4.4000000953674</ele>
        <time>2019-07-14T08:00:58.000Z</time>
      </trkpt>
      <trkpt lat="47.28691" lon="-2.23588">
        <ele>-4.4000000953674</ele>
        <time>2019-07-14T08:00:59.000Z</time>
      </trkpt>
      <trkpt lat="47.28694" lon="-2.23592">
        <ele>-4.4000000953674</ele>
        <time>2019-07-14T08:01:00.000Z</time>
      </trkpt>
      <trkpt lat="47.28702" lon="-2.23595">
        <ele>-4.4000000953674</ele>
        <time>2019-07-14T08:01:02.000Z</time>
      </trkpt>
      <trkpt lat="47.28716" lon="-2.23588">
        <ele>-4.4000000953674</ele>
        <time>2019-07-14T08:01:05.000Z</time>
      </trkpt>
      <trkpt lat="47.28721" lon="-2.23584">
        <ele>-4.4000000953674</ele>
        <time>2019-07-14T08:01:06.000Z</time>
      </trkpt>
      <trkpt lat="47.28735" lon="-2.23565">
        <ele>-4.4000000953674</ele>
        <time>2019-07-14T08:01:10.000Z</time>
      </trkpt>
      <trkpt lat="47.28752" lon="-2.2354">
        <ele>-4.4000000953674</ele>
        <time>2019-07-14T08:01:16.000Z</time>
      </trkpt>
      <trkpt lat="47.28755" lon="-2.23537">
        <ele>-4</ele>
        <time>2019-07-14T08:01:17.000Z</time>
      </trkpt>
      <trkpt lat="47.28758" lon="-2.23534">
        <ele>-3.5999999046326</ele>
        <time>2019-07-14T08:01:18.000Z</time>
      </trkpt>
      <trkpt lat="47.28761" lon="-2.23531">
        <ele>-3.2000000476837</ele>
        <time>2019-07-14T08:01:19.000Z</time>
      </trkpt>
      <trkpt lat="47.28764" lon="-2.23529">
        <ele>-2.7999999523163</ele>
        <time>2019-07-14T08:01:20.000Z</time>
      </trkpt>
      <trkpt lat="47.28767" lon="-2.23526">
        <ele>-2.4000000953674</ele>
        <time>2019-07-14T08:01:21.000Z</time>
      </trkpt>
      <trkpt lat="47.28771" lon="-2.23523">
        <ele>-2.4000000953674</ele>
        <time>2019-07-14T08:01:22.000Z</time>
      </trkpt>
      <trkpt lat="47.28775" lon="-2.23521">
        <ele>-2.4000000953674</ele>
        <time>2019-07-14T08:01:23.000Z</time>
      </trkpt>
      <trkpt lat="47.28784" lon="-2.23517">
        <ele>-2</ele>
        <time>2019-07-14T08:01:25.000Z</time>
      </trkpt>
      <trkpt lat="47.28789" lon="-2.23516">
        <ele>-1.3999999761581</ele>
        <time>2019-07-14T08:01:26.000Z</time>
      </trkpt>
      <trkpt lat="47.28793" lon="-2.23515">
        <ele>-1</ele>
        <time>2019-07-14T08:01:27.000Z</time>
      </trkpt>
      <trkpt lat="47.28798" lon="-2.23514">
        <ele>-0.60000002384186</ele>
        <time>2019-07-14T08:01:28.000Z</time>
      </trkpt>
      <trkpt lat="47.28803" lon="-2.23513">
        <ele>-0.20000000298023</ele>
        <time>2019-07-14T08:01:29.000Z</time>
      </trkpt>
      <trkpt lat="47.28813" lon="-2.23511">
        <ele>-0.20000000298023</ele>
        <time>2019-07-14T08:01:31.000Z</time>
      </trkpt>
      <trkpt lat="47.28835" lon="-2.23509">
        <ele>0.20000000298023</ele>
        <time>2019-07-14T08:01:36.000Z</time>
      </trkpt>
      <trkpt lat="47.2884" lon="-2.23508">
        <ele>0.60000002384186</ele>
        <time>2019-07-14T08:01:37.000Z</time>
      </trkpt>
      <trkpt lat="47.28845" lon="-2.23508">
        <ele>1</ele>
        <time>2019-07-14T08:01:38.000Z</time>
      </trkpt>
      <trkpt lat="47.2885" lon="-2.23508">
        <ele>1.6000000238419</ele>
        <time>2019-07-14T08:01:39.000Z</time>
      </trkpt>
      <trkpt lat="47.28854" lon="-2.23507">
        <ele>2</ele>
        <time>2019-07-14T08:01:40.000Z</time>
      </trkpt>
      <trkpt lat="47.28859" lon="-2.23507">
        <ele>2</ele>
        <time>2019-07-14T08:01:41.000Z</time>
      </trkpt>
      <trkpt lat="47.28864" lon="-2.23506">
        <ele>2</ele>
        <time>2019-07-14T08:01:42.000Z</time>
      </trkpt>
      <trkpt lat="47.28889" lon="-2.23505">
        <ele>2</ele>
        <time>2019-07-14T08:01:47.000Z</time>
      </trkpt>
      <trkpt lat="47.28894" lon="-2.23505">
        <ele>2</ele>
        <time>2019-07-14T08:01:48.000Z</time>
      </trkpt>
      <trkpt lat="47.289" lon="-2.23505">
        <ele>2.4000000953674</ele>
        <time>2019-07-14T08:01:49.000Z</time>
      </trkpt>
      <trkpt lat="47.28905" lon="-2.23504">
        <ele>2.7999999523163</ele>
        <time>2019-07-14T08:01:50.000Z</time>
      </trkpt>
      <trkpt lat="47.2891" lon="-2.23503">
        <ele>3.2000000476837</ele>
        <time>2019-07-14T08:01:51.000Z</time>
      </trkpt>
      <trkpt lat="47.28915" lon="-2.23501">
        <ele>3.5999999046326</ele>
        <time>2019-07-14T08:01:52.000Z</time>
      </trkpt>
      <trkpt lat="47.2892" lon="-2.235">
        <ele>4</ele>
        <time>2019-07-14T08:01:53.000Z</time>
      </trkpt>
      <trkpt lat="47.28942" lon="-2.23494">
        <ele>4</ele>
        <time>2019-07-14T08:01:58.000Z</time>
      </trkpt>
      <trkpt lat="47.28954" lon="-2.23491">
        <ele>4</ele>
        <time>2019-07-14T08:02:01.000Z</time>
      </trkpt>
      <trkpt lat="47.28957" lon="-2.23487">
        <ele>4</ele>
        <time>2019-07-14T08:02:02.000Z</time>
      </trkpt>
      <trkpt lat="47.28959" lon="-2.2347">
        <ele>4</ele>
        <time>2019-07-14T08:02:05.000Z</time>
      </trkpt>
      <trkpt lat="47.28962" lon="-2.23441">
        <ele>4.4000000953674</ele>
        <time>2019-07-14T08:02:09.000Z</time>
      </trkpt>
      <trkpt lat="47.28962" lon="-2.23434">
        <ele>4.8000001907349</ele>
        <time>2019-07-14T08:02:10.000Z</time>
      </trkpt>
      <trkpt lat="47.28964" lon="-2.23427">
        <ele>5.4000000953674</ele>
        <time>2019-07-14T08:02:11.000Z</time>
      </trkpt>
      <trkpt lat="47.28965" lon="-2.2342">
        <ele>5.8000001907349</ele>
        <time>2019-07-14T08:02:12.000Z</time>
      </trkpt>
      <trkpt lat="47.28966" lon="-2.23412">
        <ele>6.1999998092651</ele>
        <time>2019-07-14T08:02:13.000Z</time>
      </trkpt>
      <trkpt lat="47.2897" lon="-2.23362">
        <ele>6.1999998092651</ele>
        <time>2019-07-14T08:02:20.000Z</time>
      </trkpt>
      <trkpt lat="47.28975" lon="-2.23307">
        <ele>6.1999998092651</ele>
        <time>2019-07-14T08:02:27.000Z</time>
      </trkpt>
      <trkpt lat="47.2898" lon="-2.23264">
        <ele>6.1999998092651</ele>
        <time>2019-07-14T08:02:32.000Z</time>
      </trkpt>
      <trkpt lat="47.28981" lon="-2.23255">
        <ele>6.1999998092651</ele>
        <time>2019-07-14T08:02:33.000Z</time>
      </trkpt>
      <trkpt lat="47.28984" lon="-2.23229">
        <ele>5.8000001907349</ele>
        <time>2019-07-14T08:02:36.000Z</time>
      </trkpt>
      <trkpt lat="47.28985" lon="-2.2322">
        <ele>5.4000000953674</ele>
        <time>2019-07-14T08:02:37.000Z</time>
      </trkpt>
      <trkpt lat="47.28985" lon="-2.23211">
        <ele>4.8000001907349</ele>
        <time>2019-07-14T08:02:38.000Z</time>
      </trkpt>
      <trkpt lat="47.28986" lon="-2.23202">
        <ele>4.4000000953674</ele>
        <time>2019-07-14T08:02:39.000Z</time>
      </trkpt>
      <trkpt lat="47.28987" lon="-2.23193">
        <ele>4</ele>
        <time>2019-07-14T08:02:40.000Z</time>
      </trkpt>
      <trkpt lat="47.28989" lon="-2.23175">
        <ele>4</ele>
        <time>2019-07-14T08:02:42.000Z</time>
      </trkpt>
      <trkpt lat="47.28991" lon="-2.23148">
        <ele>3.5999999046326</ele>
        <time>2019-07-14T08:02:45.000Z</time>
      </trkpt>
      <trkpt lat="47.28993" lon="-2.23139">
        <ele>3.2000000476837</ele>
        <time>2019-07-14T08:02:46.000Z</time>
      </trkpt>
      <trkpt lat="47.28994" lon="-2.2313">
        <ele>2.7999999523163</ele>
        <time>2019-07-14T08:02:47.000Z</time>
      </trkpt>
      <trkpt lat="47.28995" lon="-2.23121">
        <ele>2.4000000953674</ele>
        <time>2019-07-14T08:02:48.000Z</time>
      </trkpt>
      <trkpt lat="47.28996" lon="-2.23112">
        <ele>2</ele>
        <time>2019-07-14T08:02:49.000Z</time>
      </trkpt>
      <trkpt lat="47.28999" lon="-2.23093">
        <ele>1.6000000238419</ele>
        <time>2019-07-14T08:02:51.000Z</time>
      </trkpt>
      <trkpt lat="47.29" lon="-2.23084">
        <ele>1</ele>
        <time>2019-07-14T08:02:52.000Z</time>
      </trkpt>
      <trkpt lat="47.29002" lon="-2.23074">
        <ele>0.60000002384186</ele>
        <time>2019-07-14T08:02:53.000Z</time>
      </trkpt>
      <trkpt lat="47.29004" lon="-2.23065">
        <ele>0.20000000298023</ele>
        <time>2019-07-14T08:02:54.000Z</time>
      </trkpt>
      <trkpt lat="47.29006" lon="-2.23057">
        <ele>-0.20000000298023</ele>
        <time>2019-07-14T08:02:55.000Z</time>
      </trkpt>
      <trkpt lat="47.29012" lon="-2.23039">
        <ele>-0.60000002384186</ele>
        <time>2019-07-14T08:02:57.000Z</time>
      </trkpt>
      <trkpt lat="47.29014" lon="-2.2303">
        <ele>-1.2000000476837</ele>
        <time>2019-07-14T08:02:58.000Z</time>
      </trkpt>
      <trkpt lat="47.29017" lon="-2.23021">
        <ele>-1.6000000238419</ele>
        <time>2019-07-14T08:02:59.000Z</time>
      </trkpt>
      <trkpt lat="47.29018" lon="-2.23013">
        <ele>-2</ele>
        <time>2019-07-14T08:03:00.000Z</time>
      </trkpt>
      <trkpt lat="47.2902" lon="-2.23006">
        <ele>-2.4000000953674</ele>
        <time>2019-07-14T08:03:01.000Z</time>
      </trkpt>
      <trkpt lat="47.29022" lon="-2.23">
        <ele>-2.4000000953674</ele>
        <time>2019-07-14T08:03:02.000Z</time>
      </trkpt>
      <trkpt lat="47.29024" lon="-2.22995">
        <ele>-2.7999999523163</ele>
        <time>2019-07-14T08:03:03.000Z</time>
      </trkpt>
      <trkpt lat="47.29025" lon="-2.22989">
        <ele>-3.2000000476837</ele>
        <time>2019-07-14T08:03:04.000Z</time>
      </trkpt>
      <trkpt lat="47.29025" lon="-2.22984">
        <ele>-3.5999999046326</ele>
        <time>2019-07-14T08:03:05.000Z</time>
      </trkpt>
      <trkpt lat="47.29026" lon="-2.22978">
        <ele>-4</ele>
        <time>2019-07-14T08:03:06.000Z</time>
      </trkpt>
      <trkpt lat="47.29029" lon="-2.22974">
        <ele>-4.5999999046326</ele>
        <time>2019-07-14T08:03:07.000Z</time>
      </trkpt>
      <trkpt lat="47.29036" lon="-2.22972">
        <ele>-4.5999999046326</ele>
        <time>2019-07-14T08:03:09.000Z</time>
      </trkpt>
      <trkpt lat="47.29045" lon="-2.22988">
        <ele>-4.5999999046326</ele>
        <time>2019-07-14T08:03:12.000Z</time>
      </trkpt>
      <trkpt lat="47.29048" lon="-2.22994">
        <ele>-4.5999999046326</ele>
        <time>2019-07-14T08:03:13.000Z</time>
      </trkpt>
      <trkpt lat="47.29061" lon="-2.23009">
        <ele>-4.5999999046326</ele>
        <time>2019-07-14T08:03:16.000Z</time>
      </trkpt>
      <trkpt lat="47.29093" lon="-2.2305">
        <ele>-4.5999999046326</ele>
        <time>2019-07-14T08:03:24.000Z</time>
      </trkpt>
      <trkpt lat="47.29129" lon="-2.23096">
        <ele>-4.5999999046326</ele>
        <time>2019-07-14T08:03:33.000Z</time>
      </trkpt>
      <trkpt lat="47.29158" lon="-2.23131">
        <ele>-4.5999999046326</ele>
        <time>2019-07-14T08:03:41.000Z</time>
      </trkpt>
      <trkpt lat="47.2918" lon="-2.2316">
        <ele>-4.5999999046326</ele>
        <time>2019-07-14T08:03:47.000Z</time>
      </trkpt>
      <trkpt lat="47.29184" lon="-2.23166">
        <ele>-4.5999999046326</ele>
        <time>2019-07-14T08:03:48.000Z</time>
      </trkpt>
      <trkpt lat="47.2919" lon="-2.23178">
        <ele>-4.5999999046326</ele>
        <time>2019-07-14T08:03:50.000Z</time>
      </trkpt>
      <trkpt lat="47.29197" lon="-2.23191">
        <ele>-4.5999999046326</ele>
        <time>2019-07-14T08:03:52.000Z</time>
      </trkpt>
      <trkpt lat="47.29204" lon="-2.23224">
        <ele>-4.5999999046326</ele>
        <time>2019-07-14T08:03:56.000Z</time>
      </trkpt>
      <trkpt lat="47.29217" lon="-2.23242">
        <ele>-4.5999999046326</ele>
        <time>2019-07-14T08:03:59.000Z</time>
      </trkpt>
      <trkpt lat="47.29222" lon="-2.23248">
        <ele>-4.5999999046326</ele>
        <time>2019-07-14T08:04:00.000Z</time>
      </trkpt>
      <trkpt lat="47.29245" lon="-2.23281">
        <ele>-4.5999999046326</ele>
        <time>2019-07-14T08:04:06.000Z</time>
      </trkpt>
      <trkpt lat="47.29255" lon="-2.23298">
        <ele>-4.5999999046326</ele>
        <time>2019-07-14T08:04:09.000Z</time>
      </trkpt>
      <trkpt lat="47.29266" lon="-2.23326">
        <ele>-4.5999999046326</ele>
        <time>2019-07-14T08:04:13.000Z</time>
      </trkpt>
      <trkpt lat="47.29276" lon="-2.2337">
        <ele>-4.5999999046326</ele>
        <time>2019-07-14T08:04:19.000Z</time>
      </trkpt>
      <trkpt lat="47.29289" lon="-2.2343">
        <ele>-4.5999999046326</ele>
        <time>2019-07-14T08:04:27.000Z</time>
      </trkpt>
      <trkpt lat="47.29302" lon="-2.23494">
        <ele>-4.5999999046326</ele>
        <time>2019-07-14T08:04:35.000Z</time>
      </trkpt>
      <trkpt lat="47.29312" lon="-2.23561">
        <ele>-4.5999999046326</ele>
        <time>2019-07-14T08:04:43.000Z</time>
      </trkpt>
      <trkpt lat="47.29315" lon="-2.23615">
        <ele>-4.5999999046326</ele>
        <time>2019-07-14T08:04:50.000Z</time>
      </trkpt>
      <trkpt lat="47.29316" lon="-2.23669">
        <ele>-4.5999999046326</ele>
        <time>2019-07-14T08:04:57.000Z</time>
      </trkpt>
      <trkpt lat="47.29316" lon="-2.23741">
        <ele>-4.5999999046326</ele>
        <time>2019-07-14T08:05:06.000Z</time>
      </trkpt>
      <trkpt lat="47.29317" lon="-2.23799">
        <ele>-4.5999999046326</ele>
        <time>2019-07-14T08:05:13.000Z</time>
      </trkpt>
      <trkpt lat="47.29322" lon="-2.23869">
        <ele>-4.5999999046326</ele>
        <time>2019-07-14T08:05:21.000Z</time>
      </trkpt>
      <trkpt lat="47.29334" lon="-2.2391">
        <ele>-4.5999999046326</ele>
        <time>2019-07-14T08:05:26.000Z</time>
      </trkpt>
      <trkpt lat="47.29356" lon="-2.23947">
        <ele>-4.5999999046326</ele>
        <time>2019-07-14T08:05:32.000Z</time>
      </trkpt>
      <trkpt lat="47.29362" lon="-2.23959">
        <ele>-4.5999999046326</ele>
        <time>2019-07-14T08:05:34.000Z</time>
      </trkpt>
      <trkpt lat="47.29362" lon="-2.23971">
        <ele>-4.5999999046326</ele>
        <time>2019-07-14T08:05:36.000Z</time>
      </trkpt>
      <trkpt lat="47.29354" lon="-2.23977">
        <ele>-4.5999999046326</ele>
        <time>2019-07-14T08:05:39.000Z</time>
      </trkpt>
      <trkpt lat="47.29336" lon="-2.23977">
        <ele>-4.5999999046326</ele>
        <time>2019-07-14T08:05:43.000Z</time>
      </trkpt>
      <trkpt lat="47.29331" lon="-2.23976">
        <ele>-4.5999999046326</ele>
        <time>2019-07-14T08:05:44.000Z</time>
      </trkpt>
      <trkpt lat="47.29302" lon="-2.2397">
        <ele>-4.5999999046326</ele>
        <time>2019-07-14T08:05:49.000Z</time>
      </trkpt>
      <trkpt lat="47.29291" lon="-2.23966">
        <ele>-4.5999999046326</ele>
        <time>2019-07-14T08:05:51.000Z</time>
      </trkpt>
      <trkpt lat="47.2928" lon="-2.23964">
        <ele>-4.5999999046326</ele>
        <time>2019-07-14T08:05:53.000Z</time>
      </trkpt>
      <trkpt lat="47.29264" lon="-2.23964">
        <ele>-4.5999999046326</ele>
        <time>2019-07-14T08:05:56.000Z</time>
      </trkpt>
      <trkpt lat="47.29259" lon="-2.23966">
        <ele>-4.5999999046326</ele>
        <time>2019-07-14T08:05:57.000Z</time>
      </trkpt>
      <trkpt lat="47.29243" lon="-2.23982">
        <ele>-4.5999999046326</ele>
        <time>2019-07-14T08:06:01.000Z</time>
      </trkpt>
      <trkpt lat="47.29221" lon="-2.24008">
        <ele>-4.1999998092651</ele>
        <time>2019-07-14T08:06:07.000Z</time>
      </trkpt>
      <trkpt lat="47.29217" lon="-2.24012">
        <ele>-3.7999999523163</ele>
        <time>2019-07-14T08:06:08.000Z</time>
      </trkpt>
      <trkpt lat="47.29213" lon="-2.24017">
        <ele>-3.2000000476837</ele>
        <time>2019-07-14T08:06:09.000Z</time>
      </trkpt>
      <trkpt lat="47.29209" lon="-2.24021">
        <ele>-2.7999999523163</ele>
        <time>2019-07-14T08:06:10.000Z</time>
      </trkpt>
      <trkpt lat="47.29205" lon="-2.24024">
        <ele>-2.4000000953674</ele>
        <time>2019-07-14T08:06:11.000Z</time>
      </trkpt>
      <trkpt lat="47.29192" lon="-2.24035">
        <ele>-2.4000000953674</ele>
        <time>2019-07-14T08:06:14.000Z</time>
      </trkpt>
      <trkpt lat="47.29173" lon="-2.24046">
        <ele>-2</ele>
        <time>2019-07-14T08:06:18.000Z</time>
      </trkpt>
      <trkpt lat="47.29169" lon="-2.24049">
        <ele>-1.6000000238419</ele>
        <time>2019-07-14T08:06:19.000Z</time>
      </trkpt>
      <trkpt lat="47.29165" lon="-2.24052">
        <ele>-1.2000000476837</ele>
        <time>2019-07-14T08:06:20.000Z</time>
      </trkpt>
      <trkpt lat="47.29161" lon="-2.24055">
        <ele>-0.80000001192093</ele>
        <time>2019-07-14T08:06:21.000Z</time>
      </trkpt>
      <trkpt lat="47.29157" lon="-2.24058">
        <ele>-0.40000000596046</ele>
        <time>2019-07-14T08:06:22.000Z</time>
      </trkpt>
      <trkpt lat="47.29152" lon="-2.2406">
        <ele>-0.40000000596046</ele>
        <time>2019-07-14T08:06:23.000Z</time>
      </trkpt>
      <trkpt lat="47.2914" lon="-2.24066">
        <ele>-0.40000000596046</ele>
        <time>2019-07-14T08:06:25.000Z</time>
      </trkpt>
      <trkpt lat="47.29135" lon="-2.24071">
        <ele>-0.40000000596046</ele>
        <time>2019-07-14T08:06:26.000Z</time>
      </trkpt>
      <trkpt lat="47.2913" lon="-2.24084">
        <ele>9.7</ele>
        <time>2019-07-14T08:06:28.000Z</time>
      </trkpt>
      <trkpt lat="47.29129" lon="-2.2409">
        <ele>0.60000002384186</ele>
        <time>2019-07-14T08:06:29.000Z</time>
      </trkpt>
      <trkpt lat="47.29129" lon="-2.24096">
        <ele>1</ele>
        <time>2019-07-14T08:06:30.000Z</time>
      </trkpt>
      <trkpt lat="47.2913" lon="-2.24103">
        <ele>1.3999999761581</ele>
        <time>2019-07-14T08:06:31.000Z</time>
      </trkpt>
      <trkpt lat="47.29132" lon="-2.2411">
        <ele>1.7999999523163</ele>
        <time>2019-07-14T08:06:32.000Z</time>
      </trkpt>
      <trkpt lat="47.29133" lon="-2.24116">
        <ele>1.7999999523163</ele>
        <time>2019-07-14T08:06:33.000Z</time>
      </trkpt>
      <trkpt lat="47.29139" lon="-2.24143">
        <ele>1.7999999523163</ele>
        <time>2019-07-14T08:06:37.000Z</time>
      </trkpt>
      <trkpt lat="47.29141" lon="-2.24158">
        <ele>1.7999999523163</ele>
        <time>2019-07-14T08:06:39.000Z</time>
      </trkpt>
      <trkpt lat="47.29143" lon="-2.24172">
        <ele>1.7999999523163</ele>
        <time>2019-07-14T08:06:41.000Z</time>
      </trkpt>
      <trkpt lat="47.29149" lon="-2.24195">
        <ele>1.7999999523163</ele>
        <time>2019-07-14T08:06:44.000Z</time>
      </trkpt>
      <trkpt lat="47.29163" lon="-2.24244">
        <ele>1.7999999523163</ele>
        <time>2019-07-14T08:06:50.000Z</time>
      </trkpt>
      <trkpt lat="47.29176" lon="-2.24296">
        <ele>1.7999999523163</ele>
        <time>2019-07-14T08:06:56.000Z</time>
      </trkpt>
      <trkpt lat="47.29196" lon="-2.24349">
        <ele>1.7999999523163</ele>
        <time>2019-07-14T08:07:03.000Z</time>
      </trkpt>
      <trkpt lat="47.29223" lon="-2.24419">
        <ele>1.7999999523163</ele>
        <time>2019-07-14T08:07:12.000Z</time>
      </trkpt>
      <trkpt lat="47.29234" lon="-2.2446">
        <ele>1.7999999523163</ele>
        <time>2019-07-14T08:07:18.000Z</time>
      </trkpt>
      <trkpt lat="47.29239" lon="-2.24471">
        <ele>1.7999999523163</ele>
        <time>2019-07-14T08:07:21.000Z</time>
      </trkpt>
      <trkpt lat="47.29241" lon="-2.24473">
        <ele>1.7999999523163</ele>
        <time>2019-07-14T08:07:22.000Z</time>
      </trkpt>
      <trkpt lat="47.29252" lon="-2.24471">
        <ele>2.2000000476837</ele>
        <time>2019-07-14T08:07:26.000Z</time>
      </trkpt>
      <trkpt lat="47.29256" lon="-2.24469">
        <ele>3</ele>
        <time>2019-07-14T08:07:27.000Z</time>
      </trkpt>
      <trkpt lat="47.2926" lon="-2.24468">
        <ele>3.4000000953674</ele>
        <time>2019-07-14T08:07:28.000Z</time>
      </trkpt>
      <trkpt lat="47.29265" lon="-2.24466">
        <ele>3.7999999523163</ele>
        <time>2019-07-14T08:07:29.000Z</time>
      </trkpt>
      <trkpt lat="47.29284" lon="-2.24457">
        <ele>3.7999999523163</ele>
        <time>2019-07-14T08:07:34.000Z</time>
      </trkpt>
      <trkpt lat="47.29291" lon="-2.24461">
        <ele>3.7999999523163</ele>
        <time>2019-07-14T08:07:36.000Z</time>
      </trkpt>
      <trkpt lat="47.29292" lon="-2.24465">
        <ele>3.7999999523163</ele>
        <time>2019-07-14T08:07:37.000Z</time>
      </trkpt>
      <trkpt lat="47.29293" lon="-2.24483">
        <ele>3.7999999523163</ele>
        <time>2019-07-14T08:07:40.000Z</time>
      </trkpt>
      <trkpt lat="47.29293" lon="-2.24491">
        <ele>3.7999999523163</ele>
        <time>2019-07-14T08:07:41.000Z</time>
      </trkpt>
      <trkpt lat="47.29294" lon="-2.24529">
        <ele>3.7999999523163</ele>
        <time>2019-07-14T08:07:46.000Z</time>
      </trkpt>
      <trkpt lat="47.29296" lon="-2.24571">
        <ele>3.7999999523163</ele>
        <time>2019-07-14T08:07:51.000Z</time>
      </trkpt>
      <trkpt lat="47.29301" lon="-2.24621">
        <ele>3.7999999523163</ele>
        <time>2019-07-14T08:07:57.000Z</time>
      </trkpt>
      <trkpt lat="47.293" lon="-2.24637">
        <ele>3.7999999523163</ele>
        <time>2019-07-14T08:07:59.000Z</time>
      </trkpt>
      <trkpt lat="47.29299" lon="-2.24652">
        <ele>3.7999999523163</ele>
        <time>2019-07-14T08:08:01.000Z</time>
      </trkpt>
      <trkpt lat="47.29299" lon="-2.2466">
        <ele>3.7999999523163</ele>
        <time>2019-07-14T08:08:02.000Z</time>
      </trkpt>
      <trkpt lat="47.293" lon="-2.24683">
        <ele>3.7999999523163</ele>
        <time>2019-07-14T08:08:05.000Z</time>
      </trkpt>
      <trkpt lat="47.29303" lon="-2.24697">
        <ele>3.7999999523163</ele>
        <time>2019-07-14T08:08:07.000Z</time>
      </trkpt>
      <trkpt lat="47.29313" lon="-2.24741">
        <ele>3.7999999523163</ele>
        <time>2019-07-14T08:08:13.000Z</time>
      </trkpt>
      <trkpt lat="47.29316" lon="-2.24755">
        <ele>3.7999999523163</ele>
        <time>2019-07-14T08:08:15.000Z</time>
      </trkpt>
      <trkpt lat="47.29323" lon="-2.24773">
        <ele>3.7999999523163</ele>
        <time>2019-07-14T08:08:18.000Z</time>
      </trkpt>
      <trkpt lat="47.29325" lon="-2.24779">
        <ele>3.7999999523163</ele>
        <time>2019-07-14T08:08:19.000Z</time>
      </trkpt>
      <trkpt lat="47.2933" lon="-2.24797">
        <ele>3.7999999523163</ele>
        <time>2019-07-14T08:08:22.000Z</time>
      </trkpt>
      <trkpt lat="47.29331" lon="-2.24804">
        <ele>3.7999999523163</ele>
        <time>2019-07-14T08:08:23.000Z</time>
      </trkpt>
      <trkpt lat="47.29332" lon="-2.2481">
        <ele>4.1999998092651</ele>
        <time>2019-07-14T08:08:24.000Z</time>
      </trkpt>
      <trkpt lat="47.29333" lon="-2.24816">
        <ele>4.5999999046326</ele>
        <time>2019-07-14T08:08:25.000Z</time>
      </trkpt>
      <trkpt lat="47.29334" lon="-2.24822">
        <ele>5</ele>
        <time>2019-07-14T08:08:26.000Z</time>
      </trkpt>
      <trkpt lat="47.29334" lon="-2.2483">
        <ele>5.4000000953674</ele>
        <time>2019-07-14T08:08:27.000Z</time>
      </trkpt>
      <trkpt lat="47.29336" lon="-2.24838">
        <ele>5.8000001907349</ele>
        <time>2019-07-14T08:08:28.000Z</time>
      </trkpt>
      <trkpt lat="47.2934" lon="-2.24892">
        <ele>5.8000001907349</ele>
        <time>2019-07-14T08:08:35.000Z</time>
      </trkpt>
      <trkpt lat="47.29339" lon="-2.24899">
        <ele>5.8000001907349</ele>
        <time>2019-07-14T08:08:36.000Z</time>
      </trkpt>
      <trkpt lat="47.29329" lon="-2.24914">
        <ele>5.8000001907349</ele>
        <time>2019-07-14T08:08:39.000Z</time>
      </trkpt>
      <trkpt lat="47.2931" lon="-2.24915">
        <ele>5.8000001907349</ele>
        <time>2019-07-14T08:08:43.000Z</time>
      </trkpt>
      <trkpt lat="47.293" lon="-2.24917">
        <ele>5.8000001907349</ele>
        <time>2019-07-14T08:08:45.000Z</time>
      </trkpt>
      <trkpt lat="47.2928" lon="-2.24917">
        <ele>5.8000001907349</ele>
        <time>2019-07-14T08:08:49.000Z</time>
      </trkpt>
      <trkpt lat="47.29271" lon="-2.24917">
        <ele>5.8000001907349</ele>
        <time>2019-07-14T08:08:51.000Z</time>
      </trkpt>
      <trkpt lat="47.29263" lon="-2.24924">
        <ele>5.8000001907349</ele>
        <time>2019-07-14T08:08:53.000Z</time>
      </trkpt>
      <trkpt lat="47.29257" lon="-2.24944">
        <ele>5.8000001907349</ele>
        <time>2019-07-14T08:08:56.000Z</time>
      </trkpt>
      <trkpt lat="47.29259" lon="-2.24964">
        <ele>5.8000001907349</ele>
        <time>2019-07-14T08:08:59.000Z</time>
      </trkpt>
      <trkpt lat="47.2926" lon="-2.24971">
        <ele>5.8000001907349</ele>
        <time>2019-07-14T08:09:00.000Z</time>
      </trkpt>
      <trkpt lat="47.29267" lon="-2.24997">
        <ele>5.8000001907349</ele>
        <time>2019-07-14T08:09:04.000Z</time>
      </trkpt>
      <trkpt lat="47.29281" lon="-2.25051">
        <ele>5.8000001907349</ele>
        <time>2019-07-14T08:09:11.000Z</time>
      </trkpt>
      <trkpt lat="47.2929" lon="-2.25087">
        <ele>5.8000001907349</ele>
        <time>2019-07-14T08:09:16.000Z</time>
      </trkpt>
      <trkpt lat="47.29292" lon="-2.25104">
        <ele>5.8000001907349</ele>
        <time>2019-07-14T08:09:18.000Z</time>
      </trkpt>
      <trkpt lat="47.29299" lon="-2.25153">
        <ele>5.8000001907349</ele>
        <time>2019-07-14T08:09:23.000Z</time>
      </trkpt>
      <trkpt lat="47.29307" lon="-2.25189">
        <ele>5.4000000953674</ele>
        <time>2019-07-14T08:09:27.000Z</time>
      </trkpt>
      <trkpt lat="47.29309" lon="-2.25193">
        <ele>5</ele>
        <time>2019-07-14T08:09:28.000Z</time>
      </trkpt>
      <trkpt lat="47.29311" lon="-2.25194">
        <ele>4.5999999046326</ele>
        <time>2019-07-14T08:09:29.000Z</time>
      </trkpt>
      <trkpt lat="47.29313" lon="-2.25193">
        <ele>4</ele>
        <time>2019-07-14T08:09:30.000Z</time>
      </trkpt>
      <trkpt lat="47.29315" lon="-2.25194">
        <ele>3.5999999046326</ele>
        <time>2019-07-14T08:09:31.000Z</time>
      </trkpt>
      <trkpt lat="47.29336" lon="-2.25197">
        <ele>3.5999999046326</ele>
        <time>2019-07-14T08:09:35.000Z</time>
      </trkpt>
      <trkpt lat="47.29389" lon="-2.25208">
        <ele>3.5999999046326</ele>
        <time>2019-07-14T08:09:43.000Z</time>
      </trkpt>
      <trkpt lat="47.29402" lon="-2.25212">
        <ele>3.5999999046326</ele>
        <time>2019-07-14T08:09:45.000Z</time>
      </trkpt>
      <trkpt lat="47.29414" lon="-2.2521">
        <ele>3.5999999046326</ele>
        <time>2019-07-14T08:09:47.000Z</time>
      </trkpt>
      <trkpt lat="47.29426" lon="-2.25205">
        <ele>3.5999999046326</ele>
        <time>2019-07-14T08:09:49.000Z</time>
      </trkpt>
      <trkpt lat="47.29444" lon="-2.25201">
        <ele>3.5999999046326</ele>
        <time>2019-07-14T08:09:52.000Z</time>
      </trkpt>
      <trkpt lat="47.29456" lon="-2.25199">
        <ele>3.5999999046326</ele>
        <time>2019-07-14T08:09:54.000Z</time>
      </trkpt>
      <trkpt lat="47.29463" lon="-2.25198">
        <ele>4</ele>
        <time>2019-07-14T08:09:55.000Z</time>
      </trkpt>
      <trkpt lat="47.29469" lon="-2.25196">
        <ele>4.8000001907349</ele>
        <time>2019-07-14T08:09:56.000Z</time>
      </trkpt>
      <trkpt lat="47.29475" lon="-2.25194">
        <ele>5.1999998092651</ele>
        <time>2019-07-14T08:09:57.000Z</time>
      </trkpt>
      <trkpt lat="47.29481" lon="-2.25192">
        <ele>5.5999999046326</ele>
        <time>2019-07-14T08:09:58.000Z</time>
      </trkpt>
      <trkpt lat="47.29492" lon="-2.25189">
        <ele>5.5999999046326</ele>
        <time>2019-07-14T08:10:00.000Z</time>
      </trkpt>
      <trkpt lat="47.29498" lon="-2.25188">
        <ele>5.5999999046326</ele>
        <time>2019-07-14T08:10:01.000Z</time>
      </trkpt>
      <trkpt lat="47.29526" lon="-2.25178">
        <ele>5.5999999046326</ele>
        <time>2019-07-14T08:10:06.000Z</time>
      </trkpt>
      <trkpt lat="47.29543" lon="-2.25179">
        <ele>5.5999999046326</ele>
        <time>2019-07-14T08:10:10.000Z</time>
      </trkpt>
      <trkpt lat="47.29548" lon="-2.25194">
        <ele>6.1999998092651</ele>
        <time>2019-07-14T08:10:13.000Z</time>
      </trkpt>
      <trkpt lat="47.29548" lon="-2.252">
        <ele>6.5999999046326</ele>
        <time>2019-07-14T08:10:14.000Z</time>
      </trkpt>
      <trkpt lat="47.29546" lon="-2.25207">
        <ele>7</ele>
        <time>2019-07-14T08:10:15.000Z</time>
      </trkpt>
      <trkpt lat="47.29545" lon="-2.25214">
        <ele>7.4000000953674</ele>
        <time>2019-07-14T08:10:16.000Z</time>
      </trkpt>
      <trkpt lat="47.29543" lon="-2.25221">
        <ele>7.8000001907349</ele>
        <time>2019-07-14T08:10:17.000Z</time>
      </trkpt>
      <trkpt lat="47.29538" lon="-2.25265">
        <ele>7.8000001907349</ele>
        <time>2019-07-14T08:10:23.000Z</time>
      </trkpt>
      <trkpt lat="47.29538" lon="-2.25273">
        <ele>7.8000001907349</ele>
        <time>2019-07-14T08:10:24.000Z</time>
      </trkpt>
      <trkpt lat="47.29543" lon="-2.25298">
        <ele>7.8000001907349</ele>
        <time>2019-07-14T08:10:27.000Z</time>
      </trkpt>
      <trkpt lat="47.29548" lon="-2.25312">
        <ele>7.8000001907349</ele>
        <time>2019-07-14T08:10:29.000Z</time>
      </trkpt>
      <trkpt lat="47.29562" lon="-2.25341">
        <ele>7.8000001907349</ele>
        <time>2019-07-14T08:10:33.000Z</time>
      </trkpt>
      <trkpt lat="47.29571" lon="-2.25362">
        <ele>8.1999998092651</ele>
        <time>2019-07-14T08:10:36.000Z</time>
      </trkpt>
      <trkpt lat="47.29574" lon="-2.2537">
        <ele>8.6000003814697</ele>
        <time>2019-07-14T08:10:37.000Z</time>
      </trkpt>
      <trkpt lat="47.29576" lon="-2.25378">
        <ele>9</ele>
        <time>2019-07-14T08:10:38.000Z</time>
      </trkpt>
      <trkpt lat="47.29578" lon="-2.25385">
        <ele>9.3999996185303</ele>
        <time>2019-07-14T08:10:39.000Z</time>
      </trkpt>
      <trkpt lat="47.2958" lon="-2.25394">
        <ele>9.8000001907349</ele>
        <time>2019-07-14T08:10:40.000Z</time>
      </trkpt>
      <trkpt lat="47.29584" lon="-2.25419">
        <ele>9.8000001907349</ele>
        <time>2019-07-14T08:10:43.000Z</time>
      </trkpt>
      <trkpt lat="47.29586" lon="-2.25443">
        <ele>9.8000001907349</ele>
        <time>2019-07-14T08:10:46.000Z</time>
      </trkpt>
      <trkpt lat="47.29587" lon="-2.25485">
        <ele>10.199999809265</ele>
        <time>2019-07-14T08:10:51.000Z</time>
      </trkpt>
      <trkpt lat="47.29587" lon="-2.25494">
        <ele>10.60000038147</ele>
        <time>2019-07-14T08:10:52.000Z</time>
      </trkpt>
      <trkpt lat="47.29586" lon="-2.25502">
        <ele>11</ele>
        <time>2019-07-14T08:10:53.000Z</time>
      </trkpt>
      <trkpt lat="47.29584" lon="-2.25511">
        <ele>11.60000038147</ele>
        <time>2019-07-14T08:10:54.000Z</time>
      </trkpt>
      <trkpt lat="47.29581" lon="-2.25519">
        <ele>12</ele>
        <time>2019-07-14T08:10:55.000Z</time>
      </trkpt>
      <trkpt lat="47.29574" lon="-2.25534">
        <ele>12</ele>
        <time>2019-07-14T08:10:57.000Z</time>
      </trkpt>
      <trkpt lat="47.29553" lon="-2.25554">
        <ele>12</ele>
        <time>2019-07-14T08:11:01.000Z</time>
      </trkpt>
      <trkpt lat="47.29548" lon="-2.25558">
        <ele>12</ele>
        <time>2019-07-14T08:11:02.000Z</time>
      </trkpt>
      <trkpt lat="47.29521" lon="-2.25574">
        <ele>12.39999961853</ele>
        <time>2019-07-14T08:11:07.000Z</time>
      </trkpt>
      <trkpt lat="47.29516" lon="-2.25578">
        <ele>12.800000190735</ele>
        <time>2019-07-14T08:11:08.000Z</time>
      </trkpt>
      <trkpt lat="47.29511" lon="-2.25581">
        <ele>13.199999809265</ele>
        <time>2019-07-14T08:11:09.000Z</time>
      </trkpt>
      <trkpt lat="47.29505" lon="-2.25584">
        <ele>14</ele>
        <time>2019-07-14T08:11:10.000Z</time>
      </trkpt>
      <trkpt lat="47.29472" lon="-2.25603">
        <ele>14</ele>
        <time>2019-07-14T08:11:16.000Z</time>
      </trkpt>
      <trkpt lat="47.29435" lon="-2.25618">
        <ele>14</ele>
        <time>2019-07-14T08:11:23.000Z</time>
      </trkpt>
      <trkpt lat="47.29429" lon="-2.2562">
        <ele>14</ele>
        <time>2019-07-14T08:11:24.000Z</time>
      </trkpt>
      <trkpt lat="47.29424" lon="-2.25622">
        <ele>14.39999961853</ele>
        <time>2019-07-14T08:11:25.000Z</time>
      </trkpt>
      <trkpt lat="47.29419" lon="-2.25624">
        <ele>14.800000190735</ele>
        <time>2019-07-14T08:11:26.000Z</time>
      </trkpt>
      <trkpt lat="47.29413" lon="-2.25626">
        <ele>15.199999809265</ele>
        <time>2019-07-14T08:11:27.000Z</time>
      </trkpt>
      <trkpt lat="47.29407" lon="-2.25629">
        <ele>15.60000038147</ele>
        <time>2019-07-14T08:11:28.000Z</time>
      </trkpt>
      <trkpt lat="47.29402" lon="-2.25632">
        <ele>16</ele>
        <time>2019-07-14T08:11:29.000Z</time>
      </trkpt>
      <trkpt lat="47.29397" lon="-2.25636">
        <ele>16</ele>
        <time>2019-07-14T08:11:30.000Z</time>
      </trkpt>
      <trkpt lat="47.29389" lon="-2.25649">
        <ele>16</ele>
        <time>2019-07-14T08:11:32.000Z</time>
      </trkpt>
      <trkpt lat="47.29383" lon="-2.25676">
        <ele>16</ele>
        <time>2019-07-14T08:11:35.000Z</time>
      </trkpt>
      <trkpt lat="47.29382" lon="-2.25686">
        <ele>16</ele>
        <time>2019-07-14T08:11:36.000Z</time>
      </trkpt>
      <trkpt lat="47.29376" lon="-2.25722">
        <ele>16</ele>
        <time>2019-07-14T08:11:40.000Z</time>
      </trkpt>
      <trkpt lat="47.29373" lon="-2.2573">
        <ele>16</ele>
        <time>2019-07-14T08:11:41.000Z</time>
      </trkpt>
      <trkpt lat="47.29367" lon="-2.25743">
        <ele>16</ele>
        <time>2019-07-14T08:11:43.000Z</time>
      </trkpt>
      <trkpt lat="47.2936" lon="-2.25753">
        <ele>16</ele>
        <time>2019-07-14T08:11:45.000Z</time>
      </trkpt>
      <trkpt lat="47.29355" lon="-2.25757">
        <ele>16</ele>
        <time>2019-07-14T08:11:46.000Z</time>
      </trkpt>
      <trkpt lat="47.29341" lon="-2.25769">
        <ele>16</ele>
        <time>2019-07-14T08:11:49.000Z</time>
      </trkpt>
      <trkpt lat="47.2933" lon="-2.25781">
        <ele>16</ele>
        <time>2019-07-14T08:11:52.000Z</time>
      </trkpt>
      <trkpt lat="47.29327" lon="-2.25786">
        <ele>16</ele>
        <time>2019-07-14T08:11:54.000Z</time>
      </trkpt>
      <trkpt lat="47.29326" lon="-2.25787">
        <ele>16</ele>
        <time>2019-07-14T08:11:55.000Z</time>
      </trkpt>
      <trkpt lat="47.29326" lon="-2.25789">
        <ele>16</ele>
        <time>2019-07-14T08:11:58.000Z</time>
      </trkpt>
      <trkpt lat="47.29325" lon="-2.25792">
        <ele>16</ele>
        <time>2019-07-14T08:11:59.000Z</time>
      </trkpt>
      <trkpt lat="47.29327" lon="-2.25795">
        <ele>15.60000038147</ele>
        <time>2019-07-14T08:12:02.000Z</time>
      </trkpt>
      <trkpt lat="47.2933" lon="-2.25793">
        <ele>15.199999809265</ele>
        <time>2019-07-14T08:12:03.000Z</time>
      </trkpt>
      <trkpt lat="47.29333" lon="-2.25792">
        <ele>14.800000190735</ele>
        <time>2019-07-14T08:12:04.000Z</time>
      </trkpt>
      <trkpt lat="47.29335" lon="-2.25791">
        <ele>14.39999961853</ele>
        <time>2019-07-14T08:12:05.000Z</time>
      </trkpt>
      <trkpt lat="47.29337" lon="-2.25791">
        <ele>14</ele>
        <time>2019-07-14T08:12:06.000Z</time>
      </trkpt>
      <trkpt lat="47.29341" lon="-2.25792">
        <ele>14</ele>
        <time>2019-07-14T08:12:08.000Z</time>
      </trkpt>
      <trkpt lat="47.29344" lon="-2.25794">
        <ele>14</ele>
        <time>2019-07-14T08:12:09.000Z</time>
      </trkpt>
      <trkpt lat="47.2935" lon="-2.25809">
        <ele>14</ele>
        <time>2019-07-14T08:12:12.000Z</time>
      </trkpt>
      <trkpt lat="47.29352" lon="-2.25816">
        <ele>14</ele>
        <time>2019-07-14T08:12:14.000Z</time>
      </trkpt>
      <trkpt lat="47.2936" lon="-2.25844">
        <ele>14</ele>
        <time>2019-07-14T08:12:21.000Z</time>
      </trkpt>
      <trkpt lat="47.29361" lon="-2.25857">
        <ele>14</ele>
        <time>2019-07-14T08:12:25.000Z</time>
      </trkpt>
      <trkpt lat="47.2936" lon="-2.2586">
        <ele>14</ele>
        <time>2019-07-14T08:12:26.000Z</time>
      </trkpt>
      <trkpt lat="47.29356" lon="-2.25868">
        <ele>14</ele>
        <time>2019-07-14T08:12:29.000Z</time>
      </trkpt>
      <trkpt lat="47.29351" lon="-2.25874">
        <ele>14</ele>
        <time>2019-07-14T08:12:31.000Z</time>
      </trkpt>
      <trkpt lat="47.29349" lon="-2.25876">
        <ele>14</ele>
        <time>2019-07-14T08:12:33.000Z</time>
      </trkpt>
      <trkpt lat="47.29343" lon="-2.25875">
        <ele>14</ele>
        <time>2019-07-14T08:12:36.000Z</time>
      </trkpt>
      <trkpt lat="47.29338" lon="-2.25869">
        <ele>14</ele>
        <time>2019-07-14T08:12:39.000Z</time>
      </trkpt>
      <trkpt lat="47.29333" lon="-2.25863">
        <ele>14</ele>
        <time>2019-07-14T08:12:42.000Z</time>
      </trkpt>
      <trkpt lat="47.29329" lon="-2.25855">
        <ele>14</ele>
        <time>2019-07-14T08:12:48.000Z</time>
      </trkpt>
      <trkpt lat="47.29322" lon="-2.25844">
        <ele>14</ele>
        <time>2019-07-14T08:12:58.000Z</time>
      </trkpt>
      <trkpt lat="47.2932" lon="-2.25847">
        <ele>14</ele>
        <time>2019-07-14T08:13:01.000Z</time>
      </trkpt>
      <trkpt lat="47.29317" lon="-2.25854">
        <ele>14</ele>
        <time>2019-07-14T08:13:04.000Z</time>
      </trkpt>
      <trkpt lat="47.29314" lon="-2.25865">
        <ele>14</ele>
        <time>2019-07-14T08:13:09.000Z</time>
      </trkpt>
      <trkpt lat="47.29317" lon="-2.25868">
        <ele>14</ele>
        <time>2019-07-14T08:13:11.000Z</time>
      </trkpt>
      <trkpt lat="47.2932" lon="-2.25875">
        <ele>14</ele>
        <time>2019-07-14T08:13:13.000Z</time>
      </trkpt>
      <trkpt lat="47.29323" lon="-2.259">
        <ele>14</ele>
        <time>2019-07-14T08:13:18.000Z</time>
      </trkpt>
      <trkpt lat="47.29322" lon="-2.25924">
        <ele>14</ele>
        <time>2019-07-14T08:13:23.000Z</time>
      </trkpt>
      <trkpt lat="47.29325" lon="-2.25946">
        <ele>14</ele>
        <time>2019-07-14T08:13:29.000Z</time>
      </trkpt>
      <trkpt lat="47.29329" lon="-2.2597">
        <ele>14</ele>
        <time>2019-07-14T08:13:35.000Z</time>
      </trkpt>
      <trkpt lat="47.29333" lon="-2.25976">
        <ele>14</ele>
        <time>2019-07-14T08:13:37.000Z</time>
      </trkpt>
      <trkpt lat="47.29338" lon="-2.25977">
        <ele>14</ele>
        <time>2019-07-14T08:13:39.000Z</time>
      </trkpt>
      <trkpt lat="47.29347" lon="-2.25972">
        <ele>14</ele>
        <time>2019-07-14T08:13:42.000Z</time>
      </trkpt>
      <trkpt lat="47.2935" lon="-2.2597">
        <ele>14</ele>
        <time>2019-07-14T08:13:43.000Z</time>
      </trkpt>
      <trkpt lat="47.29363" lon="-2.25954">
        <ele>14</ele>
        <time>2019-07-14T08:13:48.000Z</time>
      </trkpt>
      <trkpt lat="47.29373" lon="-2.25936">
        <ele>14</ele>
        <time>2019-07-14T08:13:52.000Z</time>
      </trkpt>
      <trkpt lat="47.29377" lon="-2.25908">
        <ele>14</ele>
        <time>2019-07-14T08:13:57.000Z</time>
      </trkpt>
      <trkpt lat="47.29383" lon="-2.25878">
        <ele>14</ele>
        <time>2019-07-14T08:14:03.000Z</time>
      </trkpt>
      <trkpt lat="47.29386" lon="-2.25867">
        <ele>14</ele>
        <time>2019-07-14T08:14:09.000Z</time>
      </trkpt>
      <trkpt lat="47.29393" lon="-2.25865">
        <ele>13.60000038147</ele>
        <time>2019-07-14T08:14:14.000Z</time>
      </trkpt>
      <trkpt lat="47.29397" lon="-2.25864">
        <ele>13.199999809265</ele>
        <time>2019-07-14T08:14:15.000Z</time>
      </trkpt>
      <trkpt lat="47.29401" lon="-2.25863">
        <ele>12.800000190735</ele>
        <time>2019-07-14T08:14:16.000Z</time>
      </trkpt>
      <trkpt lat="47.29405" lon="-2.25864">
        <ele>12.199999809265</ele>
        <time>2019-07-14T08:14:17.000Z</time>
      </trkpt>
      <trkpt lat="47.29408" lon="-2.25865">
        <ele>11.800000190735</ele>
        <time>2019-07-14T08:14:18.000Z</time>
      </trkpt>
      <trkpt lat="47.2941" lon="-2.25869">
        <ele>11.800000190735</ele>
        <time>2019-07-14T08:14:19.000Z</time>
      </trkpt>
      <trkpt lat="47.29414" lon="-2.25873">
        <ele>11.800000190735</ele>
        <time>2019-07-14T08:14:20.000Z</time>
      </trkpt>
      <trkpt lat="47.29418" lon="-2.25879">
        <ele>11.800000190735</ele>
        <time>2019-07-14T08:14:21.000Z</time>
      </trkpt>
      <trkpt lat="47.29426" lon="-2.25902">
        <ele>11.800000190735</ele>
        <time>2019-07-14T08:14:24.000Z</time>
      </trkpt>
      <trkpt lat="47.29428" lon="-2.2591">
        <ele>11.39999961853</ele>
        <time>2019-07-14T08:14:25.000Z</time>
      </trkpt>
      <trkpt lat="47.29431" lon="-2.25915">
        <ele>11</ele>
        <time>2019-07-14T08:14:26.000Z</time>
      </trkpt>
      <trkpt lat="47.29433" lon="-2.25921">
        <ele>10.60000038147</ele>
        <time>2019-07-14T08:14:27.000Z</time>
      </trkpt>
      <trkpt lat="47.29434" lon="-2.25926">
        <ele>9.8000001907349</ele>
        <time>2019-07-14T08:14:28.000Z</time>
      </trkpt>
      <trkpt lat="47.29436" lon="-2.25935">
        <ele>9.8000001907349</ele>
        <time>2019-07-14T08:14:30.000Z</time>
      </trkpt>
      <trkpt lat="47.29436" lon="-2.25937">
        <ele>9.8000001907349</ele>
        <time>2019-07-14T08:14:31.000Z</time>
      </trkpt>
      <trkpt lat="47.29431" lon="-2.2595">
        <ele>9.8000001907349</ele>
        <time>2019-07-14T08:14:36.000Z</time>
      </trkpt>
      <trkpt lat="47.29426" lon="-2.25954">
        <ele>9.8000001907349</ele>
        <time>2019-07-14T08:14:38.000Z</time>
      </trkpt>
      <trkpt lat="47.29421" lon="-2.25951">
        <ele>9.8000001907349</ele>
        <time>2019-07-14T08:14:40.000Z</time>
      </trkpt>
      <trkpt lat="47.29416" lon="-2.2595">
        <ele>9.8000001907349</ele>
        <time>2019-07-14T08:14:42.000Z</time>
      </trkpt>
      <trkpt lat="47.29413" lon="-2.25951">
        <ele>9.8000001907349</ele>
        <time>2019-07-14T08:14:43.000Z</time>
      </trkpt>
      <trkpt lat="47.2941" lon="-2.25954">
        <ele>9.8000001907349</ele>
        <time>2019-07-14T08:14:44.000Z</time>
      </trkpt>
      <trkpt lat="47.29405" lon="-2.25968">
        <ele>9.8000001907349</ele>
        <time>2019-07-14T08:14:48.000Z</time>
      </trkpt>
      <trkpt lat="47.29405" lon="-2.25978">
        <ele>9.8000001907349</ele>
        <time>2019-07-14T08:14:50.000Z</time>
      </trkpt>
      <trkpt lat="47.29405" lon="-2.26">
        <ele>9.8000001907349</ele>
        <time>2019-07-14T08:14:54.000Z</time>
      </trkpt>
      <trkpt lat="47.29408" lon="-2.26036">
        <ele>9.8000001907349</ele>
        <time>2019-07-14T08:14:59.000Z</time>
      </trkpt>
      <trkpt lat="47.29419" lon="-2.26077">
        <ele>9.8000001907349</ele>
        <time>2019-07-14T08:15:06.000Z</time>
      </trkpt>
      <trkpt lat="47.29419" lon="-2.26086">
        <ele>9.8000001907349</ele>
        <time>2019-07-14T08:15:07.000Z</time>
      </trkpt>
      <trkpt lat="47.29419" lon="-2.2611">
        <ele>9.8000001907349</ele>
        <time>2019-07-14T08:15:10.000Z</time>
      </trkpt>
      <trkpt lat="47.29419" lon="-2.26118">
        <ele>9.8000001907349</ele>
        <time>2019-07-14T08:15:11.000Z</time>
      </trkpt>
      <trkpt lat="47.29419" lon="-2.26124">
        <ele>9.8000001907349</ele>
        <time>2019-07-14T08:15:12.000Z</time>
      </trkpt>
      <trkpt lat="47.29416" lon="-2.26145">
        <ele>9.8000001907349</ele>
        <time>2019-07-14T08:15:16.000Z</time>
      </trkpt>
      <trkpt lat="47.2941" lon="-2.26154">
        <ele>10.199999809265</ele>
        <time>2019-07-14T08:15:18.000Z</time>
      </trkpt>
      <trkpt lat="47.29407" lon="-2.26155">
        <ele>10.800000190735</ele>
        <time>2019-07-14T08:15:19.000Z</time>
      </trkpt>
      <trkpt lat="47.29403" lon="-2.26157">
        <ele>11.199999809265</ele>
        <time>2019-07-14T08:15:20.000Z</time>
      </trkpt>
      <trkpt lat="47.294" lon="-2.26157">
        <ele>11.60000038147</ele>
        <time>2019-07-14T08:15:21.000Z</time>
      </trkpt>
      <trkpt lat="47.29397" lon="-2.26157">
        <ele>12</ele>
        <time>2019-07-14T08:15:22.000Z</time>
      </trkpt>
      <trkpt lat="47.29381" lon="-2.26158">
        <ele>12</ele>
        <time>2019-07-14T08:15:26.000Z</time>
      </trkpt>
      <trkpt lat="47.29359" lon="-2.26163">
        <ele>12.39999961853</ele>
        <time>2019-07-14T08:15:31.000Z</time>
      </trkpt>
      <trkpt lat="47.29354" lon="-2.26162">
        <ele>12.800000190735</ele>
        <time>2019-07-14T08:15:32.000Z</time>
      </trkpt>
      <trkpt lat="47.29349" lon="-2.26163">
        <ele>13.199999809265</ele>
        <time>2019-07-14T08:15:33.000Z</time>
      </trkpt>
      <trkpt lat="47.29345" lon="-2.26164">
        <ele>13.800000190735</ele>
        <time>2019-07-14T08:15:34.000Z</time>
      </trkpt>
      <trkpt lat="47.29341" lon="-2.26166">
        <ele>14.199999809265</ele>
        <time>2019-07-14T08:15:35.000Z</time>
      </trkpt>
      <trkpt lat="47.29335" lon="-2.26167">
        <ele>14.199999809265</ele>
        <time>2019-07-14T08:15:37.000Z</time>
      </trkpt>
      <trkpt lat="47.29326" lon="-2.26164">
        <ele>14.199999809265</ele>
        <time>2019-07-14T08:15:42.000Z</time>
      </trkpt>
      <trkpt lat="47.29322" lon="-2.2617">
        <ele>14.199999809265</ele>
        <time>2019-07-14T08:15:45.000Z</time>
      </trkpt>
      <trkpt lat="47.29321" lon="-2.26176">
        <ele>14.199999809265</ele>
        <time>2019-07-14T08:15:47.000Z</time>
      </trkpt>
      <trkpt lat="47.2932" lon="-2.26179">
        <ele>14.60000038147</ele>
        <time>2019-07-14T08:15:48.000Z</time>
      </trkpt>
      <trkpt lat="47.29318" lon="-2.26179">
        <ele>15</ele>
        <time>2019-07-14T08:15:49.000Z</time>
      </trkpt>
      <trkpt lat="47.29315" lon="-2.26179">
        <ele>15.39999961853</ele>
        <time>2019-07-14T08:15:50.000Z</time>
      </trkpt>
      <trkpt lat="47.29312" lon="-2.26178">
        <ele>15.800000190735</ele>
        <time>2019-07-14T08:15:51.000Z</time>
      </trkpt>
      <trkpt lat="47.2931" lon="-2.26179">
        <ele>16.200000762939</ele>
        <time>2019-07-14T08:15:52.000Z</time>
      </trkpt>
      <trkpt lat="47.29304" lon="-2.26179">
        <ele>16.200000762939</ele>
        <time>2019-07-14T08:15:54.000Z</time>
      </trkpt>
      <trkpt lat="47.29288" lon="-2.26178">
        <ele>16.200000762939</ele>
        <time>2019-07-14T08:15:58.000Z</time>
      </trkpt>
      <trkpt lat="47.29277" lon="-2.2618">
        <ele>16.200000762939</ele>
        <time>2019-07-14T08:16:01.000Z</time>
      </trkpt>
      <trkpt lat="47.29274" lon="-2.26183">
        <ele>16.200000762939</ele>
        <time>2019-07-14T08:16:02.000Z</time>
      </trkpt>
      <trkpt lat="47.29269" lon="-2.26197">
        <ele>16.200000762939</ele>
        <time>2019-07-14T08:16:05.000Z</time>
      </trkpt>
      <trkpt lat="47.29259" lon="-2.26206">
        <ele>16.200000762939</ele>
        <time>2019-07-14T08:16:09.000Z</time>
      </trkpt>
      <trkpt lat="47.29255" lon="-2.26205">
        <ele>16.200000762939</ele>
        <time>2019-07-14T08:16:10.000Z</time>
      </trkpt>
      <trkpt lat="47.29247" lon="-2.26206">
        <ele>16.200000762939</ele>
        <time>2019-07-14T08:16:13.000Z</time>
      </trkpt>
      <trkpt lat="47.29229" lon="-2.2621">
        <ele>16.200000762939</ele>
        <time>2019-07-14T08:16:18.000Z</time>
      </trkpt>
      <trkpt lat="47.29226" lon="-2.26211">
        <ele>16.200000762939</ele>
        <time>2019-07-14T08:16:19.000Z</time>
      </trkpt>
      <trkpt lat="47.29215" lon="-2.26214">
        <ele>16.200000762939</ele>
        <time>2019-07-14T08:16:23.000Z</time>
      </trkpt>
      <trkpt lat="47.29208" lon="-2.26214">
        <ele>16.200000762939</ele>
        <time>2019-07-14T08:16:25.000Z</time>
      </trkpt>
      <trkpt lat="47.29205" lon="-2.26215">
        <ele>16.200000762939</ele>
        <time>2019-07-14T08:16:26.000Z</time>
      </trkpt>
      <trkpt lat="47.29193" lon="-2.26219">
        <ele>16.200000762939</ele>
        <time>2019-07-14T08:16:29.000Z</time>
      </trkpt>
      <trkpt lat="47.29172" lon="-2.26228">
        <ele>16.200000762939</ele>
        <time>2019-07-14T08:16:36.000Z</time>
      </trkpt>
      <trkpt lat="47.29156" lon="-2.26233">
        <ele>16.200000762939</ele>
        <time>2019-07-14T08:16:43.000Z</time>
      </trkpt>
      <trkpt lat="47.2914" lon="-2.26239">
        <ele>16.200000762939</ele>
        <time>2019-07-14T08:16:50.000Z</time>
      </trkpt>
      <trkpt lat="47.29137" lon="-2.2624">
        <ele>16.200000762939</ele>
        <time>2019-07-14T08:16:54.000Z</time>
      </trkpt>
      <trkpt lat="47.29135" lon="-2.26239">
        <ele>16.200000762939</ele>
        <time>2019-07-14T08:17:19.000Z</time>
      </trkpt>
      <trkpt lat="47.29129" lon="-2.26227">
        <ele>16.200000762939</ele>
        <time>2019-07-14T08:17:23.000Z</time>
      </trkpt>
      <trkpt lat="47.29126" lon="-2.26204">
        <ele>16.200000762939</ele>
        <time>2019-07-14T08:17:28.000Z</time>
      </trkpt>
      <trkpt lat="47.29119" lon="-2.26168">
        <ele>16.200000762939</ele>
        <time>2019-07-14T08:17:35.000Z</time>
      </trkpt>
      <trkpt lat="47.29112" lon="-2.26135">
        <ele>16.200000762939</ele>
        <time>2019-07-14T08:17:42.000Z</time>
      </trkpt>
      <trkpt lat="47.29107" lon="-2.26126">
        <ele>16.200000762939</ele>
        <time>2019-07-14T08:17:45.000Z</time>
      </trkpt>
      <trkpt lat="47.29104" lon="-2.26129">
        <ele>16.200000762939</ele>
        <time>2019-07-14T08:17:46.000Z</time>
      </trkpt>
      <trkpt lat="47.29101" lon="-2.26146">
        <ele>16.200000762939</ele>
        <time>2019-07-14T08:17:49.000Z</time>
      </trkpt>
      <trkpt lat="47.291" lon="-2.26152">
        <ele>16.200000762939</ele>
        <time>2019-07-14T08:17:50.000Z</time>
      </trkpt>
      <trkpt lat="47.29097" lon="-2.26173">
        <ele>16.200000762939</ele>
        <time>2019-07-14T08:17:53.000Z</time>
      </trkpt>
      <trkpt lat="47.29095" lon="-2.26188">
        <ele>16.200000762939</ele>
        <time>2019-07-14T08:17:55.000Z</time>
      </trkpt>
      <trkpt lat="47.29083" lon="-2.26247">
        <ele>16.200000762939</ele>
        <time>2019-07-14T08:18:03.000Z</time>
      </trkpt>
      <trkpt lat="47.29069" lon="-2.26311">
        <ele>16.200000762939</ele>
        <time>2019-07-14T08:18:12.000Z</time>
      </trkpt>
      <trkpt lat="47.29057" lon="-2.26336">
        <ele>16.200000762939</ele>
        <time>2019-07-14T08:18:16.000Z</time>
      </trkpt>
      <trkpt lat="47.29053" lon="-2.26341">
        <ele>16.200000762939</ele>
        <time>2019-07-14T08:18:17.000Z</time>
      </trkpt>
      <trkpt lat="47.29035" lon="-2.26357">
        <ele>16.200000762939</ele>
        <time>2019-07-14T08:18:21.000Z</time>
      </trkpt>
      <trkpt lat="47.2903" lon="-2.2636">
        <ele>16.60000038147</ele>
        <time>2019-07-14T08:18:22.000Z</time>
      </trkpt>
      <trkpt lat="47.29026" lon="-2.26363">
        <ele>17</ele>
        <time>2019-07-14T08:18:23.000Z</time>
      </trkpt>
      <trkpt lat="47.29022" lon="-2.26367">
        <ele>17.39999961853</ele>
        <time>2019-07-14T08:18:24.000Z</time>
      </trkpt>
      <trkpt lat="47.29018" lon="-2.26372">
        <ele>17.799999237061</ele>
        <time>2019-07-14T08:18:25.000Z</time>
      </trkpt>
      <trkpt lat="47.29016" lon="-2.26378">
        <ele>18.200000762939</ele>
        <time>2019-07-14T08:18:26.000Z</time>
      </trkpt>
      <trkpt lat="47.29005" lon="-2.26409">
        <ele>18.200000762939</ele>
        <time>2019-07-14T08:18:32.000Z</time>
      </trkpt>
      <trkpt lat="47.29005" lon="-2.26436">
        <ele>18.200000762939</ele>
        <time>2019-07-14T08:18:37.000Z</time>
      </trkpt>
      <trkpt lat="47.29009" lon="-2.26443">
        <ele>18.200000762939</ele>
        <time>2019-07-14T08:18:39.000Z</time>
      </trkpt>
      <trkpt lat="47.29012" lon="-2.26448">
        <ele>18.200000762939</ele>
        <time>2019-07-14T08:18:41.000Z</time>
      </trkpt>
      <trkpt lat="47.29017" lon="-2.26468">
        <ele>17.799999237061</ele>
        <time>2019-07-14T08:18:45.000Z</time>
      </trkpt>
      <trkpt lat="47.29018" lon="-2.26473">
        <ele>17.39999961853</ele>
        <time>2019-07-14T08:18:46.000Z</time>
      </trkpt>
      <trkpt lat="47.29019" lon="-2.2648">
        <ele>17</ele>
        <time>2019-07-14T08:18:47.000Z</time>
      </trkpt>
      <trkpt lat="47.2902" lon="-2.26488">
        <ele>16.60000038147</ele>
        <time>2019-07-14T08:18:48.000Z</time>
      </trkpt>
      <trkpt lat="47.29021" lon="-2.26497">
        <ele>16.200000762939</ele>
        <time>2019-07-14T08:18:49.000Z</time>
      </trkpt>
      <trkpt lat="47.29022" lon="-2.26503">
        <ele>16.200000762939</ele>
        <time>2019-07-14T08:18:50.000Z</time>
      </trkpt>
      <trkpt lat="47.29026" lon="-2.26521">
        <ele>16.200000762939</ele>
        <time>2019-07-14T08:18:54.000Z</time>
      </trkpt>
      <trkpt lat="47.29034" lon="-2.26538">
        <ele>16.200000762939</ele>
        <time>2019-07-14T08:18:57.000Z</time>
      </trkpt>
      <trkpt lat="47.29037" lon="-2.26553">
        <ele>16.200000762939</ele>
        <time>2019-07-14T08:18:59.000Z</time>
      </trkpt>
      <trkpt lat="47.2904" lon="-2.26568">
        <ele>16.200000762939</ele>
        <time>2019-07-14T08:19:01.000Z</time>
      </trkpt>
      <trkpt lat="47.29046" lon="-2.2662">
        <ele>16.200000762939</ele>
        <time>2019-07-14T08:19:08.000Z</time>
      </trkpt>
      <trkpt lat="47.29047" lon="-2.26659">
        <ele>15.800000190735</ele>
        <time>2019-07-14T08:19:13.000Z</time>
      </trkpt>
      <trkpt lat="47.29048" lon="-2.26668">
        <ele>15.39999961853</ele>
        <time>2019-07-14T08:19:14.000Z</time>
      </trkpt>
      <trkpt lat="47.29048" lon="-2.26677">
        <ele>14.800000190735</ele>
        <time>2019-07-14T08:19:15.000Z</time>
      </trkpt>
      <trkpt lat="47.29049" lon="-2.26687">
        <ele>14.39999961853</ele>
        <time>2019-07-14T08:19:16.000Z</time>
      </trkpt>
      <trkpt lat="47.2905" lon="-2.26697">
        <ele>14</ele>
        <time>2019-07-14T08:19:17.000Z</time>
      </trkpt>
      <trkpt lat="47.29055" lon="-2.26742">
        <ele>14</ele>
        <time>2019-07-14T08:19:21.000Z</time>
      </trkpt>
      <trkpt lat="47.29059" lon="-2.26766">
        <ele>13.199999809265</ele>
        <time>2019-07-14T08:19:23.000Z</time>
      </trkpt>
      <trkpt lat="47.2906" lon="-2.26779">
        <ele>12.800000190735</ele>
        <time>2019-07-14T08:19:24.000Z</time>
      </trkpt>
      <trkpt lat="47.29061" lon="-2.26792">
        <ele>12.39999961853</ele>
        <time>2019-07-14T08:19:25.000Z</time>
      </trkpt>
      <trkpt lat="47.29062" lon="-2.26805">
        <ele>11.800000190735</ele>
        <time>2019-07-14T08:19:26.000Z</time>
      </trkpt>
      <trkpt lat="47.29063" lon="-2.26817">
        <ele>11.39999961853</ele>
        <time>2019-07-14T08:19:27.000Z</time>
      </trkpt>
      <trkpt lat="47.29063" lon="-2.26828">
        <ele>11</ele>
        <time>2019-07-14T08:19:28.000Z</time>
      </trkpt>
      <trkpt lat="47.29063" lon="-2.2684">
        <ele>10.39999961853</ele>
        <time>2019-07-14T08:19:29.000Z</time>
      </trkpt>
      <trkpt lat="47.29063" lon="-2.26852">
        <ele>10</ele>
        <time>2019-07-14T08:19:30.000Z</time>
      </trkpt>
      <trkpt lat="47.29064" lon="-2.26862">
        <ele>9.6000003814697</ele>
        <time>2019-07-14T08:19:31.000Z</time>
      </trkpt>
      <trkpt lat="47.29064" lon="-2.26877">
        <ele>9.6000003814697</ele>
        <time>2019-07-14T08:19:33.000Z</time>
      </trkpt>
      <trkpt lat="47.29063" lon="-2.26883">
        <ele>9.1999998092651</ele>
        <time>2019-07-14T08:19:34.000Z</time>
      </trkpt>
      <trkpt lat="47.29063" lon="-2.26886">
        <ele>8.8000001907349</ele>
        <time>2019-07-14T08:19:35.000Z</time>
      </trkpt>
      <trkpt lat="47.29063" lon="-2.26889">
        <ele>8.3999996185303</ele>
        <time>2019-07-14T08:19:36.000Z</time>
      </trkpt>
      <trkpt lat="47.29064" lon="-2.26892">
        <ele>8</ele>
        <time>2019-07-14T08:19:37.000Z</time>
      </trkpt>
      <trkpt lat="47.29066" lon="-2.26894">
        <ele>7.5999999046326</ele>
        <time>2019-07-14T08:19:38.000Z</time>
      </trkpt>
      <trkpt lat="47.29068" lon="-2.26897">
        <ele>7.5999999046326</ele>
        <time>2019-07-14T08:19:40.000Z</time>
      </trkpt>
      <trkpt lat="47.29075" lon="-2.26911">
        <ele>7.5999999046326</ele>
        <time>2019-07-14T08:19:45.000Z</time>
      </trkpt>
      <trkpt lat="47.29078" lon="-2.26917">
        <ele>7.5999999046326</ele>
        <time>2019-07-14T08:19:50.000Z</time>
      </trkpt>
      <trkpt lat="47.29077" lon="-2.26929">
        <ele>7.5999999046326</ele>
        <time>2019-07-14T08:19:55.000Z</time>
      </trkpt>
      <trkpt lat="47.29077" lon="-2.26936">
        <ele>7.5999999046326</ele>
        <time>2019-07-14T08:19:57.000Z</time>
      </trkpt>
      <trkpt lat="47.29077" lon="-2.26941">
        <ele>7.5999999046326</ele>
        <time>2019-07-14T08:19:59.000Z</time>
      </trkpt>
      <trkpt lat="47.29076" lon="-2.26966">
        <ele>7.5999999046326</ele>
        <time>2019-07-14T08:20:05.000Z</time>
      </trkpt>
      <trkpt lat="47.29076" lon="-2.26985">
        <ele>7.5999999046326</ele>
        <time>2019-07-14T08:20:09.000Z</time>
      </trkpt>
      <trkpt lat="47.29077" lon="-2.27008">
        <ele>7.5999999046326</ele>
        <time>2019-07-14T08:20:13.000Z</time>
      </trkpt>
      <trkpt lat="47.29076" lon="-2.27026">
        <ele>7.5999999046326</ele>
        <time>2019-07-14T08:20:18.000Z</time>
      </trkpt>
      <trkpt lat="47.29075" lon="-2.27029">
        <ele>7.5999999046326</ele>
        <time>2019-07-14T08:20:19.000Z</time>
      </trkpt>
      <trkpt lat="47.29072" lon="-2.27041">
        <ele>7.5999999046326</ele>
        <time>2019-07-14T08:20:22.000Z</time>
      </trkpt>
      <trkpt lat="47.2907" lon="-2.2706">
        <ele>7.5999999046326</ele>
        <time>2019-07-14T08:20:27.000Z</time>
      </trkpt>
      <trkpt lat="47.29069" lon="-2.27078">
        <ele>7.5999999046326</ele>
        <time>2019-07-14T08:20:31.000Z</time>
      </trkpt>
      <trkpt lat="47.29067" lon="-2.27083">
        <ele>7.5999999046326</ele>
        <time>2019-07-14T08:20:32.000Z</time>
      </trkpt>
      <trkpt lat="47.29067" lon="-2.27106">
        <ele>7.5999999046326</ele>
        <time>2019-07-14T08:20:36.000Z</time>
      </trkpt>
      <trkpt lat="47.29065" lon="-2.27118">
        <ele>7.5999999046326</ele>
        <time>2019-07-14T08:20:38.000Z</time>
      </trkpt>
      <trkpt lat="47.29064" lon="-2.2713">
        <ele>7.5999999046326</ele>
        <time>2019-07-14T08:20:41.000Z</time>
      </trkpt>
      <trkpt lat="47.29063" lon="-2.27157">
        <ele>7.5999999046326</ele>
        <time>2019-07-14T08:20:46.000Z</time>
      </trkpt>
      <trkpt lat="47.29065" lon="-2.27173">
        <ele>7.5999999046326</ele>
        <time>2019-07-14T08:20:50.000Z</time>
      </trkpt>
      <trkpt lat="47.29068" lon="-2.27176">
        <ele>7.5999999046326</ele>
        <time>2019-07-14T08:20:51.000Z</time>
      </trkpt>
      <trkpt lat="47.29077" lon="-2.27185">
        <ele>7.5999999046326</ele>
        <time>2019-07-14T08:20:53.000Z</time>
      </trkpt>
      <trkpt lat="47.2909" lon="-2.27187">
        <ele>7.5999999046326</ele>
        <time>2019-07-14T08:20:56.000Z</time>
      </trkpt>
      <trkpt lat="47.29102" lon="-2.27187">
        <ele>7.5999999046326</ele>
        <time>2019-07-14T08:20:59.000Z</time>
      </trkpt>
      <trkpt lat="47.29105" lon="-2.27188">
        <ele>7.5999999046326</ele>
        <time>2019-07-14T08:21:00.000Z</time>
      </trkpt>
      <trkpt lat="47.29108" lon="-2.2719">
        <ele>7.5999999046326</ele>
        <time>2019-07-14T08:21:04.000Z</time>
      </trkpt>
      <trkpt lat="47.29108" lon="-2.27191">
        <ele>7.5999999046326</ele>
        <time>2019-07-14T08:21:05.000Z</time>
      </trkpt>
      <trkpt lat="47.29109" lon="-2.27198">
        <ele>7.5999999046326</ele>
        <time>2019-07-14T08:21:09.000Z</time>
      </trkpt>
      <trkpt lat="47.29108" lon="-2.27217">
        <ele>7.5999999046326</ele>
        <time>2019-07-14T08:21:14.000Z</time>
      </trkpt>
      <trkpt lat="47.29106" lon="-2.27248">
        <ele>7.5999999046326</ele>
        <time>2019-07-14T08:21:19.000Z</time>
      </trkpt>
      <trkpt lat="47.291" lon="-2.27284">
        <ele>7.5999999046326</ele>
        <time>2019-07-14T08:21:26.000Z</time>
      </trkpt>
      <trkpt lat="47.29089" lon="-2.27314">
        <ele>7.5999999046326</ele>
        <time>2019-07-14T08:21:31.000Z</time>
      </trkpt>
      <trkpt lat="47.29088" lon="-2.27334">
        <ele>7.5999999046326</ele>
        <time>2019-07-14T08:21:35.000Z</time>
      </trkpt>
      <trkpt lat="47.29091" lon="-2.27355">
        <ele>7.5999999046326</ele>
        <time>2019-07-14T08:21:40.000Z</time>
      </trkpt>
      <trkpt lat="47.29098" lon="-2.27377">
        <ele>7.5999999046326</ele>
        <time>2019-07-14T08:21:43.000Z</time>
      </trkpt>
      <trkpt lat="47.291" lon="-2.27385">
        <ele>7.5999999046326</ele>
        <time>2019-07-14T08:21:44.000Z</time>
      </trkpt>
      <trkpt lat="47.29101" lon="-2.27423">
        <ele>7.5999999046326</ele>
        <time>2019-07-14T08:21:48.000Z</time>
      </trkpt>
      <trkpt lat="47.291" lon="-2.27432">
        <ele>7.5999999046326</ele>
        <time>2019-07-14T08:21:49.000Z</time>
      </trkpt>
      <trkpt lat="47.291" lon="-2.27447">
        <ele>7.5999999046326</ele>
        <time>2019-07-14T08:21:51.000Z</time>
      </trkpt>
      <trkpt lat="47.29099" lon="-2.27463">
        <ele>7.5999999046326</ele>
        <time>2019-07-14T08:21:53.000Z</time>
      </trkpt>
      <trkpt lat="47.291" lon="-2.27508">
        <ele>7.5999999046326</ele>
        <time>2019-07-14T08:21:59.000Z</time>
      </trkpt>
      <trkpt lat="47.29101" lon="-2.27511">
        <ele>7.5999999046326</ele>
        <time>2019-07-14T08:22:00.000Z</time>
      </trkpt>
      <trkpt lat="47.29102" lon="-2.27513">
        <ele>7.5999999046326</ele>
        <time>2019-07-14T08:22:02.000Z</time>
      </trkpt>
      <trkpt lat="47.29102" lon="-2.27514">
        <ele>7.5999999046326</ele>
        <time>2019-07-14T08:22:03.000Z</time>
      </trkpt>
      <trkpt lat="47.29103" lon="-2.27518">
        <ele>7.5999999046326</ele>
        <time>2019-07-14T08:22:19.000Z</time>
      </trkpt>
      <trkpt lat="47.29105" lon="-2.27519">
        <ele>7.5999999046326</ele>
        <time>2019-07-14T08:22:20.000Z</time>
      </trkpt>
      <trkpt lat="47.29107" lon="-2.2752">
        <ele>7.5999999046326</ele>
        <time>2019-07-14T08:22:21.000Z</time>
      </trkpt>
      <trkpt lat="47.29119" lon="-2.27523">
        <ele>7.5999999046326</ele>
        <time>2019-07-14T08:22:25.000Z</time>
      </trkpt>
      <trkpt lat="47.29141" lon="-2.27523">
        <ele>7.5999999046326</ele>
        <time>2019-07-14T08:22:30.000Z</time>
      </trkpt>
      <trkpt lat="47.29158" lon="-2.27523">
        <ele>8</ele>
        <time>2019-07-14T08:22:33.000Z</time>
      </trkpt>
      <trkpt lat="47.29164" lon="-2.27524">
        <ele>8.3999996185303</ele>
        <time>2019-07-14T08:22:34.000Z</time>
      </trkpt>
      <trkpt lat="47.2917" lon="-2.27524">
        <ele>8.8000001907349</ele>
        <time>2019-07-14T08:22:35.000Z</time>
      </trkpt>
      <trkpt lat="47.29175" lon="-2.27523">
        <ele>9.1999998092651</ele>
        <time>2019-07-14T08:22:36.000Z</time>
      </trkpt>
      <trkpt lat="47.29182" lon="-2.27524">
        <ele>9.6000003814697</ele>
        <time>2019-07-14T08:22:37.000Z</time>
      </trkpt>
      <trkpt lat="47.29208" lon="-2.27523">
        <ele>9.6000003814697</ele>
        <time>2019-07-14T08:22:42.000Z</time>
      </trkpt>
      <trkpt lat="47.29245" lon="-2.27524">
        <ele>9.6000003814697</ele>
        <time>2019-07-14T08:22:49.000Z</time>
      </trkpt>
      <trkpt lat="47.29251" lon="-2.27523">
        <ele>9.6000003814697</ele>
        <time>2019-07-14T08:22:50.000Z</time>
      </trkpt>
      <trkpt lat="47.29274" lon="-2.27517">
        <ele>9.6000003814697</ele>
        <time>2019-07-14T08:22:54.000Z</time>
      </trkpt>
      <trkpt lat="47.29296" lon="-2.27529">
        <ele>9.6000003814697</ele>
        <time>2019-07-14T08:22:58.000Z</time>
      </trkpt>
      <trkpt lat="47.29315" lon="-2.27532">
        <ele>9.6000003814697</ele>
        <time>2019-07-14T08:23:01.000Z</time>
      </trkpt>
      <trkpt lat="47.29322" lon="-2.27531">
        <ele>9.6000003814697</ele>
        <time>2019-07-14T08:23:02.000Z</time>
      </trkpt>
      <trkpt lat="47.29364" lon="-2.27523">
        <ele>9.6000003814697</ele>
        <time>2019-07-14T08:23:09.000Z</time>
      </trkpt>
      <trkpt lat="47.29398" lon="-2.27515">
        <ele>9.6000003814697</ele>
        <time>2019-07-14T08:23:15.000Z</time>
      </trkpt>
      <trkpt lat="47.29434" lon="-2.27512">
        <ele>9.6000003814697</ele>
        <time>2019-07-14T08:23:21.000Z</time>
      </trkpt>
      <trkpt lat="47.29461" lon="-2.27516">
        <ele>9.6000003814697</ele>
        <time>2019-07-14T08:23:26.000Z</time>
      </trkpt>
      <trkpt lat="47.29472" lon="-2.27519">
        <ele>9.6000003814697</ele>
        <time>2019-07-14T08:23:28.000Z</time>
      </trkpt>
      <trkpt lat="47.29512" lon="-2.27531">
        <ele>9.6000003814697</ele>
        <time>2019-07-14T08:23:35.000Z</time>
      </trkpt>
      <trkpt lat="47.29544" lon="-2.27541">
        <ele>9.6000003814697</ele>
        <time>2019-07-14T08:23:40.000Z</time>
      </trkpt>
      <trkpt lat="47.29564" lon="-2.27549">
        <ele>9.6000003814697</ele>
        <time>2019-07-14T08:23:43.000Z</time>
      </trkpt>
      <trkpt lat="47.29581" lon="-2.27559">
        <ele>9.6000003814697</ele>
        <time>2019-07-14T08:23:46.000Z</time>
      </trkpt>
      <trkpt lat="47.29587" lon="-2.27563">
        <ele>9.6000003814697</ele>
        <time>2019-07-14T08:23:47.000Z</time>
      </trkpt>
      <trkpt lat="47.29609" lon="-2.27578">
        <ele>9.6000003814697</ele>
        <time>2019-07-14T08:23:51.000Z</time>
      </trkpt>
      <trkpt lat="47.29647" lon="-2.27603">
        <ele>9.1999998092651</ele>
        <time>2019-07-14T08:23:57.000Z</time>
      </trkpt>
      <trkpt lat="47.29654" lon="-2.27606">
        <ele>8.8000001907349</ele>
        <time>2019-07-14T08:23:58.000Z</time>
      </trkpt>
      <trkpt lat="47.2966" lon="-2.27608">
        <ele>8.1999998092651</ele>
        <time>2019-07-14T08:23:59.000Z</time>
      </trkpt>
      <trkpt lat="47.29667" lon="-2.27611">
        <ele>7.8000001907349</ele>
        <time>2019-07-14T08:24:00.000Z</time>
      </trkpt>
      <trkpt lat="47.29674" lon="-2.27613">
        <ele>7.4000000953674</ele>
        <time>2019-07-14T08:24:01.000Z</time>
      </trkpt>
      <trkpt lat="47.29689" lon="-2.27616">
        <ele>7.4000000953674</ele>
        <time>2019-07-14T08:24:03.000Z</time>
      </trkpt>
      <trkpt lat="47.29724" lon="-2.27609">
        <ele>7.4000000953674</ele>
        <time>2019-07-14T08:24:08.000Z</time>
      </trkpt>
      <trkpt lat="47.29758" lon="-2.27595">
        <ele>7</ele>
        <time>2019-07-14T08:24:13.000Z</time>
      </trkpt>
      <trkpt lat="47.29764" lon="-2.27592">
        <ele>6.5999999046326</ele>
        <time>2019-07-14T08:24:14.000Z</time>
      </trkpt>
      <trkpt lat="47.29772" lon="-2.2759">
        <ele>6.1999998092651</ele>
        <time>2019-07-14T08:24:15.000Z</time>
      </trkpt>
      <trkpt lat="47.29779" lon="-2.27589">
        <ele>5.8000001907349</ele>
        <time>2019-07-14T08:24:16.000Z</time>
      </trkpt>
      <trkpt lat="47.29786" lon="-2.27589">
        <ele>5.4000000953674</ele>
        <time>2019-07-14T08:24:17.000Z</time>
      </trkpt>
      <trkpt lat="47.29793" lon="-2.27591">
        <ele>5.4000000953674</ele>
        <time>2019-07-14T08:24:18.000Z</time>
      </trkpt>
      <trkpt lat="47.29814" lon="-2.27599">
        <ele>5.4000000953674</ele>
        <time>2019-07-14T08:24:21.000Z</time>
      </trkpt>
      <trkpt lat="47.2982" lon="-2.27604">
        <ele>5.4000000953674</ele>
        <time>2019-07-14T08:24:22.000Z</time>
      </trkpt>
      <trkpt lat="47.29827" lon="-2.27609">
        <ele>5.4000000953674</ele>
        <time>2019-07-14T08:24:23.000Z</time>
      </trkpt>
      <trkpt lat="47.29841" lon="-2.27616">
        <ele>5.4000000953674</ele>
        <time>2019-07-14T08:24:25.000Z</time>
      </trkpt>
      <trkpt lat="47.29862" lon="-2.27619">
        <ele>5.4000000953674</ele>
        <time>2019-07-14T08:24:28.000Z</time>
      </trkpt>
      <trkpt lat="47.29889" lon="-2.27607">
        <ele>5.4000000953674</ele>
        <time>2019-07-14T08:24:32.000Z</time>
      </trkpt>
      <trkpt lat="47.29909" lon="-2.27599">
        <ele>5.4000000953674</ele>
        <time>2019-07-14T08:24:35.000Z</time>
      </trkpt>
      <trkpt lat="47.29927" lon="-2.27596">
        <ele>5.4000000953674</ele>
        <time>2019-07-14T08:24:38.000Z</time>
      </trkpt>
      <trkpt lat="47.29946" lon="-2.27599">
        <ele>5.4000000953674</ele>
        <time>2019-07-14T08:24:41.000Z</time>
      </trkpt>
      <trkpt lat="47.29951" lon="-2.27603">
        <ele>5.4000000953674</ele>
        <time>2019-07-14T08:24:42.000Z</time>
      </trkpt>
      <trkpt lat="47.29959" lon="-2.27624">
        <ele>5.4000000953674</ele>
        <time>2019-07-14T08:24:45.000Z</time>
      </trkpt>
      <trkpt lat="47.29958" lon="-2.27656">
        <ele>5.4000000953674</ele>
        <time>2019-07-14T08:24:49.000Z</time>
      </trkpt>
      <trkpt lat="47.29957" lon="-2.27663">
        <ele>5.4000000953674</ele>
        <time>2019-07-14T08:24:50.000Z</time>
      </trkpt>
      <trkpt lat="47.29953" lon="-2.2771">
        <ele>5.4000000953674</ele>
        <time>2019-07-14T08:24:56.000Z</time>
      </trkpt>
      <trkpt lat="47.29948" lon="-2.27769">
        <ele>5.4000000953674</ele>
        <time>2019-07-14T08:25:03.000Z</time>
      </trkpt>
      <trkpt lat="47.29943" lon="-2.27829">
        <ele>5.4000000953674</ele>
        <time>2019-07-14T08:25:10.000Z</time>
      </trkpt>
      <trkpt lat="47.29939" lon="-2.27883">
        <ele>5.4000000953674</ele>
        <time>2019-07-14T08:25:16.000Z</time>
      </trkpt>
      <trkpt lat="47.29933" lon="-2.27955">
        <ele>5.4000000953674</ele>
        <time>2019-07-14T08:25:24.000Z</time>
      </trkpt>
      <trkpt lat="47.29932" lon="-2.27983">
        <ele>5.4000000953674</ele>
        <time>2019-07-14T08:25:27.000Z</time>
      </trkpt>
      <trkpt lat="47.29933" lon="-2.28001">
        <ele>5.4000000953674</ele>
        <time>2019-07-14T08:25:29.000Z</time>
      </trkpt>
      <trkpt lat="47.29937" lon="-2.28019">
        <ele>5.4000000953674</ele>
        <time>2019-07-14T08:25:31.000Z</time>
      </trkpt>
      <trkpt lat="47.29944" lon="-2.28042">
        <ele>5.4000000953674</ele>
        <time>2019-07-14T08:25:34.000Z</time>
      </trkpt>
      <trkpt lat="47.29959" lon="-2.28045">
        <ele>5.4000000953674</ele>
        <time>2019-07-14T08:25:37.000Z</time>
      </trkpt>
      <trkpt lat="47.29975" lon="-2.28038">
        <ele>5.4000000953674</ele>
        <time>2019-07-14T08:25:40.000Z</time>
      </trkpt>
      <trkpt lat="47.2998" lon="-2.28035">
        <ele>5.4000000953674</ele>
        <time>2019-07-14T08:25:41.000Z</time>
      </trkpt>
      <trkpt lat="47.30011" lon="-2.2802">
        <ele>5.4000000953674</ele>
        <time>2019-07-14T08:25:47.000Z</time>
      </trkpt>
      <trkpt lat="47.30038" lon="-2.28003">
        <ele>5.4000000953674</ele>
        <time>2019-07-14T08:25:52.000Z</time>
      </trkpt>
      <trkpt lat="47.3007" lon="-2.2798">
        <ele>5.4000000953674</ele>
        <time>2019-07-14T08:25:59.000Z</time>
      </trkpt>
      <trkpt lat="47.30102" lon="-2.27953">
        <ele>5.4000000953674</ele>
        <time>2019-07-14T08:26:05.000Z</time>
      </trkpt>
      <trkpt lat="47.30141" lon="-2.27926">
        <ele>5</ele>
        <time>2019-07-14T08:26:12.000Z</time>
      </trkpt>
      <trkpt lat="47.30147" lon="-2.27923">
        <ele>4.5999999046326</ele>
        <time>2019-07-14T08:26:13.000Z</time>
      </trkpt>
      <trkpt lat="47.30153" lon="-2.27921">
        <ele>4.1999998092651</ele>
        <time>2019-07-14T08:26:14.000Z</time>
      </trkpt>
      <trkpt lat="47.3016" lon="-2.27919">
        <ele>3.7999999523163</ele>
        <time>2019-07-14T08:26:15.000Z</time>
      </trkpt>
      <trkpt lat="47.30166" lon="-2.27918">
        <ele>3.4000000953674</ele>
        <time>2019-07-14T08:26:16.000Z</time>
      </trkpt>
      <trkpt lat="47.30179" lon="-2.27917">
        <ele>3.4000000953674</ele>
        <time>2019-07-14T08:26:18.000Z</time>
      </trkpt>
      <trkpt lat="47.3023" lon="-2.27913">
        <ele>3.4000000953674</ele>
        <time>2019-07-14T08:26:25.000Z</time>
      </trkpt>
      <trkpt lat="47.30251" lon="-2.27912">
        <ele>2.7999999523163</ele>
        <time>2019-07-14T08:26:28.000Z</time>
      </trkpt>
      <trkpt lat="47.30258" lon="-2.27912">
        <ele>2.4000000953674</ele>
        <time>2019-07-14T08:26:29.000Z</time>
      </trkpt>
      <trkpt lat="47.30264" lon="-2.27911">
        <ele>2</ele>
        <time>2019-07-14T08:26:30.000Z</time>
      </trkpt>
      <trkpt lat="47.30271" lon="-2.27911">
        <ele>1.6000000238419</ele>
        <time>2019-07-14T08:26:31.000Z</time>
      </trkpt>
      <trkpt lat="47.30277" lon="-2.27911">
        <ele>1.2000000476837</ele>
        <time>2019-07-14T08:26:32.000Z</time>
      </trkpt>
      <trkpt lat="47.30314" lon="-2.27906">
        <ele>1.2000000476837</ele>
        <time>2019-07-14T08:26:38.000Z</time>
      </trkpt>
      <trkpt lat="47.30327" lon="-2.27904">
        <ele>0.80000001192093</ele>
        <time>2019-07-14T08:26:40.000Z</time>
      </trkpt>
      <trkpt lat="47.30334" lon="-2.27904">
        <ele>0.20000000298023</ele>
        <time>2019-07-14T08:26:41.000Z</time>
      </trkpt>
      <trkpt lat="47.30341" lon="-2.27903">
        <ele>-0.20000000298023</ele>
        <time>2019-07-14T08:26:42.000Z</time>
      </trkpt>
      <trkpt lat="47.30348" lon="-2.27902">
        <ele>-0.60000002384186</ele>
        <time>2019-07-14T08:26:43.000Z</time>
      </trkpt>
      <trkpt lat="47.30353" lon="-2.27901">
        <ele>-1</ele>
        <time>2019-07-14T08:26:44.000Z</time>
      </trkpt>
      <trkpt lat="47.30391" lon="-2.27896">
        <ele>-1</ele>
        <time>2019-07-14T08:26:50.000Z</time>
      </trkpt>
      <trkpt lat="47.30427" lon="-2.27897">
        <ele>-1</ele>
        <time>2019-07-14T08:26:56.000Z</time>
      </trkpt>
      <trkpt lat="47.30433" lon="-2.27899">
        <ele>-1</ele>
        <time>2019-07-14T08:26:57.000Z</time>
      </trkpt>
      <trkpt lat="47.30459" lon="-2.27908">
        <ele>-1</ele>
        <time>2019-07-14T08:27:01.000Z</time>
      </trkpt>
      <trkpt lat="47.30466" lon="-2.27911">
        <ele>-1</ele>
        <time>2019-07-14T08:27:02.000Z</time>
      </trkpt>
      <trkpt lat="47.30486" lon="-2.27919">
        <ele>-1</ele>
        <time>2019-07-14T08:27:05.000Z</time>
      </trkpt>
      <trkpt lat="47.30504" lon="-2.27924">
        <ele>-1</ele>
        <time>2019-07-14T08:27:08.000Z</time>
      </trkpt>
      <trkpt lat="47.3051" lon="-2.27924">
        <ele>-1</ele>
        <time>2019-07-14T08:27:09.000Z</time>
      </trkpt>
      <trkpt lat="47.30521" lon="-2.2794">
        <ele>-1</ele>
        <time>2019-07-14T08:27:12.000Z</time>
      </trkpt>
      <trkpt lat="47.30524" lon="-2.27955">
        <ele>-1.3999999761581</ele>
        <time>2019-07-14T08:27:14.000Z</time>
      </trkpt>
      <trkpt lat="47.30525" lon="-2.27962">
        <ele>-1.7999999523163</ele>
        <time>2019-07-14T08:27:15.000Z</time>
      </trkpt>
      <trkpt lat="47.30526" lon="-2.2797">
        <ele>-2.2000000476837</ele>
        <time>2019-07-14T08:27:16.000Z</time>
      </trkpt>
      <trkpt lat="47.30528" lon="-2.27978">
        <ele>-2.7999999523163</ele>
        <time>2019-07-14T08:27:17.000Z</time>
      </trkpt>
      <trkpt lat="47.30529" lon="-2.27986">
        <ele>-3.2000000476837</ele>
        <time>2019-07-14T08:27:18.000Z</time>
      </trkpt>
      <trkpt lat="47.30534" lon="-2.28002">
        <ele>-3.2000000476837</ele>
        <time>2019-07-14T08:27:20.000Z</time>
      </trkpt>
      <trkpt lat="47.30543" lon="-2.28017">
        <ele>-3.2000000476837</ele>
        <time>2019-07-14T08:27:22.000Z</time>
      </trkpt>
      <trkpt lat="47.30549" lon="-2.28022">
        <ele>-3.2000000476837</ele>
        <time>2019-07-14T08:27:23.000Z</time>
      </trkpt>
      <trkpt lat="47.30561" lon="-2.28028">
        <ele>-3.2000000476837</ele>
        <time>2019-07-14T08:27:25.000Z</time>
      </trkpt>
      <trkpt lat="47.30574" lon="-2.28032">
        <ele>-3.2000000476837</ele>
        <time>2019-07-14T08:27:27.000Z</time>
      </trkpt>
      <trkpt lat="47.30595" lon="-2.28041">
        <ele>-3.2000000476837</ele>
        <time>2019-07-14T08:27:30.000Z</time>
      </trkpt>
      <trkpt lat="47.30607" lon="-2.2805">
        <ele>-3.2000000476837</ele>
        <time>2019-07-14T08:27:32.000Z</time>
      </trkpt>
      <trkpt lat="47.30626" lon="-2.28067">
        <ele>-3.2000000476837</ele>
        <time>2019-07-14T08:27:35.000Z</time>
      </trkpt>
      <trkpt lat="47.30667" lon="-2.28109">
        <ele>-3.2000000476837</ele>
        <time>2019-07-14T08:27:42.000Z</time>
      </trkpt>
      <trkpt lat="47.30699" lon="-2.28147">
        <ele>-3.2000000476837</ele>
        <time>2019-07-14T08:27:48.000Z</time>
      </trkpt>
      <trkpt lat="47.30734" lon="-2.28192">
        <ele>-3.2000000476837</ele>
        <time>2019-07-14T08:27:54.000Z</time>
      </trkpt>
      <trkpt lat="47.30768" lon="-2.28236">
        <ele>-3.2000000476837</ele>
        <time>2019-07-14T08:28:00.000Z</time>
      </trkpt>
      <trkpt lat="47.3078" lon="-2.28246">
        <ele>-3.2000000476837</ele>
        <time>2019-07-14T08:28:02.000Z</time>
      </trkpt>
      <trkpt lat="47.30794" lon="-2.28251">
        <ele>-3.2000000476837</ele>
        <time>2019-07-14T08:28:04.000Z</time>
      </trkpt>
      <trkpt lat="47.30808" lon="-2.28252">
        <ele>-3.2000000476837</ele>
        <time>2019-07-14T08:28:06.000Z</time>
      </trkpt>
      <trkpt lat="47.30821" lon="-2.2825">
        <ele>-3.2000000476837</ele>
        <time>2019-07-14T08:28:08.000Z</time>
      </trkpt>
      <trkpt lat="47.30828" lon="-2.28248">
        <ele>-3.2000000476837</ele>
        <time>2019-07-14T08:28:09.000Z</time>
      </trkpt>
      <trkpt lat="47.30848" lon="-2.2824">
        <ele>-3.2000000476837</ele>
        <time>2019-07-14T08:28:12.000Z</time>
      </trkpt>
      <trkpt lat="47.30855" lon="-2.28236">
        <ele>-3.2000000476837</ele>
        <time>2019-07-14T08:28:13.000Z</time>
      </trkpt>
      <trkpt lat="47.30873" lon="-2.28219">
        <ele>-3.2000000476837</ele>
        <time>2019-07-14T08:28:16.000Z</time>
      </trkpt>
      <trkpt lat="47.30878" lon="-2.28211">
        <ele>-3.2000000476837</ele>
        <time>2019-07-14T08:28:17.000Z</time>
      </trkpt>
      <trkpt lat="47.3091" lon="-2.28166">
        <ele>-3.2000000476837</ele>
        <time>2019-07-14T08:28:23.000Z</time>
      </trkpt>
      <trkpt lat="47.30948" lon="-2.28107">
        <ele>-3.2000000476837</ele>
        <time>2019-07-14T08:28:31.000Z</time>
      </trkpt>
      <trkpt lat="47.30973" lon="-2.28077">
        <ele>-3.2000000476837</ele>
        <time>2019-07-14T08:28:36.000Z</time>
      </trkpt>
      <trkpt lat="47.30979" lon="-2.28073">
        <ele>-3.2000000476837</ele>
        <time>2019-07-14T08:28:37.000Z</time>
      </trkpt>
      <trkpt lat="47.30999" lon="-2.2806">
        <ele>-3.2000000476837</ele>
        <time>2019-07-14T08:28:40.000Z</time>
      </trkpt>
      <trkpt lat="47.31018" lon="-2.28046">
        <ele>-3.2000000476837</ele>
        <time>2019-07-14T08:28:43.000Z</time>
      </trkpt>
      <trkpt lat="47.31036" lon="-2.28028">
        <ele>-3.2000000476837</ele>
        <time>2019-07-14T08:28:46.000Z</time>
      </trkpt>
      <trkpt lat="47.31063" lon="-2.27993">
        <ele>-3.2000000476837</ele>
        <time>2019-07-14T08:28:51.000Z</time>
      </trkpt>
      <trkpt lat="47.31091" lon="-2.27948">
        <ele>-3.2000000476837</ele>
        <time>2019-07-14T08:28:57.000Z</time>
      </trkpt>
      <trkpt lat="47.31125" lon="-2.27894">
        <ele>-3.2000000476837</ele>
        <time>2019-07-14T08:29:04.000Z</time>
      </trkpt>
      <trkpt lat="47.31141" lon="-2.27868">
        <ele>-3.2000000476837</ele>
        <time>2019-07-14T08:29:07.000Z</time>
      </trkpt>
      <trkpt lat="47.31148" lon="-2.27848">
        <ele>-3.2000000476837</ele>
        <time>2019-07-14T08:29:09.000Z</time>
      </trkpt>
      <trkpt lat="47.31151" lon="-2.27836">
        <ele>-3.2000000476837</ele>
        <time>2019-07-14T08:29:10.000Z</time>
      </trkpt>
      <trkpt lat="47.31151" lon="-2.27814">
        <ele>-3.2000000476837</ele>
        <time>2019-07-14T08:29:12.000Z</time>
      </trkpt>
      <trkpt lat="47.31142" lon="-2.27774">
        <ele>-3.2000000476837</ele>
        <time>2019-07-14T08:29:16.000Z</time>
      </trkpt>
      <trkpt lat="47.31137" lon="-2.27753">
        <ele>-3.2000000476837</ele>
        <time>2019-07-14T08:29:19.000Z</time>
      </trkpt>
      <trkpt lat="47.31137" lon="-2.27749">
        <ele>-3.2000000476837</ele>
        <time>2019-07-14T08:29:20.000Z</time>
      </trkpt>
      <trkpt lat="47.31151" lon="-2.27748">
        <ele>-3.2000000476837</ele>
        <time>2019-07-14T08:29:22.000Z</time>
      </trkpt>
      <trkpt lat="47.31174" lon="-2.27741">
        <ele>-3.2000000476837</ele>
        <time>2019-07-14T08:29:26.000Z</time>
      </trkpt>
      <trkpt lat="47.31198" lon="-2.2773">
        <ele>-3.2000000476837</ele>
        <time>2019-07-14T08:29:30.000Z</time>
      </trkpt>
      <trkpt lat="47.31203" lon="-2.27732">
        <ele>-3.2000000476837</ele>
        <time>2019-07-14T08:29:31.000Z</time>
      </trkpt>
      <trkpt lat="47.31215" lon="-2.27754">
        <ele>-3.2000000476837</ele>
        <time>2019-07-14T08:29:34.000Z</time>
      </trkpt>
      <trkpt lat="47.31222" lon="-2.2777">
        <ele>-3.2000000476837</ele>
        <time>2019-07-14T08:29:36.000Z</time>
      </trkpt>
      <trkpt lat="47.31233" lon="-2.27779">
        <ele>-3.2000000476837</ele>
        <time>2019-07-14T08:29:38.000Z</time>
      </trkpt>
      <trkpt lat="47.31261" lon="-2.27777">
        <ele>-3.2000000476837</ele>
        <time>2019-07-14T08:29:42.000Z</time>
      </trkpt>
      <trkpt lat="47.31281" lon="-2.2777">
        <ele>-3.2000000476837</ele>
        <time>2019-07-14T08:29:45.000Z</time>
      </trkpt>
      <trkpt lat="47.31295" lon="-2.27768">
        <ele>-3.2000000476837</ele>
        <time>2019-07-14T08:29:47.000Z</time>
      </trkpt>
      <trkpt lat="47.31341" lon="-2.27758">
        <ele>-3.2000000476837</ele>
        <time>2019-07-14T08:29:53.000Z</time>
      </trkpt>
      <trkpt lat="47.31377" lon="-2.27744">
        <ele>-3.2000000476837</ele>
        <time>2019-07-14T08:29:58.000Z</time>
      </trkpt>
      <trkpt lat="47.31413" lon="-2.27724">
        <ele>-3.2000000476837</ele>
        <time>2019-07-14T08:30:03.000Z</time>
      </trkpt>
      <trkpt lat="47.3146" lon="-2.27686">
        <ele>-3.2000000476837</ele>
        <time>2019-07-14T08:30:10.000Z</time>
      </trkpt>
      <trkpt lat="47.31472" lon="-2.27673">
        <ele>-3.2000000476837</ele>
        <time>2019-07-14T08:30:12.000Z</time>
      </trkpt>
      <trkpt lat="47.31483" lon="-2.27658">
        <ele>-3.2000000476837</ele>
        <time>2019-07-14T08:30:14.000Z</time>
      </trkpt>
      <trkpt lat="47.31491" lon="-2.27643">
        <ele>-3.2000000476837</ele>
        <time>2019-07-14T08:30:16.000Z</time>
      </trkpt>
      <trkpt lat="47.31494" lon="-2.27633">
        <ele>-3.2000000476837</ele>
        <time>2019-07-14T08:30:17.000Z</time>
      </trkpt>
      <trkpt lat="47.31497" lon="-2.27624">
        <ele>-3.2000000476837</ele>
        <time>2019-07-14T08:30:18.000Z</time>
      </trkpt>
      <trkpt lat="47.31496" lon="-2.27594">
        <ele>-3.2000000476837</ele>
        <time>2019-07-14T08:30:21.000Z</time>
      </trkpt>
      <trkpt lat="47.31492" lon="-2.27575">
        <ele>-3.2000000476837</ele>
        <time>2019-07-14T08:30:23.000Z</time>
      </trkpt>
      <trkpt lat="47.31485" lon="-2.27555">
        <ele>-3.2000000476837</ele>
        <time>2019-07-14T08:30:25.000Z</time>
      </trkpt>
      <trkpt lat="47.31482" lon="-2.27546">
        <ele>-2.7999999523163</ele>
        <time>2019-07-14T08:30:26.000Z</time>
      </trkpt>
      <trkpt lat="47.31478" lon="-2.27538">
        <ele>-2.2000000476837</ele>
        <time>2019-07-14T08:30:27.000Z</time>
      </trkpt>
      <trkpt lat="47.31474" lon="-2.2753">
        <ele>-1.3999999761581</ele>
        <time>2019-07-14T08:30:28.000Z</time>
      </trkpt>
      <trkpt lat="47.3147" lon="-2.27522">
        <ele>-0.80000001192093</ele>
        <time>2019-07-14T08:30:29.000Z</time>
      </trkpt>
      <trkpt lat="47.31462" lon="-2.27505">
        <ele>-0.80000001192093</ele>
        <time>2019-07-14T08:30:31.000Z</time>
      </trkpt>
      <trkpt lat="47.31459" lon="-2.27496">
        <ele>-0.80000001192093</ele>
        <time>2019-07-14T08:30:32.000Z</time>
      </trkpt>
      <trkpt lat="47.3145" lon="-2.27466">
        <ele>-0.80000001192093</ele>
        <time>2019-07-14T08:30:35.000Z</time>
      </trkpt>
      <trkpt lat="47.31434" lon="-2.27443">
        <ele>-0.80000001192093</ele>
        <time>2019-07-14T08:30:38.000Z</time>
      </trkpt>
      <trkpt lat="47.31428" lon="-2.27438">
        <ele>-0.80000001192093</ele>
        <time>2019-07-14T08:30:39.000Z</time>
      </trkpt>
      <trkpt lat="47.31394" lon="-2.2741">
        <ele>-0.80000001192093</ele>
        <time>2019-07-14T08:30:44.000Z</time>
      </trkpt>
      <trkpt lat="47.3136" lon="-2.27364">
        <ele>-0.80000001192093</ele>
        <time>2019-07-14T08:30:50.000Z</time>
      </trkpt>
      <trkpt lat="47.31327" lon="-2.27313">
        <ele>-0.80000001192093</ele>
        <time>2019-07-14T08:30:56.000Z</time>
      </trkpt>
      <trkpt lat="47.31311" lon="-2.27287">
        <ele>-0.80000001192093</ele>
        <time>2019-07-14T08:30:59.000Z</time>
      </trkpt>
      <trkpt lat="47.31302" lon="-2.27269">
        <ele>-0.80000001192093</ele>
        <time>2019-07-14T08:31:01.000Z</time>
      </trkpt>
      <trkpt lat="47.31298" lon="-2.27259">
        <ele>-0.80000001192093</ele>
        <time>2019-07-14T08:31:02.000Z</time>
      </trkpt>
      <trkpt lat="47.31291" lon="-2.2723">
        <ele>-0.80000001192093</ele>
        <time>2019-07-14T08:31:05.000Z</time>
      </trkpt>
      <trkpt lat="47.31289" lon="-2.27219">
        <ele>-0.40000000596046</ele>
        <time>2019-07-14T08:31:06.000Z</time>
      </trkpt>
      <trkpt lat="47.31287" lon="-2.27209">
        <ele>5.8</ele>
        <time>2019-07-14T08:31:07.000Z</time>
      </trkpt>
      <trkpt lat="47.31285" lon="-2.27199">
        <ele>0.40000000596046</ele>
        <time>2019-07-14T08:31:08.000Z</time>
      </trkpt>
      <trkpt lat="47.31283" lon="-2.27188">
        <ele>0.80000001192093</ele>
        <time>2019-07-14T08:31:09.000Z</time>
      </trkpt>
      <trkpt lat="47.31282" lon="-2.27178">
        <ele>1.2000000476837</ele>
        <time>2019-07-14T08:31:10.000Z</time>
      </trkpt>
      <trkpt lat="47.3128" lon="-2.27168">
        <ele>1.2000000476837</ele>
        <time>2019-07-14T08:31:11.000Z</time>
      </trkpt>
      <trkpt lat="47.31273" lon="-2.27126">
        <ele>1.2000000476837</ele>
        <time>2019-07-14T08:31:16.000Z</time>
      </trkpt>
      <trkpt lat="47.31274" lon="-2.27105">
        <ele>1.2000000476837</ele>
        <time>2019-07-14T08:31:20.000Z</time>
      </trkpt>
      <trkpt lat="47.31287" lon="-2.27095">
        <ele>1.2000000476837</ele>
        <time>2019-07-14T08:31:24.000Z</time>
      </trkpt>
      <trkpt lat="47.31299" lon="-2.27086">
        <ele>1.2000000476837</ele>
        <time>2019-07-14T08:31:27.000Z</time>
      </trkpt>
      <trkpt lat="47.31313" lon="-2.27079">
        <ele>1.2000000476837</ele>
        <time>2019-07-14T08:31:30.000Z</time>
      </trkpt>
      <trkpt lat="47.31343" lon="-2.27068">
        <ele>1.2000000476837</ele>
        <time>2019-07-14T08:31:36.000Z</time>
      </trkpt>
      <trkpt lat="47.31381" lon="-2.27053">
        <ele>1.2000000476837</ele>
        <time>2019-07-14T08:31:43.000Z</time>
      </trkpt>
      <trkpt lat="47.3142" lon="-2.27027">
        <ele>1.2000000476837</ele>
        <time>2019-07-14T08:31:50.000Z</time>
      </trkpt>
      <trkpt lat="47.31465" lon="-2.26994">
        <ele>1.2000000476837</ele>
        <time>2019-07-14T08:31:58.000Z</time>
      </trkpt>
      <trkpt lat="47.31476" lon="-2.26988">
        <ele>1.2000000476837</ele>
        <time>2019-07-14T08:32:00.000Z</time>
      </trkpt>
      <trkpt lat="47.31486" lon="-2.2698">
        <ele>1.2000000476837</ele>
        <time>2019-07-14T08:32:02.000Z</time>
      </trkpt>
      <trkpt lat="47.31492" lon="-2.26967">
        <ele>1.2000000476837</ele>
        <time>2019-07-14T08:32:04.000Z</time>
      </trkpt>
      <trkpt lat="47.31495" lon="-2.26959">
        <ele>1.2000000476837</ele>
        <time>2019-07-14T08:32:05.000Z</time>
      </trkpt>
      <trkpt lat="47.315" lon="-2.26944">
        <ele>0.80000001192093</ele>
        <time>2019-07-14T08:32:07.000Z</time>
      </trkpt>
      <trkpt lat="47.31502" lon="-2.26936">
        <ele>3.7</ele>
        <time>2019-07-14T08:32:08.000Z</time>
      </trkpt>
      <trkpt lat="47.31504" lon="-2.26928">
        <ele>-0.40000000596046</ele>
        <time>2019-07-14T08:32:09.000Z</time>
      </trkpt>
      <trkpt lat="47.31505" lon="-2.26919">
        <ele>-0.80000001192093</ele>
        <time>2019-07-14T08:32:10.000Z</time>
      </trkpt>
      <trkpt lat="47.31509" lon="-2.26896">
        <ele>-0.80000001192093</ele>
        <time>2019-07-14T08:32:13.000Z</time>
      </trkpt>
      <trkpt lat="47.31513" lon="-2.26882">
        <ele>-0.80000001192093</ele>
        <time>2019-07-14T08:32:15.000Z</time>
      </trkpt>
      <trkpt lat="47.31529" lon="-2.26836">
        <ele>-0.80000001192093</ele>
        <time>2019-07-14T08:32:21.000Z</time>
      </trkpt>
      <trkpt lat="47.31547" lon="-2.2679">
        <ele>-0.80000001192093</ele>
        <time>2019-07-14T08:32:27.000Z</time>
      </trkpt>
      <trkpt lat="47.31558" lon="-2.26769">
        <ele>-0.80000001192093</ele>
        <time>2019-07-14T08:32:30.000Z</time>
      </trkpt>
      <trkpt lat="47.31567" lon="-2.2676">
        <ele>-0.80000001192093</ele>
        <time>2019-07-14T08:32:32.000Z</time>
      </trkpt>
      <trkpt lat="47.31586" lon="-2.26757">
        <ele>-0.80000001192093</ele>
        <time>2019-07-14T08:32:35.000Z</time>
      </trkpt>
      <trkpt lat="47.31612" lon="-2.26755">
        <ele>-0.80000001192093</ele>
        <time>2019-07-14T08:32:39.000Z</time>
      </trkpt>
      <trkpt lat="47.31618" lon="-2.26752">
        <ele>-0.80000001192093</ele>
        <time>2019-07-14T08:32:40.000Z</time>
      </trkpt>
      <trkpt lat="47.31636" lon="-2.26733">
        <ele>-0.80000001192093</ele>
        <time>2019-07-14T08:32:44.000Z</time>
      </trkpt>
      <trkpt lat="47.31657" lon="-2.26724">
        <ele>-0.80000001192093</ele>
        <time>2019-07-14T08:32:48.000Z</time>
      </trkpt>
      <trkpt lat="47.31676" lon="-2.26721">
        <ele>-0.80000001192093</ele>
        <time>2019-07-14T08:32:51.000Z</time>
      </trkpt>
      <trkpt lat="47.31688" lon="-2.26718">
        <ele>-0.80000001192093</ele>
        <time>2019-07-14T08:32:53.000Z</time>
      </trkpt>
      <trkpt lat="47.31712" lon="-2.26715">
        <ele>-0.80000001192093</ele>
        <time>2019-07-14T08:32:57.000Z</time>
      </trkpt>
      <trkpt lat="47.31724" lon="-2.26713">
        <ele>-0.80000001192093</ele>
        <time>2019-07-14T08:32:59.000Z</time>
      </trkpt>
      <trkpt lat="47.31764" lon="-2.26703">
        <ele>-0.80000001192093</ele>
        <time>2019-07-14T08:33:06.000Z</time>
      </trkpt>
      <trkpt lat="47.31775" lon="-2.26699">
        <ele>-0.40000000596046</ele>
        <time>2019-07-14T08:33:08.000Z</time>
      </trkpt>
      <trkpt lat="47.3178" lon="-2.26698">
        <ele>7.1</ele>
        <time>2019-07-14T08:33:09.000Z</time>
      </trkpt>
      <trkpt lat="47.31784" lon="-2.26697">
        <ele>0.40000000596046</ele>
        <time>2019-07-14T08:33:10.000Z</time>
      </trkpt>
      <trkpt lat="47.31788" lon="-2.26695">
        <ele>0.80000001192093</ele>
        <time>2019-07-14T08:33:11.000Z</time>
      </trkpt>
      <trkpt lat="47.31792" lon="-2.26693">
        <ele>1.2000000476837</ele>
        <time>2019-07-14T08:33:12.000Z</time>
      </trkpt>
      <trkpt lat="47.31799" lon="-2.26694">
        <ele>1.2000000476837</ele>
        <time>2019-07-14T08:33:14.000Z</time>
      </trkpt>
      <trkpt lat="47.31812" lon="-2.2671">
        <ele>1.2000000476837</ele>
        <time>2019-07-14T08:33:18.000Z</time>
      </trkpt>
      <trkpt lat="47.31818" lon="-2.26721">
        <ele>1.6000000238419</ele>
        <time>2019-07-14T08:33:20.000Z</time>
      </trkpt>
      <trkpt lat="47.31822" lon="-2.26727">
        <ele>2</ele>
        <time>2019-07-14T08:33:21.000Z</time>
      </trkpt>
      <trkpt lat="47.31826" lon="-2.26731">
        <ele>3</ele>
        <time>2019-07-14T08:33:22.000Z</time>
      </trkpt>
      <trkpt lat="47.31831" lon="-2.26735">
        <ele>3.4000000953674</ele>
        <time>2019-07-14T08:33:23.000Z</time>
      </trkpt>
      <trkpt lat="47.3185" lon="-2.26738">
        <ele>3.4000000953674</ele>
        <time>2019-07-14T08:33:27.000Z</time>
      </trkpt>
      <trkpt lat="47.31859" lon="-2.26733">
        <ele>3.4000000953674</ele>
        <time>2019-07-14T08:33:29.000Z</time>
      </trkpt>
      <trkpt lat="47.31872" lon="-2.26724">
        <ele>3.4000000953674</ele>
        <time>2019-07-14T08:33:32.000Z</time>
      </trkpt>
      <trkpt lat="47.31885" lon="-2.26713">
        <ele>3.4000000953674</ele>
        <time>2019-07-14T08:33:35.000Z</time>
      </trkpt>
      <trkpt lat="47.31894" lon="-2.26706">
        <ele>3.4000000953674</ele>
        <time>2019-07-14T08:33:37.000Z</time>
      </trkpt>
      <trkpt lat="47.31922" lon="-2.26682">
        <ele>3.4000000953674</ele>
        <time>2019-07-14T08:33:44.000Z</time>
      </trkpt>
      <trkpt lat="47.31945" lon="-2.26661">
        <ele>3.4000000953674</ele>
        <time>2019-07-14T08:33:50.000Z</time>
      </trkpt>
      <trkpt lat="47.31973" lon="-2.26639">
        <ele>3.4000000953674</ele>
        <time>2019-07-14T08:33:56.000Z</time>
      </trkpt>
      <trkpt lat="47.32006" lon="-2.26617">
        <ele>3.4000000953674</ele>
        <time>2019-07-14T08:34:03.000Z</time>
      </trkpt>
      <trkpt lat="47.32023" lon="-2.26605">
        <ele>2.7999999523163</ele>
        <time>2019-07-14T08:34:07.000Z</time>
      </trkpt>
      <trkpt lat="47.32027" lon="-2.26602">
        <ele>2.4000000953674</ele>
        <time>2019-07-14T08:34:08.000Z</time>
      </trkpt>
      <trkpt lat="47.32031" lon="-2.266">
        <ele>2</ele>
        <time>2019-07-14T08:34:09.000Z</time>
      </trkpt>
      <trkpt lat="47.32035" lon="-2.26598">
        <ele>1.6000000238419</ele>
        <time>2019-07-14T08:34:10.000Z</time>
      </trkpt>
      <trkpt lat="47.3204" lon="-2.26595">
        <ele>1.2000000476837</ele>
        <time>2019-07-14T08:34:11.000Z</time>
      </trkpt>
      <trkpt lat="47.32055" lon="-2.26587">
        <ele>1.2000000476837</ele>
        <time>2019-07-14T08:34:14.000Z</time>
      </trkpt>
      <trkpt lat="47.32066" lon="-2.26584">
        <ele>1.2000000476837</ele>
        <time>2019-07-14T08:34:16.000Z</time>
      </trkpt>
      <trkpt lat="47.32082" lon="-2.26581">
        <ele>1.2000000476837</ele>
        <time>2019-07-14T08:34:19.000Z</time>
      </trkpt>
      <trkpt lat="47.32093" lon="-2.26582">
        <ele>1.2000000476837</ele>
        <time>2019-07-14T08:34:21.000Z</time>
      </trkpt>
      <trkpt lat="47.32099" lon="-2.26583">
        <ele>1.2000000476837</ele>
        <time>2019-07-14T08:34:22.000Z</time>
      </trkpt>
      <trkpt lat="47.32117" lon="-2.26591">
        <ele>1.2000000476837</ele>
        <time>2019-07-14T08:34:25.000Z</time>
      </trkpt>
      <trkpt lat="47.32141" lon="-2.26601">
        <ele>1.2000000476837</ele>
        <time>2019-07-14T08:34:29.000Z</time>
      </trkpt>
      <trkpt lat="47.32167" lon="-2.26606">
        <ele>1.2000000476837</ele>
        <time>2019-07-14T08:34:33.000Z</time>
      </trkpt>
      <trkpt lat="47.32174" lon="-2.26606">
        <ele>1.2000000476837</ele>
        <time>2019-07-14T08:34:34.000Z</time>
      </trkpt>
      <trkpt lat="47.32179" lon="-2.26606">
        <ele>1.2000000476837</ele>
        <time>2019-07-14T08:34:35.000Z</time>
      </trkpt>
      <trkpt lat="47.32191" lon="-2.26604">
        <ele>1.2000000476837</ele>
        <time>2019-07-14T08:34:37.000Z</time>
      </trkpt>
      <trkpt lat="47.32224" lon="-2.26603">
        <ele>1.2000000476837</ele>
        <time>2019-07-14T08:34:42.000Z</time>
      </trkpt>
      <trkpt lat="47.3223" lon="-2.26602">
        <ele>1.2000000476837</ele>
        <time>2019-07-14T08:34:43.000Z</time>
      </trkpt>
      <trkpt lat="47.32263" lon="-2.26601">
        <ele>1.2000000476837</ele>
        <time>2019-07-14T08:34:48.000Z</time>
      </trkpt>
      <trkpt lat="47.3227" lon="-2.266">
        <ele>1.2000000476837</ele>
        <time>2019-07-14T08:34:49.000Z</time>
      </trkpt>
      <trkpt lat="47.32291" lon="-2.26589">
        <ele>1.2000000476837</ele>
        <time>2019-07-14T08:34:52.000Z</time>
      </trkpt>
      <trkpt lat="47.32306" lon="-2.26572">
        <ele>1.2000000476837</ele>
        <time>2019-07-14T08:34:55.000Z</time>
      </trkpt>
      <trkpt lat="47.3231" lon="-2.26566">
        <ele>1.2000000476837</ele>
        <time>2019-07-14T08:34:56.000Z</time>
      </trkpt>
      <trkpt lat="47.32333" lon="-2.26542">
        <ele>0.80000001192093</ele>
        <time>2019-07-14T08:35:01.000Z</time>
      </trkpt>
      <trkpt lat="47.32337" lon="-2.26539">
        <ele>0.40000000596046</ele>
        <time>2019-07-14T08:35:02.000Z</time>
      </trkpt>
      <trkpt lat="47.32342" lon="-2.26536">
        <ele>2.2</ele>
        <time>2019-07-14T08:35:03.000Z</time>
      </trkpt>
      <trkpt lat="47.32354" lon="-2.26531">
        <ele>-0.80000001192093</ele>
        <time>2019-07-14T08:35:04.000Z</time>
      </trkpt>
      <trkpt lat="47.32371" lon="-2.26525">
        <ele>-0.80000001192093</ele>
        <time>2019-07-14T08:35:08.000Z</time>
      </trkpt>
      <trkpt lat="47.32393" lon="-2.26524">
        <ele>-0.80000001192093</ele>
        <time>2019-07-14T08:35:12.000Z</time>
      </trkpt>
      <trkpt lat="47.32398" lon="-2.26523">
        <ele>-0.80000001192093</ele>
        <time>2019-07-14T08:35:13.000Z</time>
      </trkpt>
      <trkpt lat="47.32419" lon="-2.26516">
        <ele>-0.80000001192093</ele>
        <time>2019-07-14T08:35:18.000Z</time>
      </trkpt>
      <trkpt lat="47.32426" lon="-2.26513">
        <ele>-0.80000001192093</ele>
        <time>2019-07-14T08:35:23.000Z</time>
      </trkpt>
      <trkpt lat="47.32429" lon="-2.26512">
        <ele>-0.80000001192093</ele>
        <time>2019-07-14T08:35:27.000Z</time>
      </trkpt>
      <trkpt lat="47.32428" lon="-2.26518">
        <ele>-0.80000001192093</ele>
        <time>2019-07-14T08:35:33.000Z</time>
      </trkpt>
      <trkpt lat="47.32416" lon="-2.26521">
        <ele>-0.80000001192093</ele>
        <time>2019-07-14T08:35:37.000Z</time>
      </trkpt>
      <trkpt lat="47.3239" lon="-2.26531">
        <ele>-0.80000001192093</ele>
        <time>2019-07-14T08:35:44.000Z</time>
      </trkpt>
      <trkpt lat="47.32383" lon="-2.26549">
        <ele>-0.80000001192093</ele>
        <time>2019-07-14T08:35:47.000Z</time>
      </trkpt>
      <trkpt lat="47.32386" lon="-2.2657">
        <ele>-0.80000001192093</ele>
        <time>2019-07-14T08:35:50.000Z</time>
      </trkpt>
      <trkpt lat="47.32388" lon="-2.26577">
        <ele>-0.80000001192093</ele>
        <time>2019-07-14T08:35:51.000Z</time>
      </trkpt>
      <trkpt lat="47.32402" lon="-2.26626">
        <ele>-0.80000001192093</ele>
        <time>2019-07-14T08:35:58.000Z</time>
      </trkpt>
      <trkpt lat="47.32418" lon="-2.26674">
        <ele>-0.80000001192093</ele>
        <time>2019-07-14T08:36:05.000Z</time>
      </trkpt>
      <trkpt lat="47.32422" lon="-2.26695">
        <ele>-0.80000001192093</ele>
        <time>2019-07-14T08:36:08.000Z</time>
      </trkpt>
      <trkpt lat="47.32423" lon="-2.26703">
        <ele>-0.80000001192093</ele>
        <time>2019-07-14T08:36:09.000Z</time>
      </trkpt>
      <trkpt lat="47.32425" lon="-2.26752">
        <ele>-0.80000001192093</ele>
        <time>2019-07-14T08:36:15.000Z</time>
      </trkpt>
      <trkpt lat="47.32429" lon="-2.26821">
        <ele>-0.80000001192093</ele>
        <time>2019-07-14T08:36:22.000Z</time>
      </trkpt>
      <trkpt lat="47.32439" lon="-2.26894">
        <ele>-0.80000001192093</ele>
        <time>2019-07-14T08:36:29.000Z</time>
      </trkpt>
      <trkpt lat="47.32448" lon="-2.26948">
        <ele>-0.80000001192093</ele>
        <time>2019-07-14T08:36:35.000Z</time>
      </trkpt>
      <trkpt lat="47.32458" lon="-2.26991">
        <ele>-0.80000001192093</ele>
        <time>2019-07-14T08:36:41.000Z</time>
      </trkpt>
      <trkpt lat="47.32457" lon="-2.27006">
        <ele>-0.80000001192093</ele>
        <time>2019-07-14T08:36:44.000Z</time>
      </trkpt>
      <trkpt lat="47.32455" lon="-2.27013">
        <ele>-0.80000001192093</ele>
        <time>2019-07-14T08:36:46.000Z</time>
      </trkpt>
      <trkpt lat="47.32451" lon="-2.2702">
        <ele>-0.80000001192093</ele>
        <time>2019-07-14T08:36:49.000Z</time>
      </trkpt>
      <trkpt lat="47.32448" lon="-2.27022">
        <ele>-0.80000001192093</ele>
        <time>2019-07-14T08:36:50.000Z</time>
      </trkpt>
      <trkpt lat="47.32437" lon="-2.27025">
        <ele>-0.80000001192093</ele>
        <time>2019-07-14T08:36:54.000Z</time>
      </trkpt>
      <trkpt lat="47.32423" lon="-2.27024">
        <ele>-0.80000001192093</ele>
        <time>2019-07-14T08:36:58.000Z</time>
      </trkpt>
      <trkpt lat="47.32403" lon="-2.27022">
        <ele>-0.80000001192093</ele>
        <time>2019-07-14T08:37:04.000Z</time>
      </trkpt>
      <trkpt lat="47.32386" lon="-2.27028">
        <ele>-0.80000001192093</ele>
        <time>2019-07-14T08:37:09.000Z</time>
      </trkpt>
      <trkpt lat="47.32382" lon="-2.27043">
        <ele>-0.80000001192093</ele>
        <time>2019-07-14T08:37:12.000Z</time>
      </trkpt>
      <trkpt lat="47.32382" lon="-2.27051">
        <ele>-0.80000001192093</ele>
        <time>2019-07-14T08:37:13.000Z</time>
      </trkpt>
      <trkpt lat="47.32385" lon="-2.27102">
        <ele>-0.80000001192093</ele>
        <time>2019-07-14T08:37:20.000Z</time>
      </trkpt>
      <trkpt lat="47.32387" lon="-2.27137">
        <ele>-0.80000001192093</ele>
        <time>2019-07-14T08:37:24.000Z</time>
      </trkpt>
      <trkpt lat="47.32386" lon="-2.27146">
        <ele>-0.80000001192093</ele>
        <time>2019-07-14T08:37:25.000Z</time>
      </trkpt>
      <trkpt lat="47.32384" lon="-2.27162">
        <ele>-0.40000000596046</ele>
        <time>2019-07-14T08:37:27.000Z</time>
      </trkpt>
      <trkpt lat="47.32383" lon="-2.2717">
        <ele>5.3</ele>
        <time>2019-07-14T08:37:28.000Z</time>
      </trkpt>
      <trkpt lat="47.32381" lon="-2.27178">
        <ele>0.80000001192093</ele>
        <time>2019-07-14T08:37:29.000Z</time>
      </trkpt>
      <trkpt lat="47.32378" lon="-2.27185">
        <ele>1.2000000476837</ele>
        <time>2019-07-14T08:37:30.000Z</time>
      </trkpt>
      <trkpt lat="47.32365" lon="-2.27223">
        <ele>1.2000000476837</ele>
        <time>2019-07-14T08:37:35.000Z</time>
      </trkpt>
      <trkpt lat="47.3235" lon="-2.27251">
        <ele>1.2000000476837</ele>
        <time>2019-07-14T08:37:39.000Z</time>
      </trkpt>
      <trkpt lat="47.32345" lon="-2.27256">
        <ele>1.2000000476837</ele>
        <time>2019-07-14T08:37:40.000Z</time>
      </trkpt>
      <trkpt lat="47.32315" lon="-2.2728">
        <ele>1.2000000476837</ele>
        <time>2019-07-14T08:37:45.000Z</time>
      </trkpt>
      <trkpt lat="47.32262" lon="-2.27312">
        <ele>1.2000000476837</ele>
        <time>2019-07-14T08:37:53.000Z</time>
      </trkpt>
      <trkpt lat="47.32257" lon="-2.27317">
        <ele>1.2000000476837</ele>
        <time>2019-07-14T08:37:54.000Z</time>
      </trkpt>
      <trkpt lat="47.32249" lon="-2.27339">
        <ele>1.2000000476837</ele>
        <time>2019-07-14T08:37:57.000Z</time>
      </trkpt>
      <trkpt lat="47.32251" lon="-2.27363">
        <ele>1.2000000476837</ele>
        <time>2019-07-14T08:38:00.000Z</time>
      </trkpt>
      <trkpt lat="47.32252" lon="-2.27371">
        <ele>1.2000000476837</ele>
        <time>2019-07-14T08:38:01.000Z</time>
      </trkpt>
      <trkpt lat="47.32252" lon="-2.27421">
        <ele>1.2000000476837</ele>
        <time>2019-07-14T08:38:07.000Z</time>
      </trkpt>
      <trkpt lat="47.32244" lon="-2.27475">
        <ele>1.2000000476837</ele>
        <time>2019-07-14T08:38:14.000Z</time>
      </trkpt>
      <trkpt lat="47.3224" lon="-2.27503">
        <ele>1.2000000476837</ele>
        <time>2019-07-14T08:38:18.000Z</time>
      </trkpt>
      <trkpt lat="47.32237" lon="-2.27509">
        <ele>1.2000000476837</ele>
        <time>2019-07-14T08:38:19.000Z</time>
      </trkpt>
      <trkpt lat="47.32226" lon="-2.27523">
        <ele>1.2000000476837</ele>
        <time>2019-07-14T08:38:22.000Z</time>
      </trkpt>
      <trkpt lat="47.32222" lon="-2.27528">
        <ele>1.2000000476837</ele>
        <time>2019-07-14T08:38:23.000Z</time>
      </trkpt>
      <trkpt lat="47.32206" lon="-2.27545">
        <ele>1.2000000476837</ele>
        <time>2019-07-14T08:38:27.000Z</time>
      </trkpt>
      <trkpt lat="47.322" lon="-2.27556">
        <ele>1.2000000476837</ele>
        <time>2019-07-14T08:38:29.000Z</time>
      </trkpt>
      <trkpt lat="47.32197" lon="-2.27578">
        <ele>1.2000000476837</ele>
        <time>2019-07-14T08:38:32.000Z</time>
      </trkpt>
      <trkpt lat="47.32196" lon="-2.27586">
        <ele>1.2000000476837</ele>
        <time>2019-07-14T08:38:33.000Z</time>
      </trkpt>
      <trkpt lat="47.32193" lon="-2.2762">
        <ele>1.2000000476837</ele>
        <time>2019-07-14T08:38:37.000Z</time>
      </trkpt>
      <trkpt lat="47.32189" lon="-2.27639">
        <ele>1.2000000476837</ele>
        <time>2019-07-14T08:38:39.000Z</time>
      </trkpt>
      <trkpt lat="47.32171" lon="-2.27719">
        <ele>1.2000000476837</ele>
        <time>2019-07-14T08:38:47.000Z</time>
      </trkpt>
      <trkpt lat="47.32158" lon="-2.27781">
        <ele>1.2000000476837</ele>
        <time>2019-07-14T08:38:53.000Z</time>
      </trkpt>
      <trkpt lat="47.32143" lon="-2.27852">
        <ele>1.2000000476837</ele>
        <time>2019-07-14T08:39:00.000Z</time>
      </trkpt>
      <trkpt lat="47.32126" lon="-2.2793">
        <ele>1.2000000476837</ele>
        <time>2019-07-14T08:39:08.000Z</time>
      </trkpt>
      <trkpt lat="47.32123" lon="-2.2794">
        <ele>1.2000000476837</ele>
        <time>2019-07-14T08:39:09.000Z</time>
      </trkpt>
      <trkpt lat="47.32105" lon="-2.28022">
        <ele>1.2000000476837</ele>
        <time>2019-07-14T08:39:17.000Z</time>
      </trkpt>
      <trkpt lat="47.3209" lon="-2.28091">
        <ele>1.2000000476837</ele>
        <time>2019-07-14T08:39:24.000Z</time>
      </trkpt>
      <trkpt lat="47.32079" lon="-2.28137">
        <ele>1.2000000476837</ele>
        <time>2019-07-14T08:39:29.000Z</time>
      </trkpt>
      <trkpt lat="47.32069" lon="-2.28189">
        <ele>1.2000000476837</ele>
        <time>2019-07-14T08:39:34.000Z</time>
      </trkpt>
      <trkpt lat="47.32064" lon="-2.28209">
        <ele>1.2000000476837</ele>
        <time>2019-07-14T08:39:36.000Z</time>
      </trkpt>
      <trkpt lat="47.32057" lon="-2.2824">
        <ele>1.2000000476837</ele>
        <time>2019-07-14T08:39:39.000Z</time>
      </trkpt>
      <trkpt lat="47.3204" lon="-2.28318">
        <ele>1.2000000476837</ele>
        <time>2019-07-14T08:39:47.000Z</time>
      </trkpt>
      <trkpt lat="47.32025" lon="-2.28391">
        <ele>1.6000000238419</ele>
        <time>2019-07-14T08:39:54.000Z</time>
      </trkpt>
      <trkpt lat="47.32022" lon="-2.28401">
        <ele>2</ele>
        <time>2019-07-14T08:39:55.000Z</time>
      </trkpt>
      <trkpt lat="47.3202" lon="-2.28412">
        <ele>2.4000000953674</ele>
        <time>2019-07-14T08:39:56.000Z</time>
      </trkpt>
      <trkpt lat="47.32018" lon="-2.28422">
        <ele>3.4000000953674</ele>
        <time>2019-07-14T08:39:57.000Z</time>
      </trkpt>
      <trkpt lat="47.32004" lon="-2.28484">
        <ele>3.4000000953674</ele>
        <time>2019-07-14T08:40:03.000Z</time>
      </trkpt>
      <trkpt lat="47.31988" lon="-2.28556">
        <ele>3.4000000953674</ele>
        <time>2019-07-14T08:40:10.000Z</time>
      </trkpt>
      <trkpt lat="47.31974" lon="-2.28628">
        <ele>3.4000000953674</ele>
        <time>2019-07-14T08:40:17.000Z</time>
      </trkpt>
      <trkpt lat="47.31969" lon="-2.28648">
        <ele>3</ele>
        <time>2019-07-14T08:40:19.000Z</time>
      </trkpt>
      <trkpt lat="47.31967" lon="-2.28658">
        <ele>2.4000000953674</ele>
        <time>2019-07-14T08:40:20.000Z</time>
      </trkpt>
      <trkpt lat="47.31964" lon="-2.28668">
        <ele>2</ele>
        <time>2019-07-14T08:40:21.000Z</time>
      </trkpt>
      <trkpt lat="47.31962" lon="-2.28679">
        <ele>1.2000000476837</ele>
        <time>2019-07-14T08:40:22.000Z</time>
      </trkpt>
      <trkpt lat="47.31957" lon="-2.287">
        <ele>1.2000000476837</ele>
        <time>2019-07-14T08:40:24.000Z</time>
      </trkpt>
      <trkpt lat="47.31945" lon="-2.28766">
        <ele>1.2000000476837</ele>
        <time>2019-07-14T08:40:30.000Z</time>
      </trkpt>
      <trkpt lat="47.31942" lon="-2.288">
        <ele>1.2000000476837</ele>
        <time>2019-07-14T08:40:33.000Z</time>
      </trkpt>
      <trkpt lat="47.31943" lon="-2.28822">
        <ele>1.2000000476837</ele>
        <time>2019-07-14T08:40:35.000Z</time>
      </trkpt>
      <trkpt lat="47.31949" lon="-2.28883">
        <ele>1.2000000476837</ele>
        <time>2019-07-14T08:40:41.000Z</time>
      </trkpt>
      <trkpt lat="47.31955" lon="-2.28937">
        <ele>1.2000000476837</ele>
        <time>2019-07-14T08:40:47.000Z</time>
      </trkpt>
      <trkpt lat="47.31964" lon="-2.29007">
        <ele>1.2000000476837</ele>
        <time>2019-07-14T08:40:54.000Z</time>
      </trkpt>
      <trkpt lat="47.31971" lon="-2.29073">
        <ele>1.2000000476837</ele>
        <time>2019-07-14T08:41:01.000Z</time>
      </trkpt>
      <trkpt lat="47.31975" lon="-2.2912">
        <ele>1.7999999523163</ele>
        <time>2019-07-14T08:41:06.000Z</time>
      </trkpt>
      <trkpt lat="47.31976" lon="-2.29129">
        <ele>2.2000000476837</ele>
        <time>2019-07-14T08:41:07.000Z</time>
      </trkpt>
      <trkpt lat="47.31978" lon="-2.29139">
        <ele>2.5999999046326</ele>
        <time>2019-07-14T08:41:08.000Z</time>
      </trkpt>
      <trkpt lat="47.31979" lon="-2.29149">
        <ele>3</ele>
        <time>2019-07-14T08:41:09.000Z</time>
      </trkpt>
      <trkpt lat="47.3198" lon="-2.29159">
        <ele>3.4000000953674</ele>
        <time>2019-07-14T08:41:10.000Z</time>
      </trkpt>
      <trkpt lat="47.31983" lon="-2.29177">
        <ele>3.7999999523163</ele>
        <time>2019-07-14T08:41:12.000Z</time>
      </trkpt>
      <trkpt lat="47.31984" lon="-2.29187">
        <ele>4.4000000953674</ele>
        <time>2019-07-14T08:41:13.000Z</time>
      </trkpt>
      <trkpt lat="47.31986" lon="-2.29195">
        <ele>4.8000001907349</ele>
        <time>2019-07-14T08:41:14.000Z</time>
      </trkpt>
      <trkpt lat="47.31988" lon="-2.29204">
        <ele>5.4000000953674</ele>
        <time>2019-07-14T08:41:15.000Z</time>
      </trkpt>
      <trkpt lat="47.3199" lon="-2.29213">
        <ele>5.8000001907349</ele>
        <time>2019-07-14T08:41:16.000Z</time>
      </trkpt>
      <trkpt lat="47.32005" lon="-2.29274">
        <ele>5.8000001907349</ele>
        <time>2019-07-14T08:41:23.000Z</time>
      </trkpt>
      <trkpt lat="47.32017" lon="-2.29325">
        <ele>5.8000001907349</ele>
        <time>2019-07-14T08:41:29.000Z</time>
      </trkpt>
      <trkpt lat="47.3203" lon="-2.29383">
        <ele>5.8000001907349</ele>
        <time>2019-07-14T08:41:36.000Z</time>
      </trkpt>
      <trkpt lat="47.32039" lon="-2.29418">
        <ele>5.8000001907349</ele>
        <time>2019-07-14T08:41:41.000Z</time>
      </trkpt>
      <trkpt lat="47.32045" lon="-2.29424">
        <ele>5.8000001907349</ele>
        <time>2019-07-14T08:41:43.000Z</time>
      </trkpt>
      <trkpt lat="47.32048" lon="-2.29424">
        <ele>5.8000001907349</ele>
        <time>2019-07-14T08:41:44.000Z</time>
      </trkpt>
      <trkpt lat="47.32057" lon="-2.29413">
        <ele>5.8000001907349</ele>
        <time>2019-07-14T08:41:47.000Z</time>
      </trkpt>
      <trkpt lat="47.32073" lon="-2.29392">
        <ele>5.8000001907349</ele>
        <time>2019-07-14T08:41:51.000Z</time>
      </trkpt>
      <trkpt lat="47.32082" lon="-2.29382">
        <ele>5.8000001907349</ele>
        <time>2019-07-14T08:41:53.000Z</time>
      </trkpt>
      <trkpt lat="47.32115" lon="-2.29346">
        <ele>5.8000001907349</ele>
        <time>2019-07-14T08:42:00.000Z</time>
      </trkpt>
      <trkpt lat="47.32149" lon="-2.29306">
        <ele>5.8000001907349</ele>
        <time>2019-07-14T08:42:07.000Z</time>
      </trkpt>
      <trkpt lat="47.32171" lon="-2.29283">
        <ele>5.4000000953674</ele>
        <time>2019-07-14T08:42:11.000Z</time>
      </trkpt>
      <trkpt lat="47.32176" lon="-2.29277">
        <ele>5</ele>
        <time>2019-07-14T08:42:12.000Z</time>
      </trkpt>
      <trkpt lat="47.32181" lon="-2.29271">
        <ele>4.5999999046326</ele>
        <time>2019-07-14T08:42:13.000Z</time>
      </trkpt>
      <trkpt lat="47.32186" lon="-2.29267">
        <ele>4.1999998092651</ele>
        <time>2019-07-14T08:42:14.000Z</time>
      </trkpt>
      <trkpt lat="47.32191" lon="-2.29261">
        <ele>3.7999999523163</ele>
        <time>2019-07-14T08:42:15.000Z</time>
      </trkpt>
      <trkpt lat="47.32214" lon="-2.29241">
        <ele>3.7999999523163</ele>
        <time>2019-07-14T08:42:19.000Z</time>
      </trkpt>
      <trkpt lat="47.32241" lon="-2.29227">
        <ele>3.7999999523163</ele>
        <time>2019-07-14T08:42:23.000Z</time>
      </trkpt>
      <trkpt lat="47.32248" lon="-2.29224">
        <ele>3.7999999523163</ele>
        <time>2019-07-14T08:42:24.000Z</time>
      </trkpt>
      <trkpt lat="47.32299" lon="-2.29209">
        <ele>3.7999999523163</ele>
        <time>2019-07-14T08:42:31.000Z</time>
      </trkpt>
      <trkpt lat="47.32354" lon="-2.29196">
        <ele>3.2000000476837</ele>
        <time>2019-07-14T08:42:38.000Z</time>
      </trkpt>
      <trkpt lat="47.32362" lon="-2.29194">
        <ele>2.7999999523163</ele>
        <time>2019-07-14T08:42:39.000Z</time>
      </trkpt>
      <trkpt lat="47.3237" lon="-2.29192">
        <ele>2.4000000953674</ele>
        <time>2019-07-14T08:42:40.000Z</time>
      </trkpt>
      <trkpt lat="47.32377" lon="-2.29191">
        <ele>2</ele>
        <time>2019-07-14T08:42:41.000Z</time>
      </trkpt>
      <trkpt lat="47.32385" lon="-2.29189">
        <ele>1.6000000238419</ele>
        <time>2019-07-14T08:42:42.000Z</time>
      </trkpt>
      <trkpt lat="47.32415" lon="-2.29181">
        <ele>1.6000000238419</ele>
        <time>2019-07-14T08:42:46.000Z</time>
      </trkpt>
      <trkpt lat="47.32466" lon="-2.29165">
        <ele>1.6000000238419</ele>
        <time>2019-07-14T08:42:53.000Z</time>
      </trkpt>
      <trkpt lat="47.3252" lon="-2.2915">
        <ele>1.6000000238419</ele>
        <time>2019-07-14T08:43:00.000Z</time>
      </trkpt>
      <trkpt lat="47.32573" lon="-2.29135">
        <ele>1.6000000238419</ele>
        <time>2019-07-14T08:43:07.000Z</time>
      </trkpt>
      <trkpt lat="47.32632" lon="-2.29118">
        <ele>1.6000000238419</ele>
        <time>2019-07-14T08:43:15.000Z</time>
      </trkpt>
      <trkpt lat="47.32639" lon="-2.29115">
        <ele>1.6000000238419</ele>
        <time>2019-07-14T08:43:16.000Z</time>
      </trkpt>
      <trkpt lat="47.32688" lon="-2.29103">
        <ele>1.6000000238419</ele>
        <time>2019-07-14T08:43:23.000Z</time>
      </trkpt>
      <trkpt lat="47.32722" lon="-2.29103">
        <ele>1.6000000238419</ele>
        <time>2019-07-14T08:43:28.000Z</time>
      </trkpt>
      <trkpt lat="47.32728" lon="-2.29105">
        <ele>1.6000000238419</ele>
        <time>2019-07-14T08:43:29.000Z</time>
      </trkpt>
      <trkpt lat="47.3275" lon="-2.29115">
        <ele>1.6000000238419</ele>
        <time>2019-07-14T08:43:33.000Z</time>
      </trkpt>
      <trkpt lat="47.32772" lon="-2.2914">
        <ele>1.6000000238419</ele>
        <time>2019-07-14T08:43:38.000Z</time>
      </trkpt>
      <trkpt lat="47.32793" lon="-2.29154">
        <ele>1.6000000238419</ele>
        <time>2019-07-14T08:43:42.000Z</time>
      </trkpt>
      <trkpt lat="47.32804" lon="-2.29159">
        <ele>2</ele>
        <time>2019-07-14T08:43:44.000Z</time>
      </trkpt>
      <trkpt lat="47.32809" lon="-2.29162">
        <ele>2.4000000953674</ele>
        <time>2019-07-14T08:43:45.000Z</time>
      </trkpt>
      <trkpt lat="47.32815" lon="-2.29164">
        <ele>2.7999999523163</ele>
        <time>2019-07-14T08:43:46.000Z</time>
      </trkpt>
      <trkpt lat="47.32821" lon="-2.29165">
        <ele>3.2000000476837</ele>
        <time>2019-07-14T08:43:47.000Z</time>
      </trkpt>
      <trkpt lat="47.32827" lon="-2.29163">
        <ele>3.5999999046326</ele>
        <time>2019-07-14T08:43:48.000Z</time>
      </trkpt>
      <trkpt lat="47.32861" lon="-2.29154">
        <ele>3.5999999046326</ele>
        <time>2019-07-14T08:43:53.000Z</time>
      </trkpt>
      <trkpt lat="47.329" lon="-2.29139">
        <ele>3.5999999046326</ele>
        <time>2019-07-14T08:43:59.000Z</time>
      </trkpt>
      <trkpt lat="47.32914" lon="-2.29133">
        <ele>3.5999999046326</ele>
        <time>2019-07-14T08:44:01.000Z</time>
      </trkpt>
      <trkpt lat="47.32942" lon="-2.29122">
        <ele>4.1999998092651</ele>
        <time>2019-07-14T08:44:05.000Z</time>
      </trkpt>
      <trkpt lat="47.32949" lon="-2.29119">
        <ele>4.5999999046326</ele>
        <time>2019-07-14T08:44:06.000Z</time>
      </trkpt>
      <trkpt lat="47.32956" lon="-2.29117">
        <ele>5</ele>
        <time>2019-07-14T08:44:07.000Z</time>
      </trkpt>
      <trkpt lat="47.32963" lon="-2.29115">
        <ele>5.4000000953674</ele>
        <time>2019-07-14T08:44:08.000Z</time>
      </trkpt>
      <trkpt lat="47.3297" lon="-2.29112">
        <ele>5.8000001907349</ele>
        <time>2019-07-14T08:44:09.000Z</time>
      </trkpt>
      <trkpt lat="47.33011" lon="-2.29096">
        <ele>5.8000001907349</ele>
        <time>2019-07-14T08:44:15.000Z</time>
      </trkpt>
      <trkpt lat="47.33052" lon="-2.29083">
        <ele>6.1999998092651</ele>
        <time>2019-07-14T08:44:21.000Z</time>
      </trkpt>
      <trkpt lat="47.33058" lon="-2.2908">
        <ele>6.5999999046326</ele>
        <time>2019-07-14T08:44:22.000Z</time>
      </trkpt>
      <trkpt lat="47.33064" lon="-2.29078">
        <ele>7</ele>
        <time>2019-07-14T08:44:23.000Z</time>
      </trkpt>
      <trkpt lat="47.3307" lon="-2.29076">
        <ele>7.4000000953674</ele>
        <time>2019-07-14T08:44:24.000Z</time>
      </trkpt>
      <trkpt lat="47.33076" lon="-2.29074">
        <ele>7.8000001907349</ele>
        <time>2019-07-14T08:44:25.000Z</time>
      </trkpt>
      <trkpt lat="47.33098" lon="-2.29065">
        <ele>7.8000001907349</ele>
        <time>2019-07-14T08:44:29.000Z</time>
      </trkpt>
      <trkpt lat="47.33134" lon="-2.29054">
        <ele>7.8000001907349</ele>
        <time>2019-07-14T08:44:35.000Z</time>
      </trkpt>
      <trkpt lat="47.33177" lon="-2.29054">
        <ele>7.8000001907349</ele>
        <time>2019-07-14T08:44:42.000Z</time>
      </trkpt>
      <trkpt lat="47.33214" lon="-2.29065">
        <ele>7.8000001907349</ele>
        <time>2019-07-14T08:44:48.000Z</time>
      </trkpt>
      <trkpt lat="47.33219" lon="-2.29069">
        <ele>7.8000001907349</ele>
        <time>2019-07-14T08:44:49.000Z</time>
      </trkpt>
      <trkpt lat="47.33224" lon="-2.2907">
        <ele>7.4000000953674</ele>
        <time>2019-07-14T08:44:50.000Z</time>
      </trkpt>
      <trkpt lat="47.33229" lon="-2.29069">
        <ele>7</ele>
        <time>2019-07-14T08:44:51.000Z</time>
      </trkpt>
      <trkpt lat="47.33233" lon="-2.29065">
        <ele>6.5999999046326</ele>
        <time>2019-07-14T08:44:52.000Z</time>
      </trkpt>
      <trkpt lat="47.33235" lon="-2.29059">
        <ele>6.1999998092651</ele>
        <time>2019-07-14T08:44:53.000Z</time>
      </trkpt>
      <trkpt lat="47.33237" lon="-2.29052">
        <ele>5.8000001907349</ele>
        <time>2019-07-14T08:44:54.000Z</time>
      </trkpt>
      <trkpt lat="47.33237" lon="-2.29045">
        <ele>5.8000001907349</ele>
        <time>2019-07-14T08:44:55.000Z</time>
      </trkpt>
      <trkpt lat="47.33238" lon="-2.29037">
        <ele>5.8000001907349</ele>
        <time>2019-07-14T08:44:56.000Z</time>
      </trkpt>
      <trkpt lat="47.33239" lon="-2.29021">
        <ele>5.8000001907349</ele>
        <time>2019-07-14T08:44:58.000Z</time>
      </trkpt>
      <trkpt lat="47.3324" lon="-2.28997">
        <ele>5.8000001907349</ele>
        <time>2019-07-14T08:45:01.000Z</time>
      </trkpt>
      <trkpt lat="47.33243" lon="-2.28965">
        <ele>5.8000001907349</ele>
        <time>2019-07-14T08:45:05.000Z</time>
      </trkpt>
      <trkpt lat="47.3325" lon="-2.28951">
        <ele>5.8000001907349</ele>
        <time>2019-07-14T08:45:07.000Z</time>
      </trkpt>
      <trkpt lat="47.33268" lon="-2.28935">
        <ele>5.8000001907349</ele>
        <time>2019-07-14T08:45:11.000Z</time>
      </trkpt>
      <trkpt lat="47.33274" lon="-2.28931">
        <ele>5.8000001907349</ele>
        <time>2019-07-14T08:45:12.000Z</time>
      </trkpt>
      <trkpt lat="47.33307" lon="-2.28911">
        <ele>5.8000001907349</ele>
        <time>2019-07-14T08:45:18.000Z</time>
      </trkpt>
      <trkpt lat="47.33334" lon="-2.28897">
        <ele>5.4000000953674</ele>
        <time>2019-07-14T08:45:23.000Z</time>
      </trkpt>
      <trkpt lat="47.33339" lon="-2.28894">
        <ele>5</ele>
        <time>2019-07-14T08:45:24.000Z</time>
      </trkpt>
      <trkpt lat="47.33345" lon="-2.28891">
        <ele>4.4000000953674</ele>
        <time>2019-07-14T08:45:25.000Z</time>
      </trkpt>
      <trkpt lat="47.3335" lon="-2.28888">
        <ele>4</ele>
        <time>2019-07-14T08:45:26.000Z</time>
      </trkpt>
      <trkpt lat="47.33355" lon="-2.28885">
        <ele>3.5999999046326</ele>
        <time>2019-07-14T08:45:27.000Z</time>
      </trkpt>
      <trkpt lat="47.33374" lon="-2.28875">
        <ele>3.5999999046326</ele>
        <time>2019-07-14T08:45:31.000Z</time>
      </trkpt>
      <trkpt lat="47.33407" lon="-2.28858">
        <ele>3.5999999046326</ele>
        <time>2019-07-14T08:45:38.000Z</time>
      </trkpt>
      <trkpt lat="47.33416" lon="-2.28851">
        <ele>3.5999999046326</ele>
        <time>2019-07-14T08:45:40.000Z</time>
      </trkpt>
      <trkpt lat="47.3342" lon="-2.28846">
        <ele>3.2000000476837</ele>
        <time>2019-07-14T08:45:41.000Z</time>
      </trkpt>
      <trkpt lat="47.33424" lon="-2.28841">
        <ele>2.7999999523163</ele>
        <time>2019-07-14T08:45:42.000Z</time>
      </trkpt>
      <trkpt lat="47.33428" lon="-2.28837">
        <ele>2</ele>
        <time>2019-07-14T08:45:43.000Z</time>
      </trkpt>
      <trkpt lat="47.33432" lon="-2.28832">
        <ele>1.6000000238419</ele>
        <time>2019-07-14T08:45:44.000Z</time>
      </trkpt>
      <trkpt lat="47.33447" lon="-2.28808">
        <ele>1.6000000238419</ele>
        <time>2019-07-14T08:45:48.000Z</time>
      </trkpt>
      <trkpt lat="47.3345" lon="-2.28801">
        <ele>1.6000000238419</ele>
        <time>2019-07-14T08:45:49.000Z</time>
      </trkpt>
      <trkpt lat="47.33469" lon="-2.28759">
        <ele>1.6000000238419</ele>
        <time>2019-07-14T08:45:55.000Z</time>
      </trkpt>
      <trkpt lat="47.33483" lon="-2.28732">
        <ele>1.6000000238419</ele>
        <time>2019-07-14T08:45:59.000Z</time>
      </trkpt>
      <trkpt lat="47.33494" lon="-2.28714">
        <ele>1.6000000238419</ele>
        <time>2019-07-14T08:46:02.000Z</time>
      </trkpt>
      <trkpt lat="47.3351" lon="-2.28694">
        <ele>1.6000000238419</ele>
        <time>2019-07-14T08:46:06.000Z</time>
      </trkpt>
      <trkpt lat="47.3352" lon="-2.28684">
        <ele>1.6000000238419</ele>
        <time>2019-07-14T08:46:08.000Z</time>
      </trkpt>
      <trkpt lat="47.33525" lon="-2.28681">
        <ele>1.6000000238419</ele>
        <time>2019-07-14T08:46:09.000Z</time>
      </trkpt>
      <trkpt lat="47.33543" lon="-2.28675">
        <ele>1.6000000238419</ele>
        <time>2019-07-14T08:46:12.000Z</time>
      </trkpt>
      <trkpt lat="47.33555" lon="-2.2867">
        <ele>1.6000000238419</ele>
        <time>2019-07-14T08:46:14.000Z</time>
      </trkpt>
      <trkpt lat="47.33578" lon="-2.28659">
        <ele>1.6000000238419</ele>
        <time>2019-07-14T08:46:18.000Z</time>
      </trkpt>
      <trkpt lat="47.33617" lon="-2.28639">
        <ele>1.6000000238419</ele>
        <time>2019-07-14T08:46:25.000Z</time>
      </trkpt>
      <trkpt lat="47.33651" lon="-2.28615">
        <ele>1.6000000238419</ele>
        <time>2019-07-14T08:46:31.000Z</time>
      </trkpt>
      <trkpt lat="47.33656" lon="-2.2861">
        <ele>1.6000000238419</ele>
        <time>2019-07-14T08:46:32.000Z</time>
      </trkpt>
      <trkpt lat="47.33665" lon="-2.28598">
        <ele>1.2000000476837</ele>
        <time>2019-07-14T08:46:34.000Z</time>
      </trkpt>
      <trkpt lat="47.3367" lon="-2.28592">
        <ele>0.80000001192093</ele>
        <time>2019-07-14T08:46:35.000Z</time>
      </trkpt>
      <trkpt lat="47.33674" lon="-2.28586">
        <ele>0.40000000596046</ele>
        <time>2019-07-14T08:46:36.000Z</time>
      </trkpt>
      <trkpt lat="47.33678" lon="-2.2858">
        <ele>-0.20000000298023</ele>
        <time>2019-07-14T08:46:37.000Z</time>
      </trkpt>
      <trkpt lat="47.33683" lon="-2.28575">
        <ele>-0.60000002384186</ele>
        <time>2019-07-14T08:46:38.000Z</time>
      </trkpt>
      <trkpt lat="47.33701" lon="-2.28556">
        <ele>-0.60000002384186</ele>
        <time>2019-07-14T08:46:42.000Z</time>
      </trkpt>
      <trkpt lat="47.33731" lon="-2.28528">
        <ele>-0.60000002384186</ele>
        <time>2019-07-14T08:46:48.000Z</time>
      </trkpt>
      <trkpt lat="47.33756" lon="-2.28503">
        <ele>-0.60000002384186</ele>
        <time>2019-07-14T08:46:53.000Z</time>
      </trkpt>
      <trkpt lat="47.33788" lon="-2.28477">
        <ele>-0.60000002384186</ele>
        <time>2019-07-14T08:46:59.000Z</time>
      </trkpt>
      <trkpt lat="47.33802" lon="-2.28467">
        <ele>-0.60000002384186</ele>
        <time>2019-07-14T08:47:02.000Z</time>
      </trkpt>
      <trkpt lat="47.33816" lon="-2.28458">
        <ele>-0.60000002384186</ele>
        <time>2019-07-14T08:47:05.000Z</time>
      </trkpt>
      <trkpt lat="47.33831" lon="-2.28459">
        <ele>-0.60000002384186</ele>
        <time>2019-07-14T08:47:08.000Z</time>
      </trkpt>
      <trkpt lat="47.33835" lon="-2.28463">
        <ele>-0.60000002384186</ele>
        <time>2019-07-14T08:47:09.000Z</time>
      </trkpt>
      <trkpt lat="47.33843" lon="-2.28472">
        <ele>-0.60000002384186</ele>
        <time>2019-07-14T08:47:11.000Z</time>
      </trkpt>
      <trkpt lat="47.33875" lon="-2.2851">
        <ele>-0.60000002384186</ele>
        <time>2019-07-14T08:47:18.000Z</time>
      </trkpt>
      <trkpt lat="47.33908" lon="-2.28552">
        <ele>-0.60000002384186</ele>
        <time>2019-07-14T08:47:26.000Z</time>
      </trkpt>
      <trkpt lat="47.33931" lon="-2.28581">
        <ele>-0.60000002384186</ele>
        <time>2019-07-14T08:47:33.000Z</time>
      </trkpt>
      <trkpt lat="47.33943" lon="-2.28594">
        <ele>-1</ele>
        <time>2019-07-14T08:47:36.000Z</time>
      </trkpt>
      <trkpt lat="47.33946" lon="-2.28599">
        <ele>-1.3999999761581</ele>
        <time>2019-07-14T08:47:37.000Z</time>
      </trkpt>
      <trkpt lat="47.33949" lon="-2.28602">
        <ele>-1.7999999523163</ele>
        <time>2019-07-14T08:47:38.000Z</time>
      </trkpt>
      <trkpt lat="47.33952" lon="-2.28606">
        <ele>-2.2000000476837</ele>
        <time>2019-07-14T08:47:39.000Z</time>
      </trkpt>
      <trkpt lat="47.33955" lon="-2.28609">
        <ele>-2.5999999046326</ele>
        <time>2019-07-14T08:47:40.000Z</time>
      </trkpt>
      <trkpt lat="47.33968" lon="-2.28627">
        <ele>-2.5999999046326</ele>
        <time>2019-07-14T08:47:45.000Z</time>
      </trkpt>
      <trkpt lat="47.33977" lon="-2.28637">
        <ele>-2.5999999046326</ele>
        <time>2019-07-14T08:47:49.000Z</time>
      </trkpt>
      <trkpt lat="47.33991" lon="-2.28637">
        <ele>-2.5999999046326</ele>
        <time>2019-07-14T08:47:54.000Z</time>
      </trkpt>
      <trkpt lat="47.34" lon="-2.28636">
        <ele>-2.5999999046326</ele>
        <time>2019-07-14T08:48:00.000Z</time>
      </trkpt>
      <trkpt lat="47.34005" lon="-2.28632">
        <ele>-2.5999999046326</ele>
        <time>2019-07-14T08:57:44.000Z</time>
      </trkpt>
      <trkpt lat="47.33999" lon="-2.28634">
        <ele>-2.5999999046326</ele>
        <time>2019-07-14T08:57:47.000Z</time>
      </trkpt>
      <trkpt lat="47.33991" lon="-2.28647">
        <ele>-2.5999999046326</ele>
        <time>2019-07-14T08:57:50.000Z</time>
      </trkpt>
      <trkpt lat="47.33986" lon="-2.2866">
        <ele>-2.5999999046326</ele>
        <time>2019-07-14T08:57:52.000Z</time>
      </trkpt>
      <trkpt lat="47.33986" lon="-2.28675">
        <ele>-2.5999999046326</ele>
        <time>2019-07-14T08:57:54.000Z</time>
      </trkpt>
      <trkpt lat="47.33996" lon="-2.28693">
        <ele>-2.5999999046326</ele>
        <time>2019-07-14T08:57:57.000Z</time>
      </trkpt>
      <trkpt lat="47.34" lon="-2.28699">
        <ele>-2.5999999046326</ele>
        <time>2019-07-14T08:57:58.000Z</time>
      </trkpt>
      <trkpt lat="47.34004" lon="-2.28703">
        <ele>-2.5999999046326</ele>
        <time>2019-07-14T08:57:59.000Z</time>
      </trkpt>
      <trkpt lat="47.34014" lon="-2.28707">
        <ele>-2.5999999046326</ele>
        <time>2019-07-14T08:58:01.000Z</time>
      </trkpt>
      <trkpt lat="47.3405" lon="-2.28723">
        <ele>-2.5999999046326</ele>
        <time>2019-07-14T08:58:08.000Z</time>
      </trkpt>
      <trkpt lat="47.34055" lon="-2.28725">
        <ele>-2.5999999046326</ele>
        <time>2019-07-14T08:58:09.000Z</time>
      </trkpt>
      <trkpt lat="47.34083" lon="-2.28737">
        <ele>-2.5999999046326</ele>
        <time>2019-07-14T08:58:15.000Z</time>
      </trkpt>
      <trkpt lat="47.34086" lon="-2.28741">
        <ele>-2.5999999046326</ele>
        <time>2019-07-14T08:58:16.000Z</time>
      </trkpt>
      <trkpt lat="47.34097" lon="-2.28756">
        <ele>-2.5999999046326</ele>
        <time>2019-07-14T08:58:19.000Z</time>
      </trkpt>
      <trkpt lat="47.341" lon="-2.28762">
        <ele>-2.5999999046326</ele>
        <time>2019-07-14T08:58:20.000Z</time>
      </trkpt>
      <trkpt lat="47.34102" lon="-2.28782">
        <ele>-2.5999999046326</ele>
        <time>2019-07-14T08:58:23.000Z</time>
      </trkpt>
      <trkpt lat="47.34101" lon="-2.28797">
        <ele>-2.5999999046326</ele>
        <time>2019-07-14T08:58:25.000Z</time>
      </trkpt>
      <trkpt lat="47.34101" lon="-2.28818">
        <ele>-2.5999999046326</ele>
        <time>2019-07-14T08:58:28.000Z</time>
      </trkpt>
      <trkpt lat="47.34101" lon="-2.28825">
        <ele>-2.5999999046326</ele>
        <time>2019-07-14T08:58:29.000Z</time>
      </trkpt>
      <trkpt lat="47.34102" lon="-2.28868">
        <ele>-2.5999999046326</ele>
        <time>2019-07-14T08:58:35.000Z</time>
      </trkpt>
      <trkpt lat="47.34102" lon="-2.28882">
        <ele>-2.5999999046326</ele>
        <time>2019-07-14T08:58:37.000Z</time>
      </trkpt>
      <trkpt lat="47.34102" lon="-2.28895">
        <ele>-2.5999999046326</ele>
        <time>2019-07-14T08:58:39.000Z</time>
      </trkpt>
      <trkpt lat="47.34101" lon="-2.28901">
        <ele>-2.5999999046326</ele>
        <time>2019-07-14T08:58:40.000Z</time>
      </trkpt>
      <trkpt lat="47.34091" lon="-2.28919">
        <ele>-2.5999999046326</ele>
        <time>2019-07-14T08:58:44.000Z</time>
      </trkpt>
      <trkpt lat="47.34083" lon="-2.28929">
        <ele>-2.5999999046326</ele>
        <time>2019-07-14T08:58:46.000Z</time>
      </trkpt>
      <trkpt lat="47.34071" lon="-2.28937">
        <ele>-2.5999999046326</ele>
        <time>2019-07-14T08:58:48.000Z</time>
      </trkpt>
      <trkpt lat="47.34048" lon="-2.28952">
        <ele>-2.5999999046326</ele>
        <time>2019-07-14T08:58:52.000Z</time>
      </trkpt>
      <trkpt lat="47.34036" lon="-2.28957">
        <ele>-2.5999999046326</ele>
        <time>2019-07-14T08:58:54.000Z</time>
      </trkpt>
      <trkpt lat="47.3403" lon="-2.28959">
        <ele>-2.2000000476837</ele>
        <time>2019-07-14T08:58:55.000Z</time>
      </trkpt>
      <trkpt lat="47.34024" lon="-2.2896">
        <ele>-1.7999999523163</ele>
        <time>2019-07-14T08:58:56.000Z</time>
      </trkpt>
      <trkpt lat="47.34018" lon="-2.28963">
        <ele>-1.3999999761581</ele>
        <time>2019-07-14T08:58:57.000Z</time>
      </trkpt>
      <trkpt lat="47.34013" lon="-2.28966">
        <ele>-1</ele>
        <time>2019-07-14T08:58:58.000Z</time>
      </trkpt>
      <trkpt lat="47.34007" lon="-2.2897">
        <ele>-0.60000002384186</ele>
        <time>2019-07-14T08:58:59.000Z</time>
      </trkpt>
      <trkpt lat="47.34001" lon="-2.28974">
        <ele>-0.60000002384186</ele>
        <time>2019-07-14T08:59:00.000Z</time>
      </trkpt>
      <trkpt lat="47.33968" lon="-2.28998">
        <ele>-0.60000002384186</ele>
        <time>2019-07-14T08:59:06.000Z</time>
      </trkpt>
      <trkpt lat="47.33963" lon="-2.29002">
        <ele>-0.60000002384186</ele>
        <time>2019-07-14T08:59:07.000Z</time>
      </trkpt>
      <trkpt lat="47.33928" lon="-2.29031">
        <ele>-0.60000002384186</ele>
        <time>2019-07-14T08:59:14.000Z</time>
      </trkpt>
      <trkpt lat="47.33893" lon="-2.29058">
        <ele>-0.60000002384186</ele>
        <time>2019-07-14T08:59:21.000Z</time>
      </trkpt>
      <trkpt lat="47.3386" lon="-2.29085">
        <ele>-0.60000002384186</ele>
        <time>2019-07-14T08:59:28.000Z</time>
      </trkpt>
      <trkpt lat="47.33833" lon="-2.29107">
        <ele>-0.60000002384186</ele>
        <time>2019-07-14T08:59:34.000Z</time>
      </trkpt>
      <trkpt lat="47.33829" lon="-2.29113">
        <ele>-0.60000002384186</ele>
        <time>2019-07-14T08:59:35.000Z</time>
      </trkpt>
      <trkpt lat="47.33822" lon="-2.29133">
        <ele>-0.60000002384186</ele>
        <time>2019-07-14T08:59:38.000Z</time>
      </trkpt>
      <trkpt lat="47.33821" lon="-2.29138">
        <ele>-0.60000002384186</ele>
        <time>2019-07-14T08:59:39.000Z</time>
      </trkpt>
      <trkpt lat="47.3382" lon="-2.29145">
        <ele>-0.60000002384186</ele>
        <time>2019-07-14T08:59:40.000Z</time>
      </trkpt>
      <trkpt lat="47.33819" lon="-2.29152">
        <ele>-0.60000002384186</ele>
        <time>2019-07-14T08:59:41.000Z</time>
      </trkpt>
      <trkpt lat="47.33817" lon="-2.29173">
        <ele>-0.60000002384186</ele>
        <time>2019-07-14T08:59:44.000Z</time>
      </trkpt>
      <trkpt lat="47.33813" lon="-2.29202">
        <ele>-0.60000002384186</ele>
        <time>2019-07-14T08:59:48.000Z</time>
      </trkpt>
      <trkpt lat="47.33813" lon="-2.2921">
        <ele>-0.60000002384186</ele>
        <time>2019-07-14T08:59:49.000Z</time>
      </trkpt>
      <trkpt lat="47.33809" lon="-2.29239">
        <ele>-0.60000002384186</ele>
        <time>2019-07-14T08:59:53.000Z</time>
      </trkpt>
      <trkpt lat="47.33807" lon="-2.29247">
        <ele>-0.60000002384186</ele>
        <time>2019-07-14T08:59:54.000Z</time>
      </trkpt>
      <trkpt lat="47.33803" lon="-2.29262">
        <ele>-0.60000002384186</ele>
        <time>2019-07-14T08:59:56.000Z</time>
      </trkpt>
      <trkpt lat="47.33799" lon="-2.2927">
        <ele>-0.60000002384186</ele>
        <time>2019-07-14T08:59:57.000Z</time>
      </trkpt>
      <trkpt lat="47.3379" lon="-2.29279">
        <ele>-0.60000002384186</ele>
        <time>2019-07-14T08:59:59.000Z</time>
      </trkpt>
      <trkpt lat="47.3378" lon="-2.29285">
        <ele>-0.60000002384186</ele>
        <time>2019-07-14T09:00:01.000Z</time>
      </trkpt>
      <trkpt lat="47.33762" lon="-2.29295">
        <ele>-0.60000002384186</ele>
        <time>2019-07-14T09:00:04.000Z</time>
      </trkpt>
      <trkpt lat="47.33751" lon="-2.29298">
        <ele>-0.60000002384186</ele>
        <time>2019-07-14T09:00:06.000Z</time>
      </trkpt>
      <trkpt lat="47.33717" lon="-2.29315">
        <ele>-0.60000002384186</ele>
        <time>2019-07-14T09:00:12.000Z</time>
      </trkpt>
      <trkpt lat="47.33683" lon="-2.29333">
        <ele>-0.60000002384186</ele>
        <time>2019-07-14T09:00:18.000Z</time>
      </trkpt>
      <trkpt lat="47.33677" lon="-2.29336">
        <ele>-0.20000000298023</ele>
        <time>2019-07-14T09:00:19.000Z</time>
      </trkpt>
      <trkpt lat="47.33671" lon="-2.2934">
        <ele>0.20000000298023</ele>
        <time>2019-07-14T09:00:20.000Z</time>
      </trkpt>
      <trkpt lat="47.33665" lon="-2.29344">
        <ele>0.60000002384186</ele>
        <time>2019-07-14T09:00:21.000Z</time>
      </trkpt>
      <trkpt lat="47.33659" lon="-2.29347">
        <ele>1</ele>
        <time>2019-07-14T09:00:22.000Z</time>
      </trkpt>
      <trkpt lat="47.33654" lon="-2.2935">
        <ele>1.3999999761581</ele>
        <time>2019-07-14T09:00:23.000Z</time>
      </trkpt>
      <trkpt lat="47.33644" lon="-2.29355">
        <ele>1.3999999761581</ele>
        <time>2019-07-14T09:00:25.000Z</time>
      </trkpt>
      <trkpt lat="47.33608" lon="-2.29375">
        <ele>1.3999999761581</ele>
        <time>2019-07-14T09:00:31.000Z</time>
      </trkpt>
      <trkpt lat="47.33563" lon="-2.29398">
        <ele>1.3999999761581</ele>
        <time>2019-07-14T09:00:38.000Z</time>
      </trkpt>
      <trkpt lat="47.33526" lon="-2.29422">
        <ele>1.3999999761581</ele>
        <time>2019-07-14T09:00:44.000Z</time>
      </trkpt>
      <trkpt lat="47.33476" lon="-2.29456">
        <ele>1.3999999761581</ele>
        <time>2019-07-14T09:00:52.000Z</time>
      </trkpt>
      <trkpt lat="47.33432" lon="-2.29485">
        <ele>1.3999999761581</ele>
        <time>2019-07-14T09:00:59.000Z</time>
      </trkpt>
      <trkpt lat="47.33397" lon="-2.29507">
        <ele>1.3999999761581</ele>
        <time>2019-07-14T09:01:05.000Z</time>
      </trkpt>
      <trkpt lat="47.33386" lon="-2.29513">
        <ele>1.3999999761581</ele>
        <time>2019-07-14T09:01:07.000Z</time>
      </trkpt>
      <trkpt lat="47.33372" lon="-2.2952">
        <ele>1.3999999761581</ele>
        <time>2019-07-14T09:01:10.000Z</time>
      </trkpt>
      <trkpt lat="47.3335" lon="-2.29528">
        <ele>1.3999999761581</ele>
        <time>2019-07-14T09:01:14.000Z</time>
      </trkpt>
      <trkpt lat="47.33339" lon="-2.29532">
        <ele>1.3999999761581</ele>
        <time>2019-07-14T09:01:16.000Z</time>
      </trkpt>
      <trkpt lat="47.33305" lon="-2.2955">
        <ele>2</ele>
        <time>2019-07-14T09:01:22.000Z</time>
      </trkpt>
      <trkpt lat="47.33299" lon="-2.29554">
        <ele>2.4000000953674</ele>
        <time>2019-07-14T09:01:23.000Z</time>
      </trkpt>
      <trkpt lat="47.33294" lon="-2.29557">
        <ele>2.7999999523163</ele>
        <time>2019-07-14T09:01:24.000Z</time>
      </trkpt>
      <trkpt lat="47.33288" lon="-2.29561">
        <ele>3.2000000476837</ele>
        <time>2019-07-14T09:01:25.000Z</time>
      </trkpt>
      <trkpt lat="47.33282" lon="-2.29564">
        <ele>3.5999999046326</ele>
        <time>2019-07-14T09:01:26.000Z</time>
      </trkpt>
      <trkpt lat="47.3327" lon="-2.29571">
        <ele>3.5999999046326</ele>
        <time>2019-07-14T09:01:28.000Z</time>
      </trkpt>
      <trkpt lat="47.33248" lon="-2.29589">
        <ele>3.5999999046326</ele>
        <time>2019-07-14T09:01:32.000Z</time>
      </trkpt>
      <trkpt lat="47.33244" lon="-2.29596">
        <ele>3.5999999046326</ele>
        <time>2019-07-14T09:01:33.000Z</time>
      </trkpt>
      <trkpt lat="47.33234" lon="-2.29621">
        <ele>3.5999999046326</ele>
        <time>2019-07-14T09:01:36.000Z</time>
      </trkpt>
      <trkpt lat="47.33231" lon="-2.29629">
        <ele>3.5999999046326</ele>
        <time>2019-07-14T09:01:37.000Z</time>
      </trkpt>
      <trkpt lat="47.33227" lon="-2.29636">
        <ele>3.5999999046326</ele>
        <time>2019-07-14T09:01:38.000Z</time>
      </trkpt>
      <trkpt lat="47.33213" lon="-2.29653">
        <ele>3.5999999046326</ele>
        <time>2019-07-14T09:01:41.000Z</time>
      </trkpt>
      <trkpt lat="47.33186" lon="-2.29679">
        <ele>3.5999999046326</ele>
        <time>2019-07-14T09:01:46.000Z</time>
      </trkpt>
      <trkpt lat="47.33179" lon="-2.29682">
        <ele>3.5999999046326</ele>
        <time>2019-07-14T09:01:47.000Z</time>
      </trkpt>
      <trkpt lat="47.3316" lon="-2.29687">
        <ele>3.5999999046326</ele>
        <time>2019-07-14T09:01:50.000Z</time>
      </trkpt>
      <trkpt lat="47.3312" lon="-2.29699">
        <ele>3.5999999046326</ele>
        <time>2019-07-14T09:01:56.000Z</time>
      </trkpt>
      <trkpt lat="47.331" lon="-2.29703">
        <ele>3.5999999046326</ele>
        <time>2019-07-14T09:01:59.000Z</time>
      </trkpt>
      <trkpt lat="47.33067" lon="-2.2971">
        <ele>4</ele>
        <time>2019-07-14T09:02:04.000Z</time>
      </trkpt>
      <trkpt lat="47.3306" lon="-2.29711">
        <ele>4.4000000953674</ele>
        <time>2019-07-14T09:02:05.000Z</time>
      </trkpt>
      <trkpt lat="47.33053" lon="-2.29712">
        <ele>4.8000001907349</ele>
        <time>2019-07-14T09:02:06.000Z</time>
      </trkpt>
      <trkpt lat="47.33047" lon="-2.29713">
        <ele>5.1999998092651</ele>
        <time>2019-07-14T09:02:07.000Z</time>
      </trkpt>
      <trkpt lat="47.33041" lon="-2.29715">
        <ele>5.5999999046326</ele>
        <time>2019-07-14T09:02:08.000Z</time>
      </trkpt>
      <trkpt lat="47.33024" lon="-2.29718">
        <ele>5.5999999046326</ele>
        <time>2019-07-14T09:02:11.000Z</time>
      </trkpt>
      <trkpt lat="47.33015" lon="-2.29723">
        <ele>5.5999999046326</ele>
        <time>2019-07-14T09:02:14.000Z</time>
      </trkpt>
      <trkpt lat="47.33006" lon="-2.29725">
        <ele>5.5999999046326</ele>
        <time>2019-07-14T09:02:16.000Z</time>
      </trkpt>
      <trkpt lat="47.32996" lon="-2.29726">
        <ele>5.5999999046326</ele>
        <time>2019-07-14T09:02:18.000Z</time>
      </trkpt>
      <trkpt lat="47.3297" lon="-2.29726">
        <ele>5.5999999046326</ele>
        <time>2019-07-14T09:02:23.000Z</time>
      </trkpt>
      <trkpt lat="47.32935" lon="-2.29726">
        <ele>6</ele>
        <time>2019-07-14T09:02:29.000Z</time>
      </trkpt>
      <trkpt lat="47.3293" lon="-2.29726">
        <ele>6.5999999046326</ele>
        <time>2019-07-14T09:02:30.000Z</time>
      </trkpt>
      <trkpt lat="47.32924" lon="-2.29726">
        <ele>7</ele>
        <time>2019-07-14T09:02:31.000Z</time>
      </trkpt>
      <trkpt lat="47.32918" lon="-2.29727">
        <ele>7.4000000953674</ele>
        <time>2019-07-14T09:02:32.000Z</time>
      </trkpt>
      <trkpt lat="47.32913" lon="-2.29727">
        <ele>7.8000001907349</ele>
        <time>2019-07-14T09:02:33.000Z</time>
      </trkpt>
      <trkpt lat="47.32884" lon="-2.29729">
        <ele>7.8000001907349</ele>
        <time>2019-07-14T09:02:38.000Z</time>
      </trkpt>
      <trkpt lat="47.3284" lon="-2.29732">
        <ele>8.1999998092651</ele>
        <time>2019-07-14T09:02:45.000Z</time>
      </trkpt>
      <trkpt lat="47.32834" lon="-2.29733">
        <ele>8.6000003814697</ele>
        <time>2019-07-14T09:02:46.000Z</time>
      </trkpt>
      <trkpt lat="47.32829" lon="-2.29736">
        <ele>9</ele>
        <time>2019-07-14T09:02:47.000Z</time>
      </trkpt>
      <trkpt lat="47.32823" lon="-2.29739">
        <ele>9.3999996185303</ele>
        <time>2019-07-14T09:02:48.000Z</time>
      </trkpt>
      <trkpt lat="47.32817" lon="-2.29742">
        <ele>9.8000001907349</ele>
        <time>2019-07-14T09:02:49.000Z</time>
      </trkpt>
      <trkpt lat="47.32812" lon="-2.29746">
        <ele>9.8000001907349</ele>
        <time>2019-07-14T09:02:50.000Z</time>
      </trkpt>
      <trkpt lat="47.32807" lon="-2.29751">
        <ele>9.8000001907349</ele>
        <time>2019-07-14T09:02:51.000Z</time>
      </trkpt>
      <trkpt lat="47.32787" lon="-2.29771">
        <ele>9.8000001907349</ele>
        <time>2019-07-14T09:02:55.000Z</time>
      </trkpt>
      <trkpt lat="47.32759" lon="-2.29802">
        <ele>10.199999809265</ele>
        <time>2019-07-14T09:03:01.000Z</time>
      </trkpt>
      <trkpt lat="47.32754" lon="-2.29807">
        <ele>10.60000038147</ele>
        <time>2019-07-14T09:03:02.000Z</time>
      </trkpt>
      <trkpt lat="47.32749" lon="-2.29812">
        <ele>11</ele>
        <time>2019-07-14T09:03:03.000Z</time>
      </trkpt>
      <trkpt lat="47.32744" lon="-2.29817">
        <ele>11.39999961853</ele>
        <time>2019-07-14T09:03:04.000Z</time>
      </trkpt>
      <trkpt lat="47.32739" lon="-2.29822">
        <ele>11.800000190735</ele>
        <time>2019-07-14T09:03:05.000Z</time>
      </trkpt>
      <trkpt lat="47.32733" lon="-2.29825">
        <ele>11.800000190735</ele>
        <time>2019-07-14T09:03:06.000Z</time>
      </trkpt>
      <trkpt lat="47.32728" lon="-2.29829">
        <ele>11.800000190735</ele>
        <time>2019-07-14T09:03:07.000Z</time>
      </trkpt>
      <trkpt lat="47.32695" lon="-2.29847">
        <ele>11.800000190735</ele>
        <time>2019-07-14T09:03:13.000Z</time>
      </trkpt>
      <trkpt lat="47.32682" lon="-2.29852">
        <ele>11.800000190735</ele>
        <time>2019-07-14T09:03:15.000Z</time>
      </trkpt>
      <trkpt lat="47.32664" lon="-2.29856">
        <ele>12.199999809265</ele>
        <time>2019-07-14T09:03:18.000Z</time>
      </trkpt>
      <trkpt lat="47.32658" lon="-2.29857">
        <ele>12.800000190735</ele>
        <time>2019-07-14T09:03:19.000Z</time>
      </trkpt>
      <trkpt lat="47.32653" lon="-2.29859">
        <ele>13.199999809265</ele>
        <time>2019-07-14T09:03:20.000Z</time>
      </trkpt>
      <trkpt lat="47.32647" lon="-2.29861">
        <ele>13.60000038147</ele>
        <time>2019-07-14T09:03:21.000Z</time>
      </trkpt>
      <trkpt lat="47.32641" lon="-2.29863">
        <ele>14</ele>
        <time>2019-07-14T09:03:22.000Z</time>
      </trkpt>
      <trkpt lat="47.3262" lon="-2.29874">
        <ele>14</ele>
        <time>2019-07-14T09:03:26.000Z</time>
      </trkpt>
      <trkpt lat="47.32584" lon="-2.29888">
        <ele>14</ele>
        <time>2019-07-14T09:03:32.000Z</time>
      </trkpt>
      <trkpt lat="47.32554" lon="-2.29894">
        <ele>14</ele>
        <time>2019-07-14T09:03:37.000Z</time>
      </trkpt>
      <trkpt lat="47.32548" lon="-2.29896">
        <ele>14</ele>
        <time>2019-07-14T09:03:38.000Z</time>
      </trkpt>
      <trkpt lat="47.32517" lon="-2.29907">
        <ele>14</ele>
        <time>2019-07-14T09:03:43.000Z</time>
      </trkpt>
      <trkpt lat="47.32473" lon="-2.29925">
        <ele>14</ele>
        <time>2019-07-14T09:03:50.000Z</time>
      </trkpt>
      <trkpt lat="47.32435" lon="-2.29951">
        <ele>14</ele>
        <time>2019-07-14T09:03:57.000Z</time>
      </trkpt>
      <trkpt lat="47.32434" lon="-2.29954">
        <ele>14</ele>
        <time>2019-07-14T09:03:59.000Z</time>
      </trkpt>
      <trkpt lat="47.3244" lon="-2.29956">
        <ele>14</ele>
        <time>2019-07-14T09:04:03.000Z</time>
      </trkpt>
      <trkpt lat="47.32446" lon="-2.29964">
        <ele>14</ele>
        <time>2019-07-14T09:04:06.000Z</time>
      </trkpt>
      <trkpt lat="47.32449" lon="-2.29969">
        <ele>14</ele>
        <time>2019-07-14T09:04:07.000Z</time>
      </trkpt>
      <trkpt lat="47.32467" lon="-2.29996">
        <ele>14</ele>
        <time>2019-07-14T09:04:13.000Z</time>
      </trkpt>
      <trkpt lat="47.32472" lon="-2.30008">
        <ele>14</ele>
        <time>2019-07-14T09:04:15.000Z</time>
      </trkpt>
      <trkpt lat="47.32479" lon="-2.30026">
        <ele>14</ele>
        <time>2019-07-14T09:04:18.000Z</time>
      </trkpt>
      <trkpt lat="47.32491" lon="-2.30071">
        <ele>14</ele>
        <time>2019-07-14T09:04:25.000Z</time>
      </trkpt>
      <trkpt lat="47.32493" lon="-2.30094">
        <ele>14</ele>
        <time>2019-07-14T09:04:28.000Z</time>
      </trkpt>
      <trkpt lat="47.32496" lon="-2.30119">
        <ele>14</ele>
        <time>2019-07-14T09:04:31.000Z</time>
      </trkpt>
      <trkpt lat="47.32507" lon="-2.30181">
        <ele>14</ele>
        <time>2019-07-14T09:04:38.000Z</time>
      </trkpt>
      <trkpt lat="47.32509" lon="-2.30199">
        <ele>14</ele>
        <time>2019-07-14T09:04:40.000Z</time>
      </trkpt>
      <trkpt lat="47.32513" lon="-2.30226">
        <ele>14</ele>
        <time>2019-07-14T09:04:43.000Z</time>
      </trkpt>
      <trkpt lat="47.32518" lon="-2.30264">
        <ele>14</ele>
        <time>2019-07-14T09:04:47.000Z</time>
      </trkpt>
      <trkpt lat="47.32519" lon="-2.30273">
        <ele>14</ele>
        <time>2019-07-14T09:04:48.000Z</time>
      </trkpt>
      <trkpt lat="47.32524" lon="-2.303">
        <ele>14</ele>
        <time>2019-07-14T09:04:51.000Z</time>
      </trkpt>
      <trkpt lat="47.3253" lon="-2.30327">
        <ele>14</ele>
        <time>2019-07-14T09:04:54.000Z</time>
      </trkpt>
      <trkpt lat="47.32532" lon="-2.30335">
        <ele>14</ele>
        <time>2019-07-14T09:04:55.000Z</time>
      </trkpt>
      <trkpt lat="47.32533" lon="-2.30343">
        <ele>14</ele>
        <time>2019-07-14T09:04:56.000Z</time>
      </trkpt>
      <trkpt lat="47.32538" lon="-2.30366">
        <ele>14</ele>
        <time>2019-07-14T09:04:59.000Z</time>
      </trkpt>
      <trkpt lat="47.32539" lon="-2.30373">
        <ele>13.60000038147</ele>
        <time>2019-07-14T09:05:00.000Z</time>
      </trkpt>
      <trkpt lat="47.3254" lon="-2.30381">
        <ele>13.199999809265</ele>
        <time>2019-07-14T09:05:01.000Z</time>
      </trkpt>
      <trkpt lat="47.32542" lon="-2.30389">
        <ele>12.800000190735</ele>
        <time>2019-07-14T09:05:02.000Z</time>
      </trkpt>
      <trkpt lat="47.32542" lon="-2.30396">
        <ele>11.800000190735</ele>
        <time>2019-07-14T09:05:03.000Z</time>
      </trkpt>
      <trkpt lat="47.32534" lon="-2.30405">
        <ele>11.800000190735</ele>
        <time>2019-07-14T09:05:05.000Z</time>
      </trkpt>
      <trkpt lat="47.32519" lon="-2.30411">
        <ele>11.800000190735</ele>
        <time>2019-07-14T09:05:08.000Z</time>
      </trkpt>
      <trkpt lat="47.32499" lon="-2.30422">
        <ele>11.800000190735</ele>
        <time>2019-07-14T09:05:12.000Z</time>
      </trkpt>
      <trkpt lat="47.32498" lon="-2.3043">
        <ele>11.800000190735</ele>
        <time>2019-07-14T09:05:13.000Z</time>
      </trkpt>
      <trkpt lat="47.32502" lon="-2.30446">
        <ele>11.800000190735</ele>
        <time>2019-07-14T09:05:15.000Z</time>
      </trkpt>
      <trkpt lat="47.32504" lon="-2.30455">
        <ele>11.800000190735</ele>
        <time>2019-07-14T09:05:16.000Z</time>
      </trkpt>
      <trkpt lat="47.32515" lon="-2.30511">
        <ele>11.800000190735</ele>
        <time>2019-07-14T09:05:22.000Z</time>
      </trkpt>
      <trkpt lat="47.3252" lon="-2.3054">
        <ele>11.39999961853</ele>
        <time>2019-07-14T09:05:25.000Z</time>
      </trkpt>
      <trkpt lat="47.32522" lon="-2.30549">
        <ele>11</ele>
        <time>2019-07-14T09:05:26.000Z</time>
      </trkpt>
      <trkpt lat="47.32523" lon="-2.30559">
        <ele>10.60000038147</ele>
        <time>2019-07-14T09:05:27.000Z</time>
      </trkpt>
      <trkpt lat="47.32525" lon="-2.30569">
        <ele>9.8000001907349</ele>
        <time>2019-07-14T09:05:28.000Z</time>
      </trkpt>
      <trkpt lat="47.32537" lon="-2.30637">
        <ele>9.8000001907349</ele>
        <time>2019-07-14T09:05:35.000Z</time>
      </trkpt>
      <trkpt lat="47.32539" lon="-2.30646">
        <ele>9.8000001907349</ele>
        <time>2019-07-14T09:05:36.000Z</time>
      </trkpt>
      <trkpt lat="47.32543" lon="-2.30664">
        <ele>9.8000001907349</ele>
        <time>2019-07-14T09:05:38.000Z</time>
      </trkpt>
      <trkpt lat="47.32545" lon="-2.30674">
        <ele>9.8000001907349</ele>
        <time>2019-07-14T09:05:39.000Z</time>
      </trkpt>
      <trkpt lat="47.32549" lon="-2.30713">
        <ele>9.8000001907349</ele>
        <time>2019-07-14T09:05:43.000Z</time>
      </trkpt>
      <trkpt lat="47.32551" lon="-2.30723">
        <ele>9.8000001907349</ele>
        <time>2019-07-14T09:05:44.000Z</time>
      </trkpt>
      <trkpt lat="47.3256" lon="-2.30771">
        <ele>9.8000001907349</ele>
        <time>2019-07-14T09:05:49.000Z</time>
      </trkpt>
      <trkpt lat="47.32562" lon="-2.3078">
        <ele>9.8000001907349</ele>
        <time>2019-07-14T09:05:50.000Z</time>
      </trkpt>
      <trkpt lat="47.32568" lon="-2.30817">
        <ele>9.8000001907349</ele>
        <time>2019-07-14T09:05:54.000Z</time>
      </trkpt>
      <trkpt lat="47.32568" lon="-2.30827">
        <ele>9.8000001907349</ele>
        <time>2019-07-14T09:05:55.000Z</time>
      </trkpt>
      <trkpt lat="47.32569" lon="-2.30888">
        <ele>9.8000001907349</ele>
        <time>2019-07-14T09:06:02.000Z</time>
      </trkpt>
      <trkpt lat="47.32568" lon="-2.30918">
        <ele>9.8000001907349</ele>
        <time>2019-07-14T09:06:07.000Z</time>
      </trkpt>
      <trkpt lat="47.32567" lon="-2.3093">
        <ele>9.8000001907349</ele>
        <time>2019-07-14T09:06:11.000Z</time>
      </trkpt>
      <trkpt lat="47.32568" lon="-2.30943">
        <ele>9.8000001907349</ele>
        <time>2019-07-14T09:06:16.000Z</time>
      </trkpt>
      <trkpt lat="47.32567" lon="-2.30966">
        <ele>9.8000001907349</ele>
        <time>2019-07-14T09:06:23.000Z</time>
      </trkpt>
      <trkpt lat="47.32566" lon="-2.30989">
        <ele>9.8000001907349</ele>
        <time>2019-07-14T09:06:28.000Z</time>
      </trkpt>
      <trkpt lat="47.32569" lon="-2.31016">
        <ele>9.8000001907349</ele>
        <time>2019-07-14T09:06:35.000Z</time>
      </trkpt>
      <trkpt lat="47.32574" lon="-2.31036">
        <ele>9.8000001907349</ele>
        <time>2019-07-14T09:06:41.000Z</time>
      </trkpt>
      <trkpt lat="47.32579" lon="-2.31066">
        <ele>9.8000001907349</ele>
        <time>2019-07-14T09:06:47.000Z</time>
      </trkpt>
      <trkpt lat="47.32579" lon="-2.31094">
        <ele>9.8000001907349</ele>
        <time>2019-07-14T09:06:52.000Z</time>
      </trkpt>
      <trkpt lat="47.32577" lon="-2.31107">
        <ele>9.3999996185303</ele>
        <time>2019-07-14T09:06:54.000Z</time>
      </trkpt>
      <trkpt lat="47.32577" lon="-2.31112">
        <ele>9</ele>
        <time>2019-07-14T09:06:55.000Z</time>
      </trkpt>
      <trkpt lat="47.32577" lon="-2.31118">
        <ele>8.6000003814697</ele>
        <time>2019-07-14T09:06:56.000Z</time>
      </trkpt>
      <trkpt lat="47.32576" lon="-2.31125">
        <ele>8.1999998092651</ele>
        <time>2019-07-14T09:06:57.000Z</time>
      </trkpt>
      <trkpt lat="47.32575" lon="-2.3113">
        <ele>7.8000001907349</ele>
        <time>2019-07-14T09:06:58.000Z</time>
      </trkpt>
      <trkpt lat="47.32573" lon="-2.31142">
        <ele>7.8000001907349</ele>
        <time>2019-07-14T09:07:00.000Z</time>
      </trkpt>
      <trkpt lat="47.32566" lon="-2.31178">
        <ele>7.8000001907349</ele>
        <time>2019-07-14T09:07:06.000Z</time>
      </trkpt>
      <trkpt lat="47.32574" lon="-2.31203">
        <ele>7.8000001907349</ele>
        <time>2019-07-14T09:07:10.000Z</time>
      </trkpt>
      <trkpt lat="47.32579" lon="-2.31234">
        <ele>7.8000001907349</ele>
        <time>2019-07-14T09:07:14.000Z</time>
      </trkpt>
      <trkpt lat="47.32577" lon="-2.31251">
        <ele>7.8000001907349</ele>
        <time>2019-07-14T09:07:16.000Z</time>
      </trkpt>
      <trkpt lat="47.32576" lon="-2.31267">
        <ele>7.8000001907349</ele>
        <time>2019-07-14T09:07:18.000Z</time>
      </trkpt>
      <trkpt lat="47.32574" lon="-2.31292">
        <ele>7.8000001907349</ele>
        <time>2019-07-14T09:07:22.000Z</time>
      </trkpt>
      <trkpt lat="47.32562" lon="-2.31325">
        <ele>7.8000001907349</ele>
        <time>2019-07-14T09:07:27.000Z</time>
      </trkpt>
      <trkpt lat="47.3256" lon="-2.31332">
        <ele>7.8000001907349</ele>
        <time>2019-07-14T09:07:28.000Z</time>
      </trkpt>
      <trkpt lat="47.32556" lon="-2.31357">
        <ele>7.8000001907349</ele>
        <time>2019-07-14T09:07:31.000Z</time>
      </trkpt>
      <trkpt lat="47.32556" lon="-2.31365">
        <ele>7.8000001907349</ele>
        <time>2019-07-14T09:07:32.000Z</time>
      </trkpt>
      <trkpt lat="47.32553" lon="-2.31397">
        <ele>7.8000001907349</ele>
        <time>2019-07-14T09:07:37.000Z</time>
      </trkpt>
      <trkpt lat="47.32554" lon="-2.3142">
        <ele>7.8000001907349</ele>
        <time>2019-07-14T09:07:41.000Z</time>
      </trkpt>
      <trkpt lat="47.32556" lon="-2.31428">
        <ele>7.8000001907349</ele>
        <time>2019-07-14T09:07:42.000Z</time>
      </trkpt>
      <trkpt lat="47.32563" lon="-2.31469">
        <ele>7.8000001907349</ele>
        <time>2019-07-14T09:07:48.000Z</time>
      </trkpt>
      <trkpt lat="47.32562" lon="-2.31508">
        <ele>7.8000001907349</ele>
        <time>2019-07-14T09:07:53.000Z</time>
      </trkpt>
      <trkpt lat="47.32562" lon="-2.31565">
        <ele>7.8000001907349</ele>
        <time>2019-07-14T09:08:00.000Z</time>
      </trkpt>
      <trkpt lat="47.32556" lon="-2.31585">
        <ele>7.8000001907349</ele>
        <time>2019-07-14T09:08:03.000Z</time>
      </trkpt>
      <trkpt lat="47.32543" lon="-2.31604">
        <ele>7.8000001907349</ele>
        <time>2019-07-14T09:08:06.000Z</time>
      </trkpt>
      <trkpt lat="47.32538" lon="-2.31611">
        <ele>7.8000001907349</ele>
        <time>2019-07-14T09:08:07.000Z</time>
      </trkpt>
      <trkpt lat="47.32524" lon="-2.31631">
        <ele>7.8000001907349</ele>
        <time>2019-07-14T09:08:10.000Z</time>
      </trkpt>
      <trkpt lat="47.32517" lon="-2.31644">
        <ele>7.8000001907349</ele>
        <time>2019-07-14T09:08:12.000Z</time>
      </trkpt>
      <trkpt lat="47.32512" lon="-2.31668">
        <ele>7.8000001907349</ele>
        <time>2019-07-14T09:08:15.000Z</time>
      </trkpt>
      <trkpt lat="47.32512" lon="-2.31686">
        <ele>7.8000001907349</ele>
        <time>2019-07-14T09:08:17.000Z</time>
      </trkpt>
      <trkpt lat="47.32514" lon="-2.31722">
        <ele>7.8000001907349</ele>
        <time>2019-07-14T09:08:21.000Z</time>
      </trkpt>
      <trkpt lat="47.32518" lon="-2.31778">
        <ele>7.8000001907349</ele>
        <time>2019-07-14T09:08:27.000Z</time>
      </trkpt>
      <trkpt lat="47.32522" lon="-2.31832">
        <ele>7.8000001907349</ele>
        <time>2019-07-14T09:08:33.000Z</time>
      </trkpt>
      <trkpt lat="47.32523" lon="-2.31852">
        <ele>7.8000001907349</ele>
        <time>2019-07-14T09:08:35.000Z</time>
      </trkpt>
      <trkpt lat="47.3252" lon="-2.31882">
        <ele>7.8000001907349</ele>
        <time>2019-07-14T09:08:38.000Z</time>
      </trkpt>
      <trkpt lat="47.32517" lon="-2.31912">
        <ele>7.8000001907349</ele>
        <time>2019-07-14T09:08:41.000Z</time>
      </trkpt>
      <trkpt lat="47.32513" lon="-2.31942">
        <ele>7.8000001907349</ele>
        <time>2019-07-14T09:08:44.000Z</time>
      </trkpt>
      <trkpt lat="47.32509" lon="-2.31998">
        <ele>7.8000001907349</ele>
        <time>2019-07-14T09:08:50.000Z</time>
      </trkpt>
      <trkpt lat="47.32506" lon="-2.32058">
        <ele>7.8000001907349</ele>
        <time>2019-07-14T09:08:57.000Z</time>
      </trkpt>
      <trkpt lat="47.32505" lon="-2.32065">
        <ele>7.8000001907349</ele>
        <time>2019-07-14T09:08:58.000Z</time>
      </trkpt>
      <trkpt lat="47.32499" lon="-2.32089">
        <ele>7.8000001907349</ele>
        <time>2019-07-14T09:09:02.000Z</time>
      </trkpt>
      <trkpt lat="47.32495" lon="-2.32092">
        <ele>7.8000001907349</ele>
        <time>2019-07-14T09:09:03.000Z</time>
      </trkpt>
      <trkpt lat="47.32486" lon="-2.32095">
        <ele>7.8000001907349</ele>
        <time>2019-07-14T09:09:05.000Z</time>
      </trkpt>
      <trkpt lat="47.32476" lon="-2.32097">
        <ele>7.8000001907349</ele>
        <time>2019-07-14T09:09:07.000Z</time>
      </trkpt>
      <trkpt lat="47.3245" lon="-2.32101">
        <ele>7.8000001907349</ele>
        <time>2019-07-14T09:09:12.000Z</time>
      </trkpt>
      <trkpt lat="47.3243" lon="-2.32102">
        <ele>7.8000001907349</ele>
        <time>2019-07-14T09:09:16.000Z</time>
      </trkpt>
      <trkpt lat="47.32422" lon="-2.32102">
        <ele>7.8000001907349</ele>
        <time>2019-07-14T09:09:18.000Z</time>
      </trkpt>
      <trkpt lat="47.32418" lon="-2.32104">
        <ele>7.8000001907349</ele>
        <time>2019-07-14T09:09:19.000Z</time>
      </trkpt>
      <trkpt lat="47.32399" lon="-2.32106">
        <ele>7.8000001907349</ele>
        <time>2019-07-14T09:09:23.000Z</time>
      </trkpt>
      <trkpt lat="47.3236" lon="-2.32109">
        <ele>7.8000001907349</ele>
        <time>2019-07-14T09:09:32.000Z</time>
      </trkpt>
      <trkpt lat="47.32346" lon="-2.32108">
        <ele>7.8000001907349</ele>
        <time>2019-07-14T09:09:37.000Z</time>
      </trkpt>
      <trkpt lat="47.32326" lon="-2.32105">
        <ele>7.8000001907349</ele>
        <time>2019-07-14T09:09:42.000Z</time>
      </trkpt>
      <trkpt lat="47.32317" lon="-2.32104">
        <ele>7.8000001907349</ele>
        <time>2019-07-14T09:09:44.000Z</time>
      </trkpt>
      <trkpt lat="47.32298" lon="-2.32103">
        <ele>7.8000001907349</ele>
        <time>2019-07-14T09:09:48.000Z</time>
      </trkpt>
      <trkpt lat="47.32261" lon="-2.32106">
        <ele>7.8000001907349</ele>
        <time>2019-07-14T09:09:55.000Z</time>
      </trkpt>
      <trkpt lat="47.32223" lon="-2.32113">
        <ele>7.8000001907349</ele>
        <time>2019-07-14T09:10:02.000Z</time>
      </trkpt>
      <trkpt lat="47.32211" lon="-2.32116">
        <ele>7.8000001907349</ele>
        <time>2019-07-14T09:10:06.000Z</time>
      </trkpt>
      <trkpt lat="47.32195" lon="-2.32122">
        <ele>7.8000001907349</ele>
        <time>2019-07-14T09:10:11.000Z</time>
      </trkpt>
      <trkpt lat="47.32191" lon="-2.32124">
        <ele>7.8000001907349</ele>
        <time>2019-07-14T09:10:12.000Z</time>
      </trkpt>
      <trkpt lat="47.32177" lon="-2.32135">
        <ele>7.4000000953674</ele>
        <time>2019-07-14T09:10:15.000Z</time>
      </trkpt>
      <trkpt lat="47.32172" lon="-2.32139">
        <ele>7</ele>
        <time>2019-07-14T09:10:16.000Z</time>
      </trkpt>
      <trkpt lat="47.32167" lon="-2.32144">
        <ele>6.5999999046326</ele>
        <time>2019-07-14T09:10:17.000Z</time>
      </trkpt>
      <trkpt lat="47.32163" lon="-2.32148">
        <ele>6.1999998092651</ele>
        <time>2019-07-14T09:10:18.000Z</time>
      </trkpt>
      <trkpt lat="47.32158" lon="-2.32153">
        <ele>5.8000001907349</ele>
        <time>2019-07-14T09:10:19.000Z</time>
      </trkpt>
      <trkpt lat="47.32143" lon="-2.32166">
        <ele>5.8000001907349</ele>
        <time>2019-07-14T09:10:22.000Z</time>
      </trkpt>
      <trkpt lat="47.3212" lon="-2.32182">
        <ele>5.8000001907349</ele>
        <time>2019-07-14T09:10:27.000Z</time>
      </trkpt>
      <trkpt lat="47.32114" lon="-2.32184">
        <ele>5.8000001907349</ele>
        <time>2019-07-14T09:10:28.000Z</time>
      </trkpt>
      <trkpt lat="47.32097" lon="-2.32186">
        <ele>5.8000001907349</ele>
        <time>2019-07-14T09:10:31.000Z</time>
      </trkpt>
      <trkpt lat="47.32081" lon="-2.32187">
        <ele>5.8000001907349</ele>
        <time>2019-07-14T09:10:34.000Z</time>
      </trkpt>
      <trkpt lat="47.32059" lon="-2.3219">
        <ele>6.1999998092651</ele>
        <time>2019-07-14T09:10:38.000Z</time>
      </trkpt>
      <trkpt lat="47.32054" lon="-2.3219">
        <ele>6.5999999046326</ele>
        <time>2019-07-14T09:10:39.000Z</time>
      </trkpt>
      <trkpt lat="47.32049" lon="-2.3219">
        <ele>7</ele>
        <time>2019-07-14T09:10:40.000Z</time>
      </trkpt>
      <trkpt lat="47.32043" lon="-2.3219">
        <ele>7.4000000953674</ele>
        <time>2019-07-14T09:10:41.000Z</time>
      </trkpt>
      <trkpt lat="47.32038" lon="-2.32191">
        <ele>7.8000001907349</ele>
        <time>2019-07-14T09:10:42.000Z</time>
      </trkpt>
      <trkpt lat="47.32017" lon="-2.32195">
        <ele>7.8000001907349</ele>
        <time>2019-07-14T09:10:46.000Z</time>
      </trkpt>
      <trkpt lat="47.32008" lon="-2.32203">
        <ele>7.8000001907349</ele>
        <time>2019-07-14T09:10:48.000Z</time>
      </trkpt>
      <trkpt lat="47.31974" lon="-2.32237">
        <ele>7.8000001907349</ele>
        <time>2019-07-14T09:10:56.000Z</time>
      </trkpt>
      <trkpt lat="47.31965" lon="-2.32249">
        <ele>8.1999998092651</ele>
        <time>2019-07-14T09:10:59.000Z</time>
      </trkpt>
      <trkpt lat="47.31962" lon="-2.32254">
        <ele>8.6000003814697</ele>
        <time>2019-07-14T09:11:00.000Z</time>
      </trkpt>
      <trkpt lat="47.3196" lon="-2.32259">
        <ele>9.1999998092651</ele>
        <time>2019-07-14T09:11:01.000Z</time>
      </trkpt>
      <trkpt lat="47.31957" lon="-2.32264">
        <ele>9.6000003814697</ele>
        <time>2019-07-14T09:11:02.000Z</time>
      </trkpt>
      <trkpt lat="47.31954" lon="-2.32266">
        <ele>10</ele>
        <time>2019-07-14T09:11:03.000Z</time>
      </trkpt>
      <trkpt lat="47.31951" lon="-2.32264">
        <ele>10</ele>
        <time>2019-07-14T09:11:04.000Z</time>
      </trkpt>
      <trkpt lat="47.31949" lon="-2.3226">
        <ele>10.60000038147</ele>
        <time>2019-07-14T09:11:05.000Z</time>
      </trkpt>
      <trkpt lat="47.31948" lon="-2.32255">
        <ele>11</ele>
        <time>2019-07-14T09:11:06.000Z</time>
      </trkpt>
      <trkpt lat="47.31949" lon="-2.32249">
        <ele>11.60000038147</ele>
        <time>2019-07-14T09:11:07.000Z</time>
      </trkpt>
      <trkpt lat="47.3195" lon="-2.32243">
        <ele>12.199999809265</ele>
        <time>2019-07-14T09:11:08.000Z</time>
      </trkpt>
      <trkpt lat="47.31952" lon="-2.32238">
        <ele>12.60000038147</ele>
        <time>2019-07-14T09:11:09.000Z</time>
      </trkpt>
      <trkpt lat="47.31956" lon="-2.32229">
        <ele>12.60000038147</ele>
        <time>2019-07-14T09:11:11.000Z</time>
      </trkpt>
      <trkpt lat="47.31955" lon="-2.32218">
        <ele>13</ele>
        <time>2019-07-14T09:11:13.000Z</time>
      </trkpt>
      <trkpt lat="47.31951" lon="-2.32214">
        <ele>13.39999961853</ele>
        <time>2019-07-14T09:11:14.000Z</time>
      </trkpt>
      <trkpt lat="47.31948" lon="-2.32213">
        <ele>13.800000190735</ele>
        <time>2019-07-14T09:11:15.000Z</time>
      </trkpt>
      <trkpt lat="47.31943" lon="-2.32211">
        <ele>14.199999809265</ele>
        <time>2019-07-14T09:11:16.000Z</time>
      </trkpt>
      <trkpt lat="47.31939" lon="-2.3221">
        <ele>14.800000190735</ele>
        <time>2019-07-14T09:11:17.000Z</time>
      </trkpt>
      <trkpt lat="47.31919" lon="-2.32205">
        <ele>15.199999809265</ele>
        <time>2019-07-14T09:11:22.000Z</time>
      </trkpt>
      <trkpt lat="47.31915" lon="-2.32204">
        <ele>15.60000038147</ele>
        <time>2019-07-14T09:11:23.000Z</time>
      </trkpt>
      <trkpt lat="47.31911" lon="-2.32204">
        <ele>16</ele>
        <time>2019-07-14T09:11:24.000Z</time>
      </trkpt>
      <trkpt lat="47.31908" lon="-2.32203">
        <ele>16.39999961853</ele>
        <time>2019-07-14T09:11:25.000Z</time>
      </trkpt>
      <trkpt lat="47.31905" lon="-2.32203">
        <ele>16.799999237061</ele>
        <time>2019-07-14T09:11:26.000Z</time>
      </trkpt>
      <trkpt lat="47.31896" lon="-2.32205">
        <ele>16.799999237061</ele>
        <time>2019-07-14T09:11:29.000Z</time>
      </trkpt>
      <trkpt lat="47.31889" lon="-2.32205">
        <ele>17.200000762939</ele>
        <time>2019-07-14T09:11:32.000Z</time>
      </trkpt>
      <trkpt lat="47.31886" lon="-2.32206">
        <ele>17.60000038147</ele>
        <time>2019-07-14T09:11:33.000Z</time>
      </trkpt>
      <trkpt lat="47.31884" lon="-2.32207">
        <ele>18</ele>
        <time>2019-07-14T09:11:34.000Z</time>
      </trkpt>
      <trkpt lat="47.31882" lon="-2.32208">
        <ele>18.39999961853</ele>
        <time>2019-07-14T09:11:35.000Z</time>
      </trkpt>
      <trkpt lat="47.31879" lon="-2.32209">
        <ele>18.799999237061</ele>
        <time>2019-07-14T09:11:36.000Z</time>
      </trkpt>
      <trkpt lat="47.31865" lon="-2.32214">
        <ele>18.799999237061</ele>
        <time>2019-07-14T09:11:40.000Z</time>
      </trkpt>
      <trkpt lat="47.31852" lon="-2.32218">
        <ele>19.200000762939</ele>
        <time>2019-07-14T09:11:44.000Z</time>
      </trkpt>
      <trkpt lat="47.31849" lon="-2.32219">
        <ele>19.60000038147</ele>
        <time>2019-07-14T09:11:45.000Z</time>
      </trkpt>
      <trkpt lat="47.31846" lon="-2.3222">
        <ele>20</ele>
        <time>2019-07-14T09:11:46.000Z</time>
      </trkpt>
      <trkpt lat="47.31844" lon="-2.32221">
        <ele>20.39999961853</ele>
        <time>2019-07-14T09:11:47.000Z</time>
      </trkpt>
      <trkpt lat="47.31841" lon="-2.32222">
        <ele>20.799999237061</ele>
        <time>2019-07-14T09:11:48.000Z</time>
      </trkpt>
      <trkpt lat="47.31831" lon="-2.32225">
        <ele>21.200000762939</ele>
        <time>2019-07-14T09:11:51.000Z</time>
      </trkpt>
      <trkpt lat="47.31828" lon="-2.32226">
        <ele>21.799999237061</ele>
        <time>2019-07-14T09:11:52.000Z</time>
      </trkpt>
      <trkpt lat="47.31825" lon="-2.32226">
        <ele>22.200000762939</ele>
        <time>2019-07-14T09:11:53.000Z</time>
      </trkpt>
      <trkpt lat="47.31822" lon="-2.32227">
        <ele>22.60000038147</ele>
        <time>2019-07-14T09:11:54.000Z</time>
      </trkpt>
      <trkpt lat="47.31818" lon="-2.32227">
        <ele>23</ele>
        <time>2019-07-14T09:11:55.000Z</time>
      </trkpt>
      <trkpt lat="47.31807" lon="-2.32229">
        <ele>23</ele>
        <time>2019-07-14T09:11:58.000Z</time>
      </trkpt>
      <trkpt lat="47.31795" lon="-2.3223">
        <ele>23.39999961853</ele>
        <time>2019-07-14T09:12:01.000Z</time>
      </trkpt>
      <trkpt lat="47.31792" lon="-2.3223">
        <ele>23.799999237061</ele>
        <time>2019-07-14T09:12:02.000Z</time>
      </trkpt>
      <trkpt lat="47.31788" lon="-2.32231">
        <ele>24.200000762939</ele>
        <time>2019-07-14T09:12:03.000Z</time>
      </trkpt>
      <trkpt lat="47.31784" lon="-2.32232">
        <ele>24.60000038147</ele>
        <time>2019-07-14T09:12:04.000Z</time>
      </trkpt>
      <trkpt lat="47.31781" lon="-2.32232">
        <ele>25</ele>
        <time>2019-07-14T09:12:05.000Z</time>
      </trkpt>
      <trkpt lat="47.31758" lon="-2.32243">
        <ele>25</ele>
        <time>2019-07-14T09:12:12.000Z</time>
      </trkpt>
      <trkpt lat="47.3176" lon="-2.3226">
        <ele>25</ele>
        <time>2019-07-14T09:12:15.000Z</time>
      </trkpt>
      <trkpt lat="47.31766" lon="-2.32293">
        <ele>25</ele>
        <time>2019-07-14T09:12:20.000Z</time>
      </trkpt>
      <trkpt lat="47.31768" lon="-2.323">
        <ele>25</ele>
        <time>2019-07-14T09:12:21.000Z</time>
      </trkpt>
      <trkpt lat="47.3178" lon="-2.32348">
        <ele>25</ele>
        <time>2019-07-14T09:12:27.000Z</time>
      </trkpt>
      <trkpt lat="47.31792" lon="-2.32409">
        <ele>25</ele>
        <time>2019-07-14T09:12:34.000Z</time>
      </trkpt>
      <trkpt lat="47.31798" lon="-2.32447">
        <ele>25</ele>
        <time>2019-07-14T09:12:38.000Z</time>
      </trkpt>
      <trkpt lat="47.31801" lon="-2.32455">
        <ele>25</ele>
        <time>2019-07-14T09:12:39.000Z</time>
      </trkpt>
      <trkpt lat="47.31805" lon="-2.32474">
        <ele>24.60000038147</ele>
        <time>2019-07-14T09:12:41.000Z</time>
      </trkpt>
      <trkpt lat="47.31809" lon="-2.32484">
        <ele>24.200000762939</ele>
        <time>2019-07-14T09:12:42.000Z</time>
      </trkpt>
      <trkpt lat="47.31811" lon="-2.32494">
        <ele>23.799999237061</ele>
        <time>2019-07-14T09:12:43.000Z</time>
      </trkpt>
      <trkpt lat="47.31813" lon="-2.32505">
        <ele>23.39999961853</ele>
        <time>2019-07-14T09:12:44.000Z</time>
      </trkpt>
      <trkpt lat="47.31815" lon="-2.32517">
        <ele>23</ele>
        <time>2019-07-14T09:12:45.000Z</time>
      </trkpt>
      <trkpt lat="47.31819" lon="-2.32536">
        <ele>22.39999961853</ele>
        <time>2019-07-14T09:12:47.000Z</time>
      </trkpt>
      <trkpt lat="47.31822" lon="-2.32546">
        <ele>22</ele>
        <time>2019-07-14T09:12:48.000Z</time>
      </trkpt>
      <trkpt lat="47.31825" lon="-2.32557">
        <ele>21.39999961853</ele>
        <time>2019-07-14T09:12:49.000Z</time>
      </trkpt>
      <trkpt lat="47.31827" lon="-2.32568">
        <ele>21</ele>
        <time>2019-07-14T09:12:50.000Z</time>
      </trkpt>
      <trkpt lat="47.3183" lon="-2.32578">
        <ele>20.39999961853</ele>
        <time>2019-07-14T09:12:51.000Z</time>
      </trkpt>
      <trkpt lat="47.31836" lon="-2.326">
        <ele>20.39999961853</ele>
        <time>2019-07-14T09:12:53.000Z</time>
      </trkpt>
      <trkpt lat="47.31842" lon="-2.3263">
        <ele>20</ele>
        <time>2019-07-14T09:12:56.000Z</time>
      </trkpt>
      <trkpt lat="47.31844" lon="-2.3264">
        <ele>19.60000038147</ele>
        <time>2019-07-14T09:12:57.000Z</time>
      </trkpt>
      <trkpt lat="47.31847" lon="-2.32648">
        <ele>18.60000038147</ele>
        <time>2019-07-14T09:12:58.000Z</time>
      </trkpt>
      <trkpt lat="47.3185" lon="-2.32656">
        <ele>18.200000762939</ele>
        <time>2019-07-14T09:12:59.000Z</time>
      </trkpt>
      <trkpt lat="47.31868" lon="-2.32699">
        <ele>18.200000762939</ele>
        <time>2019-07-14T09:13:04.000Z</time>
      </trkpt>
      <trkpt lat="47.31874" lon="-2.32719">
        <ele>17.799999237061</ele>
        <time>2019-07-14T09:13:06.000Z</time>
      </trkpt>
      <trkpt lat="47.31877" lon="-2.32728">
        <ele>17.39999961853</ele>
        <time>2019-07-14T09:13:07.000Z</time>
      </trkpt>
      <trkpt lat="47.31881" lon="-2.32738">
        <ele>17</ele>
        <time>2019-07-14T09:13:08.000Z</time>
      </trkpt>
      <trkpt lat="47.31884" lon="-2.32747">
        <ele>16.60000038147</ele>
        <time>2019-07-14T09:13:09.000Z</time>
      </trkpt>
      <trkpt lat="47.31886" lon="-2.32756">
        <ele>16</ele>
        <time>2019-07-14T09:13:10.000Z</time>
      </trkpt>
      <trkpt lat="47.31888" lon="-2.32767">
        <ele>16</ele>
        <time>2019-07-14T09:13:11.000Z</time>
      </trkpt>
      <trkpt lat="47.31891" lon="-2.32799">
        <ele>16</ele>
        <time>2019-07-14T09:13:14.000Z</time>
      </trkpt>
      <trkpt lat="47.31894" lon="-2.32874">
        <ele>16</ele>
        <time>2019-07-14T09:13:21.000Z</time>
      </trkpt>
      <trkpt lat="47.31895" lon="-2.32896">
        <ele>15.60000038147</ele>
        <time>2019-07-14T09:13:23.000Z</time>
      </trkpt>
      <trkpt lat="47.31896" lon="-2.32906">
        <ele>14.800000190735</ele>
        <time>2019-07-14T09:13:24.000Z</time>
      </trkpt>
      <trkpt lat="47.31895" lon="-2.32916">
        <ele>14.39999961853</ele>
        <time>2019-07-14T09:13:25.000Z</time>
      </trkpt>
      <trkpt lat="47.31896" lon="-2.32924">
        <ele>14</ele>
        <time>2019-07-14T09:13:26.000Z</time>
      </trkpt>
      <trkpt lat="47.31895" lon="-2.32955">
        <ele>14</ele>
        <time>2019-07-14T09:13:29.000Z</time>
      </trkpt>
      <trkpt lat="47.31893" lon="-2.32966">
        <ele>14</ele>
        <time>2019-07-14T09:13:30.000Z</time>
      </trkpt>
      <trkpt lat="47.31891" lon="-2.32995">
        <ele>14</ele>
        <time>2019-07-14T09:13:33.000Z</time>
      </trkpt>
      <trkpt lat="47.31892" lon="-2.33016">
        <ele>14</ele>
        <time>2019-07-14T09:13:35.000Z</time>
      </trkpt>
      <trkpt lat="47.31891" lon="-2.33027">
        <ele>14</ele>
        <time>2019-07-14T09:13:36.000Z</time>
      </trkpt>
      <trkpt lat="47.3189" lon="-2.3307">
        <ele>14</ele>
        <time>2019-07-14T09:13:40.000Z</time>
      </trkpt>
      <trkpt lat="47.31889" lon="-2.33112">
        <ele>14</ele>
        <time>2019-07-14T09:13:45.000Z</time>
      </trkpt>
      <trkpt lat="47.31888" lon="-2.33119">
        <ele>14</ele>
        <time>2019-07-14T09:13:46.000Z</time>
      </trkpt>
      <trkpt lat="47.31884" lon="-2.33138">
        <ele>14</ele>
        <time>2019-07-14T09:13:49.000Z</time>
      </trkpt>
      <trkpt lat="47.31878" lon="-2.33169">
        <ele>14.60000038147</ele>
        <time>2019-07-14T09:13:54.000Z</time>
      </trkpt>
      <trkpt lat="47.31878" lon="-2.33175">
        <ele>15</ele>
        <time>2019-07-14T09:13:55.000Z</time>
      </trkpt>
      <trkpt lat="47.31877" lon="-2.33181">
        <ele>15.39999961853</ele>
        <time>2019-07-14T09:13:56.000Z</time>
      </trkpt>
      <trkpt lat="47.31877" lon="-2.33188">
        <ele>15.800000190735</ele>
        <time>2019-07-14T09:13:57.000Z</time>
      </trkpt>
      <trkpt lat="47.31875" lon="-2.33195">
        <ele>16.200000762939</ele>
        <time>2019-07-14T09:13:58.000Z</time>
      </trkpt>
      <trkpt lat="47.31873" lon="-2.33217">
        <ele>16.200000762939</ele>
        <time>2019-07-14T09:14:01.000Z</time>
      </trkpt>
      <trkpt lat="47.31872" lon="-2.33223">
        <ele>16.200000762939</ele>
        <time>2019-07-14T09:14:02.000Z</time>
      </trkpt>
      <trkpt lat="47.3187" lon="-2.3323">
        <ele>16.60000038147</ele>
        <time>2019-07-14T09:14:03.000Z</time>
      </trkpt>
      <trkpt lat="47.31867" lon="-2.33237">
        <ele>17</ele>
        <time>2019-07-14T09:14:04.000Z</time>
      </trkpt>
      <trkpt lat="47.31863" lon="-2.33244">
        <ele>17.60000038147</ele>
        <time>2019-07-14T09:14:05.000Z</time>
      </trkpt>
      <trkpt lat="47.3186" lon="-2.33249">
        <ele>18</ele>
        <time>2019-07-14T09:14:06.000Z</time>
      </trkpt>
      <trkpt lat="47.31857" lon="-2.33255">
        <ele>18.39999961853</ele>
        <time>2019-07-14T09:14:07.000Z</time>
      </trkpt>
      <trkpt lat="47.31851" lon="-2.33266">
        <ele>18.39999961853</ele>
        <time>2019-07-14T09:14:09.000Z</time>
      </trkpt>
      <trkpt lat="47.31839" lon="-2.33277">
        <ele>18.39999961853</ele>
        <time>2019-07-14T09:14:12.000Z</time>
      </trkpt>
      <trkpt lat="47.31835" lon="-2.33279">
        <ele>18.39999961853</ele>
        <time>2019-07-14T09:14:13.000Z</time>
      </trkpt>
      <trkpt lat="47.31822" lon="-2.33289">
        <ele>18.799999237061</ele>
        <time>2019-07-14T09:14:16.000Z</time>
      </trkpt>
      <trkpt lat="47.31819" lon="-2.33292">
        <ele>19.200000762939</ele>
        <time>2019-07-14T09:14:17.000Z</time>
      </trkpt>
      <trkpt lat="47.31815" lon="-2.33295">
        <ele>19.60000038147</ele>
        <time>2019-07-14T09:14:18.000Z</time>
      </trkpt>
      <trkpt lat="47.31811" lon="-2.33298">
        <ele>20</ele>
        <time>2019-07-14T09:14:19.000Z</time>
      </trkpt>
      <trkpt lat="47.31807" lon="-2.33302">
        <ele>20.39999961853</ele>
        <time>2019-07-14T09:14:20.000Z</time>
      </trkpt>
      <trkpt lat="47.318" lon="-2.33308">
        <ele>20.39999961853</ele>
        <time>2019-07-14T09:14:22.000Z</time>
      </trkpt>
      <trkpt lat="47.31797" lon="-2.3331">
        <ele>21</ele>
        <time>2019-07-14T09:14:23.000Z</time>
      </trkpt>
      <trkpt lat="47.31794" lon="-2.33314">
        <ele>21.39999961853</ele>
        <time>2019-07-14T09:14:24.000Z</time>
      </trkpt>
      <trkpt lat="47.31791" lon="-2.33315">
        <ele>21.799999237061</ele>
        <time>2019-07-14T09:14:25.000Z</time>
      </trkpt>
      <trkpt lat="47.31787" lon="-2.33317">
        <ele>22.200000762939</ele>
        <time>2019-07-14T09:14:26.000Z</time>
      </trkpt>
      <trkpt lat="47.31783" lon="-2.33319">
        <ele>22.60000038147</ele>
        <time>2019-07-14T09:14:27.000Z</time>
      </trkpt>
      <trkpt lat="47.31777" lon="-2.33318">
        <ele>23</ele>
        <time>2019-07-14T09:14:29.000Z</time>
      </trkpt>
      <trkpt lat="47.31773" lon="-2.33317">
        <ele>23.39999961853</ele>
        <time>2019-07-14T09:14:30.000Z</time>
      </trkpt>
      <trkpt lat="47.31769" lon="-2.33314">
        <ele>23.799999237061</ele>
        <time>2019-07-14T09:14:31.000Z</time>
      </trkpt>
      <trkpt lat="47.31768" lon="-2.33309">
        <ele>24.39999961853</ele>
        <time>2019-07-14T09:14:32.000Z</time>
      </trkpt>
      <trkpt lat="47.31765" lon="-2.33307">
        <ele>24.799999237061</ele>
        <time>2019-07-14T09:14:33.000Z</time>
      </trkpt>
      <trkpt lat="47.31763" lon="-2.33303">
        <ele>24.799999237061</ele>
        <time>2019-07-14T09:14:34.000Z</time>
      </trkpt>
      <trkpt lat="47.31757" lon="-2.33288">
        <ele>24.799999237061</ele>
        <time>2019-07-14T09:14:37.000Z</time>
      </trkpt>
      <trkpt lat="47.31753" lon="-2.33278">
        <ele>24.799999237061</ele>
        <time>2019-07-14T09:14:39.000Z</time>
      </trkpt>
      <trkpt lat="47.3175" lon="-2.3326">
        <ele>25.200000762939</ele>
        <time>2019-07-14T09:14:42.000Z</time>
      </trkpt>
      <trkpt lat="47.31748" lon="-2.33254">
        <ele>25.60000038147</ele>
        <time>2019-07-14T09:14:43.000Z</time>
      </trkpt>
      <trkpt lat="47.31744" lon="-2.33251">
        <ele>26</ele>
        <time>2019-07-14T09:14:44.000Z</time>
      </trkpt>
      <trkpt lat="47.31739" lon="-2.33251">
        <ele>26.39999961853</ele>
        <time>2019-07-14T09:14:45.000Z</time>
      </trkpt>
      <trkpt lat="47.31735" lon="-2.33252">
        <ele>26.799999237061</ele>
        <time>2019-07-14T09:14:46.000Z</time>
      </trkpt>
      <trkpt lat="47.31732" lon="-2.33252">
        <ele>26.799999237061</ele>
        <time>2019-07-14T09:14:47.000Z</time>
      </trkpt>
      <trkpt lat="47.31719" lon="-2.33257">
        <ele>26.799999237061</ele>
        <time>2019-07-14T09:14:50.000Z</time>
      </trkpt>
      <trkpt lat="47.31707" lon="-2.33261">
        <ele>26.799999237061</ele>
        <time>2019-07-14T09:14:53.000Z</time>
      </trkpt>
      <trkpt lat="47.31695" lon="-2.33267">
        <ele>27.200000762939</ele>
        <time>2019-07-14T09:14:56.000Z</time>
      </trkpt>
      <trkpt lat="47.3169" lon="-2.33268">
        <ele>27.60000038147</ele>
        <time>2019-07-14T09:14:57.000Z</time>
      </trkpt>
      <trkpt lat="47.31686" lon="-2.3327">
        <ele>28</ele>
        <time>2019-07-14T09:14:58.000Z</time>
      </trkpt>
      <trkpt lat="47.31682" lon="-2.33271">
        <ele>28.39999961853</ele>
        <time>2019-07-14T09:14:59.000Z</time>
      </trkpt>
      <trkpt lat="47.31677" lon="-2.33273">
        <ele>28.799999237061</ele>
        <time>2019-07-14T09:15:00.000Z</time>
      </trkpt>
      <trkpt lat="47.31659" lon="-2.33282">
        <ele>28.799999237061</ele>
        <time>2019-07-14T09:15:04.000Z</time>
      </trkpt>
      <trkpt lat="47.3163" lon="-2.33299">
        <ele>28.799999237061</ele>
        <time>2019-07-14T09:15:11.000Z</time>
      </trkpt>
      <trkpt lat="47.31612" lon="-2.33308">
        <ele>29.200000762939</ele>
        <time>2019-07-14T09:15:15.000Z</time>
      </trkpt>
      <trkpt lat="47.31607" lon="-2.33311">
        <ele>29.60000038147</ele>
        <time>2019-07-14T09:15:16.000Z</time>
      </trkpt>
      <trkpt lat="47.31602" lon="-2.33313">
        <ele>30</ele>
        <time>2019-07-14T09:15:17.000Z</time>
      </trkpt>
      <trkpt lat="47.31598" lon="-2.33316">
        <ele>30.39999961853</ele>
        <time>2019-07-14T09:15:18.000Z</time>
      </trkpt>
      <trkpt lat="47.31593" lon="-2.3332">
        <ele>30.799999237061</ele>
        <time>2019-07-14T09:15:19.000Z</time>
      </trkpt>
      <trkpt lat="47.3158" lon="-2.33327">
        <ele>30.799999237061</ele>
        <time>2019-07-14T09:15:22.000Z</time>
      </trkpt>
      <trkpt lat="47.31575" lon="-2.33329">
        <ele>30.799999237061</ele>
        <time>2019-07-14T09:15:23.000Z</time>
      </trkpt>
      <trkpt lat="47.3156" lon="-2.33336">
        <ele>30.799999237061</ele>
        <time>2019-07-14T09:15:26.000Z</time>
      </trkpt>
      <trkpt lat="47.31554" lon="-2.33338">
        <ele>30.799999237061</ele>
        <time>2019-07-14T09:15:27.000Z</time>
      </trkpt>
      <trkpt lat="47.31522" lon="-2.33354">
        <ele>30.799999237061</ele>
        <time>2019-07-14T09:15:33.000Z</time>
      </trkpt>
      <trkpt lat="47.31488" lon="-2.33372">
        <ele>30.799999237061</ele>
        <time>2019-07-14T09:15:39.000Z</time>
      </trkpt>
      <trkpt lat="47.31482" lon="-2.3337">
        <ele>30.799999237061</ele>
        <time>2019-07-14T09:15:40.000Z</time>
      </trkpt>
      <trkpt lat="47.31473" lon="-2.33357">
        <ele>30.799999237061</ele>
        <time>2019-07-14T09:15:42.000Z</time>
      </trkpt>
      <trkpt lat="47.31462" lon="-2.33333">
        <ele>30.799999237061</ele>
        <time>2019-07-14T09:15:45.000Z</time>
      </trkpt>
      <trkpt lat="47.31455" lon="-2.33318">
        <ele>30.799999237061</ele>
        <time>2019-07-14T09:15:47.000Z</time>
      </trkpt>
      <trkpt lat="47.31451" lon="-2.33311">
        <ele>30.799999237061</ele>
        <time>2019-07-14T09:15:48.000Z</time>
      </trkpt>
      <trkpt lat="47.31438" lon="-2.33291">
        <ele>30.799999237061</ele>
        <time>2019-07-14T09:15:51.000Z</time>
      </trkpt>
      <trkpt lat="47.31433" lon="-2.33285">
        <ele>30.799999237061</ele>
        <time>2019-07-14T09:15:52.000Z</time>
      </trkpt>
      <trkpt lat="47.314" lon="-2.33258">
        <ele>30.799999237061</ele>
        <time>2019-07-14T09:15:58.000Z</time>
      </trkpt>
      <trkpt lat="47.31362" lon="-2.33232">
        <ele>30.799999237061</ele>
        <time>2019-07-14T09:16:05.000Z</time>
      </trkpt>
      <trkpt lat="47.31331" lon="-2.33203">
        <ele>30.799999237061</ele>
        <time>2019-07-14T09:16:12.000Z</time>
      </trkpt>
      <trkpt lat="47.31306" lon="-2.33182">
        <ele>30.39999961853</ele>
        <time>2019-07-14T09:16:18.000Z</time>
      </trkpt>
      <trkpt lat="47.31301" lon="-2.33179">
        <ele>30</ele>
        <time>2019-07-14T09:16:19.000Z</time>
      </trkpt>
      <trkpt lat="47.31297" lon="-2.33176">
        <ele>29.60000038147</ele>
        <time>2019-07-14T09:16:20.000Z</time>
      </trkpt>
      <trkpt lat="47.31294" lon="-2.33172">
        <ele>29.200000762939</ele>
        <time>2019-07-14T09:16:21.000Z</time>
      </trkpt>
      <trkpt lat="47.3129" lon="-2.3317">
        <ele>28.799999237061</ele>
        <time>2019-07-14T09:16:22.000Z</time>
      </trkpt>
      <trkpt lat="47.31279" lon="-2.33164">
        <ele>28.799999237061</ele>
        <time>2019-07-14T09:16:25.000Z</time>
      </trkpt>
      <trkpt lat="47.31254" lon="-2.33155">
        <ele>28.799999237061</ele>
        <time>2019-07-14T09:16:32.000Z</time>
      </trkpt>
      <trkpt lat="47.31233" lon="-2.33152">
        <ele>28.799999237061</ele>
        <time>2019-07-14T09:16:38.000Z</time>
      </trkpt>
      <trkpt lat="47.31218" lon="-2.33153">
        <ele>28.799999237061</ele>
        <time>2019-07-14T09:16:42.000Z</time>
      </trkpt>
      <trkpt lat="47.31194" lon="-2.33164">
        <ele>28.799999237061</ele>
        <time>2019-07-14T09:16:48.000Z</time>
      </trkpt>
      <trkpt lat="47.3117" lon="-2.33177">
        <ele>28.799999237061</ele>
        <time>2019-07-14T09:16:54.000Z</time>
      </trkpt>
      <trkpt lat="47.31151" lon="-2.3319">
        <ele>28.799999237061</ele>
        <time>2019-07-14T09:17:00.000Z</time>
      </trkpt>
      <trkpt lat="47.31131" lon="-2.33201">
        <ele>28.799999237061</ele>
        <time>2019-07-14T09:17:06.000Z</time>
      </trkpt>
      <trkpt lat="47.31117" lon="-2.33216">
        <ele>28.799999237061</ele>
        <time>2019-07-14T09:17:10.000Z</time>
      </trkpt>
      <trkpt lat="47.31115" lon="-2.3322">
        <ele>28.799999237061</ele>
        <time>2019-07-14T09:17:11.000Z</time>
      </trkpt>
      <trkpt lat="47.31106" lon="-2.33241">
        <ele>28.799999237061</ele>
        <time>2019-07-14T09:17:15.000Z</time>
      </trkpt>
      <trkpt lat="47.31104" lon="-2.33278">
        <ele>28.799999237061</ele>
        <time>2019-07-14T09:17:20.000Z</time>
      </trkpt>
      <trkpt lat="47.31101" lon="-2.33316">
        <ele>28.799999237061</ele>
        <time>2019-07-14T09:17:25.000Z</time>
      </trkpt>
      <trkpt lat="47.31101" lon="-2.33339">
        <ele>28.799999237061</ele>
        <time>2019-07-14T09:17:28.000Z</time>
      </trkpt>
      <trkpt lat="47.31103" lon="-2.33368">
        <ele>29.200000762939</ele>
        <time>2019-07-14T09:17:32.000Z</time>
      </trkpt>
      <trkpt lat="47.31104" lon="-2.33376">
        <ele>29.60000038147</ele>
        <time>2019-07-14T09:17:33.000Z</time>
      </trkpt>
      <trkpt lat="47.31104" lon="-2.33385">
        <ele>30</ele>
        <time>2019-07-14T09:17:34.000Z</time>
      </trkpt>
      <trkpt lat="47.31105" lon="-2.33393">
        <ele>30.39999961853</ele>
        <time>2019-07-14T09:17:35.000Z</time>
      </trkpt>
      <trkpt lat="47.31105" lon="-2.33401">
        <ele>30.799999237061</ele>
        <time>2019-07-14T09:17:36.000Z</time>
      </trkpt>
      <trkpt lat="47.31106" lon="-2.33415">
        <ele>30.799999237061</ele>
        <time>2019-07-14T09:17:38.000Z</time>
      </trkpt>
      <trkpt lat="47.31107" lon="-2.33455">
        <ele>30.799999237061</ele>
        <time>2019-07-14T09:17:43.000Z</time>
      </trkpt>
      <trkpt lat="47.31107" lon="-2.33472">
        <ele>30.799999237061</ele>
        <time>2019-07-14T09:17:45.000Z</time>
      </trkpt>
      <trkpt lat="47.3111" lon="-2.33505">
        <ele>30.799999237061</ele>
        <time>2019-07-14T09:17:49.000Z</time>
      </trkpt>
      <trkpt lat="47.31112" lon="-2.33513">
        <ele>31.200000762939</ele>
        <time>2019-07-14T09:17:50.000Z</time>
      </trkpt>
      <trkpt lat="47.31112" lon="-2.3352">
        <ele>31.60000038147</ele>
        <time>2019-07-14T09:17:51.000Z</time>
      </trkpt>
      <trkpt lat="47.31113" lon="-2.33527">
        <ele>32</ele>
        <time>2019-07-14T09:17:52.000Z</time>
      </trkpt>
      <trkpt lat="47.31114" lon="-2.33535">
        <ele>32.400001525879</ele>
        <time>2019-07-14T09:17:53.000Z</time>
      </trkpt>
      <trkpt lat="47.31116" lon="-2.33545">
        <ele>32.799999237061</ele>
        <time>2019-07-14T09:17:54.000Z</time>
      </trkpt>
      <trkpt lat="47.31117" lon="-2.33562">
        <ele>32.799999237061</ele>
        <time>2019-07-14T09:17:56.000Z</time>
      </trkpt>
      <trkpt lat="47.31116" lon="-2.3362">
        <ele>32.799999237061</ele>
        <time>2019-07-14T09:18:03.000Z</time>
      </trkpt>
      <trkpt lat="47.31105" lon="-2.33689">
        <ele>32.799999237061</ele>
        <time>2019-07-14T09:18:11.000Z</time>
      </trkpt>
      <trkpt lat="47.31095" lon="-2.33749">
        <ele>32.799999237061</ele>
        <time>2019-07-14T09:18:18.000Z</time>
      </trkpt>
      <trkpt lat="47.31092" lon="-2.33757">
        <ele>32.799999237061</ele>
        <time>2019-07-14T09:18:19.000Z</time>
      </trkpt>
      <trkpt lat="47.31079" lon="-2.33787">
        <ele>32.799999237061</ele>
        <time>2019-07-14T09:18:23.000Z</time>
      </trkpt>
      <trkpt lat="47.3107" lon="-2.3381">
        <ele>32.799999237061</ele>
        <time>2019-07-14T09:18:26.000Z</time>
      </trkpt>
      <trkpt lat="47.31067" lon="-2.33829">
        <ele>32.799999237061</ele>
        <time>2019-07-14T09:18:28.000Z</time>
      </trkpt>
      <trkpt lat="47.31062" lon="-2.3389">
        <ele>32.799999237061</ele>
        <time>2019-07-14T09:18:35.000Z</time>
      </trkpt>
      <trkpt lat="47.31059" lon="-2.33938">
        <ele>32.799999237061</ele>
        <time>2019-07-14T09:18:41.000Z</time>
      </trkpt>
      <trkpt lat="47.31055" lon="-2.33943">
        <ele>32.799999237061</ele>
        <time>2019-07-14T09:18:42.000Z</time>
      </trkpt>
      <trkpt lat="47.31035" lon="-2.33954">
        <ele>32.799999237061</ele>
        <time>2019-07-14T09:18:46.000Z</time>
      </trkpt>
      <trkpt lat="47.31029" lon="-2.33954">
        <ele>32.799999237061</ele>
        <time>2019-07-14T09:18:47.000Z</time>
      </trkpt>
      <trkpt lat="47.31013" lon="-2.33956">
        <ele>33.200000762939</ele>
        <time>2019-07-14T09:18:50.000Z</time>
      </trkpt>
      <trkpt lat="47.31007" lon="-2.33957">
        <ele>33.599998474121</ele>
        <time>2019-07-14T09:18:51.000Z</time>
      </trkpt>
      <trkpt lat="47.31002" lon="-2.33958">
        <ele>34</ele>
        <time>2019-07-14T09:18:52.000Z</time>
      </trkpt>
      <trkpt lat="47.30996" lon="-2.33958">
        <ele>34.400001525879</ele>
        <time>2019-07-14T09:18:53.000Z</time>
      </trkpt>
      <trkpt lat="47.30991" lon="-2.33958">
        <ele>34.799999237061</ele>
        <time>2019-07-14T09:18:54.000Z</time>
      </trkpt>
      <trkpt lat="47.30957" lon="-2.33957">
        <ele>34.799999237061</ele>
        <time>2019-07-14T09:19:00.000Z</time>
      </trkpt>
      <trkpt lat="47.30919" lon="-2.33948">
        <ele>34.799999237061</ele>
        <time>2019-07-14T09:19:07.000Z</time>
      </trkpt>
      <trkpt lat="47.30901" lon="-2.33948">
        <ele>35.400001525879</ele>
        <time>2019-07-14T09:19:10.000Z</time>
      </trkpt>
      <trkpt lat="47.30896" lon="-2.33948">
        <ele>35.799999237061</ele>
        <time>2019-07-14T09:19:11.000Z</time>
      </trkpt>
      <trkpt lat="47.30891" lon="-2.33949">
        <ele>36.200000762939</ele>
        <time>2019-07-14T09:19:12.000Z</time>
      </trkpt>
      <trkpt lat="47.30885" lon="-2.3395">
        <ele>36.599998474121</ele>
        <time>2019-07-14T09:19:13.000Z</time>
      </trkpt>
      <trkpt lat="47.3088" lon="-2.33951">
        <ele>37</ele>
        <time>2019-07-14T09:19:14.000Z</time>
      </trkpt>
      <trkpt lat="47.30841" lon="-2.33956">
        <ele>37</ele>
        <time>2019-07-14T09:19:21.000Z</time>
      </trkpt>
      <trkpt lat="47.30809" lon="-2.33965">
        <ele>37</ele>
        <time>2019-07-14T09:19:27.000Z</time>
      </trkpt>
      <trkpt lat="47.30783" lon="-2.33973">
        <ele>37</ele>
        <time>2019-07-14T09:19:33.000Z</time>
      </trkpt>
      <trkpt lat="47.30777" lon="-2.33976">
        <ele>37</ele>
        <time>2019-07-14T09:19:36.000Z</time>
      </trkpt>
      <trkpt lat="47.30775" lon="-2.33976">
        <ele>37</ele>
        <time>2019-07-14T09:19:37.000Z</time>
      </trkpt>
      <trkpt lat="47.3076" lon="-2.33978">
        <ele>37</ele>
        <time>2019-07-14T09:19:43.000Z</time>
      </trkpt>
      <trkpt lat="47.30739" lon="-2.33984">
        <ele>37</ele>
        <time>2019-07-14T09:19:48.000Z</time>
      </trkpt>
      <trkpt lat="47.3073" lon="-2.33987">
        <ele>36.599998474121</ele>
        <time>2019-07-14T09:19:50.000Z</time>
      </trkpt>
      <trkpt lat="47.30726" lon="-2.33989">
        <ele>36.200000762939</ele>
        <time>2019-07-14T09:19:51.000Z</time>
      </trkpt>
      <trkpt lat="47.30723" lon="-2.33993">
        <ele>35.799999237061</ele>
        <time>2019-07-14T09:19:52.000Z</time>
      </trkpt>
      <trkpt lat="47.30722" lon="-2.34">
        <ele>35.400001525879</ele>
        <time>2019-07-14T09:19:53.000Z</time>
      </trkpt>
      <trkpt lat="47.30721" lon="-2.34007">
        <ele>35</ele>
        <time>2019-07-14T09:19:54.000Z</time>
      </trkpt>
      <trkpt lat="47.30718" lon="-2.34017">
        <ele>35</ele>
        <time>2019-07-14T09:19:56.000Z</time>
      </trkpt>
      <trkpt lat="47.30704" lon="-2.3402">
        <ele>35</ele>
        <time>2019-07-14T09:20:00.000Z</time>
      </trkpt>
      <trkpt lat="47.30701" lon="-2.34021">
        <ele>35</ele>
        <time>2019-07-14T09:20:01.000Z</time>
      </trkpt>
      <trkpt lat="47.30682" lon="-2.34024">
        <ele>35</ele>
        <time>2019-07-14T09:20:06.000Z</time>
      </trkpt>
      <trkpt lat="47.30675" lon="-2.34029">
        <ele>35</ele>
        <time>2019-07-14T09:20:08.000Z</time>
      </trkpt>
      <trkpt lat="47.30668" lon="-2.34038">
        <ele>35</ele>
        <time>2019-07-14T09:20:10.000Z</time>
      </trkpt>
      <trkpt lat="47.30662" lon="-2.34045">
        <ele>35</ele>
        <time>2019-07-14T09:20:12.000Z</time>
      </trkpt>
      <trkpt lat="47.30654" lon="-2.34051">
        <ele>35</ele>
        <time>2019-07-14T09:20:14.000Z</time>
      </trkpt>
      <trkpt lat="47.3065" lon="-2.34054">
        <ele>35</ele>
        <time>2019-07-14T09:20:15.000Z</time>
      </trkpt>
      <trkpt lat="47.30641" lon="-2.34057">
        <ele>35</ele>
        <time>2019-07-14T09:20:18.000Z</time>
      </trkpt>
      <trkpt lat="47.30626" lon="-2.34064">
        <ele>35</ele>
        <time>2019-07-14T09:20:23.000Z</time>
      </trkpt>
      <trkpt lat="47.3061" lon="-2.34077">
        <ele>35</ele>
        <time>2019-07-14T09:20:28.000Z</time>
      </trkpt>
      <trkpt lat="47.30596" lon="-2.34103">
        <ele>35</ele>
        <time>2019-07-14T09:20:34.000Z</time>
      </trkpt>
      <trkpt lat="47.30582" lon="-2.3413">
        <ele>35</ele>
        <time>2019-07-14T09:20:40.000Z</time>
      </trkpt>
      <trkpt lat="47.30568" lon="-2.34146">
        <ele>35</ele>
        <time>2019-07-14T09:20:45.000Z</time>
      </trkpt>
      <trkpt lat="47.30557" lon="-2.34161">
        <ele>35</ele>
        <time>2019-07-14T09:20:50.000Z</time>
      </trkpt>
      <trkpt lat="47.30553" lon="-2.34167">
        <ele>35</ele>
        <time>2019-07-14T09:20:52.000Z</time>
      </trkpt>
      <trkpt lat="47.30545" lon="-2.34172">
        <ele>35</ele>
        <time>2019-07-14T09:20:55.000Z</time>
      </trkpt>
      <trkpt lat="47.30531" lon="-2.34181">
        <ele>35</ele>
        <time>2019-07-14T09:21:00.000Z</time>
      </trkpt>
      <trkpt lat="47.30521" lon="-2.34193">
        <ele>35</ele>
        <time>2019-07-14T09:21:04.000Z</time>
      </trkpt>
      <trkpt lat="47.30511" lon="-2.34215">
        <ele>35</ele>
        <time>2019-07-14T09:21:09.000Z</time>
      </trkpt>
      <trkpt lat="47.30502" lon="-2.34237">
        <ele>35.400001525879</ele>
        <time>2019-07-14T09:21:14.000Z</time>
      </trkpt>
      <trkpt lat="47.305" lon="-2.34239">
        <ele>35.799999237061</ele>
        <time>2019-07-14T09:21:15.000Z</time>
      </trkpt>
      <trkpt lat="47.30497" lon="-2.34244">
        <ele>36.200000762939</ele>
        <time>2019-07-14T09:21:16.000Z</time>
      </trkpt>
      <trkpt lat="47.30495" lon="-2.34249">
        <ele>36.599998474121</ele>
        <time>2019-07-14T09:21:17.000Z</time>
      </trkpt>
      <trkpt lat="47.30493" lon="-2.34254">
        <ele>37</ele>
        <time>2019-07-14T09:21:18.000Z</time>
      </trkpt>
      <trkpt lat="47.30488" lon="-2.34271">
        <ele>37</ele>
        <time>2019-07-14T09:21:21.000Z</time>
      </trkpt>
      <trkpt lat="47.30491" lon="-2.34288">
        <ele>37</ele>
        <time>2019-07-14T09:21:24.000Z</time>
      </trkpt>
      <trkpt lat="47.30496" lon="-2.34293">
        <ele>37</ele>
        <time>2019-07-14T09:21:25.000Z</time>
      </trkpt>
      <trkpt lat="47.30503" lon="-2.34305">
        <ele>37</ele>
        <time>2019-07-14T09:21:28.000Z</time>
      </trkpt>
      <trkpt lat="47.30505" lon="-2.34313">
        <ele>37</ele>
        <time>2019-07-14T09:21:30.000Z</time>
      </trkpt>
      <trkpt lat="47.3051" lon="-2.3434">
        <ele>37</ele>
        <time>2019-07-14T09:21:36.000Z</time>
      </trkpt>
      <trkpt lat="47.3051" lon="-2.34367">
        <ele>37</ele>
        <time>2019-07-14T09:21:41.000Z</time>
      </trkpt>
      <trkpt lat="47.30504" lon="-2.34399">
        <ele>37</ele>
        <time>2019-07-14T09:21:47.000Z</time>
      </trkpt>
      <trkpt lat="47.30503" lon="-2.34405">
        <ele>37</ele>
        <time>2019-07-14T09:21:48.000Z</time>
      </trkpt>
      <trkpt lat="47.30503" lon="-2.34414">
        <ele>37</ele>
        <time>2019-07-14T09:21:50.000Z</time>
      </trkpt>
      <trkpt lat="47.30505" lon="-2.34433">
        <ele>37</ele>
        <time>2019-07-14T09:21:54.000Z</time>
      </trkpt>
      <trkpt lat="47.30506" lon="-2.34439">
        <ele>37</ele>
        <time>2019-07-14T09:21:55.000Z</time>
      </trkpt>
      <trkpt lat="47.30508" lon="-2.34456">
        <ele>37</ele>
        <time>2019-07-14T09:21:58.000Z</time>
      </trkpt>
      <trkpt lat="47.3051" lon="-2.3446">
        <ele>37</ele>
        <time>2019-07-14T09:21:59.000Z</time>
      </trkpt>
      <trkpt lat="47.30518" lon="-2.34468">
        <ele>37</ele>
        <time>2019-07-14T09:22:02.000Z</time>
      </trkpt>
      <trkpt lat="47.30523" lon="-2.34472">
        <ele>37</ele>
        <time>2019-07-14T09:22:04.000Z</time>
      </trkpt>
      <trkpt lat="47.30539" lon="-2.34487">
        <ele>37</ele>
        <time>2019-07-14T09:22:09.000Z</time>
      </trkpt>
      <trkpt lat="47.3055" lon="-2.34505">
        <ele>37</ele>
        <time>2019-07-14T09:22:14.000Z</time>
      </trkpt>
      <trkpt lat="47.30559" lon="-2.34522">
        <ele>37</ele>
        <time>2019-07-14T09:22:19.000Z</time>
      </trkpt>
      <trkpt lat="47.30561" lon="-2.3453">
        <ele>37</ele>
        <time>2019-07-14T09:22:21.000Z</time>
      </trkpt>
      <trkpt lat="47.30558" lon="-2.34537">
        <ele>37</ele>
        <time>2019-07-14T09:22:23.000Z</time>
      </trkpt>
      <trkpt lat="47.3055" lon="-2.34551">
        <ele>37</ele>
        <time>2019-07-14T09:22:26.000Z</time>
      </trkpt>
      <trkpt lat="47.30546" lon="-2.34558">
        <ele>37</ele>
        <time>2019-07-14T09:22:27.000Z</time>
      </trkpt>
      <trkpt lat="47.30539" lon="-2.3457">
        <ele>37</ele>
        <time>2019-07-14T09:22:29.000Z</time>
      </trkpt>
      <trkpt lat="47.30528" lon="-2.34585">
        <ele>37</ele>
        <time>2019-07-14T09:22:32.000Z</time>
      </trkpt>
      <trkpt lat="47.3052" lon="-2.34599">
        <ele>37</ele>
        <time>2019-07-14T09:22:36.000Z</time>
      </trkpt>
      <trkpt lat="47.30509" lon="-2.34622">
        <ele>37</ele>
        <time>2019-07-14T09:22:41.000Z</time>
      </trkpt>
      <trkpt lat="47.30501" lon="-2.34637">
        <ele>37</ele>
        <time>2019-07-14T09:22:44.000Z</time>
      </trkpt>
      <trkpt lat="47.3049" lon="-2.34651">
        <ele>37</ele>
        <time>2019-07-14T09:22:47.000Z</time>
      </trkpt>
      <trkpt lat="47.30487" lon="-2.34655">
        <ele>37</ele>
        <time>2019-07-14T09:22:48.000Z</time>
      </trkpt>
      <trkpt lat="47.30467" lon="-2.34678">
        <ele>37</ele>
        <time>2019-07-14T09:22:52.000Z</time>
      </trkpt>
      <trkpt lat="47.30461" lon="-2.34683">
        <ele>37</ele>
        <time>2019-07-14T09:22:53.000Z</time>
      </trkpt>
      <trkpt lat="47.30444" lon="-2.34699">
        <ele>37</ele>
        <time>2019-07-14T09:22:56.000Z</time>
      </trkpt>
      <trkpt lat="47.30414" lon="-2.34727">
        <ele>37</ele>
        <time>2019-07-14T09:23:01.000Z</time>
      </trkpt>
      <trkpt lat="47.30381" lon="-2.34751">
        <ele>37</ele>
        <time>2019-07-14T09:23:07.000Z</time>
      </trkpt>
      <trkpt lat="47.30356" lon="-2.34769">
        <ele>37</ele>
        <time>2019-07-14T09:23:12.000Z</time>
      </trkpt>
      <trkpt lat="47.3035" lon="-2.34773">
        <ele>37</ele>
        <time>2019-07-14T09:23:13.000Z</time>
      </trkpt>
      <trkpt lat="47.30339" lon="-2.34785">
        <ele>37</ele>
        <time>2019-07-14T09:23:15.000Z</time>
      </trkpt>
      <trkpt lat="47.30335" lon="-2.34793">
        <ele>37</ele>
        <time>2019-07-14T09:23:16.000Z</time>
      </trkpt>
      <trkpt lat="47.30309" lon="-2.34835">
        <ele>37</ele>
        <time>2019-07-14T09:23:22.000Z</time>
      </trkpt>
      <trkpt lat="47.30294" lon="-2.34851">
        <ele>37</ele>
        <time>2019-07-14T09:23:25.000Z</time>
      </trkpt>
      <trkpt lat="47.3029" lon="-2.34853">
        <ele>37</ele>
        <time>2019-07-14T09:23:26.000Z</time>
      </trkpt>
      <trkpt lat="47.30262" lon="-2.34868">
        <ele>37</ele>
        <time>2019-07-14T09:23:31.000Z</time>
      </trkpt>
      <trkpt lat="47.30237" lon="-2.34886">
        <ele>37</ele>
        <time>2019-07-14T09:23:35.000Z</time>
      </trkpt>
      <trkpt lat="47.30231" lon="-2.34892">
        <ele>37</ele>
        <time>2019-07-14T09:23:36.000Z</time>
      </trkpt>
      <trkpt lat="47.30225" lon="-2.34897">
        <ele>37</ele>
        <time>2019-07-14T09:23:37.000Z</time>
      </trkpt>
      <trkpt lat="47.30214" lon="-2.34908">
        <ele>37</ele>
        <time>2019-07-14T09:23:39.000Z</time>
      </trkpt>
      <trkpt lat="47.30212" lon="-2.34916">
        <ele>37</ele>
        <time>2019-07-14T09:23:40.000Z</time>
      </trkpt>
      <trkpt lat="47.3021" lon="-2.34943">
        <ele>37</ele>
        <time>2019-07-14T09:23:43.000Z</time>
      </trkpt>
      <trkpt lat="47.30209" lon="-2.34998">
        <ele>37</ele>
        <time>2019-07-14T09:23:48.000Z</time>
      </trkpt>
      <trkpt lat="47.3021" lon="-2.3502">
        <ele>37</ele>
        <time>2019-07-14T09:23:50.000Z</time>
      </trkpt>
      <trkpt lat="47.30209" lon="-2.35043">
        <ele>36.599998474121</ele>
        <time>2019-07-14T09:23:52.000Z</time>
      </trkpt>
      <trkpt lat="47.3021" lon="-2.35053">
        <ele>36.200000762939</ele>
        <time>2019-07-14T09:23:53.000Z</time>
      </trkpt>
      <trkpt lat="47.3021" lon="-2.35063">
        <ele>35.799999237061</ele>
        <time>2019-07-14T09:23:54.000Z</time>
      </trkpt>
      <trkpt lat="47.3021" lon="-2.35073">
        <ele>35.400001525879</ele>
        <time>2019-07-14T09:23:55.000Z</time>
      </trkpt>
      <trkpt lat="47.3021" lon="-2.35082">
        <ele>34.799999237061</ele>
        <time>2019-07-14T09:23:56.000Z</time>
      </trkpt>
      <trkpt lat="47.30209" lon="-2.35111">
        <ele>34.799999237061</ele>
        <time>2019-07-14T09:23:59.000Z</time>
      </trkpt>
      <trkpt lat="47.30208" lon="-2.35149">
        <ele>34.400001525879</ele>
        <time>2019-07-14T09:24:03.000Z</time>
      </trkpt>
      <trkpt lat="47.30207" lon="-2.35158">
        <ele>33.599998474121</ele>
        <time>2019-07-14T09:24:04.000Z</time>
      </trkpt>
      <trkpt lat="47.30205" lon="-2.35165">
        <ele>33.200000762939</ele>
        <time>2019-07-14T09:24:05.000Z</time>
      </trkpt>
      <trkpt lat="47.302" lon="-2.35169">
        <ele>32.599998474121</ele>
        <time>2019-07-14T09:24:06.000Z</time>
      </trkpt>
      <trkpt lat="47.30191" lon="-2.35173">
        <ele>32.599998474121</ele>
        <time>2019-07-14T09:24:08.000Z</time>
      </trkpt>
      <trkpt lat="47.30182" lon="-2.35176">
        <ele>32.599998474121</ele>
        <time>2019-07-14T09:24:10.000Z</time>
      </trkpt>
      <trkpt lat="47.30168" lon="-2.35183">
        <ele>32.599998474121</ele>
        <time>2019-07-14T09:24:13.000Z</time>
      </trkpt>
      <trkpt lat="47.30163" lon="-2.35186">
        <ele>32.599998474121</ele>
        <time>2019-07-14T09:24:14.000Z</time>
      </trkpt>
      <trkpt lat="47.30154" lon="-2.35193">
        <ele>32.599998474121</ele>
        <time>2019-07-14T09:24:16.000Z</time>
      </trkpt>
      <trkpt lat="47.30145" lon="-2.35196">
        <ele>32.599998474121</ele>
        <time>2019-07-14T09:24:18.000Z</time>
      </trkpt>
      <trkpt lat="47.30117" lon="-2.35206">
        <ele>32.599998474121</ele>
        <time>2019-07-14T09:24:23.000Z</time>
      </trkpt>
      <trkpt lat="47.30081" lon="-2.35217">
        <ele>32.599998474121</ele>
        <time>2019-07-14T09:24:29.000Z</time>
      </trkpt>
      <trkpt lat="47.30075" lon="-2.3522">
        <ele>32.599998474121</ele>
        <time>2019-07-14T09:24:30.000Z</time>
      </trkpt>
      <trkpt lat="47.30059" lon="-2.35228">
        <ele>32.599998474121</ele>
        <time>2019-07-14T09:24:33.000Z</time>
      </trkpt>
      <trkpt lat="47.30036" lon="-2.35242">
        <ele>32.599998474121</ele>
        <time>2019-07-14T09:24:38.000Z</time>
      </trkpt>
      <trkpt lat="47.30033" lon="-2.35244">
        <ele>32.200000762939</ele>
        <time>2019-07-14T09:24:39.000Z</time>
      </trkpt>
      <trkpt lat="47.30031" lon="-2.35245">
        <ele>31.799999237061</ele>
        <time>2019-07-14T09:24:40.000Z</time>
      </trkpt>
      <trkpt lat="47.3003" lon="-2.35246">
        <ele>31.39999961853</ele>
        <time>2019-07-14T09:24:41.000Z</time>
      </trkpt>
      <trkpt lat="47.30028" lon="-2.35246">
        <ele>31</ele>
        <time>2019-07-14T09:24:42.000Z</time>
      </trkpt>
      <trkpt lat="47.30026" lon="-2.35246">
        <ele>30.39999961853</ele>
        <time>2019-07-14T09:24:43.000Z</time>
      </trkpt>
      <trkpt lat="47.3002" lon="-2.3525">
        <ele>30.39999961853</ele>
        <time>2019-07-14T09:24:45.000Z</time>
      </trkpt>
      <trkpt lat="47.30013" lon="-2.35255">
        <ele>30.39999961853</ele>
        <time>2019-07-14T09:24:48.000Z</time>
      </trkpt>
      <trkpt lat="47.30006" lon="-2.35259">
        <ele>30.39999961853</ele>
        <time>2019-07-14T09:24:51.000Z</time>
      </trkpt>
      <trkpt lat="47.29993" lon="-2.35272">
        <ele>30.39999961853</ele>
        <time>2019-07-14T09:24:55.000Z</time>
      </trkpt>
      <trkpt lat="47.29968" lon="-2.353">
        <ele>30.39999961853</ele>
        <time>2019-07-14T09:25:02.000Z</time>
      </trkpt>
      <trkpt lat="47.2996" lon="-2.35309">
        <ele>30.39999961853</ele>
        <time>2019-07-14T09:25:04.000Z</time>
      </trkpt>
      <trkpt lat="47.29945" lon="-2.35327">
        <ele>30.39999961853</ele>
        <time>2019-07-14T09:25:08.000Z</time>
      </trkpt>
      <trkpt lat="47.29913" lon="-2.35367">
        <ele>30.39999961853</ele>
        <time>2019-07-14T09:25:16.000Z</time>
      </trkpt>
      <trkpt lat="47.29888" lon="-2.35394">
        <ele>30.39999961853</ele>
        <time>2019-07-14T09:25:22.000Z</time>
      </trkpt>
      <trkpt lat="47.29858" lon="-2.35425">
        <ele>30.39999961853</ele>
        <time>2019-07-14T09:25:29.000Z</time>
      </trkpt>
      <trkpt lat="47.29833" lon="-2.35454">
        <ele>30.39999961853</ele>
        <time>2019-07-14T09:25:35.000Z</time>
      </trkpt>
      <trkpt lat="47.2983" lon="-2.35461">
        <ele>30.39999961853</ele>
        <time>2019-07-14T09:25:36.000Z</time>
      </trkpt>
      <trkpt lat="47.29829" lon="-2.35485">
        <ele>30.39999961853</ele>
        <time>2019-07-14T09:25:39.000Z</time>
      </trkpt>
      <trkpt lat="47.29832" lon="-2.35499">
        <ele>31</ele>
        <time>2019-07-14T09:25:41.000Z</time>
      </trkpt>
      <trkpt lat="47.29835" lon="-2.35506">
        <ele>31.39999961853</ele>
        <time>2019-07-14T09:25:42.000Z</time>
      </trkpt>
      <trkpt lat="47.29837" lon="-2.35513">
        <ele>31.799999237061</ele>
        <time>2019-07-14T09:25:43.000Z</time>
      </trkpt>
      <trkpt lat="47.29839" lon="-2.3552">
        <ele>32.599998474121</ele>
        <time>2019-07-14T09:25:44.000Z</time>
      </trkpt>
      <trkpt lat="47.29854" lon="-2.3557">
        <ele>32.599998474121</ele>
        <time>2019-07-14T09:25:51.000Z</time>
      </trkpt>
      <trkpt lat="47.2986" lon="-2.35592">
        <ele>33</ele>
        <time>2019-07-14T09:25:54.000Z</time>
      </trkpt>
      <trkpt lat="47.29863" lon="-2.356">
        <ele>33.400001525879</ele>
        <time>2019-07-14T09:25:55.000Z</time>
      </trkpt>
      <trkpt lat="47.29865" lon="-2.35607">
        <ele>33.799999237061</ele>
        <time>2019-07-14T09:25:56.000Z</time>
      </trkpt>
      <trkpt lat="47.29867" lon="-2.35615">
        <ele>34.200000762939</ele>
        <time>2019-07-14T09:25:57.000Z</time>
      </trkpt>
      <trkpt lat="47.29868" lon="-2.35622">
        <ele>34.599998474121</ele>
        <time>2019-07-14T09:25:58.000Z</time>
      </trkpt>
      <trkpt lat="47.29876" lon="-2.35676">
        <ele>34.599998474121</ele>
        <time>2019-07-14T09:26:05.000Z</time>
      </trkpt>
      <trkpt lat="47.29885" lon="-2.35715">
        <ele>34.599998474121</ele>
        <time>2019-07-14T09:26:11.000Z</time>
      </trkpt>
      <trkpt lat="47.29895" lon="-2.35746">
        <ele>34.599998474121</ele>
        <time>2019-07-14T09:26:17.000Z</time>
      </trkpt>
      <trkpt lat="47.29896" lon="-2.35752">
        <ele>34.599998474121</ele>
        <time>2019-07-14T09:26:21.000Z</time>
      </trkpt>
      <trkpt lat="47.29896" lon="-2.35755">
        <ele>34.599998474121</ele>
        <time>2019-07-14T09:26:23.000Z</time>
      </trkpt>
      <trkpt lat="47.29893" lon="-2.35761">
        <ele>34.599998474121</ele>
        <time>2019-07-14T09:26:25.000Z</time>
      </trkpt>
      <trkpt lat="47.29882" lon="-2.35768">
        <ele>34.599998474121</ele>
        <time>2019-07-14T09:26:28.000Z</time>
      </trkpt>
      <trkpt lat="47.29878" lon="-2.35769">
        <ele>34.599998474121</ele>
        <time>2019-07-14T09:26:29.000Z</time>
      </trkpt>
      <trkpt lat="47.29848" lon="-2.35781">
        <ele>34.599998474121</ele>
        <time>2019-07-14T09:26:35.000Z</time>
      </trkpt>
      <trkpt lat="47.29843" lon="-2.35784">
        <ele>34.599998474121</ele>
        <time>2019-07-14T09:26:36.000Z</time>
      </trkpt>
      <trkpt lat="47.29828" lon="-2.3579">
        <ele>34.599998474121</ele>
        <time>2019-07-14T09:26:39.000Z</time>
      </trkpt>
      <trkpt lat="47.29819" lon="-2.35794">
        <ele>35</ele>
        <time>2019-07-14T09:26:41.000Z</time>
      </trkpt>
      <trkpt lat="47.29814" lon="-2.35795">
        <ele>35.599998474121</ele>
        <time>2019-07-14T09:26:42.000Z</time>
      </trkpt>
      <trkpt lat="47.29809" lon="-2.35797">
        <ele>36</ele>
        <time>2019-07-14T09:26:43.000Z</time>
      </trkpt>
      <trkpt lat="47.29804" lon="-2.35798">
        <ele>36.400001525879</ele>
        <time>2019-07-14T09:26:44.000Z</time>
      </trkpt>
      <trkpt lat="47.29799" lon="-2.358">
        <ele>36.799999237061</ele>
        <time>2019-07-14T09:26:45.000Z</time>
      </trkpt>
      <trkpt lat="47.29778" lon="-2.35806">
        <ele>36.799999237061</ele>
        <time>2019-07-14T09:26:49.000Z</time>
      </trkpt>
      <trkpt lat="47.29739" lon="-2.35821">
        <ele>36.799999237061</ele>
        <time>2019-07-14T09:26:56.000Z</time>
      </trkpt>
      <trkpt lat="47.29703" lon="-2.35839">
        <ele>36.799999237061</ele>
        <time>2019-07-14T09:27:01.000Z</time>
      </trkpt>
      <trkpt lat="47.29673" lon="-2.35851">
        <ele>36.799999237061</ele>
        <time>2019-07-14T09:27:05.000Z</time>
      </trkpt>
      <trkpt lat="47.29666" lon="-2.35857">
        <ele>36.799999237061</ele>
        <time>2019-07-14T09:27:06.000Z</time>
      </trkpt>
      <trkpt lat="47.29654" lon="-2.35867">
        <ele>36.400001525879</ele>
        <time>2019-07-14T09:27:08.000Z</time>
      </trkpt>
      <trkpt lat="47.29647" lon="-2.35872">
        <ele>36</ele>
        <time>2019-07-14T09:27:09.000Z</time>
      </trkpt>
      <trkpt lat="47.2964" lon="-2.35876">
        <ele>35.599998474121</ele>
        <time>2019-07-14T09:27:10.000Z</time>
      </trkpt>
      <trkpt lat="47.29633" lon="-2.35879">
        <ele>35.200000762939</ele>
        <time>2019-07-14T09:27:11.000Z</time>
      </trkpt>
      <trkpt lat="47.29626" lon="-2.35883">
        <ele>34.799999237061</ele>
        <time>2019-07-14T09:27:12.000Z</time>
      </trkpt>
      <trkpt lat="47.29595" lon="-2.35902">
        <ele>34.799999237061</ele>
        <time>2019-07-14T09:27:17.000Z</time>
      </trkpt>
      <trkpt lat="47.29577" lon="-2.35912">
        <ele>34.799999237061</ele>
        <time>2019-07-14T09:27:20.000Z</time>
      </trkpt>
      <trkpt lat="47.29553" lon="-2.35926">
        <ele>34.799999237061</ele>
        <time>2019-07-14T09:27:24.000Z</time>
      </trkpt>
      <trkpt lat="47.29518" lon="-2.35945">
        <ele>34.799999237061</ele>
        <time>2019-07-14T09:27:30.000Z</time>
      </trkpt>
      <trkpt lat="47.29508" lon="-2.35939">
        <ele>34.799999237061</ele>
        <time>2019-07-14T09:27:32.000Z</time>
      </trkpt>
      <trkpt lat="47.29502" lon="-2.35917">
        <ele>34.799999237061</ele>
        <time>2019-07-14T09:27:35.000Z</time>
      </trkpt>
      <trkpt lat="47.29498" lon="-2.35904">
        <ele>34.799999237061</ele>
        <time>2019-07-14T09:27:37.000Z</time>
      </trkpt>
      <trkpt lat="47.2949" lon="-2.35898">
        <ele>34.799999237061</ele>
        <time>2019-07-14T09:27:39.000Z</time>
      </trkpt>
      <trkpt lat="47.29471" lon="-2.35899">
        <ele>34.799999237061</ele>
        <time>2019-07-14T09:27:43.000Z</time>
      </trkpt>
      <trkpt lat="47.29461" lon="-2.35901">
        <ele>34.799999237061</ele>
        <time>2019-07-14T09:27:45.000Z</time>
      </trkpt>
      <trkpt lat="47.29439" lon="-2.35914">
        <ele>34.799999237061</ele>
        <time>2019-07-14T09:27:50.000Z</time>
      </trkpt>
      <trkpt lat="47.29432" lon="-2.35906">
        <ele>34.799999237061</ele>
        <time>2019-07-14T09:27:52.000Z</time>
      </trkpt>
      <trkpt lat="47.29425" lon="-2.35896">
        <ele>34.799999237061</ele>
        <time>2019-07-14T09:27:54.000Z</time>
      </trkpt>
      <trkpt lat="47.29418" lon="-2.35886">
        <ele>34.799999237061</ele>
        <time>2019-07-14T09:27:56.000Z</time>
      </trkpt>
      <trkpt lat="47.2941" lon="-2.35877">
        <ele>34.799999237061</ele>
        <time>2019-07-14T09:27:58.000Z</time>
      </trkpt>
      <trkpt lat="47.29395" lon="-2.35859">
        <ele>34.799999237061</ele>
        <time>2019-07-14T09:28:02.000Z</time>
      </trkpt>
      <trkpt lat="47.29386" lon="-2.3585">
        <ele>34.799999237061</ele>
        <time>2019-07-14T09:28:04.000Z</time>
      </trkpt>
      <trkpt lat="47.2936" lon="-2.35824">
        <ele>34.799999237061</ele>
        <time>2019-07-14T09:28:10.000Z</time>
      </trkpt>
      <trkpt lat="47.29355" lon="-2.3582">
        <ele>34.799999237061</ele>
        <time>2019-07-14T09:28:11.000Z</time>
      </trkpt>
      <trkpt lat="47.29328" lon="-2.35796">
        <ele>34.799999237061</ele>
        <time>2019-07-14T09:28:17.000Z</time>
      </trkpt>
      <trkpt lat="47.29319" lon="-2.35791">
        <ele>34.799999237061</ele>
        <time>2019-07-14T09:28:19.000Z</time>
      </trkpt>
      <trkpt lat="47.29315" lon="-2.35793">
        <ele>34.799999237061</ele>
        <time>2019-07-14T09:28:20.000Z</time>
      </trkpt>
      <trkpt lat="47.29299" lon="-2.35812">
        <ele>34.799999237061</ele>
        <time>2019-07-14T09:28:24.000Z</time>
      </trkpt>
      <trkpt lat="47.29286" lon="-2.35826">
        <ele>34.799999237061</ele>
        <time>2019-07-14T09:28:27.000Z</time>
      </trkpt>
      <trkpt lat="47.29275" lon="-2.35832">
        <ele>34.799999237061</ele>
        <time>2019-07-14T09:28:29.000Z</time>
      </trkpt>
      <trkpt lat="47.29245" lon="-2.35847">
        <ele>34.799999237061</ele>
        <time>2019-07-14T09:28:35.000Z</time>
      </trkpt>
      <trkpt lat="47.2924" lon="-2.35844">
        <ele>34.799999237061</ele>
        <time>2019-07-14T09:28:36.000Z</time>
      </trkpt>
      <trkpt lat="47.29234" lon="-2.35825">
        <ele>34.799999237061</ele>
        <time>2019-07-14T09:28:39.000Z</time>
      </trkpt>
      <trkpt lat="47.29233" lon="-2.35818">
        <ele>34.799999237061</ele>
        <time>2019-07-14T09:28:40.000Z</time>
      </trkpt>
      <trkpt lat="47.29228" lon="-2.35797">
        <ele>34.799999237061</ele>
        <time>2019-07-14T09:28:43.000Z</time>
      </trkpt>
      <trkpt lat="47.29222" lon="-2.35787">
        <ele>34.799999237061</ele>
        <time>2019-07-14T09:28:45.000Z</time>
      </trkpt>
      <trkpt lat="47.29209" lon="-2.3579">
        <ele>34.799999237061</ele>
        <time>2019-07-14T09:28:48.000Z</time>
      </trkpt>
      <trkpt lat="47.29205" lon="-2.35794">
        <ele>34.799999237061</ele>
        <time>2019-07-14T09:28:49.000Z</time>
      </trkpt>
      <trkpt lat="47.29178" lon="-2.35814">
        <ele>34.799999237061</ele>
        <time>2019-07-14T09:28:54.000Z</time>
      </trkpt>
      <trkpt lat="47.29137" lon="-2.35847">
        <ele>34.799999237061</ele>
        <time>2019-07-14T09:29:01.000Z</time>
      </trkpt>
      <trkpt lat="47.29105" lon="-2.35884">
        <ele>34.799999237061</ele>
        <time>2019-07-14T09:29:07.000Z</time>
      </trkpt>
      <trkpt lat="47.29067" lon="-2.35929">
        <ele>34.799999237061</ele>
        <time>2019-07-14T09:29:14.000Z</time>
      </trkpt>
      <trkpt lat="47.2903" lon="-2.35972">
        <ele>34.799999237061</ele>
        <time>2019-07-14T09:29:21.000Z</time>
      </trkpt>
      <trkpt lat="47.2902" lon="-2.35983">
        <ele>34.799999237061</ele>
        <time>2019-07-14T09:29:23.000Z</time>
      </trkpt>
      <trkpt lat="47.28998" lon="-2.36004">
        <ele>34.799999237061</ele>
        <time>2019-07-14T09:29:27.000Z</time>
      </trkpt>
      <trkpt lat="47.28993" lon="-2.36009">
        <ele>34.799999237061</ele>
        <time>2019-07-14T09:29:28.000Z</time>
      </trkpt>
      <trkpt lat="47.28963" lon="-2.3604">
        <ele>34.799999237061</ele>
        <time>2019-07-14T09:29:34.000Z</time>
      </trkpt>
      <trkpt lat="47.28932" lon="-2.36061">
        <ele>34.799999237061</ele>
        <time>2019-07-14T09:29:40.000Z</time>
      </trkpt>
      <trkpt lat="47.28916" lon="-2.36071">
        <ele>34.799999237061</ele>
        <time>2019-07-14T09:29:43.000Z</time>
      </trkpt>
      <trkpt lat="47.28906" lon="-2.36079">
        <ele>34.799999237061</ele>
        <time>2019-07-14T09:29:45.000Z</time>
      </trkpt>
      <trkpt lat="47.28873" lon="-2.36113">
        <ele>34.799999237061</ele>
        <time>2019-07-14T09:29:52.000Z</time>
      </trkpt>
      <trkpt lat="47.28844" lon="-2.36143">
        <ele>34.799999237061</ele>
        <time>2019-07-14T09:29:58.000Z</time>
      </trkpt>
      <trkpt lat="47.28825" lon="-2.36169">
        <ele>34.799999237061</ele>
        <time>2019-07-14T09:30:03.000Z</time>
      </trkpt>
      <trkpt lat="47.28821" lon="-2.36174">
        <ele>34.799999237061</ele>
        <time>2019-07-14T09:30:04.000Z</time>
      </trkpt>
      <trkpt lat="47.28808" lon="-2.36185">
        <ele>34.799999237061</ele>
        <time>2019-07-14T09:30:07.000Z</time>
      </trkpt>
      <trkpt lat="47.28799" lon="-2.36191">
        <ele>34.799999237061</ele>
        <time>2019-07-14T09:30:09.000Z</time>
      </trkpt>
      <trkpt lat="47.2876" lon="-2.36216">
        <ele>34.799999237061</ele>
        <time>2019-07-14T09:30:18.000Z</time>
      </trkpt>
      <trkpt lat="47.28756" lon="-2.36218">
        <ele>34.799999237061</ele>
        <time>2019-07-14T09:30:19.000Z</time>
      </trkpt>
      <trkpt lat="47.28746" lon="-2.36229">
        <ele>34.799999237061</ele>
        <time>2019-07-14T09:30:22.000Z</time>
      </trkpt>
      <trkpt lat="47.28743" lon="-2.36231">
        <ele>34.799999237061</ele>
        <time>2019-07-14T09:30:23.000Z</time>
      </trkpt>
      <trkpt lat="47.28728" lon="-2.36244">
        <ele>34.799999237061</ele>
        <time>2019-07-14T09:30:28.000Z</time>
      </trkpt>
      <trkpt lat="47.28718" lon="-2.36257">
        <ele>34.799999237061</ele>
        <time>2019-07-14T09:30:33.000Z</time>
      </trkpt>
      <trkpt lat="47.28706" lon="-2.36275">
        <ele>34.799999237061</ele>
        <time>2019-07-14T09:30:39.000Z</time>
      </trkpt>
      <trkpt lat="47.28703" lon="-2.36277">
        <ele>35.599998474121</ele>
        <time>2019-07-14T09:30:40.000Z</time>
      </trkpt>
      <trkpt lat="47.287" lon="-2.36279">
        <ele>36</ele>
        <time>2019-07-14T09:30:41.000Z</time>
      </trkpt>
      <trkpt lat="47.28697" lon="-2.3628">
        <ele>36.400001525879</ele>
        <time>2019-07-14T09:30:42.000Z</time>
      </trkpt>
      <trkpt lat="47.28693" lon="-2.36282">
        <ele>36.799999237061</ele>
        <time>2019-07-14T09:30:43.000Z</time>
      </trkpt>
      <trkpt lat="47.2869" lon="-2.36282">
        <ele>36.799999237061</ele>
        <time>2019-07-14T09:30:44.000Z</time>
      </trkpt>
      <trkpt lat="47.28678" lon="-2.36278">
        <ele>36.799999237061</ele>
        <time>2019-07-14T09:30:48.000Z</time>
      </trkpt>
      <trkpt lat="47.28677" lon="-2.36274">
        <ele>37.400001525879</ele>
        <time>2019-07-14T09:30:49.000Z</time>
      </trkpt>
      <trkpt lat="47.28677" lon="-2.36271">
        <ele>37.799999237061</ele>
        <time>2019-07-14T09:30:50.000Z</time>
      </trkpt>
      <trkpt lat="47.28676" lon="-2.36266">
        <ele>38.200000762939</ele>
        <time>2019-07-14T09:30:51.000Z</time>
      </trkpt>
      <trkpt lat="47.28676" lon="-2.36262">
        <ele>38.599998474121</ele>
        <time>2019-07-14T09:30:52.000Z</time>
      </trkpt>
      <trkpt lat="47.28675" lon="-2.36257">
        <ele>39</ele>
        <time>2019-07-14T09:30:53.000Z</time>
      </trkpt>
      <trkpt lat="47.28675" lon="-2.36253">
        <ele>39</ele>
        <time>2019-07-14T09:30:54.000Z</time>
      </trkpt>
      <trkpt lat="47.28673" lon="-2.36223">
        <ele>39</ele>
        <time>2019-07-14T09:31:00.000Z</time>
      </trkpt>
      <trkpt lat="47.28672" lon="-2.36219">
        <ele>39.400001525879</ele>
        <time>2019-07-14T09:31:01.000Z</time>
      </trkpt>
      <trkpt lat="47.28671" lon="-2.36214">
        <ele>39.799999237061</ele>
        <time>2019-07-14T09:31:02.000Z</time>
      </trkpt>
      <trkpt lat="47.28669" lon="-2.36209">
        <ele>40.200000762939</ele>
        <time>2019-07-14T09:31:03.000Z</time>
      </trkpt>
      <trkpt lat="47.28667" lon="-2.36205">
        <ele>41.200000762939</ele>
        <time>2019-07-14T09:31:04.000Z</time>
      </trkpt>
      <trkpt lat="47.28661" lon="-2.36196">
        <ele>41.200000762939</ele>
        <time>2019-07-14T09:31:07.000Z</time>
      </trkpt>
      <trkpt lat="47.28658" lon="-2.36194">
        <ele>41.200000762939</ele>
        <time>2019-07-14T09:31:08.000Z</time>
      </trkpt>
      <trkpt lat="47.28644" lon="-2.36174">
        <ele>41.200000762939</ele>
        <time>2019-07-14T09:31:12.000Z</time>
      </trkpt>
      <trkpt lat="47.28639" lon="-2.36165">
        <ele>41.599998474121</ele>
        <time>2019-07-14T09:31:14.000Z</time>
      </trkpt>
      <trkpt lat="47.28636" lon="-2.3616">
        <ele>42</ele>
        <time>2019-07-14T09:31:15.000Z</time>
      </trkpt>
      <trkpt lat="47.28634" lon="-2.36156">
        <ele>42.400001525879</ele>
        <time>2019-07-14T09:31:16.000Z</time>
      </trkpt>
      <trkpt lat="47.2863" lon="-2.36153">
        <ele>42.799999237061</ele>
        <time>2019-07-14T09:31:17.000Z</time>
      </trkpt>
      <trkpt lat="47.28627" lon="-2.3615">
        <ele>43.200000762939</ele>
        <time>2019-07-14T09:31:18.000Z</time>
      </trkpt>
      <trkpt lat="47.28624" lon="-2.36149">
        <ele>43.200000762939</ele>
        <time>2019-07-14T09:31:19.000Z</time>
      </trkpt>
      <trkpt lat="47.28611" lon="-2.36156">
        <ele>43.200000762939</ele>
        <time>2019-07-14T09:31:24.000Z</time>
      </trkpt>
      <trkpt lat="47.28594" lon="-2.36156">
        <ele>43.200000762939</ele>
        <time>2019-07-14T09:31:28.000Z</time>
      </trkpt>
      <trkpt lat="47.28578" lon="-2.3615">
        <ele>43.200000762939</ele>
        <time>2019-07-14T09:31:33.000Z</time>
      </trkpt>
      <trkpt lat="47.28562" lon="-2.36155">
        <ele>43.200000762939</ele>
        <time>2019-07-14T09:31:37.000Z</time>
      </trkpt>
      <trkpt lat="47.28552" lon="-2.36156">
        <ele>42.799999237061</ele>
        <time>2019-07-14T09:31:40.000Z</time>
      </trkpt>
      <trkpt lat="47.2855" lon="-2.36153">
        <ele>42.400001525879</ele>
        <time>2019-07-14T09:31:41.000Z</time>
      </trkpt>
      <trkpt lat="47.28547" lon="-2.36147">
        <ele>41.799999237061</ele>
        <time>2019-07-14T09:31:42.000Z</time>
      </trkpt>
      <trkpt lat="47.28545" lon="-2.36141">
        <ele>41.400001525879</ele>
        <time>2019-07-14T09:31:43.000Z</time>
      </trkpt>
      <trkpt lat="47.28543" lon="-2.36135">
        <ele>41</ele>
        <time>2019-07-14T09:31:44.000Z</time>
      </trkpt>
      <trkpt lat="47.2854" lon="-2.36128">
        <ele>41</ele>
        <time>2019-07-14T09:31:45.000Z</time>
      </trkpt>
      <trkpt lat="47.28538" lon="-2.36121">
        <ele>41</ele>
        <time>2019-07-14T09:31:46.000Z</time>
      </trkpt>
      <trkpt lat="47.28533" lon="-2.361">
        <ele>41</ele>
        <time>2019-07-14T09:31:49.000Z</time>
      </trkpt>
      <trkpt lat="47.28523" lon="-2.36079">
        <ele>41</ele>
        <time>2019-07-14T09:31:54.000Z</time>
      </trkpt>
      <trkpt lat="47.28507" lon="-2.36053">
        <ele>41</ele>
        <time>2019-07-14T09:32:00.000Z</time>
      </trkpt>
      <trkpt lat="47.28496" lon="-2.36046">
        <ele>41</ele>
        <time>2019-07-14T09:32:03.000Z</time>
      </trkpt>
      <trkpt lat="47.28491" lon="-2.36045">
        <ele>41</ele>
        <time>2019-07-14T09:32:04.000Z</time>
      </trkpt>
      <trkpt lat="47.28475" lon="-2.36033">
        <ele>41</ele>
        <time>2019-07-14T09:32:08.000Z</time>
      </trkpt>
      <trkpt lat="47.28466" lon="-2.36018">
        <ele>41</ele>
        <time>2019-07-14T09:32:11.000Z</time>
      </trkpt>
      <trkpt lat="47.28459" lon="-2.36002">
        <ele>41</ele>
        <time>2019-07-14T09:32:14.000Z</time>
      </trkpt>
      <trkpt lat="47.28456" lon="-2.35999">
        <ele>41</ele>
        <time>2019-07-14T09:32:15.000Z</time>
      </trkpt>
      <trkpt lat="47.28451" lon="-2.35996">
        <ele>41</ele>
        <time>2019-07-14T09:32:17.000Z</time>
      </trkpt>
      <trkpt lat="47.28437" lon="-2.35998">
        <ele>41</ele>
        <time>2019-07-14T09:32:21.000Z</time>
      </trkpt>
      <trkpt lat="47.28434" lon="-2.35999">
        <ele>41</ele>
        <time>2019-07-14T09:32:22.000Z</time>
      </trkpt>
      <trkpt lat="47.28418" lon="-2.3601">
        <ele>41</ele>
        <time>2019-07-14T09:32:27.000Z</time>
      </trkpt>
      <trkpt lat="47.28406" lon="-2.36016">
        <ele>41</ele>
        <time>2019-07-14T09:32:30.000Z</time>
      </trkpt>
      <trkpt lat="47.28402" lon="-2.36017">
        <ele>41</ele>
        <time>2019-07-14T09:32:31.000Z</time>
      </trkpt>
      <trkpt lat="47.28391" lon="-2.36018">
        <ele>40.599998474121</ele>
        <time>2019-07-14T09:32:33.000Z</time>
      </trkpt>
      <trkpt lat="47.28385" lon="-2.36018">
        <ele>40.200000762939</ele>
        <time>2019-07-14T09:32:34.000Z</time>
      </trkpt>
      <trkpt lat="47.28377" lon="-2.3602">
        <ele>39.599998474121</ele>
        <time>2019-07-14T09:32:35.000Z</time>
      </trkpt>
      <trkpt lat="47.2837" lon="-2.36021">
        <ele>39.200000762939</ele>
        <time>2019-07-14T09:32:36.000Z</time>
      </trkpt>
      <trkpt lat="47.28363" lon="-2.36024">
        <ele>38.599998474121</ele>
        <time>2019-07-14T09:32:37.000Z</time>
      </trkpt>
      <trkpt lat="47.28356" lon="-2.36027">
        <ele>38</ele>
        <time>2019-07-14T09:32:38.000Z</time>
      </trkpt>
      <trkpt lat="47.28349" lon="-2.36031">
        <ele>37.200000762939</ele>
        <time>2019-07-14T09:32:39.000Z</time>
      </trkpt>
      <trkpt lat="47.28343" lon="-2.36036">
        <ele>36.400001525879</ele>
        <time>2019-07-14T09:32:40.000Z</time>
      </trkpt>
      <trkpt lat="47.28337" lon="-2.36041">
        <ele>35.599998474121</ele>
        <time>2019-07-14T09:32:41.000Z</time>
      </trkpt>
      <trkpt lat="47.28331" lon="-2.36045">
        <ele>34.799999237061</ele>
        <time>2019-07-14T09:32:42.000Z</time>
      </trkpt>
      <trkpt lat="47.28324" lon="-2.36049">
        <ele>34</ele>
        <time>2019-07-14T09:32:43.000Z</time>
      </trkpt>
      <trkpt lat="47.28319" lon="-2.3605">
        <ele>33.599998474121</ele>
        <time>2019-07-14T09:32:44.000Z</time>
      </trkpt>
      <trkpt lat="47.28315" lon="-2.36051">
        <ele>33.200000762939</ele>
        <time>2019-07-14T09:32:45.000Z</time>
      </trkpt>
      <trkpt lat="47.2831" lon="-2.36052">
        <ele>32.799999237061</ele>
        <time>2019-07-14T09:32:46.000Z</time>
      </trkpt>
      <trkpt lat="47.28305" lon="-2.36052">
        <ele>32.400001525879</ele>
        <time>2019-07-14T09:32:47.000Z</time>
      </trkpt>
      <trkpt lat="47.28301" lon="-2.36051">
        <ele>32</ele>
        <time>2019-07-14T09:32:48.000Z</time>
      </trkpt>
      <trkpt lat="47.28294" lon="-2.36048">
        <ele>32</ele>
        <time>2019-07-14T09:32:50.000Z</time>
      </trkpt>
      <trkpt lat="47.2829" lon="-2.36045">
        <ele>31.60000038147</ele>
        <time>2019-07-14T09:32:51.000Z</time>
      </trkpt>
      <trkpt lat="47.28288" lon="-2.36041">
        <ele>31.200000762939</ele>
        <time>2019-07-14T09:32:52.000Z</time>
      </trkpt>
      <trkpt lat="47.28285" lon="-2.36035">
        <ele>30.799999237061</ele>
        <time>2019-07-14T09:32:53.000Z</time>
      </trkpt>
      <trkpt lat="47.28283" lon="-2.36029">
        <ele>30</ele>
        <time>2019-07-14T09:32:54.000Z</time>
      </trkpt>
      <trkpt lat="47.28282" lon="-2.36023">
        <ele>29.39999961853</ele>
        <time>2019-07-14T09:32:55.000Z</time>
      </trkpt>
      <trkpt lat="47.28282" lon="-2.36016">
        <ele>28.60000038147</ele>
        <time>2019-07-14T09:32:56.000Z</time>
      </trkpt>
      <trkpt lat="47.28282" lon="-2.36007">
        <ele>27.799999237061</ele>
        <time>2019-07-14T09:32:57.000Z</time>
      </trkpt>
      <trkpt lat="47.28283" lon="-2.36001">
        <ele>27</ele>
        <time>2019-07-14T09:32:58.000Z</time>
      </trkpt>
      <trkpt lat="47.28284" lon="-2.35994">
        <ele>26.39999961853</ele>
        <time>2019-07-14T09:32:59.000Z</time>
      </trkpt>
      <trkpt lat="47.28283" lon="-2.35988">
        <ele>25.60000038147</ele>
        <time>2019-07-14T09:33:00.000Z</time>
      </trkpt>
      <trkpt lat="47.28283" lon="-2.35984">
        <ele>24.799999237061</ele>
        <time>2019-07-14T09:33:01.000Z</time>
      </trkpt>
      <trkpt lat="47.28276" lon="-2.35968">
        <ele>24.799999237061</ele>
        <time>2019-07-14T09:33:04.000Z</time>
      </trkpt>
      <trkpt lat="47.28274" lon="-2.35964">
        <ele>24.799999237061</ele>
        <time>2019-07-14T09:33:05.000Z</time>
      </trkpt>
      <trkpt lat="47.28268" lon="-2.35953">
        <ele>24.799999237061</ele>
        <time>2019-07-14T09:33:07.000Z</time>
      </trkpt>
      <trkpt lat="47.28259" lon="-2.35938">
        <ele>24.799999237061</ele>
        <time>2019-07-14T09:33:10.000Z</time>
      </trkpt>
      <trkpt lat="47.28253" lon="-2.35922">
        <ele>24.799999237061</ele>
        <time>2019-07-14T09:33:15.000Z</time>
      </trkpt>
      <trkpt lat="47.28246" lon="-2.35917">
        <ele>24.799999237061</ele>
        <time>2019-07-14T09:33:20.000Z</time>
      </trkpt>
      <trkpt lat="47.28244" lon="-2.35918">
        <ele>24.799999237061</ele>
        <time>2019-07-14T09:33:21.000Z</time>
      </trkpt>
      <trkpt lat="47.28233" lon="-2.35917">
        <ele>24.799999237061</ele>
        <time>2019-07-14T09:33:25.000Z</time>
      </trkpt>
      <trkpt lat="47.28214" lon="-2.35914">
        <ele>24.799999237061</ele>
        <time>2019-07-14T09:33:30.000Z</time>
      </trkpt>
      <trkpt lat="47.28204" lon="-2.35905">
        <ele>24.799999237061</ele>
        <time>2019-07-14T09:33:34.000Z</time>
      </trkpt>
      <trkpt lat="47.28196" lon="-2.35883">
        <ele>24.799999237061</ele>
        <time>2019-07-14T09:33:40.000Z</time>
      </trkpt>
      <trkpt lat="47.28188" lon="-2.3586">
        <ele>24.799999237061</ele>
        <time>2019-07-14T09:33:46.000Z</time>
      </trkpt>
      <trkpt lat="47.28168" lon="-2.3584">
        <ele>24.799999237061</ele>
        <time>2019-07-14T09:33:52.000Z</time>
      </trkpt>
      <trkpt lat="47.28164" lon="-2.35837">
        <ele>24.799999237061</ele>
        <time>2019-07-14T09:33:53.000Z</time>
      </trkpt>
      <trkpt lat="47.28153" lon="-2.35829">
        <ele>24.799999237061</ele>
        <time>2019-07-14T09:33:56.000Z</time>
      </trkpt>
      <trkpt lat="47.2815" lon="-2.35824">
        <ele>24.799999237061</ele>
        <time>2019-07-14T09:33:57.000Z</time>
      </trkpt>
      <trkpt lat="47.28137" lon="-2.35797">
        <ele>24.799999237061</ele>
        <time>2019-07-14T09:34:02.000Z</time>
      </trkpt>
      <trkpt lat="47.28132" lon="-2.35762">
        <ele>24.799999237061</ele>
        <time>2019-07-14T09:34:07.000Z</time>
      </trkpt>
      <trkpt lat="47.28129" lon="-2.35757">
        <ele>24.799999237061</ele>
        <time>2019-07-14T09:34:08.000Z</time>
      </trkpt>
      <trkpt lat="47.28126" lon="-2.35754">
        <ele>24.39999961853</ele>
        <time>2019-07-14T09:34:09.000Z</time>
      </trkpt>
      <trkpt lat="47.28123" lon="-2.35752">
        <ele>24</ele>
        <time>2019-07-14T09:34:10.000Z</time>
      </trkpt>
      <trkpt lat="47.2812" lon="-2.35751">
        <ele>23.60000038147</ele>
        <time>2019-07-14T09:34:11.000Z</time>
      </trkpt>
      <trkpt lat="47.28117" lon="-2.35752">
        <ele>23</ele>
        <time>2019-07-14T09:34:12.000Z</time>
      </trkpt>
      <trkpt lat="47.28114" lon="-2.35755">
        <ele>22.60000038147</ele>
        <time>2019-07-14T09:34:13.000Z</time>
      </trkpt>
      <trkpt lat="47.28112" lon="-2.35758">
        <ele>22.60000038147</ele>
        <time>2019-07-14T09:34:14.000Z</time>
      </trkpt>
      <trkpt lat="47.28109" lon="-2.35764">
        <ele>22.60000038147</ele>
        <time>2019-07-14T09:34:16.000Z</time>
      </trkpt>
      <trkpt lat="47.28106" lon="-2.35777">
        <ele>22.60000038147</ele>
        <time>2019-07-14T09:34:19.000Z</time>
      </trkpt>
      <trkpt lat="47.28101" lon="-2.35785">
        <ele>22.60000038147</ele>
        <time>2019-07-14T09:34:21.000Z</time>
      </trkpt>
      <trkpt lat="47.28097" lon="-2.35789">
        <ele>22.60000038147</ele>
        <time>2019-07-14T09:34:22.000Z</time>
      </trkpt>
      <trkpt lat="47.28087" lon="-2.35797">
        <ele>22.60000038147</ele>
        <time>2019-07-14T09:34:25.000Z</time>
      </trkpt>
      <trkpt lat="47.28086" lon="-2.35795">
        <ele>22.60000038147</ele>
        <time>2019-07-14T09:34:26.000Z</time>
      </trkpt>
      <trkpt lat="47.28089" lon="-2.3578">
        <ele>23.200000762939</ele>
        <time>2019-07-14T09:34:30.000Z</time>
      </trkpt>
      <trkpt lat="47.28089" lon="-2.35776">
        <ele>23.60000038147</ele>
        <time>2019-07-14T09:34:31.000Z</time>
      </trkpt>
      <trkpt lat="47.28089" lon="-2.3577">
        <ele>24</ele>
        <time>2019-07-14T09:34:32.000Z</time>
      </trkpt>
      <trkpt lat="47.28089" lon="-2.35763">
        <ele>24.60000038147</ele>
        <time>2019-07-14T09:34:33.000Z</time>
      </trkpt>
      <trkpt lat="47.28089" lon="-2.35756">
        <ele>25</ele>
        <time>2019-07-14T09:34:34.000Z</time>
      </trkpt>
      <trkpt lat="47.28092" lon="-2.35744">
        <ele>25</ele>
        <time>2019-07-14T09:34:36.000Z</time>
      </trkpt>
      <trkpt lat="47.28092" lon="-2.35738">
        <ele>25.39999961853</ele>
        <time>2019-07-14T09:34:37.000Z</time>
      </trkpt>
      <trkpt lat="47.28094" lon="-2.35732">
        <ele>25.799999237061</ele>
        <time>2019-07-14T09:34:38.000Z</time>
      </trkpt>
      <trkpt lat="47.28094" lon="-2.35726">
        <ele>26.200000762939</ele>
        <time>2019-07-14T09:34:39.000Z</time>
      </trkpt>
      <trkpt lat="47.28094" lon="-2.35719">
        <ele>26.60000038147</ele>
        <time>2019-07-14T09:34:40.000Z</time>
      </trkpt>
      <trkpt lat="47.28094" lon="-2.35711">
        <ele>27.200000762939</ele>
        <time>2019-07-14T09:34:41.000Z</time>
      </trkpt>
      <trkpt lat="47.28091" lon="-2.35689">
        <ele>27.200000762939</ele>
        <time>2019-07-14T09:34:44.000Z</time>
      </trkpt>
      <trkpt lat="47.28088" lon="-2.35675">
        <ele>27.200000762939</ele>
        <time>2019-07-14T09:34:46.000Z</time>
      </trkpt>
      <trkpt lat="47.28084" lon="-2.35659">
        <ele>27.200000762939</ele>
        <time>2019-07-14T09:34:48.000Z</time>
      </trkpt>
      <trkpt lat="47.28082" lon="-2.3565">
        <ele>26.60000038147</ele>
        <time>2019-07-14T09:34:49.000Z</time>
      </trkpt>
      <trkpt lat="47.28081" lon="-2.35642">
        <ele>26.200000762939</ele>
        <time>2019-07-14T09:34:50.000Z</time>
      </trkpt>
      <trkpt lat="47.28079" lon="-2.35633">
        <ele>25.799999237061</ele>
        <time>2019-07-14T09:34:51.000Z</time>
      </trkpt>
      <trkpt lat="47.28077" lon="-2.35624">
        <ele>25</ele>
        <time>2019-07-14T09:34:52.000Z</time>
      </trkpt>
      <trkpt lat="47.28076" lon="-2.35616">
        <ele>24.39999961853</ele>
        <time>2019-07-14T09:34:53.000Z</time>
      </trkpt>
      <trkpt lat="47.28074" lon="-2.35608">
        <ele>23.799999237061</ele>
        <time>2019-07-14T09:34:54.000Z</time>
      </trkpt>
      <trkpt lat="47.28071" lon="-2.35602">
        <ele>23</ele>
        <time>2019-07-14T09:34:55.000Z</time>
      </trkpt>
      <trkpt lat="47.28068" lon="-2.35596">
        <ele>22.39999961853</ele>
        <time>2019-07-14T09:34:56.000Z</time>
      </trkpt>
      <trkpt lat="47.28059" lon="-2.35587">
        <ele>22.39999961853</ele>
        <time>2019-07-14T09:34:58.000Z</time>
      </trkpt>
      <trkpt lat="47.28043" lon="-2.35584">
        <ele>22.39999961853</ele>
        <time>2019-07-14T09:35:01.000Z</time>
      </trkpt>
      <trkpt lat="47.2804" lon="-2.35582">
        <ele>22</ele>
        <time>2019-07-14T09:35:02.000Z</time>
      </trkpt>
      <trkpt lat="47.2804" lon="-2.35582">
        <ele>21.60000038147</ele>
        <time>2019-07-14T09:35:03.000Z</time>
      </trkpt>
      <trkpt lat="47.28039" lon="-2.3558">
        <ele>21.200000762939</ele>
        <time>2019-07-14T09:35:04.000Z</time>
      </trkpt>
      <trkpt lat="47.28036" lon="-2.35576">
        <ele>18</ele>
        <time>2019-07-14T09:37:17.000Z</time>
      </trkpt>
      <trkpt lat="47.28032" lon="-2.35573">
        <ele>18</ele>
        <time>2019-07-14T09:37:19.000Z</time>
      </trkpt>
      <trkpt lat="47.28021" lon="-2.35566">
        <ele>18</ele>
        <time>2019-07-14T09:37:23.000Z</time>
      </trkpt>
      <trkpt lat="47.28006" lon="-2.35554">
        <ele>18</ele>
        <time>2019-07-14T09:37:27.000Z</time>
      </trkpt>
      <trkpt lat="47.27996" lon="-2.35527">
        <ele>18</ele>
        <time>2019-07-14T09:37:32.000Z</time>
      </trkpt>
      <trkpt lat="47.27989" lon="-2.35512">
        <ele>18</ele>
        <time>2019-07-14T09:37:34.000Z</time>
      </trkpt>
      <trkpt lat="47.27986" lon="-2.35504">
        <ele>18</ele>
        <time>2019-07-14T09:37:35.000Z</time>
      </trkpt>
      <trkpt lat="47.27983" lon="-2.35496">
        <ele>18</ele>
        <time>2019-07-14T09:37:36.000Z</time>
      </trkpt>
      <trkpt lat="47.27971" lon="-2.35474">
        <ele>17.60000038147</ele>
        <time>2019-07-14T09:37:39.000Z</time>
      </trkpt>
      <trkpt lat="47.27966" lon="-2.3547">
        <ele>17.200000762939</ele>
        <time>2019-07-14T09:37:40.000Z</time>
      </trkpt>
      <trkpt lat="47.27961" lon="-2.35467">
        <ele>16.39999961853</ele>
        <time>2019-07-14T09:37:41.000Z</time>
      </trkpt>
      <trkpt lat="47.27956" lon="-2.35464">
        <ele>16</ele>
        <time>2019-07-14T09:37:42.000Z</time>
      </trkpt>
      <trkpt lat="47.27951" lon="-2.35461">
        <ele>16</ele>
        <time>2019-07-14T09:37:43.000Z</time>
      </trkpt>
      <trkpt lat="47.27943" lon="-2.35455">
        <ele>16</ele>
        <time>2019-07-14T09:37:45.000Z</time>
      </trkpt>
      <trkpt lat="47.27928" lon="-2.35438">
        <ele>16</ele>
        <time>2019-07-14T09:37:50.000Z</time>
      </trkpt>
      <trkpt lat="47.27922" lon="-2.35427">
        <ele>16</ele>
        <time>2019-07-14T09:37:53.000Z</time>
      </trkpt>
      <trkpt lat="47.27924" lon="-2.3542">
        <ele>16</ele>
        <time>2019-07-14T09:37:55.000Z</time>
      </trkpt>
      <trkpt lat="47.27931" lon="-2.35402">
        <ele>16</ele>
        <time>2019-07-14T09:37:59.000Z</time>
      </trkpt>
      <trkpt lat="47.2793" lon="-2.35391">
        <ele>16</ele>
        <time>2019-07-14T09:38:01.000Z</time>
      </trkpt>
      <trkpt lat="47.27928" lon="-2.35372">
        <ele>16</ele>
        <time>2019-07-14T09:38:04.000Z</time>
      </trkpt>
      <trkpt lat="47.27925" lon="-2.3533">
        <ele>16</ele>
        <time>2019-07-14T09:38:11.000Z</time>
      </trkpt>
      <trkpt lat="47.27924" lon="-2.35318">
        <ele>16</ele>
        <time>2019-07-14T09:38:13.000Z</time>
      </trkpt>
      <trkpt lat="47.27922" lon="-2.35304">
        <ele>16</ele>
        <time>2019-07-14T09:38:15.000Z</time>
      </trkpt>
      <trkpt lat="47.27922" lon="-2.35297">
        <ele>16</ele>
        <time>2019-07-14T09:38:16.000Z</time>
      </trkpt>
      <trkpt lat="47.27921" lon="-2.35281">
        <ele>16</ele>
        <time>2019-07-14T09:38:18.000Z</time>
      </trkpt>
      <trkpt lat="47.27918" lon="-2.35258">
        <ele>16</ele>
        <time>2019-07-14T09:38:21.000Z</time>
      </trkpt>
      <trkpt lat="47.27914" lon="-2.35234">
        <ele>16.39999961853</ele>
        <time>2019-07-14T09:38:24.000Z</time>
      </trkpt>
      <trkpt lat="47.27913" lon="-2.35226">
        <ele>16.799999237061</ele>
        <time>2019-07-14T09:38:25.000Z</time>
      </trkpt>
      <trkpt lat="47.27912" lon="-2.35218">
        <ele>17.200000762939</ele>
        <time>2019-07-14T09:38:26.000Z</time>
      </trkpt>
      <trkpt lat="47.27911" lon="-2.3521">
        <ele>17.60000038147</ele>
        <time>2019-07-14T09:38:27.000Z</time>
      </trkpt>
      <trkpt lat="47.2791" lon="-2.35202">
        <ele>18</ele>
        <time>2019-07-14T09:38:28.000Z</time>
      </trkpt>
      <trkpt lat="47.27905" lon="-2.35149">
        <ele>18</ele>
        <time>2019-07-14T09:38:35.000Z</time>
      </trkpt>
      <trkpt lat="47.27904" lon="-2.35128">
        <ele>18</ele>
        <time>2019-07-14T09:38:38.000Z</time>
      </trkpt>
      <trkpt lat="47.27903" lon="-2.35077">
        <ele>18</ele>
        <time>2019-07-14T09:38:45.000Z</time>
      </trkpt>
      <trkpt lat="47.27898" lon="-2.35039">
        <ele>18.39999961853</ele>
        <time>2019-07-14T09:38:50.000Z</time>
      </trkpt>
      <trkpt lat="47.27896" lon="-2.35032">
        <ele>18.799999237061</ele>
        <time>2019-07-14T09:38:51.000Z</time>
      </trkpt>
      <trkpt lat="47.27894" lon="-2.35024">
        <ele>19.200000762939</ele>
        <time>2019-07-14T09:38:52.000Z</time>
      </trkpt>
      <trkpt lat="47.27892" lon="-2.35017">
        <ele>19.60000038147</ele>
        <time>2019-07-14T09:38:53.000Z</time>
      </trkpt>
      <trkpt lat="47.2789" lon="-2.3501">
        <ele>20.200000762939</ele>
        <time>2019-07-14T09:38:54.000Z</time>
      </trkpt>
      <trkpt lat="47.27883" lon="-2.34989">
        <ele>20.200000762939</ele>
        <time>2019-07-14T09:38:57.000Z</time>
      </trkpt>
      <trkpt lat="47.27871" lon="-2.34961">
        <ele>20.200000762939</ele>
        <time>2019-07-14T09:39:02.000Z</time>
      </trkpt>
      <trkpt lat="47.27865" lon="-2.34952">
        <ele>20.200000762939</ele>
        <time>2019-07-14T09:39:04.000Z</time>
      </trkpt>
      <trkpt lat="47.27851" lon="-2.34935">
        <ele>20.200000762939</ele>
        <time>2019-07-14T09:39:08.000Z</time>
      </trkpt>
      <trkpt lat="47.27822" lon="-2.34904">
        <ele>20.200000762939</ele>
        <time>2019-07-14T09:39:15.000Z</time>
      </trkpt>
      <trkpt lat="47.2781" lon="-2.34893">
        <ele>20.200000762939</ele>
        <time>2019-07-14T09:39:18.000Z</time>
      </trkpt>
      <trkpt lat="47.278" lon="-2.34884">
        <ele>20.200000762939</ele>
        <time>2019-07-14T09:39:21.000Z</time>
      </trkpt>
      <trkpt lat="47.27793" lon="-2.34878">
        <ele>20.200000762939</ele>
        <time>2019-07-14T09:39:26.000Z</time>
      </trkpt>
      <trkpt lat="47.27783" lon="-2.34876">
        <ele>20.200000762939</ele>
        <time>2019-07-14T09:39:30.000Z</time>
      </trkpt>
      <trkpt lat="47.2777" lon="-2.34869">
        <ele>20.200000762939</ele>
        <time>2019-07-14T09:39:35.000Z</time>
      </trkpt>
      <trkpt lat="47.27768" lon="-2.34866">
        <ele>20.200000762939</ele>
        <time>2019-07-14T09:39:36.000Z</time>
      </trkpt>
      <trkpt lat="47.27764" lon="-2.34856">
        <ele>20.200000762939</ele>
        <time>2019-07-14T09:39:38.000Z</time>
      </trkpt>
      <trkpt lat="47.2775" lon="-2.3483">
        <ele>20.200000762939</ele>
        <time>2019-07-14T09:39:43.000Z</time>
      </trkpt>
      <trkpt lat="47.27731" lon="-2.34796">
        <ele>20.200000762939</ele>
        <time>2019-07-14T09:39:49.000Z</time>
      </trkpt>
      <trkpt lat="47.27714" lon="-2.34762">
        <ele>20.200000762939</ele>
        <time>2019-07-14T09:39:55.000Z</time>
      </trkpt>
      <trkpt lat="47.27709" lon="-2.3475">
        <ele>20.60000038147</ele>
        <time>2019-07-14T09:39:57.000Z</time>
      </trkpt>
      <trkpt lat="47.27707" lon="-2.34744">
        <ele>21</ele>
        <time>2019-07-14T09:39:58.000Z</time>
      </trkpt>
      <trkpt lat="47.27707" lon="-2.34737">
        <ele>21.39999961853</ele>
        <time>2019-07-14T09:39:59.000Z</time>
      </trkpt>
      <trkpt lat="47.27706" lon="-2.34729">
        <ele>21.799999237061</ele>
        <time>2019-07-14T09:40:00.000Z</time>
      </trkpt>
      <trkpt lat="47.27705" lon="-2.34722">
        <ele>22.200000762939</ele>
        <time>2019-07-14T09:40:01.000Z</time>
      </trkpt>
      <trkpt lat="47.27702" lon="-2.34707">
        <ele>22.200000762939</ele>
        <time>2019-07-14T09:40:03.000Z</time>
      </trkpt>
      <trkpt lat="47.277" lon="-2.34701">
        <ele>22.200000762939</ele>
        <time>2019-07-14T09:40:04.000Z</time>
      </trkpt>
      <trkpt lat="47.27696" lon="-2.34688">
        <ele>22.200000762939</ele>
        <time>2019-07-14T09:40:06.000Z</time>
      </trkpt>
      <trkpt lat="47.27695" lon="-2.34679">
        <ele>22.200000762939</ele>
        <time>2019-07-14T09:40:08.000Z</time>
      </trkpt>
      <trkpt lat="47.27695" lon="-2.34676">
        <ele>22.200000762939</ele>
        <time>2019-07-14T09:40:09.000Z</time>
      </trkpt>
      <trkpt lat="47.27691" lon="-2.34657">
        <ele>22.200000762939</ele>
        <time>2019-07-14T09:40:13.000Z</time>
      </trkpt>
      <trkpt lat="47.2769" lon="-2.34645">
        <ele>22.200000762939</ele>
        <time>2019-07-14T09:40:15.000Z</time>
      </trkpt>
      <trkpt lat="47.27689" lon="-2.3463">
        <ele>22.200000762939</ele>
        <time>2019-07-14T09:40:17.000Z</time>
      </trkpt>
      <trkpt lat="47.27688" lon="-2.34616">
        <ele>22.200000762939</ele>
        <time>2019-07-14T09:40:19.000Z</time>
      </trkpt>
      <trkpt lat="47.27684" lon="-2.34597">
        <ele>22.200000762939</ele>
        <time>2019-07-14T09:40:22.000Z</time>
      </trkpt>
      <trkpt lat="47.27678" lon="-2.34581">
        <ele>22.200000762939</ele>
        <time>2019-07-14T09:40:26.000Z</time>
      </trkpt>
      <trkpt lat="47.27677" lon="-2.34577">
        <ele>22.200000762939</ele>
        <time>2019-07-14T09:40:28.000Z</time>
      </trkpt>
      <trkpt lat="47.27675" lon="-2.34573">
        <ele>22.200000762939</ele>
        <time>2019-07-14T09:40:30.000Z</time>
      </trkpt>
      <trkpt lat="47.27667" lon="-2.34575">
        <ele>22.200000762939</ele>
        <time>2019-07-14T09:40:33.000Z</time>
      </trkpt>
      <trkpt lat="47.27663" lon="-2.34578">
        <ele>22.200000762939</ele>
        <time>2019-07-14T09:40:34.000Z</time>
      </trkpt>
      <trkpt lat="47.27645" lon="-2.3459">
        <ele>22.200000762939</ele>
        <time>2019-07-14T09:40:38.000Z</time>
      </trkpt>
      <trkpt lat="47.27637" lon="-2.34598">
        <ele>22.200000762939</ele>
        <time>2019-07-14T09:40:40.000Z</time>
      </trkpt>
      <trkpt lat="47.27624" lon="-2.34611">
        <ele>22.200000762939</ele>
        <time>2019-07-14T09:40:43.000Z</time>
      </trkpt>
      <trkpt lat="47.27597" lon="-2.34636">
        <ele>22.200000762939</ele>
        <time>2019-07-14T09:40:49.000Z</time>
      </trkpt>
      <trkpt lat="47.27573" lon="-2.34657">
        <ele>22.200000762939</ele>
        <time>2019-07-14T09:40:54.000Z</time>
      </trkpt>
      <trkpt lat="47.27564" lon="-2.34665">
        <ele>22.200000762939</ele>
        <time>2019-07-14T09:40:56.000Z</time>
      </trkpt>
      <trkpt lat="47.27558" lon="-2.34668">
        <ele>22.200000762939</ele>
        <time>2019-07-14T09:40:57.000Z</time>
      </trkpt>
      <trkpt lat="47.27536" lon="-2.34675">
        <ele>22.200000762939</ele>
        <time>2019-07-14T09:41:01.000Z</time>
      </trkpt>
      <trkpt lat="47.275" lon="-2.34677">
        <ele>22.200000762939</ele>
        <time>2019-07-14T09:41:07.000Z</time>
      </trkpt>
      <trkpt lat="47.27477" lon="-2.34683">
        <ele>22.200000762939</ele>
        <time>2019-07-14T09:41:11.000Z</time>
      </trkpt>
      <trkpt lat="47.27468" lon="-2.3469">
        <ele>22.200000762939</ele>
        <time>2019-07-14T09:41:13.000Z</time>
      </trkpt>
      <trkpt lat="47.27463" lon="-2.34693">
        <ele>22.200000762939</ele>
        <time>2019-07-14T09:41:14.000Z</time>
      </trkpt>
      <trkpt lat="47.27457" lon="-2.34686">
        <ele>22.200000762939</ele>
        <time>2019-07-14T09:41:16.000Z</time>
      </trkpt>
      <trkpt lat="47.27454" lon="-2.34664">
        <ele>22.200000762939</ele>
        <time>2019-07-14T09:41:19.000Z</time>
      </trkpt>
      <trkpt lat="47.27452" lon="-2.34634">
        <ele>22.200000762939</ele>
        <time>2019-07-14T09:41:23.000Z</time>
      </trkpt>
      <trkpt lat="47.2745" lon="-2.3462">
        <ele>22.200000762939</ele>
        <time>2019-07-14T09:41:25.000Z</time>
      </trkpt>
      <trkpt lat="47.27449" lon="-2.34613">
        <ele>22.60000038147</ele>
        <time>2019-07-14T09:41:26.000Z</time>
      </trkpt>
      <trkpt lat="47.27448" lon="-2.34606">
        <ele>23</ele>
        <time>2019-07-14T09:41:27.000Z</time>
      </trkpt>
      <trkpt lat="47.27448" lon="-2.34598">
        <ele>23.39999961853</ele>
        <time>2019-07-14T09:41:28.000Z</time>
      </trkpt>
      <trkpt lat="47.27447" lon="-2.34591">
        <ele>23.799999237061</ele>
        <time>2019-07-14T09:41:29.000Z</time>
      </trkpt>
      <trkpt lat="47.27445" lon="-2.34584">
        <ele>24.200000762939</ele>
        <time>2019-07-14T09:41:30.000Z</time>
      </trkpt>
      <trkpt lat="47.27444" lon="-2.34578">
        <ele>24.200000762939</ele>
        <time>2019-07-14T09:41:31.000Z</time>
      </trkpt>
      <trkpt lat="47.27436" lon="-2.34542">
        <ele>24.200000762939</ele>
        <time>2019-07-14T09:41:36.000Z</time>
      </trkpt>
      <trkpt lat="47.27424" lon="-2.34496">
        <ele>24.200000762939</ele>
        <time>2019-07-14T09:41:42.000Z</time>
      </trkpt>
      <trkpt lat="47.27423" lon="-2.34488">
        <ele>24.200000762939</ele>
        <time>2019-07-14T09:41:43.000Z</time>
      </trkpt>
      <trkpt lat="47.2742" lon="-2.34457">
        <ele>24.200000762939</ele>
        <time>2019-07-14T09:41:47.000Z</time>
      </trkpt>
      <trkpt lat="47.27417" lon="-2.34404">
        <ele>24.200000762939</ele>
        <time>2019-07-14T09:41:53.000Z</time>
      </trkpt>
      <trkpt lat="47.27412" lon="-2.34339">
        <ele>24.200000762939</ele>
        <time>2019-07-14T09:42:00.000Z</time>
      </trkpt>
      <trkpt lat="47.27411" lon="-2.34297">
        <ele>24.200000762939</ele>
        <time>2019-07-14T09:42:05.000Z</time>
      </trkpt>
      <trkpt lat="47.27411" lon="-2.34288">
        <ele>23.799999237061</ele>
        <time>2019-07-14T09:42:06.000Z</time>
      </trkpt>
      <trkpt lat="47.2741" lon="-2.34279">
        <ele>23.39999961853</ele>
        <time>2019-07-14T09:42:07.000Z</time>
      </trkpt>
      <trkpt lat="47.2741" lon="-2.3427">
        <ele>23</ele>
        <time>2019-07-14T09:42:08.000Z</time>
      </trkpt>
      <trkpt lat="47.2741" lon="-2.34263">
        <ele>22.60000038147</ele>
        <time>2019-07-14T09:42:09.000Z</time>
      </trkpt>
      <trkpt lat="47.2741" lon="-2.34257">
        <ele>22</ele>
        <time>2019-07-14T09:42:10.000Z</time>
      </trkpt>
      <trkpt lat="47.27409" lon="-2.3425">
        <ele>22</ele>
        <time>2019-07-14T09:42:12.000Z</time>
      </trkpt>
      <trkpt lat="47.27408" lon="-2.34248">
        <ele>22</ele>
        <time>2019-07-14T09:42:13.000Z</time>
      </trkpt>
      <trkpt lat="47.27408" lon="-2.34248">
        <ele>22</ele>
        <time>2019-07-14T09:42:14.000Z</time>
      </trkpt>
      <trkpt lat="47.27407" lon="-2.34248">
        <ele>21.60000038147</ele>
        <time>2019-07-14T09:42:19.000Z</time>
      </trkpt>
      <trkpt lat="47.27406" lon="-2.34246">
        <ele>21.200000762939</ele>
        <time>2019-07-14T09:42:20.000Z</time>
      </trkpt>
      <trkpt lat="47.27403" lon="-2.34243">
        <ele>20.799999237061</ele>
        <time>2019-07-14T09:42:21.000Z</time>
      </trkpt>
      <trkpt lat="47.27401" lon="-2.3424">
        <ele>20.39999961853</ele>
        <time>2019-07-14T09:42:22.000Z</time>
      </trkpt>
      <trkpt lat="47.27399" lon="-2.34235">
        <ele>20</ele>
        <time>2019-07-14T09:42:23.000Z</time>
      </trkpt>
      <trkpt lat="47.27399" lon="-2.34228">
        <ele>20</ele>
        <time>2019-07-14T09:42:24.000Z</time>
      </trkpt>
      <trkpt lat="47.27398" lon="-2.34191">
        <ele>20</ele>
        <time>2019-07-14T09:42:29.000Z</time>
      </trkpt>
      <trkpt lat="47.27396" lon="-2.34137">
        <ele>20</ele>
        <time>2019-07-14T09:42:36.000Z</time>
      </trkpt>
      <trkpt lat="47.27396" lon="-2.34121">
        <ele>20.60000038147</ele>
        <time>2019-07-14T09:42:38.000Z</time>
      </trkpt>
      <trkpt lat="47.27395" lon="-2.34113">
        <ele>21</ele>
        <time>2019-07-14T09:42:39.000Z</time>
      </trkpt>
      <trkpt lat="47.27395" lon="-2.34105">
        <ele>21.39999961853</ele>
        <time>2019-07-14T09:42:40.000Z</time>
      </trkpt>
      <trkpt lat="47.27395" lon="-2.34097">
        <ele>22</ele>
        <time>2019-07-14T09:42:41.000Z</time>
      </trkpt>
      <trkpt lat="47.27395" lon="-2.34089">
        <ele>22.39999961853</ele>
        <time>2019-07-14T09:42:42.000Z</time>
      </trkpt>
      <trkpt lat="47.27394" lon="-2.34042">
        <ele>22.39999961853</ele>
        <time>2019-07-14T09:42:48.000Z</time>
      </trkpt>
      <trkpt lat="47.27392" lon="-2.34009">
        <ele>22.799999237061</ele>
        <time>2019-07-14T09:42:52.000Z</time>
      </trkpt>
      <trkpt lat="47.27391" lon="-2.34">
        <ele>23.200000762939</ele>
        <time>2019-07-14T09:42:53.000Z</time>
      </trkpt>
      <trkpt lat="47.27391" lon="-2.33992">
        <ele>23.60000038147</ele>
        <time>2019-07-14T09:42:54.000Z</time>
      </trkpt>
      <trkpt lat="47.2739" lon="-2.33985">
        <ele>24</ele>
        <time>2019-07-14T09:42:55.000Z</time>
      </trkpt>
      <trkpt lat="47.2739" lon="-2.33978">
        <ele>24.39999961853</ele>
        <time>2019-07-14T09:42:56.000Z</time>
      </trkpt>
      <trkpt lat="47.27384" lon="-2.33962">
        <ele>24.39999961853</ele>
        <time>2019-07-14T09:42:59.000Z</time>
      </trkpt>
      <trkpt lat="47.27369" lon="-2.33962">
        <ele>24.39999961853</ele>
        <time>2019-07-14T09:43:02.000Z</time>
      </trkpt>
      <trkpt lat="47.27365" lon="-2.33963">
        <ele>24.39999961853</ele>
        <time>2019-07-14T09:43:03.000Z</time>
      </trkpt>
      <trkpt lat="47.27356" lon="-2.33964">
        <ele>24.39999961853</ele>
        <time>2019-07-14T09:43:05.000Z</time>
      </trkpt>
      <trkpt lat="47.27342" lon="-2.33962">
        <ele>24.39999961853</ele>
        <time>2019-07-14T09:43:08.000Z</time>
      </trkpt>
      <trkpt lat="47.27329" lon="-2.33955">
        <ele>24.39999961853</ele>
        <time>2019-07-14T09:43:11.000Z</time>
      </trkpt>
      <trkpt lat="47.27323" lon="-2.33946">
        <ele>24.39999961853</ele>
        <time>2019-07-14T09:43:13.000Z</time>
      </trkpt>
      <trkpt lat="47.27311" lon="-2.33933">
        <ele>24.39999961853</ele>
        <time>2019-07-14T09:43:16.000Z</time>
      </trkpt>
      <trkpt lat="47.27303" lon="-2.33925">
        <ele>24.39999961853</ele>
        <time>2019-07-14T09:43:18.000Z</time>
      </trkpt>
      <trkpt lat="47.27296" lon="-2.33917">
        <ele>24.39999961853</ele>
        <time>2019-07-14T09:43:20.000Z</time>
      </trkpt>
      <trkpt lat="47.27292" lon="-2.33913">
        <ele>24.39999961853</ele>
        <time>2019-07-14T09:43:21.000Z</time>
      </trkpt>
      <trkpt lat="47.27285" lon="-2.33904">
        <ele>24.39999961853</ele>
        <time>2019-07-14T09:43:23.000Z</time>
      </trkpt>
      <trkpt lat="47.27281" lon="-2.339">
        <ele>24.39999961853</ele>
        <time>2019-07-14T09:43:24.000Z</time>
      </trkpt>
      <trkpt lat="47.27264" lon="-2.3388">
        <ele>24.39999961853</ele>
        <time>2019-07-14T09:43:28.000Z</time>
      </trkpt>
      <trkpt lat="47.27251" lon="-2.33866">
        <ele>24.39999961853</ele>
        <time>2019-07-14T09:43:31.000Z</time>
      </trkpt>
      <trkpt lat="47.2724" lon="-2.33861">
        <ele>24.39999961853</ele>
        <time>2019-07-14T09:43:33.000Z</time>
      </trkpt>
      <trkpt lat="47.27201" lon="-2.33846">
        <ele>24.39999961853</ele>
        <time>2019-07-14T09:43:40.000Z</time>
      </trkpt>
      <trkpt lat="47.27196" lon="-2.33845">
        <ele>24.39999961853</ele>
        <time>2019-07-14T09:43:41.000Z</time>
      </trkpt>
      <trkpt lat="47.27182" lon="-2.33846">
        <ele>24.39999961853</ele>
        <time>2019-07-14T09:43:45.000Z</time>
      </trkpt>
      <trkpt lat="47.27169" lon="-2.33846">
        <ele>24</ele>
        <time>2019-07-14T09:43:48.000Z</time>
      </trkpt>
      <trkpt lat="47.27163" lon="-2.33847">
        <ele>23.60000038147</ele>
        <time>2019-07-14T09:43:49.000Z</time>
      </trkpt>
      <trkpt lat="47.27158" lon="-2.33849">
        <ele>23.200000762939</ele>
        <time>2019-07-14T09:43:50.000Z</time>
      </trkpt>
      <trkpt lat="47.27152" lon="-2.33851">
        <ele>22.39999961853</ele>
        <time>2019-07-14T09:43:51.000Z</time>
      </trkpt>
      <trkpt lat="47.27128" lon="-2.33858">
        <ele>22.39999961853</ele>
        <time>2019-07-14T09:43:55.000Z</time>
      </trkpt>
      <trkpt lat="47.27122" lon="-2.33858">
        <ele>22</ele>
        <time>2019-07-14T09:43:56.000Z</time>
      </trkpt>
      <trkpt lat="47.27116" lon="-2.33857">
        <ele>21.60000038147</ele>
        <time>2019-07-14T09:43:57.000Z</time>
      </trkpt>
      <trkpt lat="47.27109" lon="-2.33856">
        <ele>21.200000762939</ele>
        <time>2019-07-14T09:43:58.000Z</time>
      </trkpt>
      <trkpt lat="47.27102" lon="-2.33853">
        <ele>20.799999237061</ele>
        <time>2019-07-14T09:43:59.000Z</time>
      </trkpt>
      <trkpt lat="47.27096" lon="-2.33848">
        <ele>20.39999961853</ele>
        <time>2019-07-14T09:44:00.000Z</time>
      </trkpt>
      <trkpt lat="47.2709" lon="-2.33842">
        <ele>20.39999961853</ele>
        <time>2019-07-14T09:44:01.000Z</time>
      </trkpt>
      <trkpt lat="47.27077" lon="-2.33831">
        <ele>20.39999961853</ele>
        <time>2019-07-14T09:44:03.000Z</time>
      </trkpt>
      <trkpt lat="47.27049" lon="-2.33815">
        <ele>19.799999237061</ele>
        <time>2019-07-14T09:44:07.000Z</time>
      </trkpt>
      <trkpt lat="47.2704" lon="-2.33813">
        <ele>19.39999961853</ele>
        <time>2019-07-14T09:44:08.000Z</time>
      </trkpt>
      <trkpt lat="47.2703" lon="-2.33813">
        <ele>19</ele>
        <time>2019-07-14T09:44:09.000Z</time>
      </trkpt>
      <trkpt lat="47.2702" lon="-2.33814">
        <ele>18.39999961853</ele>
        <time>2019-07-14T09:44:10.000Z</time>
      </trkpt>
      <trkpt lat="47.2701" lon="-2.33814">
        <ele>18</ele>
        <time>2019-07-14T09:44:11.000Z</time>
      </trkpt>
      <trkpt lat="47.2699" lon="-2.33813">
        <ele>17.60000038147</ele>
        <time>2019-07-14T09:44:13.000Z</time>
      </trkpt>
      <trkpt lat="47.2698" lon="-2.33812">
        <ele>17.200000762939</ele>
        <time>2019-07-14T09:44:14.000Z</time>
      </trkpt>
      <trkpt lat="47.26972" lon="-2.33812">
        <ele>16.799999237061</ele>
        <time>2019-07-14T09:44:15.000Z</time>
      </trkpt>
      <trkpt lat="47.26964" lon="-2.33812">
        <ele>15.60000038147</ele>
        <time>2019-07-14T09:44:16.000Z</time>
      </trkpt>
      <trkpt lat="47.26958" lon="-2.33813">
        <ele>15</ele>
        <time>2019-07-14T09:44:17.000Z</time>
      </trkpt>
      <trkpt lat="47.26951" lon="-2.33814">
        <ele>14</ele>
        <time>2019-07-14T09:44:18.000Z</time>
      </trkpt>
      <trkpt lat="47.26946" lon="-2.33816">
        <ele>13.199999809265</ele>
        <time>2019-07-14T09:44:19.000Z</time>
      </trkpt>
      <trkpt lat="47.26941" lon="-2.33817">
        <ele>12.199999809265</ele>
        <time>2019-07-14T09:44:20.000Z</time>
      </trkpt>
      <trkpt lat="47.26937" lon="-2.33817">
        <ele>11.39999961853</ele>
        <time>2019-07-14T09:44:21.000Z</time>
      </trkpt>
      <trkpt lat="47.26931" lon="-2.33815">
        <ele>10.39999961853</ele>
        <time>2019-07-14T09:44:22.000Z</time>
      </trkpt>
      <trkpt lat="47.26923" lon="-2.33804">
        <ele>10</ele>
        <time>2019-07-14T09:44:24.000Z</time>
      </trkpt>
      <trkpt lat="47.26921" lon="-2.33796">
        <ele>9.6000003814697</ele>
        <time>2019-07-14T09:44:25.000Z</time>
      </trkpt>
      <trkpt lat="47.26921" lon="-2.33788">
        <ele>9.1999998092651</ele>
        <time>2019-07-14T09:44:26.000Z</time>
      </trkpt>
      <trkpt lat="47.26922" lon="-2.3378">
        <ele>8.8000001907349</ele>
        <time>2019-07-14T09:44:27.000Z</time>
      </trkpt>
      <trkpt lat="47.26923" lon="-2.33773">
        <ele>8.3999996185303</ele>
        <time>2019-07-14T09:44:28.000Z</time>
      </trkpt>
      <trkpt lat="47.26925" lon="-2.33764">
        <ele>8.3999996185303</ele>
        <time>2019-07-14T09:44:29.000Z</time>
      </trkpt>
      <trkpt lat="47.26931" lon="-2.3374">
        <ele>8.3999996185303</ele>
        <time>2019-07-14T09:44:32.000Z</time>
      </trkpt>
      <trkpt lat="47.26934" lon="-2.33714">
        <ele>8.3999996185303</ele>
        <time>2019-07-14T09:44:35.000Z</time>
      </trkpt>
      <trkpt lat="47.26933" lon="-2.33706">
        <ele>8.3999996185303</ele>
        <time>2019-07-14T09:44:36.000Z</time>
      </trkpt>
      <trkpt lat="47.26926" lon="-2.33657">
        <ele>8.3999996185303</ele>
        <time>2019-07-14T09:44:41.000Z</time>
      </trkpt>
      <trkpt lat="47.26909" lon="-2.3359">
        <ele>8.3999996185303</ele>
        <time>2019-07-14T09:44:48.000Z</time>
      </trkpt>
      <trkpt lat="47.26889" lon="-2.33546">
        <ele>8.3999996185303</ele>
        <time>2019-07-14T09:44:53.000Z</time>
      </trkpt>
      <trkpt lat="47.26883" lon="-2.33539">
        <ele>8</ele>
        <time>2019-07-14T09:44:54.000Z</time>
      </trkpt>
      <trkpt lat="47.26875" lon="-2.33536">
        <ele>7.4000000953674</ele>
        <time>2019-07-14T09:44:55.000Z</time>
      </trkpt>
      <trkpt lat="47.26868" lon="-2.33536">
        <ele>7</ele>
        <time>2019-07-14T09:44:56.000Z</time>
      </trkpt>
      <trkpt lat="47.2686" lon="-2.33537">
        <ele>6.5999999046326</ele>
        <time>2019-07-14T09:44:57.000Z</time>
      </trkpt>
      <trkpt lat="47.26853" lon="-2.3354">
        <ele>6</ele>
        <time>2019-07-14T09:44:58.000Z</time>
      </trkpt>
      <trkpt lat="47.26845" lon="-2.33544">
        <ele>5.5999999046326</ele>
        <time>2019-07-14T09:44:59.000Z</time>
      </trkpt>
      <trkpt lat="47.26837" lon="-2.33547">
        <ele>5</ele>
        <time>2019-07-14T09:45:00.000Z</time>
      </trkpt>
      <trkpt lat="47.2683" lon="-2.3355">
        <ele>4.5999999046326</ele>
        <time>2019-07-14T09:45:01.000Z</time>
      </trkpt>
      <trkpt lat="47.26822" lon="-2.33553">
        <ele>4</ele>
        <time>2019-07-14T09:45:02.000Z</time>
      </trkpt>
      <trkpt lat="47.26802" lon="-2.33563">
        <ele>4</ele>
        <time>2019-07-14T09:45:05.000Z</time>
      </trkpt>
      <trkpt lat="47.26782" lon="-2.33572">
        <ele>4</ele>
        <time>2019-07-14T09:45:09.000Z</time>
      </trkpt>
      <trkpt lat="47.26779" lon="-2.33571">
        <ele>3.5999999046326</ele>
        <time>2019-07-14T09:45:10.000Z</time>
      </trkpt>
      <trkpt lat="47.26777" lon="-2.33569">
        <ele>3.2000000476837</ele>
        <time>2019-07-14T09:45:11.000Z</time>
      </trkpt>
      <trkpt lat="47.26775" lon="-2.33566">
        <ele>2.7999999523163</ele>
        <time>2019-07-14T09:45:12.000Z</time>
      </trkpt>
      <trkpt lat="47.26774" lon="-2.33562">
        <ele>2.4000000953674</ele>
        <time>2019-07-14T09:45:13.000Z</time>
      </trkpt>
      <trkpt lat="47.26773" lon="-2.33555">
        <ele>2</ele>
        <time>2019-07-14T09:45:14.000Z</time>
      </trkpt>
      <trkpt lat="47.26772" lon="-2.33549">
        <ele>2</ele>
        <time>2019-07-14T09:45:15.000Z</time>
      </trkpt>
      <trkpt lat="47.2677" lon="-2.33542">
        <ele>2</ele>
        <time>2019-07-14T09:45:16.000Z</time>
      </trkpt>
      <trkpt lat="47.26768" lon="-2.33526">
        <ele>2</ele>
        <time>2019-07-14T09:45:18.000Z</time>
      </trkpt>
      <trkpt lat="47.26765" lon="-2.33509">
        <ele>2</ele>
        <time>2019-07-14T09:45:20.000Z</time>
      </trkpt>
      <trkpt lat="47.26759" lon="-2.33463">
        <ele>2</ele>
        <time>2019-07-14T09:45:25.000Z</time>
      </trkpt>
      <trkpt lat="47.26757" lon="-2.33446">
        <ele>2</ele>
        <time>2019-07-14T09:45:27.000Z</time>
      </trkpt>
      <trkpt lat="47.26753" lon="-2.33422">
        <ele>2</ele>
        <time>2019-07-14T09:45:30.000Z</time>
      </trkpt>
      <trkpt lat="47.26752" lon="-2.33413">
        <ele>2</ele>
        <time>2019-07-14T09:45:31.000Z</time>
      </trkpt>
      <trkpt lat="47.26748" lon="-2.33378">
        <ele>2</ele>
        <time>2019-07-14T09:45:35.000Z</time>
      </trkpt>
      <trkpt lat="47.26745" lon="-2.33355">
        <ele>2</ele>
        <time>2019-07-14T09:45:38.000Z</time>
      </trkpt>
      <trkpt lat="47.26742" lon="-2.33339">
        <ele>2</ele>
        <time>2019-07-14T09:45:40.000Z</time>
      </trkpt>
      <trkpt lat="47.26739" lon="-2.33323">
        <ele>2</ele>
        <time>2019-07-14T09:45:42.000Z</time>
      </trkpt>
      <trkpt lat="47.26732" lon="-2.33298">
        <ele>2</ele>
        <time>2019-07-14T09:45:45.000Z</time>
      </trkpt>
      <trkpt lat="47.26727" lon="-2.33265">
        <ele>2</ele>
        <time>2019-07-14T09:45:49.000Z</time>
      </trkpt>
      <trkpt lat="47.26728" lon="-2.33257">
        <ele>2</ele>
        <time>2019-07-14T09:45:50.000Z</time>
      </trkpt>
      <trkpt lat="47.26734" lon="-2.33231">
        <ele>2</ele>
        <time>2019-07-14T09:45:53.000Z</time>
      </trkpt>
      <trkpt lat="47.26737" lon="-2.33222">
        <ele>2</ele>
        <time>2019-07-14T09:45:54.000Z</time>
      </trkpt>
      <trkpt lat="47.26757" lon="-2.3316">
        <ele>2</ele>
        <time>2019-07-14T09:46:01.000Z</time>
      </trkpt>
      <trkpt lat="47.26764" lon="-2.33133">
        <ele>2</ele>
        <time>2019-07-14T09:46:04.000Z</time>
      </trkpt>
      <trkpt lat="47.26763" lon="-2.33116">
        <ele>2</ele>
        <time>2019-07-14T09:46:06.000Z</time>
      </trkpt>
      <trkpt lat="47.26751" lon="-2.33091">
        <ele>2</ele>
        <time>2019-07-14T09:46:10.000Z</time>
      </trkpt>
      <trkpt lat="47.2674" lon="-2.33097">
        <ele>2</ele>
        <time>2019-07-14T09:46:13.000Z</time>
      </trkpt>
      <trkpt lat="47.26736" lon="-2.33102">
        <ele>2</ele>
        <time>2019-07-14T09:46:14.000Z</time>
      </trkpt>
      <trkpt lat="47.26717" lon="-2.33125">
        <ele>2</ele>
        <time>2019-07-14T09:46:18.000Z</time>
      </trkpt>
      <trkpt lat="47.26673" lon="-2.33168">
        <ele>2</ele>
        <time>2019-07-14T09:46:26.000Z</time>
      </trkpt>
      <trkpt lat="47.26629" lon="-2.3321">
        <ele>2</ele>
        <time>2019-07-14T09:46:34.000Z</time>
      </trkpt>
      <trkpt lat="47.26596" lon="-2.33241">
        <ele>2</ele>
        <time>2019-07-14T09:46:40.000Z</time>
      </trkpt>
      <trkpt lat="47.26556" lon="-2.33282">
        <ele>2</ele>
        <time>2019-07-14T09:46:48.000Z</time>
      </trkpt>
      <trkpt lat="47.26537" lon="-2.33299">
        <ele>2</ele>
        <time>2019-07-14T09:46:53.000Z</time>
      </trkpt>
      <trkpt lat="47.26529" lon="-2.33292">
        <ele>2</ele>
        <time>2019-07-14T09:46:57.000Z</time>
      </trkpt>
      <trkpt lat="47.26524" lon="-2.33284">
        <ele>2</ele>
        <time>2019-07-14T09:47:00.000Z</time>
      </trkpt>
      <trkpt lat="47.26521" lon="-2.33286">
        <ele>2</ele>
        <time>2019-07-14T09:47:01.000Z</time>
      </trkpt>
      <trkpt lat="47.26505" lon="-2.33286">
        <ele>2</ele>
        <time>2019-07-14T09:47:06.000Z</time>
      </trkpt>
      <trkpt lat="47.26497" lon="-2.33281">
        <ele>2</ele>
        <time>2019-07-14T09:47:09.000Z</time>
      </trkpt>
      <trkpt lat="47.26488" lon="-2.33282">
        <ele>2</ele>
        <time>2019-07-14T09:47:12.000Z</time>
      </trkpt>
      <trkpt lat="47.26482" lon="-2.33287">
        <ele>2</ele>
        <time>2019-07-14T09:47:14.000Z</time>
      </trkpt>
      <trkpt lat="47.26473" lon="-2.33305">
        <ele>2</ele>
        <time>2019-07-14T09:47:18.000Z</time>
      </trkpt>
      <trkpt lat="47.2647" lon="-2.33309">
        <ele>2</ele>
        <time>2019-07-14T09:47:19.000Z</time>
      </trkpt>
      <trkpt lat="47.26457" lon="-2.33319">
        <ele>2</ele>
        <time>2019-07-14T09:47:22.000Z</time>
      </trkpt>
      <trkpt lat="47.26428" lon="-2.33342">
        <ele>2</ele>
        <time>2019-07-14T09:47:28.000Z</time>
      </trkpt>
      <trkpt lat="47.26384" lon="-2.3337">
        <ele>2</ele>
        <time>2019-07-14T09:47:36.000Z</time>
      </trkpt>
      <trkpt lat="47.26338" lon="-2.33394">
        <ele>2</ele>
        <time>2019-07-14T09:47:43.000Z</time>
      </trkpt>
      <trkpt lat="47.26319" lon="-2.33407">
        <ele>2</ele>
        <time>2019-07-14T09:47:46.000Z</time>
      </trkpt>
      <trkpt lat="47.26309" lon="-2.33417">
        <ele>2</ele>
        <time>2019-07-14T09:47:48.000Z</time>
      </trkpt>
      <trkpt lat="47.26289" lon="-2.33423">
        <ele>2</ele>
        <time>2019-07-14T09:47:51.000Z</time>
      </trkpt>
      <trkpt lat="47.2625" lon="-2.33427">
        <ele>2</ele>
        <time>2019-07-14T09:47:57.000Z</time>
      </trkpt>
      <trkpt lat="47.26237" lon="-2.33428">
        <ele>2</ele>
        <time>2019-07-14T09:47:59.000Z</time>
      </trkpt>
      <trkpt lat="47.2623" lon="-2.33431">
        <ele>2</ele>
        <time>2019-07-14T09:48:00.000Z</time>
      </trkpt>
      <trkpt lat="47.26183" lon="-2.33441">
        <ele>2</ele>
        <time>2019-07-14T09:48:07.000Z</time>
      </trkpt>
      <trkpt lat="47.26177" lon="-2.33443">
        <ele>2</ele>
        <time>2019-07-14T09:48:08.000Z</time>
      </trkpt>
      <trkpt lat="47.26159" lon="-2.3344">
        <ele>2</ele>
        <time>2019-07-14T09:48:11.000Z</time>
      </trkpt>
      <trkpt lat="47.26153" lon="-2.33439">
        <ele>2</ele>
        <time>2019-07-14T09:48:12.000Z</time>
      </trkpt>
      <trkpt lat="47.26148" lon="-2.33435">
        <ele>2</ele>
        <time>2019-07-14T09:48:13.000Z</time>
      </trkpt>
      <trkpt lat="47.2614" lon="-2.33434">
        <ele>2</ele>
        <time>2019-07-14T09:48:15.000Z</time>
      </trkpt>
      <trkpt lat="47.26138" lon="-2.33438">
        <ele>2</ele>
        <time>2019-07-14T09:48:18.000Z</time>
      </trkpt>
      <trkpt lat="47.26134" lon="-2.33448">
        <ele>2</ele>
        <time>2019-07-14T09:48:22.000Z</time>
      </trkpt>
      <trkpt lat="47.26128" lon="-2.33455">
        <ele>2</ele>
        <time>2019-07-14T09:48:25.000Z</time>
      </trkpt>
      <trkpt lat="47.26124" lon="-2.33456">
        <ele>2</ele>
        <time>2019-07-14T09:48:26.000Z</time>
      </trkpt>
      <trkpt lat="47.26105" lon="-2.33467">
        <ele>2</ele>
        <time>2019-07-14T09:48:31.000Z</time>
      </trkpt>
      <trkpt lat="47.261" lon="-2.3347">
        <ele>2</ele>
        <time>2019-07-14T09:48:32.000Z</time>
      </trkpt>
      <trkpt lat="47.26083" lon="-2.33473">
        <ele>2</ele>
        <time>2019-07-14T09:48:35.000Z</time>
      </trkpt>
      <trkpt lat="47.26066" lon="-2.3346">
        <ele>2</ele>
        <time>2019-07-14T09:48:38.000Z</time>
      </trkpt>
      <trkpt lat="47.26061" lon="-2.33455">
        <ele>2</ele>
        <time>2019-07-14T09:48:39.000Z</time>
      </trkpt>
      <trkpt lat="47.26055" lon="-2.33453">
        <ele>2</ele>
        <time>2019-07-14T09:48:40.000Z</time>
      </trkpt>
      <trkpt lat="47.26049" lon="-2.33456">
        <ele>2</ele>
        <time>2019-07-14T09:48:41.000Z</time>
      </trkpt>
      <trkpt lat="47.26041" lon="-2.33471">
        <ele>2</ele>
        <time>2019-07-14T09:48:43.000Z</time>
      </trkpt>
      <trkpt lat="47.26023" lon="-2.33488">
        <ele>2</ele>
        <time>2019-07-14T09:48:46.000Z</time>
      </trkpt>
      <trkpt lat="47.26004" lon="-2.33494">
        <ele>2</ele>
        <time>2019-07-14T09:48:49.000Z</time>
      </trkpt>
      <trkpt lat="47.2599" lon="-2.33498">
        <ele>2</ele>
        <time>2019-07-14T09:48:51.000Z</time>
      </trkpt>
      <trkpt lat="47.25978" lon="-2.33506">
        <ele>2</ele>
        <time>2019-07-14T09:48:53.000Z</time>
      </trkpt>
      <trkpt lat="47.25972" lon="-2.33508">
        <ele>2</ele>
        <time>2019-07-14T09:48:54.000Z</time>
      </trkpt>
      <trkpt lat="47.25966" lon="-2.3351">
        <ele>2</ele>
        <time>2019-07-14T09:48:55.000Z</time>
      </trkpt>
      <trkpt lat="47.25943" lon="-2.33523">
        <ele>2</ele>
        <time>2019-07-14T09:48:59.000Z</time>
      </trkpt>
      <trkpt lat="47.25904" lon="-2.33556">
        <ele>2</ele>
        <time>2019-07-14T09:49:06.000Z</time>
      </trkpt>
      <trkpt lat="47.25876" lon="-2.33577">
        <ele>2</ele>
        <time>2019-07-14T09:49:11.000Z</time>
      </trkpt>
      <trkpt lat="47.2587" lon="-2.33579">
        <ele>2</ele>
        <time>2019-07-14T09:49:12.000Z</time>
      </trkpt>
      <trkpt lat="47.2585" lon="-2.33581">
        <ele>2</ele>
        <time>2019-07-14T09:49:15.000Z</time>
      </trkpt>
      <trkpt lat="47.25836" lon="-2.33582">
        <ele>2.4000000953674</ele>
        <time>2019-07-14T09:49:17.000Z</time>
      </trkpt>
      <trkpt lat="47.25829" lon="-2.33582">
        <ele>2.7999999523163</ele>
        <time>2019-07-14T09:49:18.000Z</time>
      </trkpt>
      <trkpt lat="47.25822" lon="-2.33582">
        <ele>3.2000000476837</ele>
        <time>2019-07-14T09:49:19.000Z</time>
      </trkpt>
      <trkpt lat="47.25815" lon="-2.33583">
        <ele>3.5999999046326</ele>
        <time>2019-07-14T09:49:20.000Z</time>
      </trkpt>
      <trkpt lat="47.25808" lon="-2.33583">
        <ele>4</ele>
        <time>2019-07-14T09:49:21.000Z</time>
      </trkpt>
      <trkpt lat="47.25781" lon="-2.33584">
        <ele>4</ele>
        <time>2019-07-14T09:49:25.000Z</time>
      </trkpt>
      <trkpt lat="47.25746" lon="-2.33588">
        <ele>4</ele>
        <time>2019-07-14T09:49:30.000Z</time>
      </trkpt>
      <trkpt lat="47.2574" lon="-2.33589">
        <ele>4</ele>
        <time>2019-07-14T09:49:31.000Z</time>
      </trkpt>
      <trkpt lat="47.2572" lon="-2.33586">
        <ele>4</ele>
        <time>2019-07-14T09:49:34.000Z</time>
      </trkpt>
      <trkpt lat="47.25713" lon="-2.33586">
        <ele>4</ele>
        <time>2019-07-14T09:49:35.000Z</time>
      </trkpt>
      <trkpt lat="47.25673" lon="-2.33586">
        <ele>4</ele>
        <time>2019-07-14T09:49:41.000Z</time>
      </trkpt>
      <trkpt lat="47.25646" lon="-2.33575">
        <ele>4</ele>
        <time>2019-07-14T09:49:45.000Z</time>
      </trkpt>
      <trkpt lat="47.25614" lon="-2.33555">
        <ele>4.5999999046326</ele>
        <time>2019-07-14T09:49:50.000Z</time>
      </trkpt>
      <trkpt lat="47.25609" lon="-2.3355">
        <ele>5</ele>
        <time>2019-07-14T09:49:51.000Z</time>
      </trkpt>
      <trkpt lat="47.25603" lon="-2.33545">
        <ele>5.4000000953674</ele>
        <time>2019-07-14T09:49:52.000Z</time>
      </trkpt>
      <trkpt lat="47.25597" lon="-2.33538">
        <ele>5.8000001907349</ele>
        <time>2019-07-14T09:49:53.000Z</time>
      </trkpt>
      <trkpt lat="47.25591" lon="-2.33533">
        <ele>6.4000000953674</ele>
        <time>2019-07-14T09:49:54.000Z</time>
      </trkpt>
      <trkpt lat="47.2558" lon="-2.33519">
        <ele>6.4000000953674</ele>
        <time>2019-07-14T09:49:56.000Z</time>
      </trkpt>
      <trkpt lat="47.25552" lon="-2.33472">
        <ele>6.4000000953674</ele>
        <time>2019-07-14T09:50:02.000Z</time>
      </trkpt>
      <trkpt lat="47.25532" lon="-2.33416">
        <ele>6.4000000953674</ele>
        <time>2019-07-14T09:50:08.000Z</time>
      </trkpt>
      <trkpt lat="47.25522" lon="-2.33354">
        <ele>6.4000000953674</ele>
        <time>2019-07-14T09:50:14.000Z</time>
      </trkpt>
      <trkpt lat="47.25512" lon="-2.33271">
        <ele>6.4000000953674</ele>
        <time>2019-07-14T09:50:22.000Z</time>
      </trkpt>
      <trkpt lat="47.25503" lon="-2.33196">
        <ele>6.4000000953674</ele>
        <time>2019-07-14T09:50:29.000Z</time>
      </trkpt>
      <trkpt lat="47.25493" lon="-2.33114">
        <ele>6.4000000953674</ele>
        <time>2019-07-14T09:50:37.000Z</time>
      </trkpt>
      <trkpt lat="47.25488" lon="-2.33097">
        <ele>6.4000000953674</ele>
        <time>2019-07-14T09:50:39.000Z</time>
      </trkpt>
      <trkpt lat="47.25483" lon="-2.33094">
        <ele>6.4000000953674</ele>
        <time>2019-07-14T09:50:40.000Z</time>
      </trkpt>
      <trkpt lat="47.25471" lon="-2.33098">
        <ele>6.4000000953674</ele>
        <time>2019-07-14T09:50:42.000Z</time>
      </trkpt>
      <trkpt lat="47.25461" lon="-2.33104">
        <ele>6</ele>
        <time>2019-07-14T09:50:44.000Z</time>
      </trkpt>
      <trkpt lat="47.25455" lon="-2.33106">
        <ele>5.5999999046326</ele>
        <time>2019-07-14T09:50:45.000Z</time>
      </trkpt>
      <trkpt lat="47.2545" lon="-2.33109">
        <ele>5.1999998092651</ele>
        <time>2019-07-14T09:50:46.000Z</time>
      </trkpt>
      <trkpt lat="47.25444" lon="-2.33112">
        <ele>4.5999999046326</ele>
        <time>2019-07-14T09:50:47.000Z</time>
      </trkpt>
      <trkpt lat="47.25439" lon="-2.33116">
        <ele>4.1999998092651</ele>
        <time>2019-07-14T09:50:48.000Z</time>
      </trkpt>
      <trkpt lat="47.25411" lon="-2.33125">
        <ele>4.1999998092651</ele>
        <time>2019-07-14T09:50:53.000Z</time>
      </trkpt>
      <trkpt lat="47.2539" lon="-2.3314">
        <ele>4.1999998092651</ele>
        <time>2019-07-14T09:50:58.000Z</time>
      </trkpt>
      <trkpt lat="47.25381" lon="-2.33144">
        <ele>4.1999998092651</ele>
        <time>2019-07-14T09:51:00.000Z</time>
      </trkpt>
      <trkpt lat="47.25378" lon="-2.3314">
        <ele>4.1999998092651</ele>
        <time>2019-07-14T09:51:01.000Z</time>
      </trkpt>
      <trkpt lat="47.25376" lon="-2.33127">
        <ele>4.1999998092651</ele>
        <time>2019-07-14T09:51:03.000Z</time>
      </trkpt>
      <trkpt lat="47.25369" lon="-2.33111">
        <ele>4.1999998092651</ele>
        <time>2019-07-14T09:51:08.000Z</time>
      </trkpt>
      <trkpt lat="47.25369" lon="-2.33111">
        <ele>4.1999998092651</ele>
        <time>2019-07-14T09:51:11.000Z</time>
      </trkpt>
      <trkpt lat="47.25368" lon="-2.33105">
        <ele>4.1999998092651</ele>
        <time>2019-07-14T09:56:48.000Z</time>
      </trkpt>
      <trkpt lat="47.25367" lon="-2.33098">
        <ele>4.1999998092651</ele>
        <time>2019-07-14T09:56:51.000Z</time>
      </trkpt>
      <trkpt lat="47.2536" lon="-2.33076">
        <ele>4.1999998092651</ele>
        <time>2019-07-14T09:56:56.000Z</time>
      </trkpt>
      <trkpt lat="47.2535" lon="-2.33052">
        <ele>4.1999998092651</ele>
        <time>2019-07-14T09:57:01.000Z</time>
      </trkpt>
      <trkpt lat="47.25348" lon="-2.33046">
        <ele>4.1999998092651</ele>
        <time>2019-07-14T09:57:02.000Z</time>
      </trkpt>
      <trkpt lat="47.25345" lon="-2.33035">
        <ele>4.1999998092651</ele>
        <time>2019-07-14T09:57:04.000Z</time>
      </trkpt>
      <trkpt lat="47.25336" lon="-2.33016">
        <ele>4.1999998092651</ele>
        <time>2019-07-14T09:57:08.000Z</time>
      </trkpt>
      <trkpt lat="47.25323" lon="-2.32982">
        <ele>4.1999998092651</ele>
        <time>2019-07-14T09:57:14.000Z</time>
      </trkpt>
      <trkpt lat="47.25319" lon="-2.32972">
        <ele>4.5999999046326</ele>
        <time>2019-07-14T09:57:16.000Z</time>
      </trkpt>
      <trkpt lat="47.25316" lon="-2.32966">
        <ele>5</ele>
        <time>2019-07-14T09:57:17.000Z</time>
      </trkpt>
      <trkpt lat="47.25314" lon="-2.32961">
        <ele>5.4000000953674</ele>
        <time>2019-07-14T09:57:18.000Z</time>
      </trkpt>
      <trkpt lat="47.25312" lon="-2.32956">
        <ele>5.8000001907349</ele>
        <time>2019-07-14T09:57:19.000Z</time>
      </trkpt>
      <trkpt lat="47.2531" lon="-2.3295">
        <ele>6.1999998092651</ele>
        <time>2019-07-14T09:57:20.000Z</time>
      </trkpt>
      <trkpt lat="47.25308" lon="-2.32943">
        <ele>6.1999998092651</ele>
        <time>2019-07-14T09:57:21.000Z</time>
      </trkpt>
      <trkpt lat="47.25311" lon="-2.3292">
        <ele>6.1999998092651</ele>
        <time>2019-07-14T09:57:24.000Z</time>
      </trkpt>
      <trkpt lat="47.25329" lon="-2.329">
        <ele>6.1999998092651</ele>
        <time>2019-07-14T09:57:28.000Z</time>
      </trkpt>
      <trkpt lat="47.25356" lon="-2.32874">
        <ele>6.1999998092651</ele>
        <time>2019-07-14T09:57:34.000Z</time>
      </trkpt>
      <trkpt lat="47.25387" lon="-2.32841">
        <ele>6.1999998092651</ele>
        <time>2019-07-14T09:57:41.000Z</time>
      </trkpt>
      <trkpt lat="47.25415" lon="-2.32807">
        <ele>6.1999998092651</ele>
        <time>2019-07-14T09:57:48.000Z</time>
      </trkpt>
      <trkpt lat="47.25421" lon="-2.32797">
        <ele>6.1999998092651</ele>
        <time>2019-07-14T09:57:50.000Z</time>
      </trkpt>
      <trkpt lat="47.25425" lon="-2.32788">
        <ele>6.1999998092651</ele>
        <time>2019-07-14T09:57:52.000Z</time>
      </trkpt>
      <trkpt lat="47.25431" lon="-2.32771">
        <ele>6.1999998092651</ele>
        <time>2019-07-14T09:57:57.000Z</time>
      </trkpt>
      <trkpt lat="47.25445" lon="-2.32754">
        <ele>6.1999998092651</ele>
        <time>2019-07-14T09:58:01.000Z</time>
      </trkpt>
      <trkpt lat="47.25449" lon="-2.32748">
        <ele>6.1999998092651</ele>
        <time>2019-07-14T09:58:02.000Z</time>
      </trkpt>
      <trkpt lat="47.25452" lon="-2.32743">
        <ele>6.8000001907349</ele>
        <time>2019-07-14T09:58:03.000Z</time>
      </trkpt>
      <trkpt lat="47.25456" lon="-2.32739">
        <ele>7.1999998092651</ele>
        <time>2019-07-14T09:58:04.000Z</time>
      </trkpt>
      <trkpt lat="47.2546" lon="-2.32734">
        <ele>7.5999999046326</ele>
        <time>2019-07-14T09:58:05.000Z</time>
      </trkpt>
      <trkpt lat="47.25464" lon="-2.32729">
        <ele>8</ele>
        <time>2019-07-14T09:58:06.000Z</time>
      </trkpt>
      <trkpt lat="47.25467" lon="-2.32725">
        <ele>8.3999996185303</ele>
        <time>2019-07-14T09:58:07.000Z</time>
      </trkpt>
      <trkpt lat="47.25482" lon="-2.32705">
        <ele>8.3999996185303</ele>
        <time>2019-07-14T09:58:11.000Z</time>
      </trkpt>
      <trkpt lat="47.25487" lon="-2.32692">
        <ele>8.3999996185303</ele>
        <time>2019-07-14T09:58:13.000Z</time>
      </trkpt>
      <trkpt lat="47.25489" lon="-2.32678">
        <ele>8.3999996185303</ele>
        <time>2019-07-14T09:58:15.000Z</time>
      </trkpt>
      <trkpt lat="47.25488" lon="-2.32662">
        <ele>8.3999996185303</ele>
        <time>2019-07-14T09:58:17.000Z</time>
      </trkpt>
      <trkpt lat="47.25485" lon="-2.3264">
        <ele>8.3999996185303</ele>
        <time>2019-07-14T09:58:20.000Z</time>
      </trkpt>
      <trkpt lat="47.25481" lon="-2.32619">
        <ele>8.3999996185303</ele>
        <time>2019-07-14T09:58:23.000Z</time>
      </trkpt>
      <trkpt lat="47.25475" lon="-2.32581">
        <ele>8.3999996185303</ele>
        <time>2019-07-14T09:58:29.000Z</time>
      </trkpt>
      <trkpt lat="47.25481" lon="-2.32565">
        <ele>8.3999996185303</ele>
        <time>2019-07-14T09:58:32.000Z</time>
      </trkpt>
      <trkpt lat="47.25484" lon="-2.3256">
        <ele>8.3999996185303</ele>
        <time>2019-07-14T09:58:33.000Z</time>
      </trkpt>
      <trkpt lat="47.25506" lon="-2.32538">
        <ele>8.3999996185303</ele>
        <time>2019-07-14T09:58:38.000Z</time>
      </trkpt>
      <trkpt lat="47.25544" lon="-2.32502">
        <ele>8.3999996185303</ele>
        <time>2019-07-14T09:58:46.000Z</time>
      </trkpt>
      <trkpt lat="47.25582" lon="-2.32466">
        <ele>8.3999996185303</ele>
        <time>2019-07-14T09:58:53.000Z</time>
      </trkpt>
      <trkpt lat="47.25598" lon="-2.32449">
        <ele>8</ele>
        <time>2019-07-14T09:58:56.000Z</time>
      </trkpt>
      <trkpt lat="47.25604" lon="-2.32442">
        <ele>7.5999999046326</ele>
        <time>2019-07-14T09:58:57.000Z</time>
      </trkpt>
      <trkpt lat="47.25609" lon="-2.32436">
        <ele>7.1999998092651</ele>
        <time>2019-07-14T09:58:58.000Z</time>
      </trkpt>
      <trkpt lat="47.25614" lon="-2.32431">
        <ele>6.8000001907349</ele>
        <time>2019-07-14T09:58:59.000Z</time>
      </trkpt>
      <trkpt lat="47.2562" lon="-2.32425">
        <ele>6.1999998092651</ele>
        <time>2019-07-14T09:59:00.000Z</time>
      </trkpt>
      <trkpt lat="47.25625" lon="-2.3242">
        <ele>6.1999998092651</ele>
        <time>2019-07-14T09:59:01.000Z</time>
      </trkpt>
      <trkpt lat="47.25641" lon="-2.32406">
        <ele>6.1999998092651</ele>
        <time>2019-07-14T09:59:04.000Z</time>
      </trkpt>
      <trkpt lat="47.25646" lon="-2.32404">
        <ele>5.8000001907349</ele>
        <time>2019-07-14T09:59:05.000Z</time>
      </trkpt>
      <trkpt lat="47.2565" lon="-2.32403">
        <ele>5</ele>
        <time>2019-07-14T09:59:06.000Z</time>
      </trkpt>
      <trkpt lat="47.25653" lon="-2.32403">
        <ele>4.4000000953674</ele>
        <time>2019-07-14T09:59:07.000Z</time>
      </trkpt>
      <trkpt lat="47.25656" lon="-2.32402">
        <ele>3.5999999046326</ele>
        <time>2019-07-14T09:59:08.000Z</time>
      </trkpt>
      <trkpt lat="47.2566" lon="-2.32402">
        <ele>3</ele>
        <time>2019-07-14T09:59:09.000Z</time>
      </trkpt>
      <trkpt lat="47.25663" lon="-2.32403">
        <ele>2.4000000953674</ele>
        <time>2019-07-14T09:59:10.000Z</time>
      </trkpt>
      <trkpt lat="47.25667" lon="-2.32407">
        <ele>1.6000000238419</ele>
        <time>2019-07-14T09:59:11.000Z</time>
      </trkpt>
      <trkpt lat="47.2567" lon="-2.32411">
        <ele>1.6000000238419</ele>
        <time>2019-07-14T09:59:12.000Z</time>
      </trkpt>
      <trkpt lat="47.25674" lon="-2.32415">
        <ele>1.6000000238419</ele>
        <time>2019-07-14T09:59:13.000Z</time>
      </trkpt>
      <trkpt lat="47.25684" lon="-2.32418">
        <ele>1.6000000238419</ele>
        <time>2019-07-14T09:59:15.000Z</time>
      </trkpt>
      <trkpt lat="47.25695" lon="-2.32419">
        <ele>1.6000000238419</ele>
        <time>2019-07-14T09:59:17.000Z</time>
      </trkpt>
      <trkpt lat="47.25716" lon="-2.32422">
        <ele>1.6000000238419</ele>
        <time>2019-07-14T09:59:21.000Z</time>
      </trkpt>
      <trkpt lat="47.25747" lon="-2.32423">
        <ele>1.6000000238419</ele>
        <time>2019-07-14T09:59:27.000Z</time>
      </trkpt>
      <trkpt lat="47.25756" lon="-2.32423">
        <ele>1.6000000238419</ele>
        <time>2019-07-14T09:59:29.000Z</time>
      </trkpt>
      <trkpt lat="47.25765" lon="-2.32419">
        <ele>1.6000000238419</ele>
        <time>2019-07-14T09:59:31.000Z</time>
      </trkpt>
      <trkpt lat="47.25769" lon="-2.32417">
        <ele>1.6000000238419</ele>
        <time>2019-07-14T09:59:32.000Z</time>
      </trkpt>
      <trkpt lat="47.25778" lon="-2.32416">
        <ele>1.6000000238419</ele>
        <time>2019-07-14T09:59:34.000Z</time>
      </trkpt>
      <trkpt lat="47.25782" lon="-2.32419">
        <ele>1.6000000238419</ele>
        <time>2019-07-14T09:59:35.000Z</time>
      </trkpt>
      <trkpt lat="47.25792" lon="-2.32435">
        <ele>1.6000000238419</ele>
        <time>2019-07-14T09:59:38.000Z</time>
      </trkpt>
      <trkpt lat="47.25795" lon="-2.32441">
        <ele>1.6000000238419</ele>
        <time>2019-07-14T09:59:39.000Z</time>
      </trkpt>
      <trkpt lat="47.25799" lon="-2.32446">
        <ele>1.6000000238419</ele>
        <time>2019-07-14T09:59:40.000Z</time>
      </trkpt>
      <trkpt lat="47.25809" lon="-2.32453">
        <ele>1.6000000238419</ele>
        <time>2019-07-14T09:59:42.000Z</time>
      </trkpt>
      <trkpt lat="47.25842" lon="-2.32472">
        <ele>1.6000000238419</ele>
        <time>2019-07-14T09:59:49.000Z</time>
      </trkpt>
      <trkpt lat="47.25861" lon="-2.32475">
        <ele>1.6000000238419</ele>
        <time>2019-07-14T09:59:53.000Z</time>
      </trkpt>
      <trkpt lat="47.25865" lon="-2.32474">
        <ele>1.6000000238419</ele>
        <time>2019-07-14T09:59:54.000Z</time>
      </trkpt>
      <trkpt lat="47.25884" lon="-2.32468">
        <ele>1.6000000238419</ele>
        <time>2019-07-14T09:59:58.000Z</time>
      </trkpt>
      <trkpt lat="47.25889" lon="-2.32464">
        <ele>1.6000000238419</ele>
        <time>2019-07-14T09:59:59.000Z</time>
      </trkpt>
      <trkpt lat="47.25918" lon="-2.32432">
        <ele>1.6000000238419</ele>
        <time>2019-07-14T10:00:06.000Z</time>
      </trkpt>
      <trkpt lat="47.25948" lon="-2.32393">
        <ele>1.6000000238419</ele>
        <time>2019-07-14T10:00:14.000Z</time>
      </trkpt>
      <trkpt lat="47.25978" lon="-2.32355">
        <ele>1.6000000238419</ele>
        <time>2019-07-14T10:00:22.000Z</time>
      </trkpt>
      <trkpt lat="47.25986" lon="-2.32345">
        <ele>1.6000000238419</ele>
        <time>2019-07-14T10:00:24.000Z</time>
      </trkpt>
      <trkpt lat="47.26001" lon="-2.32325">
        <ele>1.6000000238419</ele>
        <time>2019-07-14T10:00:28.000Z</time>
      </trkpt>
      <trkpt lat="47.26028" lon="-2.32292">
        <ele>1.6000000238419</ele>
        <time>2019-07-14T10:00:35.000Z</time>
      </trkpt>
      <trkpt lat="47.26036" lon="-2.32282">
        <ele>1.6000000238419</ele>
        <time>2019-07-14T10:00:37.000Z</time>
      </trkpt>
      <trkpt lat="47.26053" lon="-2.32264">
        <ele>1.6000000238419</ele>
        <time>2019-07-14T10:00:41.000Z</time>
      </trkpt>
      <trkpt lat="47.26076" lon="-2.32238">
        <ele>1.6000000238419</ele>
        <time>2019-07-14T10:00:47.000Z</time>
      </trkpt>
      <trkpt lat="47.26096" lon="-2.32207">
        <ele>1.6000000238419</ele>
        <time>2019-07-14T10:00:53.000Z</time>
      </trkpt>
      <trkpt lat="47.26099" lon="-2.32201">
        <ele>1.6000000238419</ele>
        <time>2019-07-14T10:00:54.000Z</time>
      </trkpt>
      <trkpt lat="47.26118" lon="-2.32157">
        <ele>1.6000000238419</ele>
        <time>2019-07-14T10:01:01.000Z</time>
      </trkpt>
      <trkpt lat="47.26134" lon="-2.32105">
        <ele>1.6000000238419</ele>
        <time>2019-07-14T10:01:09.000Z</time>
      </trkpt>
      <trkpt lat="47.26149" lon="-2.3206">
        <ele>1.6000000238419</ele>
        <time>2019-07-14T10:01:16.000Z</time>
      </trkpt>
      <trkpt lat="47.26154" lon="-2.32049">
        <ele>1.6000000238419</ele>
        <time>2019-07-14T10:01:18.000Z</time>
      </trkpt>
      <trkpt lat="47.2616" lon="-2.32038">
        <ele>1.6000000238419</ele>
        <time>2019-07-14T10:01:21.000Z</time>
      </trkpt>
      <trkpt lat="47.26162" lon="-2.32035">
        <ele>1.6000000238419</ele>
        <time>2019-07-14T10:01:22.000Z</time>
      </trkpt>
      <trkpt lat="47.26166" lon="-2.32031">
        <ele>1.2000000476837</ele>
        <time>2019-07-14T10:01:25.000Z</time>
      </trkpt>
      <trkpt lat="47.26168" lon="-2.32031">
        <ele>0.80000001192093</ele>
        <time>2019-07-14T10:01:26.000Z</time>
      </trkpt>
      <trkpt lat="47.26169" lon="-2.3203">
        <ele>0.40000000596046</ele>
        <time>2019-07-14T10:01:27.000Z</time>
      </trkpt>
      <trkpt lat="47.26171" lon="-2.3203">
        <ele>3</ele>
        <time>2019-07-14T10:01:28.000Z</time>
      </trkpt>
      <trkpt lat="47.26172" lon="-2.32031">
        <ele>-0.40000000596046</ele>
        <time>2019-07-14T10:01:29.000Z</time>
      </trkpt>
      <trkpt lat="47.26174" lon="-2.3203">
        <ele>-0.40000000596046</ele>
        <time>2019-07-14T10:01:30.000Z</time>
      </trkpt>
      <trkpt lat="47.26176" lon="-2.32027">
        <ele>-0.40000000596046</ele>
        <time>2019-07-14T10:01:32.000Z</time>
      </trkpt>
      <trkpt lat="47.26183" lon="-2.32025">
        <ele>-0.40000000596046</ele>
        <time>2019-07-14T10:01:35.000Z</time>
      </trkpt>
      <trkpt lat="47.26187" lon="-2.32026">
        <ele>-0.40000000596046</ele>
        <time>2019-07-14T10:01:37.000Z</time>
      </trkpt>
      <trkpt lat="47.26191" lon="-2.32027">
        <ele>-0.40000000596046</ele>
        <time>2019-07-14T10:01:39.000Z</time>
      </trkpt>
      <trkpt lat="47.26193" lon="-2.32025">
        <ele>-0.40000000596046</ele>
        <time>2019-07-14T10:01:41.000Z</time>
      </trkpt>
      <trkpt lat="47.26193" lon="-2.3202">
        <ele>-0.40000000596046</ele>
        <time>2019-07-14T10:01:43.000Z</time>
      </trkpt>
      <trkpt lat="47.26193" lon="-2.32014">
        <ele>-0.40000000596046</ele>
        <time>2019-07-14T10:01:45.000Z</time>
      </trkpt>
      <trkpt lat="47.26196" lon="-2.3201">
        <ele>-0.40000000596046</ele>
        <time>2019-07-14T10:01:47.000Z</time>
      </trkpt>
      <trkpt lat="47.26205" lon="-2.32002">
        <ele>-0.40000000596046</ele>
        <time>2019-07-14T10:01:53.000Z</time>
      </trkpt>
      <trkpt lat="47.26213" lon="-2.31993">
        <ele>-0.40000000596046</ele>
        <time>2019-07-14T10:01:56.000Z</time>
      </trkpt>
      <trkpt lat="47.26216" lon="-2.31992">
        <ele>-0.40000000596046</ele>
        <time>2019-07-14T10:01:57.000Z</time>
      </trkpt>
      <trkpt lat="47.26226" lon="-2.31981">
        <ele>-0.40000000596046</ele>
        <time>2019-07-14T10:02:00.000Z</time>
      </trkpt>
      <trkpt lat="47.26228" lon="-2.31977">
        <ele>-0.40000000596046</ele>
        <time>2019-07-14T10:02:01.000Z</time>
      </trkpt>
      <trkpt lat="47.26243" lon="-2.31952">
        <ele>-0.40000000596046</ele>
        <time>2019-07-14T10:02:07.000Z</time>
      </trkpt>
      <trkpt lat="47.26263" lon="-2.31922">
        <ele>-0.40000000596046</ele>
        <time>2019-07-14T10:02:13.000Z</time>
      </trkpt>
      <trkpt lat="47.26283" lon="-2.31901">
        <ele>-0.40000000596046</ele>
        <time>2019-07-14T10:02:18.000Z</time>
      </trkpt>
      <trkpt lat="47.26298" lon="-2.31886">
        <ele>-0.40000000596046</ele>
        <time>2019-07-14T10:02:23.000Z</time>
      </trkpt>
      <trkpt lat="47.26299" lon="-2.31882">
        <ele>-0.40000000596046</ele>
        <time>2019-07-14T10:02:24.000Z</time>
      </trkpt>
      <trkpt lat="47.26299" lon="-2.31874">
        <ele>-0.40000000596046</ele>
        <time>2019-07-14T10:02:26.000Z</time>
      </trkpt>
      <trkpt lat="47.263" lon="-2.31844">
        <ele>-0.40000000596046</ele>
        <time>2019-07-14T10:02:33.000Z</time>
      </trkpt>
      <trkpt lat="47.26302" lon="-2.31816">
        <ele>-0.40000000596046</ele>
        <time>2019-07-14T10:02:39.000Z</time>
      </trkpt>
      <trkpt lat="47.26302" lon="-2.3178">
        <ele>-0.40000000596046</ele>
        <time>2019-07-14T10:02:46.000Z</time>
      </trkpt>
      <trkpt lat="47.26298" lon="-2.31746">
        <ele>-0.40000000596046</ele>
        <time>2019-07-14T10:02:53.000Z</time>
      </trkpt>
      <trkpt lat="47.26301" lon="-2.31725">
        <ele>-0.40000000596046</ele>
        <time>2019-07-14T10:02:57.000Z</time>
      </trkpt>
      <trkpt lat="47.26303" lon="-2.31721">
        <ele>-0.40000000596046</ele>
        <time>2019-07-14T10:02:58.000Z</time>
      </trkpt>
      <trkpt lat="47.26309" lon="-2.31719">
        <ele>-0.40000000596046</ele>
        <time>2019-07-14T10:03:00.000Z</time>
      </trkpt>
      <trkpt lat="47.26313" lon="-2.31716">
        <ele>-0.40000000596046</ele>
        <time>2019-07-14T10:03:02.000Z</time>
      </trkpt>
      <trkpt lat="47.26318" lon="-2.31713">
        <ele>-0.40000000596046</ele>
        <time>2019-07-14T10:03:05.000Z</time>
      </trkpt>
      <trkpt lat="47.26328" lon="-2.31707">
        <ele>-0.40000000596046</ele>
        <time>2019-07-14T10:03:11.000Z</time>
      </trkpt>
      <trkpt lat="47.2633" lon="-2.31705">
        <ele>-0.40000000596046</ele>
        <time>2019-07-14T10:03:12.000Z</time>
      </trkpt>
      <trkpt lat="47.26336" lon="-2.3169">
        <ele>-0.40000000596046</ele>
        <time>2019-07-14T10:03:16.000Z</time>
      </trkpt>
      <trkpt lat="47.26338" lon="-2.31688">
        <ele>6.4</ele>
        <time>2019-07-14T10:03:17.000Z</time>
      </trkpt>
      <trkpt lat="47.2634" lon="-2.31687">
        <ele>0.40000000596046</ele>
        <time>2019-07-14T10:03:18.000Z</time>
      </trkpt>
      <trkpt lat="47.26343" lon="-2.31686">
        <ele>1</ele>
        <time>2019-07-14T10:03:19.000Z</time>
      </trkpt>
      <trkpt lat="47.26345" lon="-2.31685">
        <ele>1.3999999761581</ele>
        <time>2019-07-14T10:03:20.000Z</time>
      </trkpt>
      <trkpt lat="47.26348" lon="-2.31683">
        <ele>1.7999999523163</ele>
        <time>2019-07-14T10:03:21.000Z</time>
      </trkpt>
      <trkpt lat="47.26359" lon="-2.31677">
        <ele>1.7999999523163</ele>
        <time>2019-07-14T10:03:25.000Z</time>
      </trkpt>
      <trkpt lat="47.26367" lon="-2.31672">
        <ele>2.2000000476837</ele>
        <time>2019-07-14T10:03:28.000Z</time>
      </trkpt>
      <trkpt lat="47.2637" lon="-2.3167">
        <ele>2.5999999046326</ele>
        <time>2019-07-14T10:03:29.000Z</time>
      </trkpt>
      <trkpt lat="47.26373" lon="-2.31669">
        <ele>3</ele>
        <time>2019-07-14T10:03:30.000Z</time>
      </trkpt>
      <trkpt lat="47.26376" lon="-2.31668">
        <ele>3.4000000953674</ele>
        <time>2019-07-14T10:03:31.000Z</time>
      </trkpt>
      <trkpt lat="47.26379" lon="-2.31666">
        <ele>3.7999999523163</ele>
        <time>2019-07-14T10:03:32.000Z</time>
      </trkpt>
      <trkpt lat="47.2639" lon="-2.3166">
        <ele>3.7999999523163</ele>
        <time>2019-07-14T10:03:36.000Z</time>
      </trkpt>
      <trkpt lat="47.264" lon="-2.31654">
        <ele>3.7999999523163</ele>
        <time>2019-07-14T10:03:40.000Z</time>
      </trkpt>
      <trkpt lat="47.26408" lon="-2.31647">
        <ele>3.7999999523163</ele>
        <time>2019-07-14T10:03:43.000Z</time>
      </trkpt>
      <trkpt lat="47.26408" lon="-2.31643">
        <ele>3.7999999523163</ele>
        <time>2019-07-14T10:03:44.000Z</time>
      </trkpt>
      <trkpt lat="47.26409" lon="-2.31625">
        <ele>3.7999999523163</ele>
        <time>2019-07-14T10:03:48.000Z</time>
      </trkpt>
      <trkpt lat="47.2641" lon="-2.31621">
        <ele>3.7999999523163</ele>
        <time>2019-07-14T10:03:49.000Z</time>
      </trkpt>
      <trkpt lat="47.26411" lon="-2.31582">
        <ele>3.7999999523163</ele>
        <time>2019-07-14T10:03:57.000Z</time>
      </trkpt>
      <trkpt lat="47.26411" lon="-2.3156">
        <ele>3.7999999523163</ele>
        <time>2019-07-14T10:04:02.000Z</time>
      </trkpt>
      <trkpt lat="47.26411" lon="-2.31556">
        <ele>4.1999998092651</ele>
        <time>2019-07-14T10:04:03.000Z</time>
      </trkpt>
      <trkpt lat="47.26412" lon="-2.31554">
        <ele>4.5999999046326</ele>
        <time>2019-07-14T10:04:04.000Z</time>
      </trkpt>
      <trkpt lat="47.26414" lon="-2.31553">
        <ele>5</ele>
        <time>2019-07-14T10:04:05.000Z</time>
      </trkpt>
      <trkpt lat="47.26416" lon="-2.31553">
        <ele>5.4000000953674</ele>
        <time>2019-07-14T10:04:06.000Z</time>
      </trkpt>
      <trkpt lat="47.26417" lon="-2.31553">
        <ele>5.8000001907349</ele>
        <time>2019-07-14T10:04:07.000Z</time>
      </trkpt>
      <trkpt lat="47.26419" lon="-2.31554">
        <ele>5.8000001907349</ele>
        <time>2019-07-14T10:04:10.000Z</time>
      </trkpt>
    </trkseg>
  </trk>
</gpx>